AS393 / N402AS 7700 Squawk Report (25th of June, 2022)

Aircraft B739 Reg No. N402AS Age 9 years old
Model 737 Jet engines 2 First flight 29-09-12
Registered 23-10-12 Rollout N/A Delivered 23-10-12
Construction No. 41189 Line No. 4212 Series 990(ER)
ADSHEX A4B420 Airline name Alaska Airlines Owner N/A
Airfield based Seattle-Tacoma International~WA~N First tracked N/A

Flight history for N402AS

Route Flight No Date Playback
Seattle Tacoma Intl (SEA) - John F Kennedy Intl (JFK) AS400 2022-08-12 02:13:00
Seattle Tacoma Intl (SEA) - George Bush Intercontinental (IAH) - Seattle Tacoma Intl (SEA) AS698 2022-08-11 21:11:00
Seattle Tacoma Intl (SEA) - George Bush Intercontinental (IAH) - Seattle Tacoma Intl (SEA) AS698 2022-08-11 15:09:00
Juneau Intl (JNU) - Seattle Tacoma Intl (SEA) AS176 2022-08-10 15:51:00
Seattle Tacoma Intl (SEA) - Juneau Intl (JNU) AS555 2022-08-10 01:49:00
Chicago Ohare Intl (ORD) - Seattle Tacoma Intl (SEA) AS1013 2022-08-09 23:32:00
Portland Intl (PDX) - Chicago Ohare Intl (ORD) AS686 2022-08-09 19:24:00
Orlando Intl (MCO) - Portland Intl (PDX) AS727 2022-08-09 14:24:00
Portland Intl (PDX) - Orlando Intl (MCO) AS782 2022-08-08 23:15:00
Phoenix Sky Harbor Intl (PHX) - Portland Intl (PDX) AS154 2022-08-08 16:51:00
Seattle Tacoma Intl (SEA) - Phoenix Sky Harbor Intl (PHX) AS930 2022-08-08 06:48:00
Detroit Metro Wayne Co (DTW) - Seattle Tacoma Intl (SEA) AS792 2022-08-08 04:06:00
Licenciado Gustavo Diaz Ordaz Intl (PVR) - Seattle Tacoma Intl (SEA) AS127 2022-08-07 16:45:00
Los Angeles Intl (LAX) - Licenciado Gustavo Diaz Ordaz Intl (PVR) AS220 2022-08-07 00:11:00
Portland Intl (PDX) - Los Angeles Intl (LAX) AS165 2022-08-06 19:01:00
San Diego Intl (SAN) - Portland Intl (PDX) AS603 2022-08-06 07:06:00
Orlando Intl (MCO) - San Diego Intl (SAN) AS463 2022-08-06 04:30:00
San Diego Intl (SAN) - Orlando Intl (MCO) AS760 2022-08-05 20:02:00
Portland Intl (PDX) - San Diego Intl (SAN) AS600 2022-08-05 06:25:00
Norman Y Mineta San Jose Intl (SJC) - Portland Intl (PDX) AS266 2022-08-05 02:52:00
Time Lat Lon Altitude Heading Speed Vertical Rate
2022-06-26 03:57:04 GMT 33.437580 -112.010178 0 163 5 0
2022-06-26 03:57:03 GMT 33.437599 -112.010193 0 163 5 0
2022-06-26 03:57:02 GMT 33.437630 -112.010201 0 163 5 0
2022-06-26 03:57:01 GMT 33.437611 -112.010193 0 164 6 0
2022-06-26 03:57:00 GMT 33.437618 -112.010201 0 165 6 0
2022-06-26 03:56:58 GMT 33.437672 -112.010223 0 166 7 0
2022-06-26 03:56:57 GMT 33.437672 -112.010193 0 171 10 0
2022-06-26 03:56:56 GMT 33.437698 -112.010269 0 178 10 0
2022-06-26 03:56:54 GMT 33.437809 -112.010246 0 183 9 0
2022-06-26 03:56:53 GMT 33.437851 -112.010269 0 190 9 0
2022-06-26 03:56:52 GMT 33.437901 -112.010277 0 182 9 0
2022-06-26 03:56:51 GMT 33.437988 -112.010239 0 180 8 0
2022-06-26 03:56:49 GMT 33.438042 -112.010239 0 188 6 0
2022-06-26 03:56:47 GMT 33.438091 -112.010277 0 192 9 0
2022-06-26 03:56:46 GMT 33.438148 -112.010231 0 180 11 0
2022-06-26 03:56:44 GMT 33.438202 -112.010246 0 182 12 0
2022-06-26 03:56:43 GMT 33.438259 -112.010231 0 172 9 0
2022-06-26 03:56:42 GMT 33.438320 -112.010208 0 171 9 0
2022-06-26 03:56:40 GMT 33.438389 -112.010246 0 181 9 0
2022-06-26 03:56:39 GMT 33.438431 -112.010262 0 175 8 0
2022-06-26 03:56:38 GMT 33.438469 -112.010231 0 165 8 0
2022-06-26 03:56:36 GMT 33.438560 -112.010246 0 168 7 0
2022-06-26 03:56:35 GMT 33.438599 -112.010277 0 183 6 0
2022-06-26 03:56:34 GMT 33.438629 -112.010292 0 179 6 0
2022-06-26 03:56:33 GMT 33.438679 -112.010269 0 157 8 0
2022-06-26 03:56:31 GMT 33.438702 -112.010262 0 153 9 0
2022-06-26 03:56:30 GMT 33.438751 -112.010292 0 148 7 0
2022-06-26 03:56:29 GMT 33.438801 -112.010307 0 147 6 0
2022-06-26 03:56:28 GMT 33.438839 -112.010338 0 143 8 0
2022-06-26 03:56:26 GMT 33.438862 -112.010353 0 139 10 0
2022-06-26 03:56:25 GMT 33.438881 -112.010361 0 129 11 0
2022-06-26 03:56:23 GMT 33.438961 -112.010437 0 115 11 0
2022-06-26 03:56:22 GMT 33.439018 -112.010498 0 103 9 0
2022-06-26 03:56:21 GMT 33.439072 -112.010536 0 99 8 0
2022-06-26 03:56:19 GMT 33.439072 -112.010628 0 100 9 0
2022-06-26 03:56:18 GMT 33.439060 -112.010658 0 95 11 0
2022-06-26 03:56:17 GMT 33.439098 -112.010719 0 89 9 0
2022-06-26 03:56:16 GMT 33.439091 -112.010780 0 89 9 0
2022-06-26 03:56:14 GMT 33.439110 -112.010841 0 83 14 0
2022-06-26 03:56:13 GMT 33.439091 -112.010918 0 89 12 0
2022-06-26 03:56:12 GMT 33.439079 -112.010986 0 89 11 0
2022-06-26 03:56:10 GMT 33.439079 -112.011124 0 86 8 0
2022-06-26 03:56:09 GMT 33.439079 -112.011162 0 89 10 0
2022-06-26 03:56:08 GMT 33.439060 -112.011200 0 97 11 0
2022-06-26 03:56:06 GMT 33.439072 -112.011307 0 92 8 0
2022-06-26 03:56:04 GMT 33.439072 -112.011383 0 94 11 0
2022-06-26 03:56:02 GMT 33.439098 -112.011520 0 80 9 0
2022-06-26 03:56:00 GMT 33.439072 -112.011597 0 90 11 0
2022-06-26 03:55:59 GMT 33.439079 -112.011703 0 84 6 0
2022-06-26 03:55:58 GMT 33.439079 -112.011742 0 85 4 0
2022-06-26 03:55:57 GMT 33.439072 -112.011742 0 86 7 0
2022-06-26 03:55:56 GMT 33.439079 -112.011780 0 82 8 0
2022-06-26 03:55:55 GMT 33.439072 -112.011864 0 82 11 0
2022-06-26 03:55:53 GMT 33.439049 -112.011932 0 86 10 0
2022-06-26 03:55:52 GMT 33.439049 -112.011993 0 84 9 0
2022-06-26 03:55:50 GMT 33.439041 -112.012062 0 88 6 0
2022-06-26 03:55:49 GMT 33.439011 -112.012108 0 105 12 0
2022-06-26 03:55:48 GMT 33.439030 -112.012169 0 104 11 0
2022-06-26 03:55:47 GMT 33.439049 -112.012230 0 86 11 0
2022-06-26 03:55:46 GMT 33.439072 -112.012337 0 83 10 0
2022-06-26 03:55:44 GMT 33.439049 -112.012413 0 88 8 0
2022-06-26 03:55:43 GMT 33.439018 -112.012428 0 99 10 0
2022-06-26 03:55:42 GMT 33.439072 -112.012543 0 83 11 0
2022-06-26 03:55:40 GMT 33.439049 -112.012611 0 92 10 0
2022-06-26 03:55:39 GMT 33.439041 -112.012657 0 92 10 0
2022-06-26 03:55:37 GMT 33.439041 -112.012779 0 98 12 0
2022-06-26 03:55:36 GMT 33.439079 -112.012848 0 81 11 0
2022-06-26 03:55:35 GMT 33.439091 -112.012932 0 74 10 0
2022-06-26 03:55:34 GMT 33.439072 -112.012962 0 83 12 0
2022-06-26 03:55:33 GMT 33.439011 -112.013069 0 105 12 0
2022-06-26 03:55:31 GMT 33.439030 -112.013153 0 106 10 0
2022-06-26 03:55:30 GMT 33.439041 -112.013184 0 101 12 0
2022-06-26 03:55:29 GMT 33.439091 -112.013329 0 83 13 0
2022-06-26 03:55:27 GMT 33.439049 -112.013428 0 95 10 0
2022-06-26 03:55:26 GMT 33.439060 -112.013458 0 92 12 0
2022-06-26 03:55:25 GMT 33.439079 -112.013527 0 82 12 0
2022-06-26 03:55:24 GMT 33.439098 -112.013603 0 77 11 0
2022-06-26 03:55:22 GMT 33.439049 -112.013702 0 96 12 0
2022-06-26 03:55:21 GMT 33.439049 -112.013763 0 95 12 0
2022-06-26 03:55:20 GMT 33.439098 -112.013832 0 77 12 0
2022-06-26 03:55:18 GMT 33.439091 -112.013969 0 75 11 0
2022-06-26 03:55:17 GMT 33.439030 -112.014023 0 94 13 0
2022-06-26 03:55:16 GMT 33.439030 -112.014099 0 97 11 0
2022-06-26 03:55:14 GMT 33.439030 -112.014221 0 96 10 0
2022-06-26 03:55:13 GMT 33.439091 -112.014259 0 80 11 0
2022-06-26 03:55:12 GMT 33.439049 -112.014397 0 89 11 0
2022-06-26 03:55:10 GMT 33.439072 -112.014442 0 84 12 0
2022-06-26 03:55:09 GMT 33.439060 -112.014519 0 87 10 0
2022-06-26 03:55:07 GMT 33.439041 -112.014633 0 93 10 0
2022-06-26 03:55:06 GMT 33.439030 -112.014679 0 96 10 0
2022-06-26 03:55:05 GMT 33.439041 -112.014740 0 97 10 0
2022-06-26 03:55:04 GMT 33.439060 -112.014862 0 91 7 0
2022-06-26 03:55:02 GMT 33.439060 -112.014893 0 88 9 0
2022-06-26 03:55:01 GMT 33.439072 -112.014908 0 86 12 0
2022-06-26 03:55:00 GMT 33.439049 -112.015007 0 93 8 0
2022-06-26 03:54:59 GMT 33.439049 -112.015099 0 79 8 0
2022-06-26 03:54:57 GMT 33.439079 -112.015137 0 68 10 0
2022-06-26 03:54:56 GMT 33.439091 -112.015221 0 64 7 0
2022-06-26 03:54:55 GMT 33.439072 -112.015244 0 74 7 0
2022-06-26 03:54:54 GMT 33.438999 -112.015289 0 102 11 0
2022-06-26 03:54:52 GMT 33.439011 -112.015350 0 106 10 0
2022-06-26 03:54:51 GMT 33.439018 -112.015404 0 104 10 0
2022-06-26 03:54:50 GMT 33.439072 -112.015511 0 85 8 0
2022-06-26 03:54:48 GMT 33.439072 -112.015549 0 85 8 0
2022-06-26 03:54:47 GMT 33.439072 -112.015633 0 86 9 0
2022-06-26 03:54:45 GMT 33.439060 -112.015663 0 82 10 0
2022-06-26 03:54:44 GMT 33.439079 -112.015701 0 78 12 0
2022-06-26 03:54:43 GMT 33.439072 -112.015808 0 80 8 0
2022-06-26 03:54:42 GMT 33.439011 -112.015877 0 99 10 0
2022-06-26 03:54:40 GMT 33.439018 -112.015923 0 95 11 0
2022-06-26 03:54:39 GMT 33.439041 -112.015999 0 93 9 0
2022-06-26 03:54:37 GMT 33.439018 -112.016113 0 98 9 0
2022-06-26 03:54:36 GMT 33.439049 -112.016129 0 93 11 0
2022-06-26 03:54:35 GMT 33.439072 -112.016197 0 88 10 0
2022-06-26 03:54:33 GMT 33.439049 -112.016296 0 94 7 0
2022-06-26 03:54:32 GMT 33.439079 -112.016327 0 85 8 0
2022-06-26 03:54:31 GMT 33.439060 -112.016434 0 93 10 0
2022-06-26 03:54:29 GMT 33.439041 -112.016487 0 89 8 0
2022-06-26 03:54:28 GMT 33.439091 -112.016571 0 70 5 0
2022-06-26 03:54:27 GMT 33.439041 -112.016609 0 97 8 0
2022-06-26 03:54:25 GMT 33.439018 -112.016647 0 99 10 0
2022-06-26 03:54:24 GMT 33.439041 -112.016724 0 92 7 0
2022-06-26 03:54:23 GMT 33.439060 -112.016792 0 86 6 0
2022-06-26 03:54:21 GMT 33.439049 -112.016823 0 88 7 0
2022-06-26 03:54:20 GMT 33.439060 -112.016830 0 84 10 0
2022-06-26 03:54:19 GMT 33.439041 -112.016960 0 95 6 0
2022-06-26 03:54:17 GMT 33.439060 -112.016983 0 88 7 0
2022-06-26 03:54:16 GMT 33.439049 -112.017021 0 95 6 0
2022-06-26 03:54:15 GMT 33.439060 -112.017090 0 91 7 0
2022-06-26 03:54:13 GMT 33.439079 -112.017151 0 91 4 0
2022-06-26 03:54:12 GMT 33.439091 -112.017174 0 81 8 0
2022-06-26 03:54:10 GMT 33.439049 -112.017242 0 96 5 0
2022-06-26 03:54:09 GMT 33.439041 -112.017273 0 102 5 0
2022-06-26 03:54:08 GMT 33.439030 -112.017342 0 111 3 0
2022-06-26 03:54:06 GMT 33.439041 -112.017326 0 107 7 0
2022-06-26 03:54:02 GMT 33.439049 -112.017487 0 131 6 0
2022-06-26 03:54:01 GMT 33.439072 -112.017517 0 126 6 0
2022-06-26 03:53:59 GMT 33.439098 -112.017548 0 129 6 0
2022-06-26 03:53:58 GMT 33.439098 -112.017593 0 153 7 0
2022-06-26 03:53:57 GMT 33.439121 -112.017609 0 162 8 0
2022-06-26 03:53:56 GMT 33.439140 -112.017662 0 156 6 0
2022-06-26 03:53:55 GMT 33.439178 -112.017708 0 165 9 0
2022-06-26 03:53:53 GMT 33.439232 -112.017708 0 167 8 0
2022-06-26 03:53:52 GMT 33.439259 -112.017723 0 172 8 0
2022-06-26 03:53:50 GMT 33.439301 -112.017761 0 188 10 0
2022-06-26 03:53:49 GMT 33.439350 -112.017754 0 191 9 0
2022-06-26 03:53:48 GMT 33.439411 -112.017738 0 194 7 0
2022-06-26 03:53:47 GMT 33.439461 -112.017754 0 205 6 0
2022-06-26 03:53:45 GMT 33.439510 -112.017708 0 216 9 0
2022-06-26 03:53:44 GMT 33.439541 -112.017708 0 223 10 0
2022-06-26 03:53:43 GMT 33.439590 -112.017670 0 225 9 0
2022-06-26 03:53:42 GMT 33.439621 -112.017578 0 217 9 0
2022-06-26 03:53:40 GMT 33.439659 -112.017578 0 228 9 0
2022-06-26 03:53:39 GMT 33.439690 -112.017563 0 232 13 0
2022-06-26 03:53:37 GMT 33.439751 -112.017433 0 215 12 0
2022-06-26 03:53:36 GMT 33.439789 -112.017387 0 215 12 0
2022-06-26 03:53:35 GMT 33.439819 -112.017349 0 217 12 0
2022-06-26 03:53:34 GMT 33.439892 -112.017311 0 220 10 0
2022-06-26 03:53:33 GMT 33.439960 -112.017250 0 225 11 0
2022-06-26 03:53:31 GMT 33.439999 -112.017220 0 224 12 0
2022-06-26 03:53:30 GMT 33.440029 -112.017159 0 213 11 0
2022-06-26 03:53:29 GMT 33.440090 -112.017067 0 204 12 0
2022-06-26 03:53:27 GMT 33.440128 -112.017036 0 205 13 0
2022-06-26 03:53:26 GMT 33.440208 -112.017036 0 216 12 0
2022-06-26 03:53:25 GMT 33.440300 -112.016953 0 217 12 0
2022-06-26 03:53:23 GMT 33.440331 -112.016907 0 214 13 0
2022-06-26 03:53:22 GMT 33.440392 -112.016876 0 218 13 0
2022-06-26 03:53:21 GMT 33.440392 -112.016869 0 221 18 0
2022-06-26 03:53:20 GMT 33.440552 -112.016769 0 241 16 0
2022-06-26 03:53:18 GMT 33.440590 -112.016693 0 242 15 0
2022-06-26 03:53:17 GMT 33.440620 -112.016609 0 237 15 0
2022-06-26 03:53:16 GMT 33.440681 -112.016441 0 236 15 0
2022-06-26 03:53:14 GMT 33.440708 -112.016380 0 241 16 0
2022-06-26 03:53:13 GMT 33.440781 -112.016327 0 255 18 0
2022-06-26 03:53:12 GMT 33.440849 -112.016098 0 266 17 0
2022-06-26 03:53:10 GMT 33.440849 -112.016006 0 265 19 0
2022-06-26 03:53:09 GMT 33.440842 -112.015930 0 263 23 0
2022-06-26 03:53:08 GMT 33.440861 -112.015800 0 264 23 0
2022-06-26 03:53:06 GMT 33.440868 -112.015533 0 268 26 0
2022-06-26 03:53:05 GMT 33.440868 -112.015388 0 266 28 0
2022-06-26 03:53:04 GMT 33.440899 -112.015221 1,150 270 30 0
2022-06-26 03:53:02 GMT 33.440922 -112.014862 1,150 273 35 0
2022-06-26 03:53:01 GMT 33.440891 -112.014664 1,150 270 37 0
2022-06-26 03:53:00 GMT 33.440880 -112.014450 1,150 269 41 0
2022-06-26 03:52:59 GMT 33.440849 -112.014221 1,150 266 44 0
2022-06-26 03:52:58 GMT 33.440891 -112.013748 1,150 268 53 0
2022-06-26 03:52:56 GMT 33.440891 -112.013474 1,150 269 58 0
2022-06-26 03:52:55 GMT 33.440899 -112.013138 1,150 269 62 0
2022-06-26 03:52:54 GMT 33.440922 -112.012802 1,150 271 65 0
2022-06-26 03:52:52 GMT 33.440929 -112.012093 1,150 271 76 0
2022-06-26 03:52:51 GMT 33.440910 -112.011658 1,150 270 80 0
2022-06-26 03:52:50 GMT 33.440891 -112.011269 1,150 270 88 0
2022-06-26 03:52:49 GMT 33.440891 -112.010811 1,150 270 95 0
2022-06-26 03:52:47 GMT 33.440861 -112.009789 1,150 268 106 0
2022-06-26 03:52:46 GMT 33.440861 -112.009232 1,150 268 110 0
2022-06-26 03:52:45 GMT 33.440910 -112.008652 1,150 270 114 0
2022-06-26 03:52:44 GMT 33.440899 -112.007370 1,150 270 119 0
2022-06-26 03:52:42 GMT 33.440891 -112.006737 1,150 270 123 0
2022-06-26 03:52:41 GMT 33.440910 -112.006073 1,150 270 127 0
2022-06-26 03:52:39 GMT 33.440861 -112.004677 1,150 269 134 32
2022-06-26 03:52:38 GMT 33.440868 -112.003960 1,150 269 138 32
2022-06-26 03:52:37 GMT 33.440910 -112.003250 1,150 270 143 32
2022-06-26 03:52:35 GMT 33.440891 -112.001694 1,150 270 149 32
2022-06-26 03:52:34 GMT 33.440861 -112.000923 1,150 269 153 32
2022-06-26 03:52:33 GMT 33.440868 -112.000061 1,150 270 152 32
2022-06-26 03:52:32 GMT 33.440891 -111.999229 1,150 271 155 32
2022-06-26 03:52:30 GMT 33.440849 -111.997543 1,150 270 158 -32
2022-06-26 03:52:29 GMT 33.440861 -111.996651 1,150 270 156 -32
2022-06-26 03:52:28 GMT 33.440849 -111.995811 1,175 270 157 -32
2022-06-26 03:52:26 GMT 33.440842 -111.994087 1,200 269 159 -896
2022-06-26 03:52:25 GMT 33.440861 -111.993217 1,200 270 159 -896
2022-06-26 03:52:24 GMT 33.440849 -111.992371 1,200 270 164 -896
2022-06-26 03:52:23 GMT 33.440842 -111.991402 1,225 269 154 -896
2022-06-26 03:52:21 GMT 33.440849 -111.989677 1,275 270 156 -896
2022-06-26 03:52:20 GMT 33.440842 -111.988869 1,275 270 158 -896
2022-06-26 03:52:19 GMT 33.440811 -111.988060 1,275 269 165 -896
2022-06-26 03:52:18 GMT 33.440880 -111.986198 1,325 270 161 -896
2022-06-26 03:52:16 GMT 33.440868 -111.985283 1,325 270 156 -896
2022-06-26 03:52:15 GMT 33.440819 -111.984489 1,375 268 161 -896
2022-06-26 03:52:14 GMT 33.440849 -111.982742 1,375 269 164 -896
2022-06-26 03:52:12 GMT 33.440929 -111.981812 1,400 271 163 -896
2022-06-26 03:52:11 GMT 33.440880 -111.980911 1,400 269 160 -896
2022-06-26 03:52:09 GMT 33.440880 -111.979103 1,500 268 155 -896
2022-06-26 03:52:08 GMT 33.440868 -111.978271 1,500 267 158 -896
2022-06-26 03:52:07 GMT 33.440979 -111.977402 1,500 271 160 -896
2022-06-26 03:52:06 GMT 33.440948 -111.976440 1,450 270 150 -896
2022-06-26 03:52:05 GMT 33.440948 -111.974808 1,500 272 156 -896
2022-06-26 03:52:03 GMT 33.440948 -111.973991 1,500 273 159 -896
2022-06-26 03:52:02 GMT 33.440849 -111.973083 1,500 270 155 -896
2022-06-26 03:52:00 GMT 33.440819 -111.971359 1,600 268 154 -896
2022-06-26 03:51:59 GMT 33.440861 -111.970512 1,600 268 154 -896
2022-06-26 03:51:58 GMT 33.440891 -111.969643 1,600 270 153 -896
2022-06-26 03:51:56 GMT 33.440868 -111.968002 1,600 268 157 -896
2022-06-26 03:51:55 GMT 33.440941 -111.967110 1,700 271 155 -896
2022-06-26 03:51:54 GMT 33.440941 -111.966248 1,700 271 156 -896
2022-06-26 03:51:53 GMT 33.440899 -111.965370 1,700 272 154 -896
2022-06-26 03:51:51 GMT 33.440800 -111.963707 1,700 269 157 -896
2022-06-26 03:51:50 GMT 33.440849 -111.962837 1,700 271 157 -896
2022-06-26 03:51:49 GMT 33.440891 -111.961967 1,800 273 157 -896
2022-06-26 03:51:47 GMT 33.440800 -111.960258 1,800 269 155 -896
2022-06-26 03:51:46 GMT 33.440830 -111.959412 1,800 271 156 -896
2022-06-26 03:51:44 GMT 33.440788 -111.957672 1,800 271 155 -896
2022-06-26 03:51:43 GMT 33.440701 -111.956802 2,000 269 153 -896
2022-06-26 03:51:42 GMT 33.440689 -111.955948 2,000 269 153 -896
2022-06-26 03:51:41 GMT 33.440689 -111.955101 2,000 269 153 -896
2022-06-26 03:51:40 GMT 33.440681 -111.953430 2,000 269 153 -896
2022-06-26 03:51:38 GMT 33.440689 -111.952560 2,000 269 152 -896
2022-06-26 03:51:37 GMT 33.440708 -111.951729 2,000 269 153 -896
2022-06-26 03:51:36 GMT 33.440708 -111.950882 2,000 269 152 -896
2022-06-26 03:51:35 GMT 33.440739 -111.949242 2,000 270 154 -896
2022-06-26 03:51:33 GMT 33.440739 -111.948402 2,000 270 155 -896
2022-06-26 03:51:32 GMT 33.440731 -111.947510 2,000 270 154 -896
2022-06-26 03:51:31 GMT 33.440720 -111.946648 2,000 270 153 -896
2022-06-26 03:51:29 GMT 33.440720 -111.944992 2,200 270 153 -896
2022-06-26 03:51:28 GMT 33.440689 -111.944153 2,200 269 153 -896
2022-06-26 03:51:27 GMT 33.440689 -111.943321 2,200 269 155 -896
2022-06-26 03:51:26 GMT 33.440689 -111.941658 2,200 269 156 -896
2022-06-26 03:51:24 GMT 33.440701 -111.940804 2,200 269 156 -896
2022-06-26 03:51:23 GMT 33.440708 -111.939919 2,200 269 156 -896
2022-06-26 03:51:22 GMT 33.440708 -111.939056 2,200 270 156 -1024
2022-06-26 03:51:20 GMT 33.440720 -111.937363 2,200 270 155 -1024
2022-06-26 03:51:19 GMT 33.440708 -111.935638 2,200 270 155 -1024
2022-06-26 03:51:17 GMT 33.440708 -111.934769 2,200 270 155 -1024
2022-06-26 03:51:16 GMT 33.440720 -111.933891 2,200 270 153 -1024
2022-06-26 03:51:15 GMT 33.440681 -111.932198 2,300 270 155 -1024
2022-06-26 03:51:13 GMT 33.440689 -111.931351 2,300 270 155 -1024
2022-06-26 03:51:12 GMT 33.440670 -111.930481 2,300 270 155 -1024
2022-06-26 03:51:11 GMT 33.440659 -111.929672 2,300 269 156 -1024
2022-06-26 03:51:10 GMT 33.440651 -111.927948 2,300 269 157 -1024
2022-06-26 03:51:08 GMT 33.440659 -111.927101 2,300 270 158 -1024
2022-06-26 03:51:07 GMT 33.440651 -111.926208 2,300 269 157 -1024
2022-06-26 03:51:06 GMT 33.440659 -111.925369 2,500 269 159 -1024
2022-06-26 03:51:05 GMT 33.440659 -111.923607 2,500 270 159 -1024
2022-06-26 03:51:03 GMT 33.440651 -111.922722 2,500 269 158 -1024
2022-06-26 03:51:02 GMT 33.440651 -111.921890 2,500 269 160 -1024
2022-06-26 03:51:01 GMT 33.440651 -111.920998 2,500 269 159 -1024
2022-06-26 03:51:00 GMT 33.440651 -111.919220 2,500 269 158 -1024
2022-06-26 03:50:58 GMT 33.440651 -111.918327 2,500 269 157 -1024
2022-06-26 03:50:57 GMT 33.440651 -111.917519 2,500 269 161 -1024
2022-06-26 03:50:56 GMT 33.440651 -111.916656 2,500 269 162 -1024
2022-06-26 03:50:54 GMT 33.440651 -111.914864 2,500 270 163 -1024
2022-06-26 03:50:53 GMT 33.440659 -111.913933 2,500 270 160 -1024
2022-06-26 03:50:52 GMT 33.440651 -111.913116 2,700 270 166 -1024
2022-06-26 03:50:50 GMT 33.440639 -111.911293 2,700 269 166 -1024
2022-06-26 03:50:49 GMT 33.440639 -111.910378 2,700 269 166 -1024
2022-06-26 03:50:48 GMT 33.440632 -111.909492 2,700 269 167 -1024
2022-06-26 03:50:47 GMT 33.440639 -111.908600 2,700 269 169 -1024
2022-06-26 03:50:45 GMT 33.440659 -111.906700 2,700 270 167 -1024
2022-06-26 03:50:44 GMT 33.440659 -111.905769 2,700 270 165 -1024
2022-06-26 03:50:43 GMT 33.440651 -111.904892 2,900 270 168 -1024
2022-06-26 03:50:42 GMT 33.440639 -111.903976 2,900 270 170 -1024
2022-06-26 03:50:40 GMT 33.440620 -111.902100 2,900 270 170 -1024
2022-06-26 03:50:39 GMT 33.440609 -111.901207 2,900 270 172 -1024
2022-06-26 03:50:38 GMT 33.440578 -111.899323 2,900 270 172 -1024
2022-06-26 03:50:36 GMT 33.440609 -111.898369 2,900 270 171 -1024
2022-06-26 03:50:35 GMT 33.440590 -111.897377 2,900 270 169 -1024
2022-06-26 03:50:34 GMT 33.440559 -111.895561 2,900 269 172 -1024
2022-06-26 03:50:32 GMT 33.440559 -111.894577 2,900 269 171 -1024
2022-06-26 03:50:31 GMT 33.440559 -111.893646 2,900 269 172 -1024
2022-06-26 03:50:30 GMT 33.440571 -111.891739 3,000 270 170 -1024
2022-06-26 03:50:28 GMT 33.440571 -111.890770 3,000 270 169 -1024
2022-06-26 03:50:27 GMT 33.440578 -111.889793 3,000 270 167 -1024
2022-06-26 03:50:26 GMT 33.440571 -111.888817 3,000 270 166 -1024
2022-06-26 03:50:25 GMT 33.440559 -111.887917 3,000 270 168 -1024
2022-06-26 03:50:23 GMT 33.440559 -111.886047 3,000 270 173 -1024
2022-06-26 03:50:22 GMT 33.440552 -111.885101 3,000 270 176 -1024
2022-06-26 03:50:21 GMT 33.440510 -111.884178 3,000 269 181 -1216
2022-06-26 03:50:20 GMT 33.440510 -111.882362 3,100 269 203 -1216
2022-06-26 03:50:18 GMT 33.440521 -111.881363 3,100 269 212 -1216
2022-06-26 03:50:17 GMT 33.440529 -111.880203 3,100 270 202 -1216
2022-06-26 03:50:13 GMT 33.440475 -111.876526 3,125 271 180 -1088
2022-06-26 03:50:07 GMT 33.440430 -111.871201 3,200 270 184 -1024
2022-06-26 03:50:03 GMT 33.440430 -111.865654 3,300 270 187 -896
2022-06-26 03:49:58 GMT 33.440460 -111.860321 3,375 271 191 -832
2022-06-26 03:49:54 GMT 33.440414 -111.856918 3,400 271 193 -960
2022-06-26 03:49:51 GMT 33.440380 -111.854607 3,450 271 194 -1088
2022-06-26 03:49:46 GMT 33.440323 -111.849167 3,575 270 202 -1088
2022-06-26 03:49:42 GMT 33.440323 -111.843185 3,625 271 205 -1088
2022-06-26 03:49:37 GMT 33.440289 -111.836952 3,725 271 209 -1088
2022-06-26 03:49:33 GMT 33.440289 -111.833473 3,800 270 213 -1216
2022-06-26 03:49:30 GMT 33.440277 -111.830437 3,850 270 215 -1152
2022-06-26 03:49:25 GMT 33.440369 -111.824615 3,975 266 217 -1216
2022-06-26 03:49:21 GMT 33.440826 -111.817856 4,050 260 221 -1344
2022-06-26 03:49:18 GMT 33.441422 -111.814232 4,125 250 226 -1280
2022-06-26 03:49:15 GMT 33.441971 -111.811981 4,150 250 226 -1280
2022-06-26 03:49:10 GMT 33.444214 -111.805664 4,250 242 231 -1088
2022-06-26 03:49:05 GMT 33.447189 -111.799294 4,375 240 233 -1216
2022-06-26 03:49:02 GMT 33.448654 -111.796432 4,425 240 234 -1024
2022-06-26 03:48:59 GMT 33.449844 -111.793961 4,450 240 235 -832
2022-06-26 03:48:54 GMT 33.452763 -111.788017 4,525 241 238 -896
2022-06-26 03:48:49 GMT 33.455883 -111.781631 4,675 241 241 -1600
2022-06-26 03:48:41 GMT 33.460167 -111.772324 4,900 241 244 -1600
2022-06-26 03:48:38 GMT 33.461563 -111.769302 4,975 240 245 -1536
2022-06-26 03:48:33 GMT 33.464497 -111.763580 5,100 233 247 -1472
2022-06-26 03:48:28 GMT 33.468639 -111.757355 5,225 226 248 -1088
2022-06-26 03:48:23 GMT 33.471771 -111.753647 5,300 220 249 -1152
2022-06-26 03:48:20 GMT 33.475250 -111.750130 5,350 217 249 -960
2022-06-26 03:48:16 GMT 33.477722 -111.747986 5,400 215 249 -1152
2022-06-26 03:48:12 GMT 33.481857 -111.744576 5,500 215 250 -1216
2022-06-26 03:48:07 GMT 33.487633 -111.739700 5,650 216 251 -1536
2022-06-26 03:48:02 GMT 33.492332 -111.735779 5,750 216 253 -1600
2022-06-26 03:47:58 GMT 33.495438 -111.733154 5,850 216 254 -1472
2022-06-26 03:47:55 GMT 33.497871 -111.731071 5,900 216 255 -1536
2022-06-26 03:47:51 GMT 33.502258 -111.727280 6,025 216 258 -1408
2022-06-26 03:47:46 GMT 33.507935 -111.722496 6,150 216 262 -1088
2022-06-26 03:47:41 GMT 33.512630 -111.718460 6,225 216 264 -1216
2022-06-26 03:47:37 GMT 33.516174 -111.715408 6,325 216 265 -1600
2022-06-26 03:47:34 GMT 33.518311 -111.713577 6,375 216 267 -1280
2022-06-26 03:47:30 GMT 33.522964 -111.709602 6,450 216 268 -1344
2022-06-26 03:47:27 GMT 33.526840 -111.706238 6,550 216 269 -1280
2022-06-26 03:47:24 GMT 33.528946 -111.704422 6,600 217 271 -1152
2022-06-26 03:47:20 GMT 33.533951 -111.700012 6,700 217 272 -1216
2022-06-26 03:47:14 GMT 33.539677 -111.695030 6,825 217 271 -1344
2022-06-26 03:47:09 GMT 33.544189 -111.691048 6,925 217 272 -1344
2022-06-26 03:47:06 GMT 33.548195 -111.687531 7,000 217 272 -1280
2022-06-26 03:47:03 GMT 33.550663 -111.685410 7,050 217 272 -1344
2022-06-26 03:46:59 GMT 33.554764 -111.681801 7,150 217 273 -1216
2022-06-26 03:46:53 GMT 33.561539 -111.675972 7,275 216 272 -1408
2022-06-26 03:46:48 GMT 33.565613 -111.672440 7,375 216 272 -1472
2022-06-26 03:46:45 GMT 33.569321 -111.669243 7,475 216 272 -1408
2022-06-26 03:46:41 GMT 33.572479 -111.666496 7,550 216 271 -1280
2022-06-26 03:46:38 GMT 33.576546 -111.663094 7,625 216 271 -1216
2022-06-26 03:46:32 GMT 33.583111 -111.657539 7,775 216 271 -1280
2022-06-26 03:46:27 GMT 33.587311 -111.653999 7,850 215 271 -1408
2022-06-26 03:46:24 GMT 33.590931 -111.650963 7,950 215 271 -1408
2022-06-26 03:46:21 GMT 33.593723 -111.648674 8,000 215 269 -1408
2022-06-26 03:46:16 GMT 33.599823 -111.643700 8,150 215 269 -1472
2022-06-26 03:46:13 GMT 33.601776 -111.642097 8,200 215 268 -1472
2022-06-26 03:46:10 GMT 33.605038 -111.639465 8,275 215 267 -1408
2022-06-26 03:46:07 GMT 33.608665 -111.636543 8,350 214 266 -1344
2022-06-26 03:46:03 GMT 33.612625 -111.633369 8,425 214 266 -1280
2022-06-26 03:46:00 GMT 33.615650 -111.630997 8,500 214 266 -1280
2022-06-26 03:45:56 GMT 33.619884 -111.627617 8,650 214 266 -1344
2022-06-26 03:45:51 GMT 33.623840 -111.624458 8,675 214 266 -1408
2022-06-26 03:45:48 GMT 33.626724 -111.622162 8,775 215 266 -1408
2022-06-26 03:45:45 GMT 33.630455 -111.619087 8,800 215 266 -1472
2022-06-26 03:45:42 GMT 33.634598 -111.615715 8,900 215 267 -1408
2022-06-26 03:45:39 GMT 33.637756 -111.613136 8,975 215 267 -1344
2022-06-26 03:45:35 GMT 33.641674 -111.609879 9,050 215 269 -1088
2022-06-26 03:45:29 GMT 33.646282 -111.606049 9,125 216 272 -448
2022-06-26 03:45:26 GMT 33.650848 -111.602150 9,125 216 275 -384
2022-06-26 03:45:23 GMT 33.652313 -111.600914 9,150 216 275 -512
2022-06-26 03:45:19 GMT 33.656895 -111.596886 9,175 216 278 -512
2022-06-26 03:45:14 GMT 33.663162 -111.591499 9,250 217 283 -640
2022-06-26 03:45:07 GMT 33.670628 -111.584930 9,325 217 287 -640
2022-06-26 03:45:03 GMT 33.673920 -111.582085 9,350 216 289 -576
2022-06-26 03:45:00 GMT 33.678268 -111.578323 9,375 216 292 -512
2022-06-26 03:44:56 GMT 33.681976 -111.575073 9,400 216 294 -576
2022-06-26 03:44:53 GMT 33.685665 -111.571884 9,450 216 296 -576
2022-06-26 03:44:46 GMT 33.694016 -111.564705 9,550 216 299 -1152
2022-06-26 03:44:42 GMT 33.697403 -111.561844 9,600 216 299 -1408
2022-06-26 03:44:37 GMT 33.702888 -111.557121 9,725 216 300 -1472
2022-06-26 03:44:32 GMT 33.709305 -111.551704 9,850 216 301 -1408
2022-06-26 03:44:28 GMT 33.713791 -111.547943 9,975 216 303 -1216
2022-06-26 03:44:25 GMT 33.717602 -111.544701 10,000 216 304 -1088
2022-06-26 03:44:20 GMT 33.721802 -111.541107 10,075 216 306 -640
2022-06-26 03:44:16 GMT 33.727001 -111.536751 10,100 216 310 -384
2022-06-26 03:44:11 GMT 33.733845 -111.531029 10,175 216 313 -832
2022-06-26 03:44:07 GMT 33.738419 -111.527145 10,225 216 315 -1216
2022-06-26 03:44:04 GMT 33.742630 -111.523621 10,325 216 315 -1728
2022-06-26 03:44:00 GMT 33.746292 -111.520477 10,400 216 316 -1664
2022-06-26 03:43:55 GMT 33.752060 -111.515656 10,550 216 316 -1600
2022-06-26 03:43:50 GMT 33.758835 -111.509827 10,700 216 316 -1600
2022-06-26 03:43:44 GMT 33.765129 -111.504478 12,525 216 317 -1472
2022-06-26 03:43:41 GMT 33.769691 -111.500648 10,925 216 316 -1472
2022-06-26 03:43:38 GMT 33.771599 -111.498985 10,975 216 316 -1472
2022-06-26 03:43:32 GMT 33.780212 -111.491661 11,150 216 317 -1600
2022-06-26 03:43:29 GMT 33.783966 -111.488419 11,225 216 318 -1600
2022-06-26 03:43:23 GMT 33.789661 -111.483482 11,350 216 319 -1536
2022-06-26 03:43:20 GMT 33.795273 -111.478661 11,475 216 320 -1472
2022-06-26 03:43:17 GMT 33.797951 -111.476326 11,525 216 320 -1472
2022-06-26 03:43:11 GMT 33.805676 -111.469627 11,675 217 321 -1536
2022-06-26 03:43:08 GMT 33.809914 -111.465965 11,775 216 322 -1536
2022-06-26 03:43:02 GMT 33.815220 -111.461388 11,850 217 322 -1536
2022-06-26 03:42:59 GMT 33.820152 -111.457047 12,825 217 322 -1536
2022-06-26 03:42:56 GMT 33.822647 -111.454895 12,825 217 322 -1536
2022-06-26 03:42:50 GMT 33.831573 -111.447052 12,225 217 324 -1536
2022-06-26 03:42:46 GMT 33.835098 -111.443909 12,300 217 324 -1472
2022-06-26 03:42:43 GMT 33.839985 -111.439651 12,400 217 324 -1408
2022-06-26 03:42:35 GMT 33.855972 -111.425583 12,725 216 326 -1472
2022-06-26 03:42:29 GMT 33.856651 -111.424995 12,725 216 327 -1472
2022-06-26 03:42:25 GMT 33.865311 -111.417511 12,825 216 327 -1472
2022-06-26 03:42:22 GMT 33.868286 -111.414986 13,025 219 326 -1600
2022-06-26 03:42:15 GMT 33.873642 -111.410065 13,075 220 326 -1600
2022-06-26 03:42:11 GMT 33.877808 -111.405968 13,175 223 327 -1216
2022-06-26 03:42:08 GMT 33.881836 -111.401711 13,225 224 328 -768
2022-06-26 03:42:03 GMT 33.885933 -111.397018 13,725 228 333 -640
2022-06-26 03:41:59 GMT 33.890030 -111.391953 13,300 227 332 -512
2022-06-26 03:41:56 GMT 33.894791 -111.385841 13,350 228 334 -896
2022-06-26 03:41:53 GMT 33.897583 -111.382141 13,400 228 335 -1024
2022-06-26 03:41:49 GMT 33.900742 -111.378052 13,750 228 335 -1536
2022-06-26 03:41:46 GMT 33.904221 -111.373512 13,525 228 334 -1600
2022-06-26 03:41:42 GMT 33.907860 -111.368813 13,625 228 335 -1600
2022-06-26 03:41:39 GMT 33.911629 -111.363892 13,750 228 335 -1536
2022-06-26 03:41:36 GMT 33.915634 -111.358681 13,850 228 335 -1536
2022-06-26 03:41:33 GMT 33.918686 -111.354790 13,900 228 336 -1472
2022-06-26 03:41:28 GMT 33.926899 -111.344208 14,225 227 336 -1600
2022-06-26 03:41:25 GMT 33.926899 -111.344208 14,100 227 336 -1536
2022-06-26 03:41:21 GMT 33.930202 -111.339973 14,175 227 336 -1600
2022-06-26 03:41:18 GMT 33.934250 -111.334892 14,275 227 336 -1600
2022-06-26 03:41:15 GMT 33.941517 -111.325783 14,400 227 337 -1600
2022-06-26 03:41:12 GMT 33.941517 -111.325783 14,450 226 336 -1600
2022-06-26 03:41:07 GMT 33.946079 -111.320114 14,575 226 336 -1536
2022-06-26 03:41:04 GMT 33.949245 -111.316223 14,625 226 336 -1536
2022-06-26 03:41:00 GMT 33.952923 -111.311646 14,725 226 336 -1472
2022-06-26 03:40:57 GMT 33.956909 -111.306747 14,825 226 336 -1472
2022-06-26 03:40:54 GMT 33.961765 -111.300774 14,925 226 336 -1472
2022-06-26 03:40:51 GMT 33.963959 -111.298065 14,975 226 336 -1472
2022-06-26 03:40:46 GMT 33.968307 -111.292679 15,075 226 336 -1600
2022-06-26 03:40:42 GMT 33.974167 -111.285393 15,225 226 336 -1536
2022-06-26 03:40:39 GMT 33.976383 -111.282639 15,275 226 336 -1600
2022-06-26 03:40:36 GMT 33.979969 -111.278175 15,400 227 336 -1472
2022-06-26 03:40:33 GMT 33.983971 -111.273193 15,450 227 337 -1472
2022-06-26 03:40:30 GMT 33.987415 -111.268845 15,525 227 336 -1408
2022-06-26 03:40:25 GMT 33.991234 -111.263924 15,600 228 337 -1472
2022-06-26 03:40:19 GMT 33.998077 -111.255112 15,800 228 338 -1536
2022-06-26 03:40:15 GMT 34.002411 -111.249519 15,875 228 340 -1536
2022-06-26 03:40:10 GMT 34.007061 -111.243500 15,975 227 341 -1536
2022-06-26 03:40:07 GMT 34.010284 -111.239433 16,075 228 341 -1664
2022-06-26 03:40:04 GMT 34.013672 -111.235023 16,150 227 342 -1472
2022-06-26 03:40:00 GMT 34.019577 -111.227432 16,300 227 343 -1728
2022-06-26 03:39:57 GMT 34.021400 -111.225182 16,325 227 344 -1792
2022-06-26 03:39:53 GMT 34.025311 -111.220154 16,450 227 345 -1728
2022-06-26 03:39:50 GMT 34.030106 -111.213966 16,575 228 346 -1472
2022-06-26 03:39:47 GMT 34.033356 -111.209778 16,625 228 346 -1472
2022-06-26 03:39:44 GMT 34.036762 -111.205330 16,925 229 351 -1536
2022-06-26 03:39:39 GMT 34.042580 -111.197777 16,850 228 350 -1472
2022-06-26 03:39:36 GMT 34.044769 -111.194916 16,875 229 351 -1536
2022-06-26 03:39:32 GMT 34.048771 -111.189537 16,975 229 352 -1664
2022-06-26 03:39:29 GMT 34.052914 -111.183929 17,100 228 354 -1856
2022-06-26 03:39:26 GMT 34.055988 -111.179871 17,175 228 353 -1664
2022-06-26 03:39:21 GMT 34.061527 -111.172546 17,325 228 355 -1600
2022-06-26 03:39:15 GMT 34.067963 -111.164261 17,475 227 356 -1536
2022-06-26 03:39:11 GMT 34.071537 -111.159721 17,550 227 357 -1536
2022-06-26 03:39:08 GMT 34.076935 -111.152832 17,650 227 357 -1472
2022-06-26 03:39:05 GMT 34.079731 -111.149307 17,725 227 358 -1600
2022-06-26 03:39:01 GMT 34.083435 -111.144592 17,800 227 358 -1472
2022-06-26 03:38:54 GMT 34.091415 -111.134315 18,000 227 358 -1664
2022-06-26 03:38:50 GMT 34.095417 -111.129227 18,100 227 358 -1664
2022-06-26 03:38:44 GMT 34.103302 -111.119087 18,275 227 357 -1920
2022-06-26 03:38:40 GMT 34.107422 -111.113876 18,425 227 357 -2368
2022-06-26 03:38:34 GMT 34.114838 -111.104515 18,675 227 355 -2368
2022-06-26 03:38:30 GMT 34.119762 -111.098267 19,000 227 355 -768
2022-06-26 03:38:23 GMT 34.127838 -111.088036 19,000 227 355 -768
2022-06-26 03:38:19 GMT 34.131729 -111.083107 19,025 227 357 -256
2022-06-26 03:38:15 GMT 34.136990 -111.076408 19,050 227 360 -192
2022-06-26 03:38:12 GMT 34.139271 -111.073547 19,050 227 362 -320
2022-06-26 03:38:08 GMT 34.145187 -111.066002 19,100 227 362 -512
2022-06-26 03:38:02 GMT 34.151375 -111.058044 19,450 227 365 -1792
2022-06-26 03:37:58 GMT 34.155533 -111.052773 19,250 227 365 -1728
2022-06-26 03:37:52 GMT 34.163105 -111.043053 19,475 227 365 -1792
2022-06-26 03:37:48 GMT 34.167992 -111.036873 19,575 227 365 -1792
2022-06-26 03:37:41 GMT 34.176361 -111.026093 19,800 227 364 -1728
2022-06-26 03:37:36 GMT 34.180702 -111.020561 19,900 227 363 -1792
2022-06-26 03:37:33 GMT 34.185310 -111.014671 20,025 228 363 -1792
2022-06-26 03:37:30 GMT 34.187897 -111.011299 20,100 228 363 -1792
2022-06-26 03:37:22 GMT 34.198345 -110.997681 20,375 228 363 -1728
2022-06-26 03:37:19 GMT 34.199982 -110.995544 20,475 228 363 -1792
2022-06-26 03:37:16 GMT 34.204193 -110.989998 20,500 228 363 -1792
2022-06-26 03:37:09 GMT 34.211704 -110.979996 20,725 228 363 -1792
2022-06-26 03:37:06 GMT 34.216499 -110.973701 20,850 228 364 -1792
2022-06-26 03:36:59 GMT 34.223740 -110.964157 21,025 228 365 -1792
2022-06-26 03:36:54 GMT 34.228462 -110.957970 21,150 228 365 -1792
2022-06-26 03:36:49 GMT 34.235584 -110.948639 21,350 228 365 -1728
2022-06-26 03:36:45 GMT 34.240520 -110.942230 21,475 227 365 -1728
2022-06-26 03:36:38 GMT 34.248203 -110.932449 21,650 227 365 -1728
2022-06-26 03:36:33 GMT 34.252350 -110.927162 21,750 227 365 -1728
2022-06-26 03:36:27 GMT 34.259857 -110.917519 22,000 228 365 -1792
2022-06-26 03:36:24 GMT 34.264450 -110.911613 22,075 228 365 -1792
2022-06-26 03:36:17 GMT 34.272503 -110.901146 22,275 227 367 -1728
2022-06-26 03:36:12 GMT 34.276691 -110.895714 22,375 228 369 -1792
2022-06-26 03:36:07 GMT 34.283615 -110.886749 22,575 228 370 -1856
2022-06-26 03:36:03 GMT 34.289028 -110.879684 22,700 228 371 -1856
2022-06-26 03:35:56 GMT 34.296616 -110.869736 22,900 228 373 -1792
2022-06-26 03:35:51 GMT 34.301643 -110.863152 23,025 228 373 -1856
2022-06-26 03:35:44 GMT 34.309570 -110.852776 23,225 228 375 -1920
2022-06-26 03:35:41 GMT 34.313747 -110.847298 23,350 228 376 -1856
2022-06-26 03:35:34 GMT 34.322617 -110.835793 23,575 227 378 -1792
2022-06-26 03:35:30 GMT 34.326176 -110.831284 23,650 229 378 -1984
2022-06-26 03:35:23 GMT 34.335388 -110.818306 23,925 235 380 -2048
2022-06-26 03:35:19 GMT 34.338421 -110.813194 24,025 238 382 -2048
2022-06-26 03:35:13 GMT 34.345184 -110.799248 24,225 247 388 -1408
2022-06-26 03:35:10 GMT 34.347015 -110.794540 24,300 249 390 -1216
2022-06-26 03:35:01 GMT 34.352051 -110.778343 24,375 256 398 -448
2022-06-26 03:34:58 GMT 34.353790 -110.770386 24,425 261 403 -704
2022-06-26 03:34:52 GMT 34.355598 -110.755005 24,550 267 409 -1600
2022-06-26 03:34:49 GMT 34.355923 -110.748199 24,650 268 410 -2048
2022-06-26 03:34:41 GMT 34.356445 -110.731316 24,900 268 412 -2048
2022-06-26 03:34:37 GMT 34.356716 -110.723366 25,025 268 413 -2048
2022-06-26 03:34:32 GMT 34.357227 -110.708366 25,250 268 415 -1984
2022-06-26 03:34:28 GMT 34.357506 -110.700249 25,375 268 417 -1984
2022-06-26 03:34:22 GMT 34.357956 -110.686134 25,575 268 418 -2048
2022-06-26 03:34:19 GMT 34.358158 -110.680450 25,650 268 419 -2048
2022-06-26 03:34:16 GMT 34.358368 -110.674698 25,725 268 420 -2048
2022-06-26 03:34:11 GMT 34.358917 -110.659676 25,950 268 422 -2048
2022-06-26 03:34:07 GMT 34.359283 -110.649811 26,100 268 423 -2048
2022-06-26 03:33:59 GMT 34.359833 -110.635239 26,350 268 425 -2048
2022-06-26 03:33:56 GMT 34.360161 -110.625977 26,450 268 426 -2048
2022-06-26 03:33:50 GMT 34.360764 -110.610062 26,675 268 430 -2048
2022-06-26 03:33:46 GMT 34.361092 -110.600967 26,800 268 429 -2048
2022-06-26 03:33:38 GMT 34.361664 -110.585243 27,025 268 431 -1984
2022-06-26 03:33:34 GMT 34.362022 -110.575500 27,175 268 432 -2048
2022-06-26 03:33:29 GMT 34.362579 -110.559311 27,400 268 435 -2048
2022-06-26 03:33:25 GMT 34.362900 -110.549927 27,525 268 436 -2048
2022-06-26 03:33:17 GMT 34.363403 -110.533615 27,775 268 438 -2048
2022-06-26 03:33:14 GMT 34.363678 -110.524307 27,900 269 439 -2112
2022-06-26 03:33:07 GMT 34.364182 -110.508110 28,150 269 440 -2112
2022-06-26 03:33:04 GMT 34.364410 -110.498810 28,275 269 441 -2112
2022-06-26 03:32:57 GMT 34.364914 -110.480537 28,550 269 443 -2176
2022-06-26 03:32:52 GMT 34.365143 -110.471848 28,675 269 444 -2176
2022-06-26 03:32:46 GMT 34.365555 -110.455978 28,875 269 446 -1920
2022-06-26 03:32:43 GMT 34.365841 -110.445618 29,025 269 448 -1920
2022-06-26 03:32:36 GMT 34.366261 -110.429817 29,225 269 450 -2112
2022-06-26 03:32:32 GMT 34.366539 -110.419807 29,375 269 451 -2368
2022-06-26 03:32:26 GMT 34.366959 -110.403442 29,625 269 452 -2560
2022-06-26 03:32:23 GMT 34.367142 -110.397148 29,725 269 453 -2368
2022-06-26 03:32:20 GMT 34.367283 -110.392342 29,800 269 453 -2176
2022-06-26 03:32:15 GMT 34.367702 -110.375572 29,950 268 458 -896
2022-06-26 03:32:11 GMT 34.367981 -110.366653 29,975 269 460 -384
2022-06-26 03:32:03 GMT 34.368492 -110.348801 30,000 269 466 -64
2022-06-26 03:32:00 GMT 34.368725 -110.339699 30,000 269 467 -128
2022-06-26 03:31:54 GMT 34.369217 -110.322632 30,025 269 469 -64
2022-06-26 03:31:50 GMT 34.369537 -110.312149 30,025 269 468 0
2022-06-26 03:31:43 GMT 34.369995 -110.294662 30,025 269 468 0
2022-06-26 03:31:39 GMT 34.370316 -110.284180 30,025 269 468 64
2022-06-26 03:31:33 GMT 34.370819 -110.266129 30,025 269 468 0
2022-06-26 03:31:29 GMT 34.371052 -110.256905 30,025 269 468 0
2022-06-26 03:31:21 GMT 34.371567 -110.239388 30,025 269 468 0
2022-06-26 03:31:18 GMT 34.371826 -110.229301 30,025 269 468 0
2022-06-26 03:31:12 GMT 34.372284 -110.211815 30,025 269 468 0
2022-06-26 03:31:07 GMT 34.372589 -110.200195 30,025 269 468 0
2022-06-26 03:30:59 GMT 34.373199 -110.178070 30,025 269 468 64
2022-06-26 03:30:56 GMT 34.373291 -110.174149 30,025 269 468 64
2022-06-26 03:30:50 GMT 34.373753 -110.156769 30,000 269 469 64
2022-06-26 03:30:47 GMT 34.374023 -110.146179 30,000 269 469 64
2022-06-26 03:30:40 GMT 34.374496 -110.128494 30,000 269 469 64
2022-06-26 03:30:35 GMT 34.374756 -110.118378 30,000 269 469 64
2022-06-26 03:30:29 GMT 34.375214 -110.100830 30,000 269 469 64
2022-06-26 03:30:26 GMT 34.375477 -110.091248 30,000 269 469 -128
2022-06-26 03:30:19 GMT 34.375942 -110.073166 30,075 269 470 -960
2022-06-26 03:30:14 GMT 34.376175 -110.064011 30,125 269 470 -896
2022-06-26 03:30:08 GMT 34.376640 -110.046677 30,250 269 471 -960
2022-06-26 03:30:05 GMT 34.376953 -110.036034 30,300 269 471 -960
2022-06-26 03:29:58 GMT 34.377411 -110.017876 30,400 269 471 -960
2022-06-26 03:29:54 GMT 34.377640 -110.009186 30,475 269 471 -960
2022-06-26 03:29:48 GMT 34.378098 -109.991081 30,575 269 470 -960
2022-06-26 03:29:44 GMT 34.378326 -109.981606 30,625 269 469 -960
2022-06-26 03:29:35 GMT 34.378830 -109.960922 30,750 269 468 -960
2022-06-26 03:29:32 GMT 34.379013 -109.952721 30,800 269 467 -896
2022-06-26 03:29:26 GMT 34.379433 -109.935265 30,900 269 466 -896
2022-06-26 03:29:23 GMT 34.380039 -109.908485 30,975 269 465 -896
2022-06-26 03:29:16 GMT 34.380039 -109.908485 31,075 269 464 -960
2022-06-26 03:29:13 GMT 34.380249 -109.900612 31,125 269 463 -960
2022-06-26 03:29:05 GMT 34.380737 -109.879021 31,250 269 462 -896
2022-06-26 03:29:02 GMT 34.380844 -109.873482 31,275 269 461 -960
2022-06-26 03:28:55 GMT 34.381256 -109.854706 31,400 269 460 -960
2022-06-26 03:28:52 GMT 34.381439 -109.846687 31,450 269 460 -960
2022-06-26 03:28:44 GMT 34.381901 -109.825806 31,575 269 459 -960
2022-06-26 03:28:40 GMT 34.382038 -109.817848 31,625 269 459 -960
2022-06-26 03:28:34 GMT 34.382366 -109.800964 31,750 269 459 -1024
2022-06-26 03:28:31 GMT 34.382553 -109.792786 31,800 269 459 -1024
2022-06-26 03:28:23 GMT 34.382950 -109.771355 31,925 269 460 -960
2022-06-26 03:28:20 GMT 34.383018 -109.765839 31,950 269 460 -960
2022-06-26 03:28:10 GMT 34.383530 -109.736023 32,150 270 459 -896
2022-06-26 03:28:01 GMT 34.383820 -109.716927 32,250 270 459 -896
2022-06-26 03:27:58 GMT 34.383949 -109.707809 32,325 270 458 -896
2022-06-26 03:27:51 GMT 34.384182 -109.688934 32,425 270 457 -896
2022-06-26 03:27:46 GMT 34.384274 -109.681267 32,475 270 457 -896
2022-06-26 03:27:40 GMT 34.384506 -109.663284 32,575 269 456 -960
2022-06-26 03:27:37 GMT 34.384647 -109.654488 32,650 269 456 -960
2022-06-26 03:27:30 GMT 34.385101 -109.636269 32,750 268 454 -960
2022-06-26 03:27:26 GMT 34.385376 -109.627190 32,825 268 454 -960
2022-06-26 03:27:18 GMT 34.385925 -109.608917 32,925 269 454 -960
2022-06-26 03:27:15 GMT 34.386230 -109.598122 33,000 269 454 -896
2022-06-26 03:27:09 GMT 34.386646 -109.582954 33,100 269 453 -960
2022-06-26 03:27:04 GMT 34.386883 -109.572311 33,150 269 453 -960
2022-06-26 03:26:59 GMT 34.387253 -109.557793 33,250 269 452 -1024
2022-06-26 03:26:54 GMT 34.387581 -109.544502 33,350 269 451 -1024
2022-06-26 03:26:49 GMT 34.387859 -109.532433 33,425 269 451 -960
2022-06-26 03:26:45 GMT 34.388138 -109.522362 33,475 269 451 -960
2022-06-26 03:26:42 GMT 34.388229 -109.516808 33,525 269 451 -960
2022-06-26 03:26:37 GMT 34.388580 -109.502357 33,600 269 450 -896
2022-06-26 03:26:33 GMT 34.388836 -109.492661 33,675 269 450 -896
2022-06-26 03:26:26 GMT 34.389210 -109.477097 33,750 269 450 -896
2022-06-26 03:26:22 GMT 34.389488 -109.463821 33,850 269 449 -960
2022-06-26 03:26:16 GMT 34.389725 -109.452133 33,950 269 449 -1024
2022-06-26 03:26:11 GMT 34.390045 -109.439133 34,000 269 449 -1024
2022-06-26 03:26:04 GMT 34.390465 -109.422684 34,125 269 448 -960
2022-06-26 03:26:01 GMT 34.390743 -109.412666 34,175 269 449 -960
2022-06-26 03:25:55 GMT 34.391098 -109.399277 34,275 268 448 -896
2022-06-26 03:25:47 GMT 34.391678 -109.379883 34,375 268 446 -896
2022-06-26 03:25:44 GMT 34.391956 -109.371124 34,450 268 447 -896
2022-06-26 03:25:39 GMT 34.392426 -109.357857 34,525 268 445 -896
2022-06-26 03:25:34 GMT 34.392792 -109.346519 34,625 268 442 -1024
2022-06-26 03:25:29 GMT 34.393257 -109.332909 34,700 268 442 -1024
2022-06-26 03:25:24 GMT 34.393616 -109.320190 34,775 268 442 -1024
2022-06-26 03:25:12 GMT 34.394394 -109.294350 34,950 269 440 -896
2022-06-26 03:25:03 GMT 34.395073 -109.268188 35,100 269 440 -960
2022-06-26 03:24:51 GMT 34.395813 -109.242500 35,275 269 442 -960
2022-06-26 03:24:42 GMT 34.396500 -109.216545 35,450 269 445 -960
2022-06-26 03:24:30 GMT 34.397076 -109.190308 35,600 269 444 -1024
2022-06-26 03:24:21 GMT 34.397728 -109.163818 35,800 269 443 -1088
2022-06-26 03:24:09 GMT 34.398335 -109.138809 35,950 269 445 -832
2022-06-26 03:23:58 GMT 34.398926 -109.109314 36,000 269 446 0
2022-06-26 03:23:50 GMT 34.399448 -109.087029 36,000 269 446 0
2022-06-26 03:23:45 GMT 34.399658 -109.075966 36,000 269 446 0
2022-06-26 03:23:38 GMT 34.400055 -109.059677 36,000 269 446 -64
2022-06-26 03:23:33 GMT 34.400288 -109.048462 36,000 269 445 0
2022-06-26 03:23:29 GMT 34.400566 -109.035011 36,000 269 445 64
2022-06-26 03:23:24 GMT 34.400848 -109.022369 36,000 269 445 64
2022-06-26 03:23:17 GMT 34.401173 -109.009438 36,000 269 445 0
2022-06-26 03:23:12 GMT 34.401451 -108.995995 36,000 269 445 -64
2022-06-26 03:23:08 GMT 34.401779 -108.983063 36,000 269 445 0
2022-06-26 03:23:03 GMT 34.402039 -108.970306 36,000 269 445 64
2022-06-26 03:22:55 GMT 34.402382 -108.953758 36,000 269 445 0
2022-06-26 03:22:51 GMT 34.402634 -108.942223 36,000 269 444 0
2022-06-26 03:22:46 GMT 34.402847 -108.930702 36,000 269 443 64
2022-06-26 03:22:41 GMT 34.403130 -108.917603 36,000 269 442 0
2022-06-26 03:22:35 GMT 34.403366 -108.904671 36,000 269 442 0
2022-06-26 03:22:31 GMT 34.403641 -108.891556 36,000 269 442 0
2022-06-26 03:22:25 GMT 34.403915 -108.878998 36,000 269 441 0
2022-06-26 03:22:19 GMT 34.404243 -108.864838 36,000 269 441 0
2022-06-26 03:22:15 GMT 34.404510 -108.851418 36,000 269 441 0
2022-06-26 03:22:08 GMT 34.404831 -108.837631 36,000 269 441 -64
2022-06-26 03:22:04 GMT 34.405060 -108.827034 36,000 269 441 0
2022-06-26 03:21:57 GMT 34.405411 -108.810715 36,000 269 440 64
2022-06-26 03:21:54 GMT 34.405594 -108.801331 36,000 269 440 64
2022-06-26 03:21:48 GMT 34.405930 -108.786736 36,000 269 440 -64
2022-06-26 03:21:41 GMT 34.406246 -108.771858 36,000 269 440 -64
2022-06-26 03:21:37 GMT 34.406479 -108.760895 36,000 269 440 -64
2022-06-26 03:21:32 GMT 34.406757 -108.747253 36,000 269 439 0
2022-06-26 03:21:26 GMT 34.406994 -108.735008 36,000 269 439 0
2022-06-26 03:21:21 GMT 34.407272 -108.722992 36,000 269 439 0
2022-06-26 03:21:15 GMT 34.407551 -108.708054 36,000 269 439 0
2022-06-26 03:21:11 GMT 34.407806 -108.696205 36,000 269 438 64
2022-06-26 03:21:06 GMT 34.408016 -108.684540 36,000 269 438 0
2022-06-26 03:21:01 GMT 34.408264 -108.672218 36,000 269 438 0
2022-06-26 03:20:56 GMT 34.408539 -108.658768 36,000 269 438 0
2022-06-26 03:20:50 GMT 34.408760 -108.646889 36,000 269 438 64
2022-06-26 03:20:45 GMT 34.408997 -108.633095 36,000 269 438 0
2022-06-26 03:20:34 GMT 34.409454 -108.607140 36,000 269 438 -64
2022-06-26 03:20:24 GMT 34.409912 -108.581749 36,000 269 438 0
2022-06-26 03:20:13 GMT 34.410389 -108.555962 36,000 269 438 -64
2022-06-26 03:20:03 GMT 34.410854 -108.529533 36,000 269 438 0
2022-06-26 03:19:53 GMT 34.411285 -108.506248 36,000 269 437 0
2022-06-26 03:19:45 GMT 34.411606 -108.485672 36,000 269 437 0
2022-06-26 03:19:42 GMT 34.411697 -108.480797 36,000 269 438 -64
2022-06-26 03:19:35 GMT 34.412018 -108.461380 36,000 269 437 -64
2022-06-26 03:19:32 GMT 34.412109 -108.455406 36,000 269 437 0
2022-06-26 03:19:24 GMT 34.412476 -108.434669 36,000 269 437 0
2022-06-26 03:19:21 GMT 34.412579 -108.428650 36,000 269 437 0
2022-06-26 03:19:18 GMT 34.412670 -108.422295 36,000 269 437 0
2022-06-26 03:19:12 GMT 34.412998 -108.404503 36,000 269 437 0
2022-06-26 03:19:08 GMT 34.413116 -108.395599 36,000 269 437 0
2022-06-26 03:19:01 GMT 34.413391 -108.379227 36,000 269 437 64
2022-06-26 03:18:50 GMT 34.413849 -108.352158 36,000 269 437 -64
2022-06-26 03:18:41 GMT 34.414207 -108.328117 36,000 269 437 0
2022-06-26 03:18:34 GMT 34.414536 -108.310677 36,000 269 436 64
2022-06-26 03:18:30 GMT 34.414627 -108.303108 36,000 269 436 0
2022-06-26 03:18:20 GMT 34.415092 -108.277641 36,000 269 436 0
2022-06-26 03:18:16 GMT 34.415314 -108.267067 36,000 269 437 0
2022-06-26 03:18:09 GMT 34.415588 -108.252159 36,000 269 437 0
2022-06-26 03:18:06 GMT 34.415791 -108.240334 36,000 269 437 0
2022-06-26 03:17:58 GMT 34.416023 -108.227409 36,000 269 437 0
2022-06-26 03:17:53 GMT 34.416256 -108.213730 36,000 269 437 0
2022-06-26 03:17:49 GMT 34.416443 -108.202286 36,000 269 437 0
2022-06-26 03:17:43 GMT 34.416641 -108.188034 36,000 270 437 64
2022-06-26 03:17:38 GMT 34.416813 -108.176651 36,000 270 437 0
2022-06-26 03:17:28 GMT 34.417374 -108.149696 36,000 267 435 0
2022-06-26 03:17:21 GMT 34.418289 -108.133888 36,000 265 435 -64
2022-06-26 03:17:17 GMT 34.419003 -108.125267 36,000 263 435 -64
2022-06-26 03:17:10 GMT 34.421036 -108.107376 36,000 262 434 0
2022-06-26 03:17:07 GMT 34.421814 -108.101379 36,000 262 434 0
2022-06-26 03:17:03 GMT 34.423050 -108.092018 36,000 261 434 0
2022-06-26 03:16:57 GMT 34.425201 -108.075424 36,000 261 434 64
2022-06-26 03:16:45 GMT 34.428497 -108.050255 36,000 262 435 -64
2022-06-26 03:16:35 GMT 34.431946 -108.024216 36,000 261 435 0
2022-06-26 03:16:28 GMT 34.434319 -108.006187 36,000 261 435 0
2022-06-26 03:16:25 GMT 34.435017 -108.000870 36,000 261 435 0
2022-06-26 03:16:15 GMT 34.438339 -107.976044 36,000 261 435 0
2022-06-26 03:16:10 GMT 34.439850 -107.964722 36,000 261 436 0
2022-06-26 03:16:05 GMT 34.441681 -107.950760 36,000 261 436 64
2022-06-26 03:15:58 GMT 34.443970 -107.933670 36,000 262 436 -64
2022-06-26 03:15:53 GMT 34.445251 -107.923805 36,000 262 437 0
2022-06-26 03:15:43 GMT 34.448456 -107.898972 36,000 262 437 0
2022-06-26 03:15:37 GMT 34.450287 -107.884735 36,000 262 437 0
2022-06-26 03:15:33 GMT 34.451542 -107.875153 36,000 262 437 0
2022-06-26 03:15:23 GMT 34.454617 -107.851295 36,000 262 437 0
2022-06-26 03:15:13 GMT 34.458012 -107.824974 36,000 262 436 0
2022-06-26 03:15:09 GMT 34.459270 -107.815132 36,000 262 436 0
2022-06-26 03:15:00 GMT 34.461731 -107.795944 36,000 262 435 0
2022-06-26 03:14:52 GMT 34.464386 -107.775543 36,000 262 435 64
2022-06-26 03:14:47 GMT 34.465897 -107.763489 36,000 262 435 0
2022-06-26 03:14:39 GMT 34.468231 -107.745277 36,000 262 434 0
2022-06-26 03:14:30 GMT 34.470978 -107.723694 36,000 262 434 64
2022-06-26 03:14:21 GMT 34.473888 -107.700523 36,000 262 435 0
2022-06-26 03:14:18 GMT 34.474457 -107.696060 36,000 262 436 0
2022-06-26 03:14:07 GMT 34.477844 -107.669449 36,000 262 436 64
2022-06-26 03:13:58 GMT 34.480919 -107.645302 36,000 262 437 -64
2022-06-26 03:13:49 GMT 34.483383 -107.625732 36,000 262 438 0
2022-06-26 03:13:45 GMT 34.484547 -107.616524 36,000 262 438 0
2022-06-26 03:13:38 GMT 34.486633 -107.599983 36,000 262 438 0
2022-06-26 03:13:35 GMT 34.487778 -107.591019 36,000 262 438 0
2022-06-26 03:13:29 GMT 34.489716 -107.575378 36,000 262 438 0
2022-06-26 03:13:22 GMT 34.491623 -107.560471 36,000 262 438 0
2022-06-26 03:13:17 GMT 34.493069 -107.548943 36,000 262 438 64
2022-06-26 03:13:14 GMT 34.494095 -107.540794 36,000 262 439 0
2022-06-26 03:13:06 GMT 34.496841 -107.518936 36,000 262 439 0
2022-06-26 03:12:55 GMT 34.499908 -107.494469 36,000 262 441 -64
2022-06-26 03:12:47 GMT 34.502468 -107.474274 36,000 262 440 -64
2022-06-26 03:12:43 GMT 34.503433 -107.466583 36,000 262 440 -64
2022-06-26 03:12:37 GMT 34.505821 -107.447662 36,000 262 442 64
2022-06-26 03:12:34 GMT 34.506382 -107.443253 36,000 262 442 64
2022-06-26 03:12:24 GMT 34.509544 -107.418365 36,000 262 443 -64
2022-06-26 03:12:14 GMT 34.512756 -107.392845 36,000 262 443 64
2022-06-26 03:12:05 GMT 34.515335 -107.372635 36,000 262 444 0
2022-06-26 03:12:02 GMT 34.516205 -107.365738 36,000 262 444 0
2022-06-26 03:11:52 GMT 34.519180 -107.341919 36,000 262 445 -64
2022-06-26 03:11:45 GMT 34.521790 -107.321236 36,000 262 446 0
2022-06-26 03:11:41 GMT 34.522705 -107.313835 36,000 262 445 64
2022-06-26 03:11:31 GMT 34.525864 -107.288445 36,000 262 446 64
2022-06-26 03:11:22 GMT 34.528839 -107.263947 36,000 262 447 64
2022-06-26 03:11:13 GMT 34.531380 -107.243217 36,000 262 448 -64
2022-06-26 03:11:10 GMT 34.532032 -107.238007 36,000 262 448 -64
2022-06-26 03:11:03 GMT 34.534405 -107.218437 36,000 262 448 0
2022-06-26 03:11:00 GMT 34.535065 -107.213112 36,000 262 448 0
2022-06-26 03:10:50 GMT 34.538223 -107.187218 36,000 262 449 -64
2022-06-26 03:10:40 GMT 34.541389 -107.161217 36,000 262 449 0
2022-06-26 03:10:32 GMT 34.543903 -107.140785 36,000 262 450 64
2022-06-26 03:10:29 GMT 34.544971 -107.131805 36,000 262 450 64
2022-06-26 03:10:23 GMT 34.546463 -107.119728 36,000 262 450 -64
2022-06-26 03:10:19 GMT 34.547699 -107.109467 36,000 262 450 -64
2022-06-26 03:10:11 GMT 34.550232 -107.088890 36,000 262 450 0
2022-06-26 03:10:08 GMT 34.550884 -107.083626 36,000 262 450 0
2022-06-26 03:10:01 GMT 34.553558 -107.061821 36,000 262 450 0
2022-06-26 03:09:58 GMT 34.554005 -107.057938 36,000 262 451 0
2022-06-26 03:09:52 GMT 34.556076 -107.040802 36,000 262 451 0
2022-06-26 03:09:47 GMT 34.557354 -107.030472 36,000 262 451 0
2022-06-26 03:09:38 GMT 34.560520 -107.004662 36,000 262 452 64
2022-06-26 03:09:29 GMT 34.562943 -106.984749 36,000 262 452 0
2022-06-26 03:09:25 GMT 34.564407 -106.972473 36,000 262 452 0
2022-06-26 03:09:18 GMT 34.566292 -106.957054 36,000 262 452 0
2022-06-26 03:09:15 GMT 34.567410 -106.947784 36,000 262 453 0
2022-06-26 03:09:09 GMT 34.569260 -106.932343 36,000 262 453 0
2022-06-26 03:09:03 GMT 34.572250 -106.907555 36,000 262 454 0
2022-06-26 03:08:56 GMT 34.573013 -106.901398 36,000 262 454 0
2022-06-26 03:08:46 GMT 34.576210 -106.874825 36,000 262 455 -64
2022-06-26 03:08:38 GMT 34.578629 -106.854401 36,000 262 456 0
2022-06-26 03:08:35 GMT 34.579376 -106.848335 36,000 262 456 0
2022-06-26 03:08:25 GMT 34.582588 -106.821732 36,000 262 457 -64
2022-06-26 03:08:17 GMT 34.585648 -106.796021 36,000 262 458 0
2022-06-26 03:08:14 GMT 34.585648 -106.796021 36,000 262 458 0
2022-06-26 03:08:04 GMT 34.588734 -106.769714 36,000 262 458 0
2022-06-26 03:07:54 GMT 34.591919 -106.742661 36,000 262 458 -64
2022-06-26 03:07:45 GMT 34.594345 -106.722092 36,000 262 458 64
2022-06-26 03:07:42 GMT 34.595078 -106.715981 36,000 262 458 64
2022-06-26 03:07:33 GMT 34.598228 -106.689148 36,000 262 459 -64
2022-06-26 03:07:25 GMT 34.600651 -106.668488 36,000 262 459 -64
2022-06-26 03:07:22 GMT 34.601349 -106.662659 36,000 262 459 0
2022-06-26 03:07:12 GMT 34.604324 -106.637337 36,000 262 458 0
2022-06-26 03:07:02 GMT 34.607491 -106.610527 36,000 262 458 64
2022-06-26 03:06:56 GMT 34.609402 -106.594505 36,000 262 458 0
2022-06-26 03:06:51 GMT 34.610641 -106.584198 36,000 262 458 0
2022-06-26 03:06:44 GMT 34.613079 -106.563950 36,000 262 459 0
2022-06-26 03:06:41 GMT 34.613777 -106.557831 36,000 262 459 0
2022-06-26 03:06:33 GMT 34.616196 -106.537231 36,000 262 459 0
2022-06-26 03:06:30 GMT 34.616943 -106.530876 36,000 262 459 -64
2022-06-26 03:06:22 GMT 34.619431 -106.509872 36,000 262 458 0
2022-06-26 03:06:19 GMT 34.620209 -106.503036 36,000 262 458 0
2022-06-26 03:06:13 GMT 34.622269 -106.485489 36,000 262 458 0
2022-06-26 03:06:09 GMT 34.623413 -106.476074 36,000 262 458 0
2022-06-26 03:06:02 GMT 34.625553 -106.457916 36,000 262 458 0
2022-06-26 03:05:59 GMT 34.626297 -106.451691 36,000 262 458 0
2022-06-26 03:05:49 GMT 34.629410 -106.425232 36,000 262 458 64
2022-06-26 03:05:41 GMT 34.631927 -106.404099 36,000 262 458 0
2022-06-26 03:05:38 GMT 34.632492 -106.399155 36,000 262 458 0
2022-06-26 03:05:30 GMT 34.634956 -106.378555 36,000 262 459 64
2022-06-26 03:05:27 GMT 34.635681 -106.372322 36,000 262 459 0
2022-06-26 03:05:17 GMT 34.638748 -106.345863 36,000 262 459 0
2022-06-26 03:05:09 GMT 34.641148 -106.325050 36,000 262 459 0
2022-06-26 03:05:06 GMT 34.641907 -106.318565 36,000 262 459 0
2022-06-26 03:04:57 GMT 34.645020 -106.291824 36,000 262 459 0
2022-06-26 03:04:46 GMT 34.647995 -106.266327 36,000 262 459 0
2022-06-26 03:04:36 GMT 34.651112 -106.239624 36,000 263 461 0
2022-06-26 03:04:28 GMT 34.653442 -106.219299 36,000 263 462 0
2022-06-26 03:04:25 GMT 34.654175 -106.212906 36,000 263 462 0
2022-06-26 03:04:17 GMT 34.656464 -106.192703 36,000 263 464 -64
2022-06-26 03:04:14 GMT 34.657196 -106.186165 36,000 263 464 -64
2022-06-26 03:04:05 GMT 34.660309 -106.159042 36,000 263 466 0
2022-06-26 03:03:54 GMT 34.663605 -106.129837 36,000 263 466 128
2022-06-26 03:03:43 GMT 34.666847 -106.101440 36,000 263 467 64
2022-06-26 03:03:36 GMT 34.668777 -106.084435 36,000 263 468 0
2022-06-26 03:03:32 GMT 34.670013 -106.073624 36,000 263 468 -64
2022-06-26 03:03:25 GMT 34.671825 -106.057259 36,000 263 469 -64
2022-06-26 03:03:20 GMT 34.673218 -106.044861 36,000 263 469 0
2022-06-26 03:03:14 GMT 34.674866 -106.030006 36,000 263 469 0
2022-06-26 03:03:10 GMT 34.676285 -106.017784 36,000 263 469 -64
2022-06-26 03:03:04 GMT 34.678112 -106.001472 36,025 263 469 -64
2022-06-26 03:02:59 GMT 34.679649 -105.987396 36,025 263 469 0
2022-06-26 03:02:52 GMT 34.681602 -105.969940 36,000 263 469 128
2022-06-26 03:02:48 GMT 34.684677 -105.942535 36,000 263 470 64
2022-06-26 03:02:41 GMT 34.684677 -105.942535 36,000 263 470 64
2022-06-26 03:02:36 GMT 34.686081 -105.930122 36,000 263 471 0
2022-06-26 03:02:33 GMT 34.686909 -105.922394 36,000 263 471 0
2022-06-26 03:02:30 GMT 34.687748 -105.914841 36,000 263 471 -64
2022-06-26 03:02:26 GMT 34.689240 -105.901505 36,000 263 471 0
2022-06-26 03:02:20 GMT 34.690681 -105.888405 36,000 263 471 0
2022-06-26 03:02:16 GMT 34.692265 -105.874046 36,000 263 471 0
2022-06-26 03:02:13 GMT 34.693039 -105.867340 36,000 263 471 0
2022-06-26 03:02:10 GMT 34.693707 -105.860939 36,000 263 471 0
2022-06-26 03:02:03 GMT 34.695568 -105.844231 36,000 263 471 0
2022-06-26 03:02:00 GMT 34.696777 -105.833473 36,000 263 471 64
2022-06-26 03:01:51 GMT 34.699291 -105.810989 36,000 263 471 64
2022-06-26 03:01:39 GMT 34.704437 -105.765045 36,000 263 471 -64
2022-06-26 03:01:28 GMT 34.705856 -105.752045 36,000 263 471 -64
2022-06-26 03:01:21 GMT 34.708183 -105.730881 36,000 263 471 64
2022-06-26 03:01:17 GMT 34.708881 -105.724586 36,000 263 471 64
2022-06-26 03:01:12 GMT 34.710606 -105.709358 36,000 263 471 0
2022-06-26 03:01:08 GMT 34.711990 -105.696938 36,000 263 471 -64
2022-06-26 03:01:01 GMT 34.713913 -105.679672 36,000 263 471 0
2022-06-26 03:00:57 GMT 34.714935 -105.670624 36,000 263 471 -64
2022-06-26 03:00:51 GMT 34.717026 -105.651649 36,000 263 471 0
2022-06-26 03:00:47 GMT 34.717896 -105.643578 36,000 263 471 0
2022-06-26 03:00:40 GMT 34.720184 -105.622894 36,000 263 471 0
2022-06-26 03:00:36 GMT 34.720940 -105.615921 36,000 263 471 0
2022-06-26 03:00:29 GMT 34.723160 -105.595650 36,000 263 472 0
2022-06-26 03:00:26 GMT 34.723919 -105.588966 36,000 263 472 64
2022-06-26 03:00:16 GMT 34.726898 -105.561676 36,000 263 472 0
2022-06-26 03:00:08 GMT 34.729385 -105.538986 36,000 263 472 0
2022-06-26 03:00:05 GMT 34.729973 -105.533867 36,000 263 472 0
2022-06-26 02:59:57 GMT 34.732544 -105.510620 36,000 263 473 -64
2022-06-26 02:59:53 GMT 34.733414 -105.502495 36,000 263 473 0
2022-06-26 02:59:42 GMT 34.736954 -105.470528 36,000 263 473 0
2022-06-26 02:59:31 GMT 34.739639 -105.445709 36,000 263 472 -64
2022-06-26 02:59:24 GMT 34.741882 -105.424637 36,000 263 472 0
2022-06-26 02:59:20 GMT 34.742867 -105.415306 36,000 263 472 0
2022-06-26 02:59:11 GMT 34.745289 -105.392700 36,000 263 473 0
2022-06-26 02:59:00 GMT 34.748501 -105.362373 36,000 263 473 0
2022-06-26 02:58:50 GMT 34.751450 -105.334839 36,000 263 473 0
2022-06-26 02:58:43 GMT 34.753189 -105.318253 36,000 263 473 0
2022-06-26 02:58:38 GMT 34.754505 -105.306297 36,000 263 473 0
2022-06-26 02:58:33 GMT 34.756321 -105.289421 36,000 263 473 0
2022-06-26 02:58:29 GMT 34.757446 -105.278503 36,000 263 473 64
2022-06-26 02:58:21 GMT 34.759232 -105.261917 36,000 263 473 0
2022-06-26 02:58:17 GMT 34.760368 -105.251198 36,000 263 473 0
2022-06-26 02:58:11 GMT 34.762482 -105.231590 36,000 263 473 0
2022-06-26 02:58:07 GMT 34.763165 -105.225166 36,000 263 473 0
2022-06-26 02:57:58 GMT 34.766052 -105.197624 36,000 263 473 0
2022-06-26 02:57:49 GMT 34.768387 -105.175484 36,000 263 473 0
2022-06-26 02:57:46 GMT 34.768936 -105.170059 36,000 263 473 0
2022-06-26 02:57:37 GMT 34.771870 -105.142136 36,000 263 473 0
2022-06-26 02:57:28 GMT 34.774246 -105.119034 36,000 263 474 0
2022-06-26 02:57:25 GMT 34.774940 -105.112556 36,000 263 474 -64
2022-06-26 02:57:15 GMT 34.777687 -105.086403 36,000 263 474 0
2022-06-26 02:57:05 GMT 34.780666 -105.058136 36,000 263 474 0
2022-06-26 02:56:53 GMT 34.783691 -105.030098 36,000 263 474 64
2022-06-26 02:56:44 GMT 34.786766 -105.001312 36,000 263 474 0
2022-06-26 02:56:32 GMT 34.790024 -104.970360 36,000 263 474 0
2022-06-26 02:56:21 GMT 34.793003 -104.942383 36,000 263 474 -64
2022-06-26 02:56:10 GMT 34.795853 -104.915062 36,000 263 473 64
2022-06-26 02:55:59 GMT 34.798737 -104.887314 36,000 263 473 0
2022-06-26 02:55:49 GMT 34.801617 -104.859756 36,000 263 474 -64
2022-06-26 02:55:38 GMT 34.804546 -104.830917 36,000 263 475 0
2022-06-26 02:55:29 GMT 34.807201 -104.804077 36,000 264 478 0
2022-06-26 02:55:18 GMT 34.809948 -104.776550 36,000 264 480 64
2022-06-26 02:55:07 GMT 34.813019 -104.746346 36,000 264 481 0
2022-06-26 02:54:50 GMT 34.818924 -104.687935 36,000 263 481 0
2022-06-26 02:54:35 GMT 34.824005 -104.637856 36,000 263 481 0
2022-06-26 02:54:15 GMT 34.827164 -104.607445 36,000 263 480 0
2022-06-26 02:54:05 GMT 34.830151 -104.577888 36,000 263 480 0
2022-06-26 02:53:41 GMT 34.838837 -104.491638 36,000 264 479 64
2022-06-26 02:53:21 GMT 34.841858 -104.461479 36,000 264 479 0
2022-06-26 02:53:10 GMT 34.846069 -104.419334 36,000 264 478 0
2022-06-26 02:52:53 GMT 34.848961 -104.390373 36,000 264 477 0
2022-06-26 02:52:44 GMT 34.851753 -104.362679 36,000 264 477 0
2022-06-26 02:52:33 GMT 34.854637 -104.333443 36,000 264 476 0
2022-06-26 02:52:21 GMT 34.857376 -104.305710 36,000 264 476 64
2022-06-26 02:52:12 GMT 34.860085 -104.277702 36,000 264 475 0
2022-06-26 02:52:01 GMT 34.862785 -104.250130 36,000 264 475 64
2022-06-26 02:51:50 GMT 34.865391 -104.222832 36,000 264 475 -64
2022-06-26 02:51:40 GMT 34.868092 -104.195023 36,000 264 474 0
2022-06-26 02:51:29 GMT 34.871071 -104.164864 36,000 264 474 0
2022-06-26 02:51:19 GMT 34.873539 -104.139519 36,000 264 473 0
2022-06-26 02:51:09 GMT 34.876240 -104.111542 36,000 264 473 0
2022-06-26 02:50:58 GMT 34.878986 -104.083786 36,000 264 473 0
2022-06-26 02:50:48 GMT 34.881683 -104.055862 36,000 264 472 64
2022-06-26 02:50:36 GMT 34.884384 -104.028030 36,000 264 473 0
2022-06-26 02:50:27 GMT 34.887177 -103.999275 36,000 264 472 0
2022-06-26 02:50:16 GMT 34.889694 -103.972931 36,000 264 472 -64
2022-06-26 02:50:06 GMT 34.892300 -103.945656 36,000 264 472 0
2022-06-26 02:49:55 GMT 34.894905 -103.917961 36,000 264 471 0
2022-06-26 02:49:45 GMT 34.897606 -103.889236 36,000 264 471 0
2022-06-26 02:49:33 GMT 34.900120 -103.861832 36,000 264 471 0
2022-06-26 02:49:24 GMT 34.902740 -103.834030 36,000 264 472 0
2022-06-26 02:49:11 GMT 34.906357 -103.795578 36,000 264 472 0
2022-06-26 02:48:58 GMT 34.909012 -103.767754 36,000 264 472 0
2022-06-26 02:48:47 GMT 34.911575 -103.740814 36,000 264 471 0
2022-06-26 02:48:37 GMT 34.914413 -103.710823 36,000 264 471 0
2022-06-26 02:48:26 GMT 34.916832 -103.684959 36,000 264 471 0
2022-06-26 02:48:16 GMT 34.919437 -103.657379 36,000 264 469 0
2022-06-26 02:48:04 GMT 34.922333 -103.626518 36,000 264 469 64
2022-06-26 02:47:26 GMT 34.932449 -103.516495 36,000 264 469 0
2022-06-26 02:46:44 GMT 34.941925 -103.413689 36,000 264 468 0
2022-06-26 02:46:31 GMT 34.944950 -103.380836 36,000 264 468 64
2022-06-26 02:46:21 GMT 34.947464 -103.353210 36,000 264 468 0
2022-06-26 02:46:09 GMT 34.949936 -103.325745 36,000 264 468 0
2022-06-26 02:46:00 GMT 34.952362 -103.298500 36,000 264 467 -64
2022-06-26 02:45:49 GMT 34.954773 -103.271423 36,000 264 467 0
2022-06-26 02:45:43 GMT 34.956123 -103.256325 36,000 264 467 0
2022-06-26 02:45:39 GMT 34.957237 -103.244019 36,000 264 467 0
2022-06-26 02:45:34 GMT 34.958588 -103.228912 36,000 264 467 0
2022-06-26 02:45:28 GMT 34.959595 -103.217003 36,000 264 466 0
2022-06-26 02:45:17 GMT 34.963383 -103.173805 36,000 264 466 0
2022-06-26 02:45:02 GMT 34.966003 -103.144241 36,000 264 465 0
2022-06-26 02:44:50 GMT 34.968739 -103.113098 36,000 264 465 64
2022-06-26 02:44:38 GMT 34.971207 -103.084717 36,000 264 465 0
2022-06-26 02:44:26 GMT 34.973579 -103.057655 36,000 264 465 0
2022-06-26 02:44:17 GMT 34.976028 -103.029671 36,000 264 465 64
2022-06-26 02:44:10 GMT 34.977348 -103.014679 36,000 264 465 0
2022-06-26 02:44:05 GMT 34.978420 -103.002434 36,000 264 465 0
2022-06-26 02:44:00 GMT 34.979736 -102.987183 36,000 264 466 0
2022-06-26 02:43:55 GMT 34.980797 -102.975082 36,000 264 466 -64
2022-06-26 02:43:51 GMT 34.981979 -102.961403 36,000 264 466 0
2022-06-26 02:43:44 GMT 34.983215 -102.947334 36,000 264 466 0
2022-06-26 02:43:39 GMT 34.984520 -102.932571 36,000 264 466 0
2022-06-26 02:43:31 GMT 34.986603 -102.909492 36,000 264 466 0
2022-06-26 02:43:19 GMT 34.989212 -102.879730 36,000 264 466 0
2022-06-26 02:43:11 GMT 34.990952 -102.860168 36,000 264 465 0
2022-06-26 02:43:06 GMT 34.992096 -102.847443 36,000 264 465 0
2022-06-26 02:43:01 GMT 34.993458 -102.831459 36,000 265 464 0
2022-06-26 02:42:57 GMT 34.994247 -102.822502 36,000 265 463 0
2022-06-26 02:42:48 GMT 34.996216 -102.799408 36,000 265 462 0
2022-06-26 02:42:38 GMT 34.998440 -102.773438 36,000 265 461 64
2022-06-26 02:42:27 GMT 35.000717 -102.745796 36,000 265 460 0
2022-06-26 02:42:17 GMT 35.003185 -102.716217 36,000 265 459 0
2022-06-26 02:42:02 GMT 35.006470 -102.677551 36,000 265 459 0
2022-06-26 02:41:52 GMT 35.008209 -102.657204 36,000 265 459 0
2022-06-26 02:41:44 GMT 35.010178 -102.633827 36,000 265 459 0
2022-06-26 02:41:31 GMT 35.012821 -102.602058 36,000 265 459 0
2022-06-26 02:41:21 GMT 35.015057 -102.575050 36,000 265 459 -64
2022-06-26 02:41:10 GMT 35.017197 -102.548508 36,000 265 459 64
2022-06-26 02:41:00 GMT 35.019665 -102.519203 36,000 265 460 0
2022-06-26 02:40:52 GMT 35.021439 -102.498459 36,000 265 460 0
2022-06-26 02:40:48 GMT 35.022720 -102.482994 36,000 265 461 0
2022-06-26 02:40:41 GMT 35.023590 -102.472900 36,000 265 461 0
2022-06-26 02:40:35 GMT 35.025112 -102.455238 36,000 265 462 0
2022-06-26 02:40:30 GMT 35.026382 -102.440109 36,000 265 462 -64
2022-06-26 02:40:24 GMT 35.027939 -102.421722 36,000 265 462 0
2022-06-26 02:40:19 GMT 35.028580 -102.413933 36,000 265 463 64
2022-06-26 02:40:10 GMT 35.030418 -102.392059 36,000 265 463 -64
2022-06-26 02:40:07 GMT 35.030960 -102.385406 36,000 265 463 0
2022-06-26 02:39:58 GMT 35.033066 -102.359451 36,000 265 464 0
2022-06-26 02:39:48 GMT 35.034981 -102.336731 36,000 265 464 -64
2022-06-26 02:39:43 GMT 35.035995 -102.324364 36,000 265 465 0
2022-06-26 02:39:36 GMT 35.037643 -102.304573 36,000 265 465 64
2022-06-26 02:39:27 GMT 35.039867 -102.277847 36,000 265 466 -64
2022-06-26 02:39:16 GMT 35.041965 -102.251984 36,000 265 467 -64
2022-06-26 02:39:08 GMT 35.043823 -102.228851 36,000 265 467 -64
2022-06-26 02:39:04 GMT 35.044662 -102.218224 36,000 265 467 0
2022-06-26 02:38:54 GMT 35.046570 -102.194824 36,000 265 467 64
2022-06-26 02:38:43 GMT 35.049179 -102.161865 36,000 265 468 64
2022-06-26 02:38:30 GMT 35.051468 -102.133278 36,000 265 469 -64
2022-06-26 02:38:21 GMT 35.053509 -102.106819 36,000 265 470 0
2022-06-26 02:38:13 GMT 35.054905 -102.089134 36,000 265 471 0
2022-06-26 02:38:10 GMT 35.055603 -102.079926 36,000 265 472 0
2022-06-26 02:38:06 GMT 35.056721 -102.065910 36,000 265 473 0
2022-06-26 02:38:00 GMT 35.057877 -102.050934 36,000 265 473 64
2022-06-26 02:37:56 GMT 35.058582 -102.041473 36,000 265 473 0
2022-06-26 02:37:49 GMT 35.059937 -102.024086 36,000 265 474 0
2022-06-26 02:37:46 GMT 35.060623 -102.015060 36,000 265 474 0
2022-06-26 02:37:42 GMT 35.061237 -102.006683 36,000 265 474 -64
2022-06-26 02:37:39 GMT 35.062180 -101.994606 36,000 265 474 -64
2022-06-26 02:37:33 GMT 35.063240 -101.980644 36,000 265 474 -64
2022-06-26 02:37:27 GMT 35.064682 -101.961761 36,000 265 474 64
2022-06-26 02:37:23 GMT 35.065239 -101.954330 36,000 265 474 0
2022-06-26 02:37:19 GMT 35.066032 -101.943741 36,000 265 474 0
2022-06-26 02:37:13 GMT 35.067261 -101.927399 36,000 265 474 -64
2022-06-26 02:37:10 GMT 35.068130 -101.915962 36,000 265 474 0
2022-06-26 02:37:03 GMT 35.069290 -101.901222 36,000 265 474 0
2022-06-26 02:36:55 GMT 35.070969 -101.879021 36,000 265 474 64
2022-06-26 02:36:49 GMT 35.072411 -101.860252 36,000 265 473 0
2022-06-26 02:36:42 GMT 35.074409 -101.833710 36,000 265 474 0
2022-06-26 02:36:37 GMT 35.074409 -101.833710 36,000 265 474 0
2022-06-26 02:36:34 GMT 35.075203 -101.823349 36,000 265 474 0
2022-06-26 02:36:31 GMT 35.075684 -101.816528 36,000 265 474 0
2022-06-26 02:36:28 GMT 35.076599 -101.804863 36,000 265 474 0
2022-06-26 02:36:22 GMT 35.078369 -101.781578 36,000 265 474 64
2022-06-26 02:36:15 GMT 35.078934 -101.774261 36,000 265 474 64
2022-06-26 02:36:10 GMT 35.080124 -101.759125 36,000 265 474 -64
2022-06-26 02:36:05 GMT 35.081303 -101.744102 36,000 265 474 0
2022-06-26 02:35:59 GMT 35.082184 -101.732559 36,000 265 474 0
2022-06-26 02:35:55 GMT 35.083023 -101.721786 36,000 265 474 0
2022-06-26 02:35:50 GMT 35.084290 -101.705711 36,000 265 474 0
2022-06-26 02:35:44 GMT 35.085350 -101.692024 36,000 265 474 0
2022-06-26 02:35:39 GMT 35.086514 -101.677666 36,000 263 472 0
2022-06-26 02:35:36 GMT 35.087585 -101.667259 36,000 260 472 0
2022-06-26 02:35:33 GMT 35.088135 -101.662773 36,000 260 472 0
2022-06-26 02:35:29 GMT 35.089874 -101.650162 36,000 259 472 64
2022-06-26 02:35:25 GMT 35.091122 -101.642471 36,000 258 472 64
2022-06-26 02:35:22 GMT 35.092567 -101.634407 36,000 258 471 64
2022-06-26 02:35:18 GMT 35.094753 -101.622734 36,000 258 472 0
2022-06-26 02:35:13 GMT 35.097015 -101.610703 36,000 258 472 -64
2022-06-26 02:35:08 GMT 35.100540 -101.592033 36,000 258 472 0
2022-06-26 02:35:03 GMT 35.102051 -101.584015 36,000 258 472 0
2022-06-26 02:34:55 GMT 35.105896 -101.563560 36,000 258 470 0
2022-06-26 02:34:53 GMT 35.106907 -101.558250 36,000 258 470 0
2022-06-26 02:34:49 GMT 35.108505 -101.549881 36,000 258 470 -64
2022-06-26 02:34:44 GMT 35.111561 -101.533180 36,000 259 470 -64
2022-06-26 02:34:33 GMT 35.115509 -101.505882 36,000 264 471 -64
2022-06-26 02:34:25 GMT 35.117340 -101.484528 36,000 267 471 0
2022-06-26 02:34:23 GMT 35.118122 -101.447472 36,000 269 472 64
2022-06-26 02:34:11 GMT 35.118122 -101.447472 36,000 270 472 -64
2022-06-26 02:34:03 GMT 35.118172 -101.430183 36,000 270 472 0
2022-06-26 02:34:01 GMT 35.118217 -101.421944 36,000 270 472 0
2022-06-26 02:33:54 GMT 35.118309 -101.404152 36,000 270 472 0
2022-06-26 02:33:50 GMT 35.118393 -101.390465 36,000 270 471 64
2022-06-26 02:33:40 GMT 35.118774 -101.356201 36,000 270 468 64
2022-06-26 02:33:34 GMT 35.118870 -101.348305 36,000 270 466 0
2022-06-26 02:33:31 GMT 35.118942 -101.340805 36,000 270 466 0
2022-06-26 02:33:26 GMT 35.119171 -101.327408 36,000 269 465 0
2022-06-26 02:33:20 GMT 35.119400 -101.310928 36,000 269 464 0
2022-06-26 02:33:14 GMT 35.119614 -101.299095 36,000 269 463 -64
2022-06-26 02:33:08 GMT 35.119892 -101.282387 36,000 269 463 -64
2022-06-26 02:33:05 GMT 35.120087 -101.272362 36,000 269 462 0
2022-06-26 02:33:01 GMT 35.120270 -101.262947 36,000 269 462 0
2022-06-26 02:32:58 GMT 35.120407 -101.256447 36,000 269 462 0
2022-06-26 02:32:54 GMT 35.120686 -101.244331 36,000 269 462 0
2022-06-26 02:32:49 GMT 35.120956 -101.234306 36,000 269 462 0
2022-06-26 02:32:46 GMT 35.121151 -101.226372 36,000 269 462 0
2022-06-26 02:32:43 GMT 35.121368 -101.216873 36,000 269 462 64
2022-06-26 02:32:39 GMT 35.121643 -101.205940 36,000 269 462 64
2022-06-26 02:32:33 GMT 35.122082 -101.187859 36,000 269 463 -64
2022-06-26 02:32:29 GMT 35.122330 -101.176231 36,000 269 463 -64
2022-06-26 02:32:24 GMT 35.122501 -101.168518 36,000 269 463 -64
2022-06-26 02:32:20 GMT 35.122780 -101.156563 36,000 269 463 0
2022-06-26 02:32:15 GMT 35.123016 -101.144676 36,000 269 463 0
2022-06-26 02:32:10 GMT 35.123383 -101.128258 36,000 269 463 64
2022-06-26 02:32:04 GMT 35.123657 -101.116257 36,000 269 463 0
2022-06-26 02:31:58 GMT 35.124023 -101.100845 36,000 269 464 0
2022-06-26 02:31:55 GMT 35.124252 -101.091202 36,000 269 464 64
2022-06-26 02:31:49 GMT 35.124664 -101.073936 36,000 269 465 -64
2022-06-26 02:31:44 GMT 35.124893 -101.064804 36,000 269 465 0
2022-06-26 02:31:37 GMT 35.125385 -101.045265 36,000 269 466 -64
2022-06-26 02:31:34 GMT 35.125572 -101.037430 36,000 269 466 -64
2022-06-26 02:31:28 GMT 35.126038 -101.018486 36,000 269 467 0
2022-06-26 02:31:25 GMT 35.126175 -101.009705 36,000 270 467 0
2022-06-26 02:31:22 GMT 35.126266 -100.999161 36,000 270 468 0
2022-06-26 02:31:17 GMT 35.126266 -100.993614 36,000 270 468 0
2022-06-26 02:31:13 GMT 35.126266 -100.982796 36,000 270 469 0
2022-06-26 02:31:09 GMT 35.126266 -100.956673 36,000 270 470 -128
2022-06-26 02:31:03 GMT 35.126266 -100.956673 36,000 270 470 -64
2022-06-26 02:30:54 GMT 35.126266 -100.930946 36,000 270 470 0
2022-06-26 02:30:46 GMT 35.126266 -100.911888 36,000 270 471 128
2022-06-26 02:30:43 GMT 35.126270 -100.903244 36,000 270 471 64
2022-06-26 02:30:38 GMT 35.126312 -100.888519 36,000 270 472 -64
2022-06-26 02:30:35 GMT 35.126316 -100.881210 36,000 270 472 -64
2022-06-26 02:30:32 GMT 35.126362 -100.872749 36,000 270 472 -64
2022-06-26 02:30:27 GMT 35.126358 -100.856903 36,000 271 472 -64
2022-06-26 02:30:22 GMT 35.126316 -100.846138 36,000 271 472 0
2022-06-26 02:30:17 GMT 35.126266 -100.833244 36,025 271 471 -64
2022-06-26 02:30:12 GMT 35.126225 -100.819588 36,000 271 471 0
2022-06-26 02:30:04 GMT 35.126270 -100.799957 36,000 269 470 0
2022-06-26 02:30:01 GMT 35.126541 -100.788406 36,000 268 470 -64
2022-06-26 02:29:54 GMT 35.127548 -100.769066 36,025 266 471 0
2022-06-26 02:29:51 GMT 35.127853 -100.764198 36,000 266 471 64
2022-06-26 02:29:45 GMT 35.128830 -100.749222 36,000 266 472 -64
2022-06-26 02:29:42 GMT 35.129471 -100.739693 36,000 266 472 -64
2022-06-26 02:29:33 GMT 35.130936 -100.716606 36,000 266 471 0
2022-06-26 02:29:30 GMT 35.131577 -100.707077 36,000 266 471 0
2022-06-26 02:29:22 GMT 35.132904 -100.686729 36,000 266 469 -64
2022-06-26 02:29:20 GMT 35.133301 -100.681061 36,000 266 468 0
2022-06-26 02:29:14 GMT 35.134232 -100.666992 36,000 266 467 0
2022-06-26 02:29:11 GMT 35.134743 -100.659256 36,000 266 467 64
2022-06-26 02:29:08 GMT 35.135300 -100.650848 36,000 266 466 64
2022-06-26 02:29:04 GMT 35.136002 -100.640602 36,000 266 465 0
2022-06-26 02:29:01 GMT 35.136520 -100.632919 36,000 266 465 0
2022-06-26 02:28:59 GMT 35.137024 -100.625290 36,000 266 465 0
2022-06-26 02:28:51 GMT 35.138607 -100.601173 36,000 266 463 -64
2022-06-26 02:28:49 GMT 35.138607 -100.601173 36,000 266 463 0
2022-06-26 02:28:40 GMT 35.139957 -100.579834 36,000 266 462 0
2022-06-26 02:28:38 GMT 35.140377 -100.573082 36,000 266 462 0
2022-06-26 02:28:31 GMT 35.141586 -100.553856 36,000 266 461 0
2022-06-26 02:28:28 GMT 35.142242 -100.543121 36,000 266 460 0
2022-06-26 02:28:20 GMT 35.143204 -100.527084 36,000 266 460 0
2022-06-26 02:28:17 GMT 35.143822 -100.517120 36,000 266 459 0
2022-06-26 02:28:11 GMT 35.144806 -100.501526 36,000 266 458 64
2022-06-26 02:28:06 GMT 35.145638 -100.488510 36,000 266 458 0
2022-06-26 02:28:00 GMT 35.146408 -100.475800 36,000 266 457 -64
2022-06-26 02:27:56 GMT 35.147221 -100.463104 36,000 266 457 0
2022-06-26 02:27:52 GMT 35.147823 -100.453033 36,000 266 456 -64
2022-06-26 02:27:47 GMT 35.148754 -100.438438 36,000 266 456 0
2022-06-26 02:27:40 GMT 35.149734 -100.422821 36,000 266 456 64
2022-06-26 02:27:36 GMT 35.150433 -100.411263 36,000 266 455 -64
2022-06-26 02:27:30 GMT 35.151352 -100.396820 36,000 266 455 -64
2022-06-26 02:27:25 GMT 35.152386 -100.381050 36,000 266 454 64
2022-06-26 02:27:21 GMT 35.152897 -100.372871 36,000 266 454 64
2022-06-26 02:27:18 GMT 35.153137 -100.368912 36,000 266 454 64
2022-06-26 02:27:14 GMT 35.154015 -100.354790 36,000 266 453 0
2022-06-26 02:27:09 GMT 35.154694 -100.344185 36,000 266 453 0
2022-06-26 02:27:04 GMT 35.155506 -100.330811 36,000 266 452 -64
2022-06-26 02:26:58 GMT 35.156483 -100.315079 36,000 266 452 0
2022-06-26 02:26:54 GMT 35.157322 -100.301575 36,000 266 452 64
2022-06-26 02:26:48 GMT 35.158298 -100.286064 36,000 266 452 0
2022-06-26 02:26:42 GMT 35.158855 -100.276398 36,000 266 453 0
2022-06-26 02:26:38 GMT 35.159554 -100.265236 36,000 266 453 -64
2022-06-26 02:26:32 GMT 35.160625 -100.246864 36,000 266 453 -128
2022-06-26 02:26:28 GMT 35.161102 -100.238869 36,000 266 452 -64
2022-06-26 02:26:25 GMT 35.161697 -100.229301 36,000 266 452 64
2022-06-26 02:26:21 GMT 35.162109 -100.222832 36,000 266 452 64
2022-06-26 02:26:18 GMT 35.162674 -100.213570 36,000 266 452 0
2022-06-26 02:26:12 GMT 35.163696 -100.196800 36,000 266 451 -64
2022-06-26 02:26:08 GMT 35.164307 -100.186737 36,000 266 451 -64
2022-06-26 02:26:03 GMT 35.164948 -100.176369 36,000 266 451 0
2022-06-26 02:26:00 GMT 35.165405 -100.169022 36,000 266 451 0
2022-06-26 02:25:57 GMT 35.165932 -100.160004 36,000 266 451 64
2022-06-26 02:25:53 GMT 35.166492 -100.150848 36,000 266 452 64
2022-06-26 02:25:48 GMT 35.167328 -100.137115 36,000 266 452 0
2022-06-26 02:25:46 GMT 35.167515 -100.133347 36,000 266 452 0
2022-06-26 02:25:43 GMT 35.168121 -100.123383 36,000 266 452 0
2022-06-26 02:25:36 GMT 35.169022 -100.107536 36,000 266 452 0
2022-06-26 02:25:31 GMT 35.169708 -100.096100 36,000 266 452 0
2022-06-26 02:25:28 GMT 35.170307 -100.086021 36,000 266 452 64
2022-06-26 02:25:25 GMT 35.170589 -100.080704 36,000 266 452 0
2022-06-26 02:25:21 GMT 35.171192 -100.070229 36,000 266 453 0
2022-06-26 02:25:17 GMT 35.171814 -100.059441 36,000 266 453 64
2022-06-26 02:25:15 GMT 35.172218 -100.053177 36,000 266 453 0
2022-06-26 02:25:12 GMT 35.172775 -100.043915 36,000 266 453 0
2022-06-26 02:25:08 GMT 35.173382 -100.033607 36,000 266 453 0
2022-06-26 02:25:05 GMT 35.173847 -100.025711 36,000 266 453 0
2022-06-26 02:25:00 GMT 35.174404 -100.016502 36,000 266 453 0
2022-06-26 02:24:56 GMT 35.175110 -100.004395 36,000 266 453 64
2022-06-26 02:24:53 GMT 35.175430 -99.999069 36,000 266 453 0
2022-06-26 02:24:50 GMT 35.176025 -99.988647 36,000 266 453 0
2022-06-26 02:24:47 GMT 35.176453 -99.981361 36,000 266 453 0
2022-06-26 02:24:44 GMT 35.176941 -99.972557 36,000 266 453 -64
2022-06-26 02:24:40 GMT 35.177490 -99.963142 36,000 266 453 -64
2022-06-26 02:24:36 GMT 35.177902 -99.955742 36,000 266 453 -64
2022-06-26 02:24:33 GMT 35.178455 -99.946175 36,000 266 453 0
2022-06-26 02:24:28 GMT 35.179062 -99.935989 36,000 266 454 0
2022-06-26 02:24:23 GMT 35.180084 -99.918877 36,000 266 454 0
2022-06-26 02:24:16 GMT 35.181015 -99.902573 36,000 266 454 -64
2022-06-26 02:24:12 GMT 35.181622 -99.892326 36,000 266 454 0
2022-06-26 02:24:05 GMT 35.182800 -99.872284 36,000 266 454 64
2022-06-26 02:24:02 GMT 35.183167 -99.866173 36,000 266 454 64
2022-06-26 02:23:56 GMT 35.183994 -99.852051 36,000 266 453 0
2022-06-26 02:23:51 GMT 35.184738 -99.839516 36,000 266 453 -64
2022-06-26 02:23:46 GMT 35.185486 -99.826530 36,000 266 453 0
2022-06-26 02:23:41 GMT 35.186371 -99.811539 36,000 266 452 0
2022-06-26 02:23:36 GMT 35.187012 -99.800194 36,000 266 452 64
2022-06-26 02:23:33 GMT 35.187302 -99.795227 36,000 266 452 64
2022-06-26 02:23:30 GMT 35.187859 -99.785843 36,000 266 452 128
2022-06-26 02:23:25 GMT 35.188835 -99.769020 36,000 266 453 0
2022-06-26 02:23:23 GMT 35.188835 -99.769020 36,000 266 453 -64
2022-06-26 02:23:20 GMT 35.189392 -99.758995 36,000 266 453 -128
2022-06-26 02:23:15 GMT 35.190231 -99.744591 36,000 267 453 0
2022-06-26 02:23:12 GMT 35.190399 -99.741905 36,000 267 453 0
2022-06-26 02:23:09 GMT 35.190948 -99.732262 36,000 267 453 64
2022-06-26 02:23:05 GMT 35.191444 -99.723244 36,000 267 453 64
2022-06-26 02:23:02 GMT 35.191910 -99.715446 36,000 267 453 0
2022-06-26 02:22:59 GMT 35.192459 -99.705521 36,000 267 453 -64
2022-06-26 02:22:55 GMT 35.192932 -99.697266 36,000 267 453 0
2022-06-26 02:22:51 GMT 35.193649 -99.684898 36,000 267 453 0
2022-06-26 02:22:45 GMT 35.194427 -99.670883 36,000 266 453 0
2022-06-26 02:22:38 GMT 35.195496 -99.651947 36,000 267 453 -64
2022-06-26 02:22:33 GMT 35.196259 -99.638824 36,000 267 453 -64
2022-06-26 02:22:27 GMT 35.197037 -99.625092 36,000 267 453 0
2022-06-26 02:22:24 GMT 35.197357 -99.619202 36,000 267 453 0
2022-06-26 02:22:20 GMT 35.198006 -99.607597 36,000 267 452 0
2022-06-26 02:22:17 GMT 35.198521 -99.598679 36,000 267 452 0
2022-06-26 02:22:14 GMT 35.198868 -99.591965 36,000 267 452 0
2022-06-26 02:22:12 GMT 35.199234 -99.585350 36,000 267 452 0
2022-06-26 02:22:09 GMT 35.199554 -99.579742 36,000 267 453 0
2022-06-26 02:22:06 GMT 35.199966 -99.571838 36,000 267 452 0
2022-06-26 02:22:03 GMT 35.200333 -99.565445 36,000 267 453 0
2022-06-26 02:21:59 GMT 35.201035 -99.553070 36,000 267 452 -64
2022-06-26 02:21:56 GMT 35.201450 -99.545464 36,000 267 452 -64
2022-06-26 02:21:53 GMT 35.201687 -99.540596 36,000 267 452 -64
2022-06-26 02:21:48 GMT 35.202484 -99.526436 36,000 267 452 0
2022-06-26 02:21:43 GMT 35.203079 -99.515282 36,000 267 452 64
2022-06-26 02:21:41 GMT 35.203491 -99.507378 36,000 267 452 64
2022-06-26 02:21:37 GMT 35.203903 -99.499756 36,000 267 452 64
2022-06-26 02:21:33 GMT 35.204433 -99.489441 36,000 267 451 64
2022-06-26 02:21:28 GMT 35.205315 -99.473419 36,000 267 451 0
2022-06-26 02:21:23 GMT 35.205875 -99.462952 36,000 267 451 0
2022-06-26 02:21:16 GMT 35.206806 -99.446693 36,000 267 451 0
2022-06-26 02:21:13 GMT 35.207317 -99.437309 36,000 267 450 0
2022-06-26 02:21:06 GMT 35.208248 -99.420547 36,000 267 451 0
2022-06-26 02:21:03 GMT 35.208714 -99.411674 36,000 267 451 64
2022-06-26 02:21:00 GMT 35.209259 -99.402168 36,000 267 451 64
2022-06-26 02:20:56 GMT 35.209690 -99.394173 36,000 267 450 64
2022-06-26 02:20:53 GMT 35.210220 -99.385185 36,000 267 450 0
2022-06-26 02:20:49 GMT 35.210670 -99.376205 36,000 267 450 0
2022-06-26 02:20:45 GMT 35.211090 -99.368202 36,000 267 450 0
2022-06-26 02:20:42 GMT 35.211601 -99.358406 36,000 267 450 64
2022-06-26 02:20:39 GMT 35.212006 -99.350937 36,000 267 451 0
2022-06-26 02:20:35 GMT 35.212601 -99.340004 36,000 267 451 0
2022-06-26 02:20:32 GMT 35.212997 -99.332481 36,000 267 451 0
2022-06-26 02:20:28 GMT 35.213463 -99.324127 36,000 267 451 0
2022-06-26 02:20:25 GMT 35.213928 -99.315208 36,000 267 451 -64
2022-06-26 02:20:22 GMT 35.214432 -99.306206 36,000 267 451 -64
2022-06-26 02:20:18 GMT 35.214859 -99.297691 36,000 267 451 0
2022-06-26 02:20:12 GMT 35.215652 -99.282646 36,000 267 451 0
2022-06-26 02:20:10 GMT 35.215851 -99.278740 36,000 267 451 0
2022-06-26 02:20:05 GMT 35.216675 -99.263077 36,000 267 451 0
2022-06-26 02:20:01 GMT 35.217232 -99.252090 36,000 267 452 0
2022-06-26 02:19:57 GMT 35.217697 -99.242935 36,000 267 452 0
2022-06-26 02:19:54 GMT 35.218025 -99.236298 36,000 267 452 0
2022-06-26 02:19:51 GMT 35.218323 -99.230812 36,000 267 452 0
2022-06-26 02:19:47 GMT 35.218918 -99.219101 36,000 267 452 0
2022-06-26 02:19:44 GMT 35.219421 -99.209290 36,000 267 452 0
2022-06-26 02:19:41 GMT 35.219696 -99.204079 36,000 267 452 0
2022-06-26 02:19:37 GMT 35.220261 -99.192696 36,000 267 452 0
2022-06-26 02:19:34 GMT 35.220726 -99.183540 36,000 267 452 0
2022-06-26 02:19:31 GMT 35.221004 -99.178452 36,000 267 452 0
2022-06-26 02:19:29 GMT 35.221283 -99.173355 36,000 267 452 0
2022-06-26 02:19:26 GMT 35.221710 -99.164276 36,000 267 452 0
2022-06-26 02:19:20 GMT 35.222446 -99.150642 36,000 267 452 0
2022-06-26 02:19:16 GMT 35.223007 -99.140450 36,000 267 453 0
2022-06-26 02:19:13 GMT 35.223541 -99.130089 36,000 267 453 0
2022-06-26 02:19:10 GMT 35.223751 -99.125633 36,000 267 453 0
2022-06-26 02:19:06 GMT 35.224358 -99.114647 36,000 267 453 0
2022-06-26 02:19:01 GMT 35.225052 -99.101501 36,000 267 453 0
2022-06-26 02:18:58 GMT 35.225613 -99.091125 36,000 267 454 0
2022-06-26 02:18:55 GMT 35.225800 -99.087296 36,000 267 454 64
2022-06-26 02:18:50 GMT 35.226517 -99.073868 36,000 267 454 64
2022-06-26 02:18:46 GMT 35.227158 -99.061874 36,000 267 454 0
2022-06-26 02:18:40 GMT 35.227894 -99.047646 36,000 267 455 0
2022-06-26 02:18:37 GMT 35.228638 -99.033279 36,000 267 455 -64
2022-06-26 02:18:30 GMT 35.229218 -99.022118 36,000 267 455 -64
2022-06-26 02:18:25 GMT 35.229897 -99.008614 36,000 267 455 64
2022-06-26 02:18:19 GMT 35.230595 -98.995056 36,000 267 455 64
2022-06-26 02:18:16 GMT 35.231094 -98.984642 36,000 267 456 64
2022-06-26 02:18:13 GMT 35.231644 -98.974342 36,000 267 456 0
2022-06-26 02:18:10 GMT 35.231850 -98.969574 36,000 267 456 0
2022-06-26 02:18:04 GMT 35.232605 -98.954544 36,000 267 456 -64
2022-06-26 02:17:59 GMT 35.233154 -98.944016 36,000 267 456 -64
2022-06-26 02:17:54 GMT 35.233887 -98.929085 36,000 267 456 64
2022-06-26 02:17:49 GMT 35.234409 -98.918388 36,000 267 456 0
2022-06-26 02:17:43 GMT 35.235203 -98.902199 36,000 267 456 -64
2022-06-26 02:17:39 GMT 35.235714 -98.891853 36,000 267 456 0
2022-06-26 02:17:32 GMT 35.236816 -98.869858 36,000 267 456 0
2022-06-26 02:17:28 GMT 35.237137 -98.863731 36,000 267 456 64
2022-06-26 02:17:23 GMT 35.237823 -98.849319 36,000 267 456 0
2022-06-26 02:17:18 GMT 35.238369 -98.837860 36,000 267 456 64
2022-06-26 02:17:12 GMT 35.239159 -98.822433 36,000 267 456 128
2022-06-26 02:17:08 GMT 35.239700 -98.811035 36,000 267 456 128
2022-06-26 02:17:03 GMT 35.240463 -98.795959 36,000 267 456 64
2022-06-26 02:16:58 GMT 35.241028 -98.783745 35,975 267 456 64
2022-06-26 02:16:49 GMT 35.242081 -98.761368 36,000 267 456 -128
2022-06-26 02:16:46 GMT 35.242310 -98.756218 36,000 267 456 -64
2022-06-26 02:16:42 GMT 35.242950 -98.742538 36,000 267 456 -64
2022-06-26 02:16:39 GMT 35.243271 -98.735847 36,000 267 456 -64
2022-06-26 02:16:36 GMT 35.244278 -98.714790 36,000 267 455 -64
2022-06-26 02:16:30 GMT 35.244278 -98.714790 36,025 267 455 -64
2022-06-26 02:16:27 GMT 35.244827 -98.703232 36,025 267 454 0
2022-06-26 02:16:21 GMT 35.245560 -98.688126 36,000 267 454 0
2022-06-26 02:16:18 GMT 35.245770 -98.683929 36,000 267 454 0
2022-06-26 02:16:16 GMT 35.246048 -98.677505 36,000 267 453 -64
2022-06-26 02:16:11 GMT 35.246658 -98.665123 36,000 267 453 -64
2022-06-26 02:16:08 GMT 35.247028 -98.657578 36,025 267 453 -64
2022-06-26 02:16:06 GMT 35.247307 -98.650917 36,025 267 453 -64
2022-06-26 02:15:58 GMT 35.248260 -98.631363 36,000 267 452 448
2022-06-26 02:15:55 GMT 35.248627 -98.623466 35,950 267 452 832
2022-06-26 02:15:50 GMT 35.249214 -98.611588 35,875 267 453 1024
2022-06-26 02:15:47 GMT 35.249588 -98.603783 35,825 267 453 960
2022-06-26 02:15:45 GMT 35.249863 -98.598175 35,800 267 454 896
2022-06-26 02:15:40 GMT 35.250504 -98.584900 35,725 267 454 832
2022-06-26 02:15:37 GMT 35.250843 -98.578339 35,675 267 454 832
2022-06-26 02:15:35 GMT 35.251144 -98.571342 35,650 267 454 832
2022-06-26 02:15:27 GMT 35.252007 -98.552505 35,550 267 453 768
2022-06-26 02:15:24 GMT 35.252380 -98.544441 35,525 267 453 704
2022-06-26 02:15:19 GMT 35.252884 -98.533173 35,450 268 453 960
2022-06-26 02:15:16 GMT 35.253220 -98.525391 35,400 267 453 1088
2022-06-26 02:15:13 GMT 35.253571 -98.517609 35,350 266 453 1024
2022-06-26 02:15:08 GMT 35.254715 -98.501244 35,250 264 452 832
2022-06-26 02:15:03 GMT 35.255722 -98.491402 35,200 262 451 960
2022-06-26 02:14:59 GMT 35.256897 -98.481155 35,125 262 451 960
2022-06-26 02:14:56 GMT 35.257690 -98.474464 35,075 262 451 896
2022-06-26 02:14:52 GMT 35.258900 -98.464500 35,025 262 451 704
2022-06-26 02:14:46 GMT 35.260761 -98.449127 34,975 262 450 576
2022-06-26 02:14:43 GMT 35.261971 -98.439079 34,925 262 450 576
2022-06-26 02:14:36 GMT 35.263924 -98.422714 34,875 262 449 576
2022-06-26 02:14:32 GMT 35.265182 -98.412666 34,825 262 449 832
2022-06-26 02:14:26 GMT 35.266998 -98.397354 34,675 262 450 1152
2022-06-26 02:14:19 GMT 35.269184 -98.379234 34,575 262 451 1216
2022-06-26 02:14:15 GMT 35.270370 -98.369576 34,525 262 451 1088
2022-06-26 02:14:10 GMT 35.271606 -98.359451 34,450 262 452 1280
2022-06-26 02:14:06 GMT 35.273849 -98.340736 34,275 262 453 1344
2022-06-26 02:14:01 GMT 35.274586 -98.334534 34,000 262 452 0
2022-06-26 02:13:54 GMT 35.276733 -98.316650 34,125 262 454 1024
2022-06-26 02:13:51 GMT 35.277752 -98.308411 34,000 262 452 0
2022-06-26 02:13:43 GMT 35.279892 -98.290352 34,025 262 453 192
2022-06-26 02:13:40 GMT 35.280869 -98.282288 34,000 262 452 64
2022-06-26 02:13:33 GMT 35.283058 -98.263763 34,000 262 452 0
2022-06-26 02:13:30 GMT 35.283966 -98.256058 34,000 262 452 0
2022-06-26 02:13:25 GMT 35.285385 -98.243774 34,000 262 453 0
2022-06-26 02:13:20 GMT 35.287170 -98.228706 34,000 262 453 0
2022-06-26 02:13:15 GMT 35.288406 -98.218346 34,000 262 453 0
2022-06-26 02:13:13 GMT 35.289230 -98.211021 34,000 262 453 0
2022-06-26 02:13:09 GMT 35.290134 -98.203514 34,000 262 453 0
2022-06-26 02:13:03 GMT 35.291931 -98.187965 34,000 262 453 0
2022-06-26 02:13:01 GMT 35.292370 -98.184525 34,000 262 453 0
2022-06-26 02:12:58 GMT 35.293671 -98.173126 34,000 262 453 0
2022-06-26 02:12:54 GMT 35.294556 -98.165527 34,000 262 453 0
2022-06-26 02:12:52 GMT 35.295456 -98.158035 34,000 262 453 0
2022-06-26 02:12:47 GMT 35.297024 -98.144730 34,000 262 453 64
2022-06-26 02:12:44 GMT 35.297562 -98.140015 34,000 262 454 0
2022-06-26 02:12:41 GMT 35.298431 -98.132401 34,000 262 454 0
2022-06-26 02:12:38 GMT 35.301590 -98.105225 34,000 262 455 0
2022-06-26 02:12:31 GMT 35.301590 -98.105225 34,000 262 454 0
2022-06-26 02:12:28 GMT 35.302460 -98.097839 34,000 262 454 0
2022-06-26 02:12:25 GMT 35.303009 -98.093262 34,000 262 454 -64
2022-06-26 02:12:20 GMT 35.304703 -98.078789 34,000 262 455 -64
2022-06-26 02:12:14 GMT 35.306396 -98.064308 34,000 262 455 0
2022-06-26 02:12:09 GMT 35.307770 -98.052582 34,000 262 455 0
2022-06-26 02:12:04 GMT 35.309361 -98.039246 34,000 262 455 0
2022-06-26 02:11:57 GMT 35.311798 -98.018761 34,000 262 455 0
2022-06-26 02:11:53 GMT 35.312668 -98.011192 34,000 262 455 0
2022-06-26 02:11:46 GMT 35.314945 -97.991852 34,000 262 455 0
2022-06-26 02:11:43 GMT 35.315689 -97.985863 34,000 262 456 0
2022-06-26 02:11:39 GMT 35.317322 -97.971985 34,000 262 456 0
2022-06-26 02:11:34 GMT 35.318848 -97.959084 34,000 262 456 0
2022-06-26 02:11:28 GMT 35.320625 -97.944168 34,000 263 454 64
2022-06-26 02:11:25 GMT 35.321278 -97.938789 34,000 263 454 64
2022-06-26 02:11:22 GMT 35.322163 -97.931137 34,000 262 456 0
2022-06-26 02:11:17 GMT 35.323608 -97.918510 34,000 262 456 0
2022-06-26 02:11:13 GMT 35.325188 -97.904839 34,000 262 456 0
2022-06-26 02:11:05 GMT 35.327423 -97.885437 34,000 262 456 0
2022-06-26 02:11:02 GMT 35.328140 -97.879486 34,000 262 456 0
2022-06-26 02:10:56 GMT 35.329788 -97.865181 34,000 263 456 0
2022-06-26 02:10:51 GMT 35.331379 -97.851250 34,000 263 456 0
2022-06-26 02:10:46 GMT 35.332809 -97.838631 34,000 263 456 0
2022-06-26 02:10:43 GMT 35.333496 -97.832504 34,000 263 454 64
2022-06-26 02:10:40 GMT 35.334549 -97.823006 34,000 263 456 0
2022-06-26 02:10:34 GMT 35.336407 -97.806313 34,000 263 456 0
2022-06-26 02:10:31 GMT 35.337296 -97.798515 34,000 263 456 0
2022-06-26 02:10:23 GMT 35.339294 -97.780251 34,000 263 456 -64
2022-06-26 02:10:19 GMT 35.340225 -97.771744 34,000 263 455 -64
2022-06-26 02:10:15 GMT 35.341736 -97.757950 34,000 263 454 -64
2022-06-26 02:10:10 GMT 35.343063 -97.745827 34,000 263 454 0
2022-06-26 02:10:04 GMT 35.344620 -97.731743 34,000 263 454 0
2022-06-26 02:09:59 GMT 35.345951 -97.719353 34,000 263 454 0
2022-06-26 02:09:52 GMT 35.347961 -97.701187 34,000 263 453 0
2022-06-26 02:09:49 GMT 35.348877 -97.692551 34,000 263 454 0
2022-06-26 02:09:42 GMT 35.351852 -97.665825 34,000 263 454 0
2022-06-26 02:09:38 GMT 35.351852 -97.665825 34,000 263 454 0
2022-06-26 02:09:31 GMT 35.353958 -97.647423 34,000 262 453 0
2022-06-26 02:09:27 GMT 35.355167 -97.637253 34,000 262 452 0
2022-06-26 02:09:20 GMT 35.357162 -97.621193 34,000 262 454 0
2022-06-26 02:09:16 GMT 35.358353 -97.611870 34,000 262 452 0
2022-06-26 02:09:11 GMT 35.360382 -97.596054 34,000 262 452 0
2022-06-26 02:09:05 GMT 35.362057 -97.583138 34,000 262 452 0
2022-06-26 02:09:00 GMT 35.363827 -97.569290 34,000 262 452 0
2022-06-26 02:08:56 GMT 35.365128 -97.559052 34,000 262 452 0
2022-06-26 02:08:49 GMT 35.367226 -97.542755 34,000 262 452 0
2022-06-26 02:08:46 GMT 35.368668 -97.531654 34,000 261 452 0
2022-06-26 02:08:39 GMT 35.370625 -97.516457 34,000 261 452 0
2022-06-26 02:08:34 GMT 35.372086 -97.505264 34,000 261 452 0
2022-06-26 02:08:28 GMT 35.373974 -97.490456 34,000 261 452 0
2022-06-26 02:08:25 GMT 35.375420 -97.479584 34,000 262 452 0
2022-06-26 02:08:19 GMT 35.377419 -97.463921 34,000 262 452 0
2022-06-26 02:08:13 GMT 35.378864 -97.452583 34,000 262 452 0
2022-06-26 02:08:08 GMT 35.380692 -97.438026 34,000 262 454 0
2022-06-26 02:08:04 GMT 35.382156 -97.426414 34,000 262 452 0
2022-06-26 02:07:57 GMT 35.383987 -97.411995 34,000 262 452 0
2022-06-26 02:07:52 GMT 35.385635 -97.399345 34,000 262 452 -64
2022-06-26 02:07:48 GMT 35.387383 -97.385849 34,000 261 452 -64
2022-06-26 02:07:43 GMT 35.389069 -97.372566 34,000 261 452 0
2022-06-26 02:07:36 GMT 35.390781 -97.359322 34,000 262 452 0
2022-06-26 02:07:31 GMT 35.392456 -97.346306 34,000 262 452 64
2022-06-26 02:07:26 GMT 35.394333 -97.331886 34,000 262 452 0
2022-06-26 02:07:22 GMT 35.395809 -97.320404 34,000 262 452 0
2022-06-26 02:07:16 GMT 35.397621 -97.306259 34,000 262 454 0
2022-06-26 02:07:10 GMT 35.399345 -97.292816 34,000 262 453 0
2022-06-26 02:07:04 GMT 35.401703 -97.274490 34,000 262 454 0
2022-06-26 02:07:01 GMT 35.402710 -97.266373 34,000 262 453 0
2022-06-26 02:06:54 GMT 35.404652 -97.251328 34,000 262 454 0
2022-06-26 02:06:49 GMT 35.406097 -97.239822 34,000 262 453 0
2022-06-26 02:06:44 GMT 35.407726 -97.227249 34,000 262 453 -64
2022-06-26 02:06:39 GMT 35.409485 -97.213211 34,000 262 453 0
2022-06-26 02:06:35 GMT 35.410950 -97.201767 34,000 262 453 0
2022-06-26 02:06:28 GMT 35.412827 -97.187057 34,000 262 453 64
2022-06-26 02:06:23 GMT 35.414474 -97.174011 34,000 262 454 0
2022-06-26 02:06:19 GMT 35.416199 -97.160339 34,000 262 454 0
2022-06-26 02:06:14 GMT 35.419456 -97.134216 34,000 262 454 0
2022-06-26 02:06:08 GMT 35.419456 -97.134216 34,000 262 454 0
2022-06-26 02:06:03 GMT 35.421021 -97.121658 34,000 262 454 0
2022-06-26 02:05:58 GMT 35.422897 -97.106438 34,000 262 454 0
2022-06-26 02:05:53 GMT 35.424343 -97.094887 34,000 262 454 0
2022-06-26 02:05:46 GMT 35.426102 -97.080521 34,000 262 454 0
2022-06-26 02:05:41 GMT 35.427841 -97.066841 34,000 262 453 0
2022-06-26 02:05:37 GMT 35.429466 -97.053810 34,000 262 453 0
2022-06-26 02:05:32 GMT 35.430862 -97.042747 34,000 262 453 0
2022-06-26 02:05:26 GMT 35.432770 -97.027687 34,000 262 452 0
2022-06-26 02:05:21 GMT 35.436127 -97.001778 34,000 261 452 0
2022-06-26 02:05:16 GMT 35.436127 -97.001778 34,000 261 452 0
2022-06-26 02:05:11 GMT 35.437798 -96.988998 34,000 261 452 0
2022-06-26 02:05:05 GMT 35.439659 -96.974564 34,000 261 452 0
2022-06-26 02:05:00 GMT 35.441299 -96.962296 34,000 260 452 0
2022-06-26 02:04:55 GMT 35.443542 -96.947990 34,000 258 451 0
2022-06-26 02:04:50 GMT 35.445694 -96.936264 34,000 255 451 64
2022-06-26 02:04:43 GMT 35.448784 -96.921852 34,000 255 451 64
2022-06-26 02:04:39 GMT 35.451462 -96.910461 34,000 254 451 0
2022-06-26 02:04:34 GMT 35.454651 -96.897079 34,000 254 451 0
2022-06-26 02:04:28 GMT 35.457504 -96.884933 34,000 254 451 0
2022-06-26 02:04:25 GMT 35.459492 -96.876450 34,000 254 451 0
2022-06-26 02:04:22 GMT 35.460983 -96.870171 34,000 254 451 0
2022-06-26 02:04:19 GMT 35.463821 -96.858154 34,000 254 451 0
2022-06-26 02:04:13 GMT 35.467171 -96.843781 34,000 254 451 0
2022-06-26 02:04:08 GMT 35.469910 -96.832123 34,000 254 451 0
2022-06-26 02:04:05 GMT 35.471741 -96.824509 34,000 254 451 0
2022-06-26 02:03:56 GMT 35.476089 -96.805862 34,000 254 452 0
2022-06-26 02:03:52 GMT 35.479183 -96.792709 34,000 254 452 0
2022-06-26 02:03:47 GMT 35.482132 -96.780281 34,000 254 452 0
2022-06-26 02:03:43 GMT 35.483597 -96.773872 34,000 254 452 0
2022-06-26 02:03:40 GMT 35.485428 -96.766205 34,000 254 452 0
2022-06-26 02:03:37 GMT 35.487213 -96.758598 34,000 255 453 0
2022-06-26 02:03:34 GMT 35.489750 -96.747887 34,000 254 453 0
2022-06-26 02:03:31 GMT 35.491474 -96.740463 34,000 254 453 0
2022-06-26 02:03:26 GMT 35.494171 -96.729012 34,000 254 453 0
2022-06-26 02:03:22 GMT 35.495850 -96.721939 34,000 254 453 0
2022-06-26 02:03:17 GMT 35.499069 -96.708244 34,000 254 454 0
2022-06-26 02:03:13 GMT 35.501953 -96.696114 34,000 254 454 0
2022-06-26 02:03:08 GMT 35.504696 -96.684364 34,000 254 454 0
2022-06-26 02:03:05 GMT 35.506485 -96.676826 34,000 254 455 0
2022-06-26 02:03:01 GMT 35.508232 -96.669289 34,000 254 455 0
2022-06-26 02:02:57 GMT 35.511292 -96.656281 34,000 254 455 0
2022-06-26 02:02:51 GMT 35.513809 -96.645584 34,000 254 456 0
2022-06-26 02:02:44 GMT 35.518658 -96.624870 34,000 254 456 0
2022-06-26 02:02:41 GMT 35.519821 -96.619904 34,000 254 456 0
2022-06-26 02:02:35 GMT 35.523193 -96.605415 34,000 254 456 0
2022-06-26 02:02:31 GMT 35.525921 -96.593842 34,000 255 456 0
2022-06-26 02:02:25 GMT 35.529053 -96.580299 34,000 255 456 0
2022-06-26 02:02:21 GMT 35.531925 -96.567955 34,000 255 457 0
2022-06-26 02:02:15 GMT 35.535091 -96.554512 34,000 255 457 0
2022-06-26 02:02:10 GMT 35.537933 -96.542191 34,000 255 457 0
2022-06-26 02:02:05 GMT 35.541328 -96.527634 34,000 255 457 -64
2022-06-26 02:02:00 GMT 35.543884 -96.516556 34,000 255 457 0
2022-06-26 02:01:54 GMT 35.547104 -96.502739 34,000 255 457 0
2022-06-26 02:01:50 GMT 35.550034 -96.489998 34,000 255 458 0
2022-06-26 02:01:44 GMT 35.554829 -96.469315 34,000 255 457 0
2022-06-26 02:01:41 GMT 35.554829 -96.469315 34,000 255 458 0
2022-06-26 02:01:38 GMT 35.556042 -96.464050 34,000 255 458 0
2022-06-26 02:01:34 GMT 35.559265 -96.450233 34,000 255 458 0
2022-06-26 02:01:31 GMT 35.561069 -96.442368 34,000 255 458 0
2022-06-26 02:01:28 GMT 35.564438 -96.427750 34,000 255 458 0
2022-06-26 02:01:25 GMT 35.564438 -96.427750 34,000 255 458 0
2022-06-26 02:01:22 GMT 35.565258 -96.424141 34,000 255 458 0
2022-06-26 02:01:18 GMT 35.568008 -96.412239 34,000 255 459 0
2022-06-26 02:01:13 GMT 35.571304 -96.397987 34,000 255 459 0
2022-06-26 02:01:10 GMT 35.573078 -96.390358 34,000 255 459 0
2022-06-26 02:01:07 GMT 35.574005 -96.386208 34,000 255 459 0
2022-06-26 02:01:02 GMT 35.577026 -96.373215 34,000 255 459 0
2022-06-26 02:00:58 GMT 35.580154 -96.359566 34,000 255 459 0
2022-06-26 02:00:54 GMT 35.582474 -96.349411 34,000 255 459 0
2022-06-26 02:00:51 GMT 35.583412 -96.345535 34,000 255 459 0
2022-06-26 02:00:47 GMT 35.585880 -96.334724 34,000 255 460 0
2022-06-26 02:00:42 GMT 35.589188 -96.320473 34,000 255 459 0
2022-06-26 02:00:36 GMT 35.591904 -96.308556 34,000 255 459 0
2022-06-26 02:00:31 GMT 35.595142 -96.294640 34,000 255 460 0
2022-06-26 02:00:27 GMT 35.597752 -96.283363 34,000 255 460 0
2022-06-26 02:00:21 GMT 35.601151 -96.268677 34,000 255 460 0
2022-06-26 02:00:15 GMT 35.604126 -96.255630 34,000 255 460 0
2022-06-26 02:00:10 GMT 35.607330 -96.241776 34,000 255 461 0
2022-06-26 02:00:05 GMT 35.610397 -96.228447 34,000 255 461 0
2022-06-26 01:59:59 GMT 35.613625 -96.214233 34,000 255 461 0
2022-06-26 01:59:56 GMT 35.616791 -96.200668 34,000 255 461 0
2022-06-26 01:59:50 GMT 35.619186 -96.190224 34,000 255 461 0
2022-06-26 01:59:45 GMT 35.621887 -96.178375 34,000 255 461 0
2022-06-26 01:59:39 GMT 35.625263 -96.163681 34,000 255 461 0
2022-06-26 01:59:33 GMT 35.629314 -96.146034 34,000 255 461 0
2022-06-26 01:59:27 GMT 35.631737 -96.135452 34,000 255 461 0
2022-06-26 01:59:24 GMT 35.634014 -96.125404 34,000 255 461 0
2022-06-26 01:59:21 GMT 35.636108 -96.116287 34,000 255 461 0
2022-06-26 01:59:18 GMT 35.637131 -96.111893 34,000 255 460 0
2022-06-26 01:59:13 GMT 35.640301 -96.097939 34,000 255 461 0
2022-06-26 01:59:10 GMT 35.642166 -96.089745 34,000 255 460 0
2022-06-26 01:59:07 GMT 35.643559 -96.083794 34,000 255 460 0
2022-06-26 01:59:04 GMT 35.647202 -96.067825 34,000 255 460 0
2022-06-26 01:58:58 GMT 35.649261 -96.058784 34,000 255 460 0
2022-06-26 01:58:53 GMT 35.654266 -96.036751 34,000 255 460 0
2022-06-26 01:58:50 GMT 35.654266 -96.036751 34,000 255 460 0
2022-06-26 01:58:46 GMT 35.655396 -96.031837 34,000 255 460 0
2022-06-26 01:58:41 GMT 35.658970 -96.016129 34,000 255 460 0
2022-06-26 01:58:36 GMT 35.661118 -96.006660 34,000 255 460 0
2022-06-26 01:58:32 GMT 35.663715 -95.995262 34,000 255 460 0
2022-06-26 01:58:26 GMT 35.667347 -95.979195 34,000 255 460 0
2022-06-26 01:58:22 GMT 35.669907 -95.967979 34,000 255 460 64
2022-06-26 01:58:19 GMT 35.671646 -95.960487 34,000 255 460 0
2022-06-26 01:58:16 GMT 35.672794 -95.955292 34,000 255 459 0
2022-06-26 01:58:11 GMT 35.675632 -95.943016 34,000 255 459 0
2022-06-26 01:58:06 GMT 35.678799 -95.928932 34,000 255 458 0
2022-06-26 01:58:01 GMT 35.681625 -95.916534 34,000 255 458 0
2022-06-26 01:57:55 GMT 35.684990 -95.901878 34,000 255 458 0
2022-06-26 01:57:50 GMT 35.687576 -95.890221 34,000 255 458 0
2022-06-26 01:57:45 GMT 35.690643 -95.876656 34,000 254 457 0
2022-06-26 01:57:40 GMT 35.694122 -95.862518 34,000 252 456 0
2022-06-26 01:57:35 GMT 35.697186 -95.851334 34,000 251 456 0
2022-06-26 01:57:32 GMT 35.699341 -95.843864 34,000 251 456 0
2022-06-26 01:57:28 GMT 35.701283 -95.836899 34,000 251 456 0
2022-06-26 01:57:24 GMT 35.704403 -95.825912 34,000 251 456 0
2022-06-26 01:57:21 GMT 35.706482 -95.818459 34,000 251 456 0
2022-06-26 01:57:17 GMT 35.709709 -95.807091 34,000 252 455 0
2022-06-26 01:57:14 GMT 35.711479 -95.800720 34,000 252 455 0
2022-06-26 01:57:11 GMT 35.713486 -95.793510 34,000 252 455 0
2022-06-26 01:57:06 GMT 35.716831 -95.781670 34,000 252 454 0
2022-06-26 01:57:01 GMT 35.720695 -95.767708 34,000 252 455 0
2022-06-26 01:56:57 GMT 35.722641 -95.760727 34,000 252 455 0
2022-06-26 01:56:53 GMT 35.725723 -95.749886 34,000 252 454 0
2022-06-26 01:56:49 GMT 35.728912 -95.738525 34,000 252 454 0
2022-06-26 01:56:46 GMT 35.731155 -95.730453 34,000 252 454 0
2022-06-26 01:56:43 GMT 35.732712 -95.724854 34,000 252 454 0
2022-06-26 01:56:38 GMT 35.738014 -95.705879 34,000 252 454 0
2022-06-26 01:56:35 GMT 35.738014 -95.705879 34,000 252 454 0
2022-06-26 01:56:30 GMT 35.741924 -95.691971 34,000 252 454 0
2022-06-26 01:56:24 GMT 35.745209 -95.680389 34,000 252 454 0
2022-06-26 01:56:21 GMT 35.747314 -95.672836 34,000 252 454 0
2022-06-26 01:56:18 GMT 35.749237 -95.665970 34,000 252 454 0
2022-06-26 01:56:15 GMT 35.751572 -95.657730 34,000 252 454 0
2022-06-26 01:56:12 GMT 35.754211 -95.648315 34,000 251 455 0
2022-06-26 01:56:07 GMT 35.757339 -95.637192 34,000 251 455 0
2022-06-26 01:56:04 GMT 35.759354 -95.630150 34,000 251 455 0
2022-06-26 01:55:59 GMT 35.763245 -95.616241 34,000 251 455 0
2022-06-26 01:55:53 GMT 35.767044 -95.602798 34,000 251 455 0
2022-06-26 01:55:48 GMT 35.770340 -95.591125 34,000 251 455 0
2022-06-26 01:55:44 GMT 35.773499 -95.579910 34,000 251 455 0
2022-06-26 01:55:37 GMT 35.777954 -95.564163 34,000 251 455 0
2022-06-26 01:55:33 GMT 35.780823 -95.554047 34,000 252 454 0
2022-06-26 01:55:29 GMT 35.782890 -95.546577 34,000 252 454 0
2022-06-26 01:55:25 GMT 35.786057 -95.535355 34,000 252 454 0
2022-06-26 01:55:20 GMT 35.790291 -95.520218 34,000 252 454 0
2022-06-26 01:55:16 GMT 35.791782 -95.514847 34,000 252 454 0
2022-06-26 01:55:13 GMT 35.794853 -95.503860 34,000 252 454 0
2022-06-26 01:55:09 GMT 35.796902 -95.496498 34,000 252 454 0
2022-06-26 01:55:05 GMT 35.800488 -95.483521 34,000 252 454 0
2022-06-26 01:55:00 GMT 35.802769 -95.475456 34,000 252 455 0
2022-06-26 01:54:56 GMT 35.805840 -95.464470 34,000 252 455 0
2022-06-26 01:54:53 GMT 35.808014 -95.456543 34,000 252 455 0
2022-06-26 01:54:49 GMT 35.811218 -95.445045 34,000 252 455 0
2022-06-26 01:54:45 GMT 35.812916 -95.438995 34,000 252 455 0
2022-06-26 01:54:41 GMT 35.816391 -95.426392 34,000 252 455 0
2022-06-26 01:54:36 GMT 35.819901 -95.413803 34,000 252 455 0
2022-06-26 01:54:31 GMT 35.823063 -95.402527 34,000 252 455 0
2022-06-26 01:54:25 GMT 35.826927 -95.388557 34,000 252 455 0
2022-06-26 01:54:21 GMT 35.830170 -95.376945 34,000 252 455 0
2022-06-26 01:54:15 GMT 35.834015 -95.363213 34,000 252 456 0
2022-06-26 01:54:12 GMT 35.836239 -95.355247 34,000 252 456 0
2022-06-26 01:54:09 GMT 35.838009 -95.348824 34,000 252 456 0
2022-06-26 01:54:05 GMT 35.841019 -95.337929 34,000 252 456 0
2022-06-26 01:54:01 GMT 35.843082 -95.330414 34,000 252 456 0
2022-06-26 01:53:58 GMT 35.845501 -95.321823 34,000 252 456 0
2022-06-26 01:53:54 GMT 35.848156 -95.312241 34,000 252 456 0
2022-06-26 01:53:49 GMT 35.851276 -95.300964 34,000 252 456 0
2022-06-26 01:53:46 GMT 35.854019 -95.291000 34,000 252 456 0
2022-06-26 01:53:42 GMT 35.857040 -95.280190 34,000 252 456 0
2022-06-26 01:53:39 GMT 35.858353 -95.275368 34,000 252 457 0
2022-06-26 01:53:34 GMT 35.862122 -95.261703 34,000 252 456 0
2022-06-26 01:53:28 GMT 35.866379 -95.246262 34,000 252 456 0
2022-06-26 01:53:25 GMT 35.867889 -95.240822 34,000 252 456 0
2022-06-26 01:53:21 GMT 35.871094 -95.229263 34,000 252 456 64
2022-06-26 01:53:17 GMT 35.873108 -95.221939 34,000 252 456 64
2022-06-26 01:53:13 GMT 35.876175 -95.210838 34,000 252 457 0
2022-06-26 01:53:10 GMT 35.878040 -95.204071 34,000 252 457 0
2022-06-26 01:53:07 GMT 35.880569 -95.194878 34,000 252 457 0
2022-06-26 01:53:02 GMT 35.883636 -95.183769 34,000 252 457 0
2022-06-26 01:52:57 GMT 35.886475 -95.173470 34,000 252 456 0
2022-06-26 01:52:54 GMT 35.889404 -95.162888 34,000 252 456 0
2022-06-26 01:52:51 GMT 35.890427 -95.159073 34,000 252 456 0
2022-06-26 01:52:47 GMT 35.894257 -95.145149 34,000 252 456 0
2022-06-26 01:52:44 GMT 35.895592 -95.140373 34,000 252 456 0
2022-06-26 01:52:41 GMT 35.897221 -95.134476 34,000 252 456 0
2022-06-26 01:52:38 GMT 35.900482 -95.122543 34,000 252 456 0
2022-06-26 01:52:35 GMT 35.902344 -95.115768 34,000 252 456 0
2022-06-26 01:52:32 GMT 35.904297 -95.108643 34,000 252 456 0
2022-06-26 01:52:27 GMT 35.907120 -95.098457 34,000 252 456 0
2022-06-26 01:52:24 GMT 35.908859 -95.092224 34,000 252 456 0
2022-06-26 01:52:21 GMT 35.911186 -95.083572 34,000 252 456 0
2022-06-26 01:52:18 GMT 35.913052 -95.076965 34,000 252 456 0
2022-06-26 01:52:14 GMT 35.915817 -95.066757 34,000 252 456 0
2022-06-26 01:52:10 GMT 35.918358 -95.057571 34,000 252 456 0
2022-06-26 01:52:07 GMT 35.921059 -95.047752 34,000 252 456 0
2022-06-26 01:52:04 GMT 35.922913 -95.040955 34,000 252 455 0
2022-06-26 01:52:01 GMT 35.925385 -95.032028 34,000 252 455 0
2022-06-26 01:51:56 GMT 35.927994 -95.022446 34,000 252 454 0
2022-06-26 01:51:53 GMT 35.929642 -95.016403 34,000 252 454 0
2022-06-26 01:51:49 GMT 35.932388 -95.006393 34,000 252 454 0
2022-06-26 01:51:44 GMT 35.936745 -94.990540 34,000 252 454 0
2022-06-26 01:51:39 GMT 35.939167 -94.981712 34,000 252 454 0
2022-06-26 01:51:34 GMT 35.943100 -94.967361 34,000 252 454 0
2022-06-26 01:51:29 GMT 35.946011 -94.956703 34,000 252 454 0
2022-06-26 01:51:23 GMT 35.950974 -94.938416 34,000 252 454 0
2022-06-26 01:51:19 GMT 35.953037 -94.930992 34,000 252 453 0
2022-06-26 01:51:15 GMT 35.955276 -94.922729 34,000 252 453 0
2022-06-26 01:51:12 GMT 35.957977 -94.912720 34,000 252 453 0
2022-06-26 01:51:09 GMT 35.959991 -94.905396 34,000 252 453 0
2022-06-26 01:51:05 GMT 35.962627 -94.895699 34,000 252 453 0
2022-06-26 01:51:02 GMT 35.964863 -94.887627 34,000 252 453 0
2022-06-26 01:50:58 GMT 35.966957 -94.879799 34,000 252 453 0
2022-06-26 01:50:54 GMT 35.969658 -94.869980 34,000 252 453 0
2022-06-26 01:50:51 GMT 35.971706 -94.862389 34,000 252 453 -64
2022-06-26 01:50:47 GMT 35.973770 -94.854927 34,000 252 453 0
2022-06-26 01:50:44 GMT 35.976379 -94.845367 34,000 252 453 0
2022-06-26 01:50:41 GMT 35.979034 -94.835587 34,000 252 452 0
2022-06-26 01:50:38 GMT 35.980457 -94.830360 34,000 252 452 0
2022-06-26 01:50:35 GMT 35.982788 -94.821915 34,000 252 452 0
2022-06-26 01:50:32 GMT 35.984299 -94.816299 34,000 252 452 0
2022-06-26 01:50:27 GMT 35.987732 -94.803825 34,000 252 452 0
2022-06-26 01:50:23 GMT 35.990387 -94.794044 34,000 252 452 0
2022-06-26 01:50:20 GMT 35.992607 -94.785889 34,000 252 452 0
2022-06-26 01:50:14 GMT 35.996567 -94.771332 34,000 252 452 0
2022-06-26 01:50:11 GMT 35.998260 -94.765205 34,000 252 452 0
2022-06-26 01:50:07 GMT 36.001312 -94.753868 34,000 252 452 0
2022-06-26 01:50:03 GMT 36.004211 -94.743233 34,000 252 452 0
2022-06-26 01:50:00 GMT 36.005268 -94.739487 34,000 252 452 0
2022-06-26 01:49:56 GMT 36.008331 -94.728127 34,000 252 452 0
2022-06-26 01:49:51 GMT 36.012085 -94.714165 34,000 252 452 0
2022-06-26 01:49:45 GMT 36.015278 -94.702324 34,000 252 452 0
2022-06-26 01:49:40 GMT 36.018955 -94.688942 34,000 252 451 0
2022-06-26 01:49:35 GMT 36.021980 -94.677719 34,000 252 451 0
2022-06-26 01:49:30 GMT 36.025589 -94.664383 34,000 252 451 0
2022-06-26 01:49:25 GMT 36.028839 -94.652428 34,000 252 451 0
2022-06-26 01:49:20 GMT 36.032501 -94.638916 34,000 252 451 0
2022-06-26 01:49:14 GMT 36.035568 -94.627533 34,000 252 451 0
2022-06-26 01:49:09 GMT 36.039486 -94.613029 34,000 252 451 0
2022-06-26 01:49:05 GMT 36.042572 -94.601669 34,000 252 451 0
2022-06-26 01:48:59 GMT 36.046234 -94.588135 34,000 252 451 0
2022-06-26 01:48:54 GMT 36.049309 -94.576683 34,000 252 450 0
2022-06-26 01:48:51 GMT 36.051407 -94.568993 34,000 252 450 0
2022-06-26 01:48:48 GMT 36.053078 -94.562775 34,000 252 450 0
2022-06-26 01:48:42 GMT 36.057503 -94.546471 34,000 252 450 0
2022-06-26 01:48:38 GMT 36.059830 -94.537811 34,000 252 450 0
2022-06-26 01:48:32 GMT 36.063309 -94.524879 34,000 252 450 0
2022-06-26 01:48:28 GMT 36.066673 -94.512283 34,000 252 450 0
2022-06-26 01:48:22 GMT 36.069931 -94.500305 34,000 252 450 0
2022-06-26 01:48:17 GMT 36.073563 -94.486771 34,000 252 450 0
2022-06-26 01:48:13 GMT 36.080246 -94.461884 34,000 252 450 0
2022-06-26 01:48:07 GMT 36.080246 -94.461884 34,000 252 450 0
2022-06-26 01:48:02 GMT 36.085667 -94.441750 34,000 252 450 0
2022-06-26 01:47:59 GMT 36.085667 -94.441750 34,000 252 450 0
2022-06-26 01:47:56 GMT 36.087109 -94.436371 34,000 252 450 0
2022-06-26 01:47:50 GMT 36.091110 -94.421471 34,000 252 450 0
2022-06-26 01:47:46 GMT 36.093979 -94.410896 34,000 252 450 0
2022-06-26 01:47:42 GMT 36.096931 -94.399788 34,000 252 450 0
2022-06-26 01:47:36 GMT 36.100845 -94.385262 34,000 252 450 0
2022-06-26 01:47:33 GMT 36.103088 -94.376740 34,000 252 450 0
2022-06-26 01:47:28 GMT 36.106018 -94.365746 34,000 252 450 0
2022-06-26 01:47:25 GMT 36.107685 -94.359467 34,000 252 450 0
2022-06-26 01:47:21 GMT 36.110229 -94.349838 34,000 252 450 0
2022-06-26 01:47:17 GMT 36.112804 -94.340187 34,000 252 450 0
2022-06-26 01:47:14 GMT 36.114716 -94.332962 34,000 252 450 0
2022-06-26 01:47:09 GMT 36.118652 -94.318085 34,000 252 450 0
2022-06-26 01:47:06 GMT 36.119648 -94.314293 34,000 252 450 0
2022-06-26 01:47:02 GMT 36.127762 -94.283638 34,000 252 450 0
2022-06-26 01:46:54 GMT 36.127762 -94.283638 34,000 252 450 0
2022-06-26 01:46:49 GMT 36.130730 -94.272514 34,000 252 450 0
2022-06-26 01:46:44 GMT 36.134857 -94.256973 34,000 252 451 0
2022-06-26 01:46:39 GMT 36.137192 -94.248222 34,000 252 450 0
2022-06-26 01:46:36 GMT 36.139805 -94.238327 34,000 252 450 0
2022-06-26 01:46:33 GMT 36.141174 -94.233055 34,000 252 450 0
2022-06-26 01:46:29 GMT 36.143784 -94.223267 34,000 252 450 0
2022-06-26 01:46:25 GMT 36.146603 -94.212669 34,000 252 450 0
2022-06-26 01:46:22 GMT 36.147907 -94.207764 34,000 252 450 0
2022-06-26 01:46:18 GMT 36.151566 -94.193977 34,000 252 450 0
2022-06-26 01:46:13 GMT 36.154655 -94.182343 34,000 252 450 0
2022-06-26 01:46:10 GMT 36.156784 -94.174400 34,000 252 450 0
2022-06-26 01:46:05 GMT 36.159897 -94.162674 34,000 252 450 0
2022-06-26 01:46:02 GMT 36.161358 -94.157211 34,000 252 450 0
2022-06-26 01:45:59 GMT 36.163689 -94.148392 34,000 252 450 0
2022-06-26 01:45:52 GMT 36.168015 -94.132088 34,000 252 450 0
2022-06-26 01:45:48 GMT 36.170471 -94.122910 34,000 252 450 0
2022-06-26 01:45:44 GMT 36.173138 -94.112801 34,000 252 449 0
2022-06-26 01:45:41 GMT 36.175140 -94.105339 34,000 252 449 0
2022-06-26 01:45:38 GMT 36.177246 -94.097275 34,000 252 449 0
2022-06-26 01:45:33 GMT 36.179855 -94.087540 34,000 252 449 0
2022-06-26 01:45:30 GMT 36.181747 -94.080315 34,000 252 449 0
2022-06-26 01:45:27 GMT 36.183655 -94.073128 34,000 252 449 0
2022-06-26 01:45:21 GMT 36.188507 -94.054871 34,000 252 449 0
2022-06-26 01:45:18 GMT 36.190842 -94.046059 34,000 252 449 0
2022-06-26 01:45:10 GMT 36.195007 -94.030495 34,000 252 449 -64
2022-06-26 01:45:07 GMT 36.197250 -94.022049 34,000 252 449 0
2022-06-26 01:45:02 GMT 36.200500 -94.009781 34,000 252 449 0
2022-06-26 01:44:59 GMT 36.201874 -94.004631 34,000 252 449 0
2022-06-26 01:44:56 GMT 36.203842 -93.997078 34,000 252 449 0
2022-06-26 01:44:51 GMT 36.208054 -93.981232 34,000 252 449 0
2022-06-26 01:44:47 GMT 36.210663 -93.971497 34,000 252 449 0
2022-06-26 01:44:41 GMT 36.213867 -93.959312 34,000 252 449 0
2022-06-26 01:44:38 GMT 36.215424 -93.953476 34,000 252 449 0
2022-06-26 01:44:35 GMT 36.217735 -93.944794 34,000 252 449 0
2022-06-26 01:44:32 GMT 36.219971 -93.936317 34,000 252 449 0
2022-06-26 01:44:29 GMT 36.221970 -93.928726 34,000 252 449 0
2022-06-26 01:44:24 GMT 36.224297 -93.919960 34,000 252 449 0
2022-06-26 01:44:21 GMT 36.227417 -93.908157 34,000 253 448 0
2022-06-26 01:44:15 GMT 36.230629 -93.895821 34,000 253 448 0
2022-06-26 01:44:08 GMT 36.235100 -93.878815 34,000 253 448 0
2022-06-26 01:44:04 GMT 36.237614 -93.869293 34,000 253 448 0
2022-06-26 01:44:01 GMT 36.239685 -93.861351 34,000 253 448 0
2022-06-26 01:43:57 GMT 36.241837 -93.853050 34,000 253 448 0
2022-06-26 01:43:54 GMT 36.244537 -93.842812 34,000 253 448 0
2022-06-26 01:43:49 GMT 36.247108 -93.832947 34,000 253 448 0
2022-06-26 01:43:46 GMT 36.248692 -93.826866 34,000 253 448 0
2022-06-26 01:43:43 GMT 36.251064 -93.817810 34,000 253 448 0
2022-06-26 01:43:40 GMT 36.253098 -93.809914 34,000 253 448 0
2022-06-26 01:43:37 GMT 36.255112 -93.802361 34,000 253 448 0
2022-06-26 01:43:34 GMT 36.256989 -93.795036 34,000 253 448 0
2022-06-26 01:43:30 GMT 36.259769 -93.784378 34,000 253 448 0
2022-06-26 01:43:26 GMT 36.261681 -93.777077 34,000 253 448 0
2022-06-26 01:43:22 GMT 36.264771 -93.765221 34,000 253 448 0
2022-06-26 01:43:19 GMT 36.266098 -93.760124 34,000 253 448 0
2022-06-26 01:43:15 GMT 36.268387 -93.751312 34,000 253 448 0
2022-06-26 01:43:11 GMT 36.271179 -93.740562 34,000 253 448 0
2022-06-26 01:43:06 GMT 36.275024 -93.725967 34,000 253 448 0
2022-06-26 01:42:59 GMT 36.279419 -93.709084 34,000 253 448 0
2022-06-26 01:42:55 GMT 36.281605 -93.700699 34,000 253 448 0
2022-06-26 01:42:48 GMT 36.285889 -93.684105 34,000 253 448 0
2022-06-26 01:42:45 GMT 36.288071 -93.675674 34,000 253 448 0
2022-06-26 01:42:37 GMT 36.292545 -93.658447 34,000 253 448 0
2022-06-26 01:42:34 GMT 36.294846 -93.649521 34,000 253 448 0
2022-06-26 01:42:28 GMT 36.299149 -93.632927 34,000 253 448 0
2022-06-26 01:42:23 GMT 36.301437 -93.624115 34,000 253 448 0
2022-06-26 01:42:17 GMT 36.305603 -93.608032 34,000 253 448 0
2022-06-26 01:42:13 GMT 36.307892 -93.599220 34,000 253 448 0
2022-06-26 01:42:06 GMT 36.312237 -93.582481 34,000 253 448 0
2022-06-26 01:42:02 GMT 36.314564 -93.573418 34,000 253 448 0
2022-06-26 01:41:57 GMT 36.318474 -93.558289 34,000 253 448 0
2022-06-26 01:41:53 GMT 36.321175 -93.547997 34,000 253 448 0
2022-06-26 01:41:45 GMT 36.325970 -93.529419 34,000 253 448 0
2022-06-26 01:41:40 GMT 36.328537 -93.519516 34,000 253 448 0
2022-06-26 01:41:31 GMT 36.334488 -93.496460 34,000 253 449 0
2022-06-26 01:41:26 GMT 36.338013 -93.482841 34,000 253 449 0
2022-06-26 01:41:22 GMT 36.340759 -93.472366 34,000 253 449 0
2022-06-26 01:41:14 GMT 36.345566 -93.453712 34,000 253 449 0
2022-06-26 01:41:10 GMT 36.347427 -93.446495 34,000 253 449 0
2022-06-26 01:41:01 GMT 36.354080 -93.420639 34,000 253 449 0
2022-06-26 01:40:55 GMT 36.357948 -93.405823 34,000 253 449 0
2022-06-26 01:40:49 GMT 36.361313 -93.392715 34,000 253 449 0
2022-06-26 01:40:39 GMT 36.367447 -93.369064 34,000 253 449 0
2022-06-26 01:40:30 GMT 36.373825 -93.344284 34,000 253 449 0
2022-06-26 01:40:16 GMT 36.382015 -93.312439 34,000 253 449 0
2022-06-26 01:40:11 GMT 36.385090 -93.300453 34,000 253 449 0
2022-06-26 01:40:08 GMT 36.386765 -93.293793 34,000 253 449 0
2022-06-26 01:39:58 GMT 36.393356 -93.268204 34,000 253 450 0
2022-06-26 01:39:29 GMT 36.412228 -93.194626 34,000 253 450 0
2022-06-26 01:39:23 GMT 36.415512 -93.181747 34,000 253 450 0
2022-06-26 01:39:20 GMT 36.417755 -93.172874 34,000 253 450 0
2022-06-26 01:39:17 GMT 36.419357 -93.166756 34,000 253 450 0
2022-06-26 01:39:11 GMT 36.423031 -93.152313 34,000 253 450 0
2022-06-26 01:39:06 GMT 36.426476 -93.138817 34,000 253 450 0
2022-06-26 01:38:56 GMT 36.432449 -93.115540 34,000 253 450 0
2022-06-26 01:38:49 GMT 36.437164 -93.097054 34,000 253 450 -64
2022-06-26 01:38:46 GMT 36.439091 -93.089554 34,000 253 450 0
2022-06-26 01:38:38 GMT 36.443390 -93.072678 34,000 253 449 0
2022-06-26 01:38:32 GMT 36.447327 -93.057175 34,000 253 450 0
2022-06-26 01:38:29 GMT 36.449051 -93.050400 34,000 253 450 0
2022-06-26 01:38:25 GMT 36.451984 -93.038834 34,000 253 450 0
2022-06-26 01:38:14 GMT 36.459412 -93.009682 34,000 253 449 0
2022-06-26 01:38:07 GMT 36.462662 -92.996864 34,000 253 449 0
2022-06-26 01:38:03 GMT 36.465763 -92.984718 34,000 253 449 0
2022-06-26 01:37:57 GMT 36.469025 -92.971802 34,000 253 449 0
2022-06-26 01:37:52 GMT 36.472607 -92.957718 34,000 253 448 0
2022-06-26 01:37:42 GMT 36.484497 -92.910690 34,000 253 448 0
2022-06-26 01:37:32 GMT 36.484497 -92.910690 34,000 253 448 0
2022-06-26 01:37:26 GMT 36.488342 -92.895470 34,000 253 448 0
2022-06-26 01:37:18 GMT 36.494019 -92.872925 34,000 253 448 0
2022-06-26 01:37:12 GMT 36.497681 -92.858444 34,000 253 448 0
2022-06-26 01:37:07 GMT 36.500519 -92.847176 34,000 253 447 0
2022-06-26 01:37:01 GMT 36.504028 -92.833069 34,000 253 447 0
2022-06-26 01:36:51 GMT 36.510178 -92.808723 34,000 253 447 0
2022-06-26 01:36:45 GMT 36.514160 -92.792816 34,000 253 447 0
2022-06-26 01:36:34 GMT 36.520603 -92.767265 34,000 253 447 0
2022-06-26 01:36:24 GMT 36.526890 -92.742317 34,000 253 446 0
2022-06-26 01:36:19 GMT 36.529633 -92.731422 34,000 253 446 0
2022-06-26 01:36:16 GMT 36.532059 -92.721634 34,000 253 446 0
2022-06-26 01:36:09 GMT 36.535873 -92.706612 34,000 253 446 0
2022-06-26 01:36:04 GMT 36.538757 -92.695160 34,000 253 446 0
2022-06-26 01:35:58 GMT 36.542530 -92.680023 34,000 253 445 0
2022-06-26 01:35:53 GMT 36.545601 -92.667809 34,000 253 445 0
2022-06-26 01:35:49 GMT 36.548813 -92.655029 34,000 253 445 0
2022-06-26 01:35:39 GMT 36.554913 -92.630814 34,000 253 444 0
2022-06-26 01:35:34 GMT 36.557556 -92.620178 34,000 253 443 0
2022-06-26 01:35:27 GMT 36.561310 -92.605362 34,000 253 443 0
2022-06-26 01:35:22 GMT 36.564781 -92.591370 34,000 253 443 0
2022-06-26 01:35:17 GMT 36.567436 -92.580673 34,000 253 443 0
2022-06-26 01:35:14 GMT 36.570190 -92.569595 34,000 253 443 0
2022-06-26 01:35:08 GMT 36.573669 -92.555527 34,000 253 443 0
2022-06-26 01:35:03 GMT 36.576233 -92.545151 34,000 253 443 0
2022-06-26 01:34:56 GMT 36.579987 -92.529945 34,000 253 443 0
2022-06-26 01:34:51 GMT 36.583054 -92.517586 34,000 253 443 0
2022-06-26 01:34:47 GMT 36.586334 -92.504356 34,000 253 443 0
2022-06-26 01:34:36 GMT 36.592388 -92.479988 34,000 253 443 0
2022-06-26 01:34:29 GMT 36.596344 -92.463921 34,000 253 443 0
2022-06-26 01:34:25 GMT 36.598984 -92.453323 34,000 253 443 0
2022-06-26 01:34:16 GMT 36.604797 -92.429749 34,000 253 443 0
2022-06-26 01:34:05 GMT 36.611195 -92.404022 34,000 253 443 0
2022-06-26 01:33:59 GMT 36.614498 -92.390640 34,000 253 444 0
2022-06-26 01:33:55 GMT 36.617710 -92.377724 34,000 253 444 0
2022-06-26 01:33:44 GMT 36.623901 -92.352592 34,000 253 444 0
2022-06-26 01:33:38 GMT 36.627457 -92.338310 34,000 253 444 0
2022-06-26 01:33:33 GMT 36.630524 -92.325897 34,000 253 444 0
2022-06-26 01:33:23 GMT 36.637077 -92.299355 34,000 253 445 0
2022-06-26 01:33:13 GMT 36.642525 -92.277382 34,000 253 445 0
2022-06-26 01:33:05 GMT 36.647320 -92.258041 34,000 253 445 0
2022-06-26 01:33:03 GMT 36.649200 -92.250366 34,000 253 445 0
2022-06-26 01:32:51 GMT 36.655518 -92.224899 34,000 253 445 0
2022-06-26 01:32:41 GMT 36.661743 -92.199669 34,000 254 446 0
2022-06-26 01:32:32 GMT 36.667709 -92.175293 34,000 254 447 0
2022-06-26 01:32:23 GMT 36.672546 -92.155556 34,000 254 446 0
2022-06-26 01:32:20 GMT 36.674377 -92.148170 34,000 254 446 0
2022-06-26 01:32:10 GMT 36.680374 -92.123627 34,000 254 447 0
2022-06-26 01:32:01 GMT 36.686096 -92.100197 34,000 254 447 0
2022-06-26 01:31:56 GMT 36.689804 -92.085052 34,000 254 447 0
2022-06-26 01:31:49 GMT 36.692734 -92.072983 34,000 254 447 0
2022-06-26 01:31:46 GMT 36.695068 -92.063431 34,000 254 447 0
2022-06-26 01:31:40 GMT 36.698776 -92.048149 34,000 254 447 0
2022-06-26 01:31:33 GMT 36.702435 -92.033058 34,000 254 447 0
2022-06-26 01:31:30 GMT 36.704716 -92.023705 34,000 254 447 0
2022-06-26 01:31:25 GMT 36.707138 -92.013832 34,000 254 447 0
2022-06-26 01:31:20 GMT 36.711140 -91.997353 34,000 254 447 0
2022-06-26 01:31:15 GMT 36.713421 -91.987999 34,000 254 447 0
2022-06-26 01:31:07 GMT 36.717983 -91.969299 34,000 254 447 0
2022-06-26 01:31:04 GMT 36.720245 -91.960030 34,000 254 447 0
2022-06-26 01:30:59 GMT 36.723850 -91.945396 34,000 254 448 0
2022-06-26 01:30:48 GMT 36.729809 -91.920738 34,000 254 447 0
2022-06-26 01:30:38 GMT 36.736046 -91.895142 34,000 254 447 0
2022-06-26 01:30:33 GMT 36.738701 -91.884041 34,000 254 447 0
2022-06-26 01:30:26 GMT 36.742889 -91.866737 34,000 254 447 0
2022-06-26 01:30:19 GMT 36.747730 -91.846756 34,000 254 447 0
2022-06-26 01:30:16 GMT 36.748581 -91.843185 34,000 254 447 0
2022-06-26 01:30:13 GMT 36.750710 -91.834427 34,000 254 447 0
2022-06-26 01:30:06 GMT 36.754761 -91.817780 34,000 254 448 0
2022-06-26 01:30:02 GMT 36.757229 -91.807541 34,000 254 448 0
2022-06-26 01:29:56 GMT 36.761307 -91.790833 34,000 254 448 -64
2022-06-26 01:29:52 GMT 36.763596 -91.781219 34,000 254 448 0
2022-06-26 01:29:45 GMT 36.767239 -91.766228 34,000 254 448 0
2022-06-26 01:29:35 GMT 36.773483 -91.740417 34,000 254 448 0
2022-06-26 01:29:31 GMT 36.775616 -91.731628 34,000 254 448 0
2022-06-26 01:29:25 GMT 36.779846 -91.713921 34,000 254 449 0
2022-06-26 01:29:22 GMT 36.781574 -91.706856 34,000 254 449 0
2022-06-26 01:29:13 GMT 36.786465 -91.686516 34,000 254 449 0
2022-06-26 01:29:10 GMT 36.787903 -91.680450 34,000 254 449 0
2022-06-26 01:29:04 GMT 36.792343 -91.662140 34,000 254 449 0
2022-06-26 01:29:01 GMT 36.793808 -91.655960 34,000 254 449 0
2022-06-26 01:28:53 GMT 36.798431 -91.636848 34,000 254 449 0
2022-06-26 01:28:50 GMT 36.800812 -91.626945 34,000 254 448 0
2022-06-26 01:28:43 GMT 36.804897 -91.609962 34,000 254 448 0
2022-06-26 01:28:40 GMT 36.806168 -91.604630 34,000 254 448 0
2022-06-26 01:28:32 GMT 36.810516 -91.586555 34,000 254 449 0
2022-06-26 01:28:29 GMT 36.812393 -91.578651 34,000 254 449 0
2022-06-26 01:28:19 GMT 36.818584 -91.552757 34,000 254 449 0
2022-06-26 01:28:11 GMT 36.823936 -91.530434 34,000 254 449 0
2022-06-26 01:28:08 GMT 36.824821 -91.526749 34,000 254 449 0
2022-06-26 01:28:01 GMT 36.829514 -91.507011 34,000 254 448 0
2022-06-26 01:27:58 GMT 36.830643 -91.502205 34,000 254 448 0
2022-06-26 01:27:51 GMT 36.834824 -91.484695 34,000 254 448 0
2022-06-26 01:27:48 GMT 36.836830 -91.476196 34,000 254 448 0
2022-06-26 01:27:39 GMT 36.842285 -91.453285 34,000 254 448 64
2022-06-26 01:27:36 GMT 36.843769 -91.446983 34,000 254 448 64
2022-06-26 01:27:26 GMT 36.849930 -91.421066 34,000 254 448 0
2022-06-26 01:27:18 GMT 36.854691 -91.401047 34,000 254 448 0
2022-06-26 01:27:10 GMT 36.859318 -91.381653 34,000 254 448 0
2022-06-26 01:27:07 GMT 36.860825 -91.375336 34,000 254 448 0
2022-06-26 01:27:01 GMT 36.865231 -91.356873 34,000 254 447 -64
2022-06-26 01:26:56 GMT 36.867233 -91.348335 34,000 254 447 0
2022-06-26 01:26:50 GMT 36.871124 -91.332031 34,000 254 447 0
2022-06-26 01:26:44 GMT 36.874214 -91.319077 34,000 254 447 0
2022-06-26 01:26:39 GMT 36.877472 -91.305222 34,000 254 447 0
2022-06-26 01:26:35 GMT 36.879940 -91.294891 34,000 254 447 0
2022-06-26 01:26:30 GMT 36.883060 -91.281815 34,000 254 447 64
2022-06-26 01:26:25 GMT 36.885433 -91.271667 34,000 254 447 0
2022-06-26 01:26:16 GMT 36.895752 -91.228073 34,000 254 446 0
2022-06-26 01:26:05 GMT 36.897491 -91.220711 34,000 254 447 0
2022-06-26 01:26:02 GMT 36.899002 -91.214279 34,000 254 447 0
2022-06-26 01:25:58 GMT 36.901932 -91.201950 34,000 254 446 0
2022-06-26 01:25:55 GMT 36.903580 -91.194763 34,000 254 446 -64
2022-06-26 01:25:43 GMT 36.910011 -91.167473 34,000 254 445 64
2022-06-26 01:25:37 GMT 36.913284 -91.153564 34,000 254 445 64
2022-06-26 01:25:34 GMT 36.915894 -91.142403 34,000 254 445 0
2022-06-26 01:25:23 GMT 36.922440 -91.114525 34,000 254 445 -64
2022-06-26 01:25:13 GMT 36.928024 -91.090630 34,000 254 445 0
2022-06-26 01:25:06 GMT 36.931332 -91.076424 34,000 254 445 64
2022-06-26 01:25:01 GMT 36.934067 -91.064735 34,000 254 444 0
2022-06-26 01:24:54 GMT 36.938271 -91.046867 34,000 254 444 0
2022-06-26 01:24:51 GMT 36.939880 -91.040077 34,000 254 444 0
2022-06-26 01:24:46 GMT 36.943176 -91.026054 34,000 254 444 0
2022-06-26 01:24:41 GMT 36.949303 -90.999878 34,000 254 444 0
2022-06-26 01:24:36 GMT 36.949303 -90.999878 34,000 254 444 0
2022-06-26 01:24:30 GMT 36.952560 -90.985962 34,000 254 444 0
2022-06-26 01:24:25 GMT 36.955261 -90.974396 34,000 254 444 0
2022-06-26 01:24:19 GMT 36.958286 -90.961426 34,000 254 444 -64
2022-06-26 01:24:15 GMT 36.960987 -90.949837 34,000 254 444 -64
2022-06-26 01:24:09 GMT 36.964417 -90.934952 34,000 254 444 0
2022-06-26 01:24:05 GMT 36.967300 -90.922615 34,000 254 444 -64
2022-06-26 01:24:02 GMT 36.968204 -90.918793 34,000 254 444 -64
2022-06-26 01:23:59 GMT 36.970184 -90.910286 34,000 254 444 -64
2022-06-26 01:23:52 GMT 36.974209 -90.892937 34,000 254 444 64
2022-06-26 01:23:49 GMT 36.975929 -90.885597 34,000 254 444 64
2022-06-26 01:23:42 GMT 36.980400 -90.866371 34,000 254 444 0
2022-06-26 01:23:39 GMT 36.982224 -90.858627 34,000 254 444 0
2022-06-26 01:23:34 GMT 36.985149 -90.845947 34,000 254 444 0
2022-06-26 01:23:31 GMT 36.986160 -90.841682 34,000 254 444 0
2022-06-26 01:23:28 GMT 36.987946 -90.834023 34,000 254 444 0
2022-06-26 01:23:23 GMT 36.990646 -90.822456 34,000 254 444 64
2022-06-26 01:23:18 GMT 36.994080 -90.807732 34,000 254 444 0
2022-06-26 01:23:13 GMT 36.996506 -90.797096 34,000 254 444 0
2022-06-26 01:23:10 GMT 36.998657 -90.788033 34,000 254 444 -64
2022-06-26 01:23:07 GMT 37.000351 -90.780617 34,000 254 444 -64
2022-06-26 01:23:03 GMT 37.002686 -90.770508 34,000 254 444 -64
2022-06-26 01:23:00 GMT 37.003860 -90.765457 34,000 254 444 -64
2022-06-26 01:22:55 GMT 37.006374 -90.754654 34,000 254 444 0
2022-06-26 01:22:50 GMT 37.009869 -90.739609 34,000 254 444 64
2022-06-26 01:22:46 GMT 37.012428 -90.728500 34,000 254 444 64
2022-06-26 01:22:41 GMT 37.014633 -90.719017 34,000 254 444 0
2022-06-26 01:22:38 GMT 37.016708 -90.710052 34,000 254 444 -64
2022-06-26 01:22:35 GMT 37.018112 -90.704002 34,000 254 444 -64
2022-06-26 01:22:27 GMT 37.022434 -90.685150 34,000 254 444 0
2022-06-26 01:22:24 GMT 37.024158 -90.677750 34,000 254 444 64
2022-06-26 01:22:14 GMT 37.030243 -90.651527 34,000 254 444 0
2022-06-26 01:22:11 GMT 37.031937 -90.644104 34,000 254 444 -64
2022-06-26 01:22:06 GMT 37.034317 -90.633759 34,000 254 444 64
2022-06-26 01:22:03 GMT 37.036121 -90.625984 34,000 254 444 0
2022-06-26 01:21:57 GMT 37.039444 -90.611549 34,000 254 444 64
2022-06-26 01:21:54 GMT 37.042007 -90.600449 34,000 254 444 0
2022-06-26 01:21:49 GMT 37.044022 -90.591858 34,000 254 444 -64
2022-06-26 01:21:45 GMT 37.046356 -90.581688 34,000 254 444 -64
2022-06-26 01:21:42 GMT 37.048084 -90.574219 34,000 254 444 0
2022-06-26 01:21:36 GMT 37.051437 -90.559647 34,000 254 444 0
2022-06-26 01:21:33 GMT 37.053860 -90.549019 34,000 255 445 0
2022-06-26 01:21:27 GMT 37.057072 -90.534927 34,000 252 444 0
2022-06-26 01:21:24 GMT 37.058514 -90.528542 34,000 253 444 0
2022-06-26 01:21:21 GMT 37.060051 -90.522148 34,000 252 443 0
2022-06-26 01:21:16 GMT 37.063541 -90.509010 34,000 251 444 0
2022-06-26 01:21:12 GMT 37.066635 -90.497719 34,000 251 444 0
2022-06-26 01:21:04 GMT 37.071533 -90.480011 34,000 251 444 -64
2022-06-26 01:21:01 GMT 37.073959 -90.471298 34,000 251 444 -64
2022-06-26 01:20:55 GMT 37.078033 -90.456520 34,000 251 444 -64
2022-06-26 01:20:50 GMT 37.080860 -90.446442 34,000 251 444 0
2022-06-26 01:20:43 GMT 37.086491 -90.426079 34,000 252 443 0
2022-06-26 01:20:40 GMT 37.088242 -90.419701 34,000 252 444 0
2022-06-26 01:20:35 GMT 37.091766 -90.406845 34,000 252 443 0
2022-06-26 01:20:27 GMT 37.096500 -90.389778 34,000 252 443 64
2022-06-26 01:20:21 GMT 37.099899 -90.377419 34,000 252 444 0
2022-06-26 01:20:18 GMT 37.105728 -90.356178 34,000 252 444 0
2022-06-26 01:20:13 GMT 37.105728 -90.356178 34,000 252 444 0
2022-06-26 01:20:08 GMT 37.108883 -90.344696 34,000 252 444 0
2022-06-26 01:20:04 GMT 37.112328 -90.332039 34,000 252 444 0
2022-06-26 01:19:55 GMT 37.117584 -90.312996 34,000 251 444 0
2022-06-26 01:19:52 GMT 37.119232 -90.306976 34,000 252 444 0
2022-06-26 01:19:47 GMT 37.122849 -90.293823 34,000 251 444 0
2022-06-26 01:19:43 GMT 37.126190 -90.281731 34,000 251 444 0
2022-06-26 01:19:40 GMT 37.127831 -90.275734 34,000 251 444 0
2022-06-26 01:19:36 GMT 37.130901 -90.264626 34,000 251 444 0
2022-06-26 01:19:32 GMT 37.132904 -90.257339 34,000 251 444 0
2022-06-26 01:19:26 GMT 37.137512 -90.240562 34,000 251 444 -64
2022-06-26 01:19:20 GMT 37.141251 -90.227089 34,000 251 444 -64
2022-06-26 01:19:15 GMT 37.143997 -90.217094 34,000 252 444 0
2022-06-26 01:19:12 GMT 37.146927 -90.206406 34,000 251 444 0
2022-06-26 01:19:09 GMT 37.148346 -90.201317 34,000 251 444 0
2022-06-26 01:19:06 GMT 37.151058 -90.191483 34,000 251 444 0
2022-06-26 01:19:01 GMT 37.153748 -90.181625 34,000 251 444 0
2022-06-26 01:18:58 GMT 37.155350 -90.175781 34,000 251 444 0
2022-06-26 01:18:53 GMT 37.159470 -90.160995 34,000 251 444 0
2022-06-26 01:18:50 GMT 37.160751 -90.156380 34,000 252 444 0
2022-06-26 01:18:45 GMT 37.170101 -90.122162 34,000 252 445 0
2022-06-26 01:18:36 GMT 37.170101 -90.122162 34,000 252 444 0
2022-06-26 01:18:33 GMT 37.172195 -90.114540 34,000 252 445 64
2022-06-26 01:18:29 GMT 37.174942 -90.104546 34,000 252 445 0
2022-06-26 01:18:24 GMT 37.179062 -90.089409 34,000 252 445 64
2022-06-26 01:18:20 GMT 37.181488 -90.080414 34,000 252 445 0
2022-06-26 01:18:12 GMT 37.185974 -90.064049 34,000 252 445 -64
2022-06-26 01:18:06 GMT 37.189957 -90.049377 34,000 252 445 64
2022-06-26 01:18:03 GMT 37.192749 -90.039154 34,000 252 445 0
2022-06-26 01:17:55 GMT 37.197647 -90.021095 34,000 252 445 0
2022-06-26 01:17:51 GMT 37.200073 -90.012276 34,000 252 445 0
2022-06-26 01:17:46 GMT 37.203598 -89.999359 34,000 252 445 0
2022-06-26 01:17:42 GMT 37.206757 -89.987671 34,000 252 445 0
2022-06-26 01:17:35 GMT 37.210835 -89.972656 34,000 252 445 0
2022-06-26 01:17:30 GMT 37.215134 -89.956871 34,000 252 445 0
2022-06-26 01:17:26 GMT 37.217468 -89.948341 34,000 252 445 0
2022-06-26 01:17:19 GMT 37.221771 -89.932587 34,000 252 445 0
2022-06-26 01:17:15 GMT 37.224380 -89.923096 34,000 252 445 0
2022-06-26 01:17:10 GMT 37.228149 -89.909187 34,000 252 445 0
2022-06-26 01:17:07 GMT 37.230339 -89.901062 34,000 252 445 0
2022-06-26 01:17:04 GMT 37.231224 -89.897896 34,000 252 445 0
2022-06-26 01:16:58 GMT 37.237885 -89.873367 34,000 252 445 0
2022-06-26 01:16:55 GMT 37.237885 -89.873367 34,000 252 445 0
2022-06-26 01:16:48 GMT 37.242691 -89.855537 34,000 252 445 0
2022-06-26 01:16:44 GMT 37.244770 -89.847801 34,000 252 445 0
2022-06-26 01:16:36 GMT 37.250839 -89.825447 34,000 252 445 0
2022-06-26 01:16:33 GMT 37.252213 -89.820305 34,000 252 445 64
2022-06-26 01:16:28 GMT 37.255989 -89.806305 34,000 252 445 0
2022-06-26 01:16:24 GMT 37.258392 -89.797340 34,000 252 445 0
2022-06-26 01:16:16 GMT 37.263855 -89.777168 34,000 252 445 0
2022-06-26 01:16:13 GMT 37.265301 -89.771797 34,000 252 445 -64
2022-06-26 01:16:05 GMT 37.271027 -89.750542 34,000 252 445 0
2022-06-26 01:16:02 GMT 37.272720 -89.744278 34,000 252 445 0
2022-06-26 01:15:56 GMT 37.276382 -89.730598 34,000 252 445 0
2022-06-26 01:15:53 GMT 37.279125 -89.720444 34,000 252 445 0
2022-06-26 01:15:46 GMT 37.283844 -89.702728 34,000 252 445 0
2022-06-26 01:15:40 GMT 37.286728 -89.691971 34,000 252 445 0
2022-06-26 01:15:37 GMT 37.288971 -89.683678 34,000 252 445 0
2022-06-26 01:15:34 GMT 37.290619 -89.677597 34,000 252 445 0
2022-06-26 01:15:31 GMT 37.293228 -89.667839 34,000 252 445 0
2022-06-26 01:15:25 GMT 37.297142 -89.653275 34,000 252 444 0
2022-06-26 01:15:21 GMT 37.299515 -89.644501 34,000 252 444 0
2022-06-26 01:15:17 GMT 37.302750 -89.632423 34,000 252 445 0
2022-06-26 01:15:14 GMT 37.304169 -89.627281 34,000 252 445 0
2022-06-26 01:15:07 GMT 37.308289 -89.611916 34,000 252 445 0
2022-06-26 01:15:04 GMT 37.311012 -89.601807 34,000 252 445 0
2022-06-26 01:15:01 GMT 37.312317 -89.596909 34,000 252 445 0
2022-06-26 01:14:58 GMT 37.314877 -89.587357 34,000 252 445 0
2022-06-26 01:14:55 GMT 37.316601 -89.580971 34,000 252 446 0
2022-06-26 01:14:51 GMT 37.318974 -89.572189 34,000 252 446 0
2022-06-26 01:14:43 GMT 37.324905 -89.550026 34,000 252 446 0
2022-06-26 01:14:39 GMT 37.327072 -89.541801 34,000 252 446 0
2022-06-26 01:14:35 GMT 37.330101 -89.530518 34,000 252 446 0
2022-06-26 01:14:32 GMT 37.331772 -89.524254 34,000 252 446 0
2022-06-26 01:14:29 GMT 37.333511 -89.517883 34,000 252 446 0
2022-06-26 01:14:24 GMT 37.336853 -89.505379 34,000 252 446 0
2022-06-26 01:14:21 GMT 37.339363 -89.495941 34,000 252 446 0
2022-06-26 01:14:16 GMT 37.342117 -89.485748 34,000 252 447 0
2022-06-26 01:14:11 GMT 37.345596 -89.472771 34,000 252 447 0
2022-06-26 01:14:07 GMT 37.348160 -89.463188 34,000 252 447 0
2022-06-26 01:14:04 GMT 37.350632 -89.454071 34,000 252 446 0
2022-06-26 01:14:00 GMT 37.355656 -89.435280 34,000 252 447 0
2022-06-26 01:13:55 GMT 37.355656 -89.435280 34,000 252 447 0
2022-06-26 01:13:48 GMT 37.360748 -89.416267 34,000 252 447 0
2022-06-26 01:13:45 GMT 37.362732 -89.408768 34,000 252 447 0
2022-06-26 01:13:39 GMT 37.366550 -89.394501 34,000 252 446 0
2022-06-26 01:13:34 GMT 37.369621 -89.382912 34,000 252 446 0
2022-06-26 01:13:29 GMT 37.373253 -89.369125 34,000 252 447 0
2022-06-26 01:13:24 GMT 37.376129 -89.358177 34,000 252 446 -64
2022-06-26 01:13:21 GMT 37.377861 -89.351685 34,000 252 446 0
2022-06-26 01:13:18 GMT 37.380112 -89.343155 34,000 252 446 0
2022-06-26 01:13:14 GMT 37.383041 -89.332115 34,000 252 446 0
2022-06-26 01:13:11 GMT 37.384964 -89.324692 34,000 252 446 0
2022-06-26 01:13:07 GMT 37.387638 -89.314728 34,000 252 446 0
2022-06-26 01:13:03 GMT 37.389828 -89.306366 34,000 252 446 0
2022-06-26 01:12:58 GMT 37.393707 -89.291733 34,000 252 446 0
2022-06-26 01:12:54 GMT 37.395767 -89.284134 34,000 252 446 0
2022-06-26 01:12:47 GMT 37.400345 -89.266899 34,000 252 446 0
2022-06-26 01:12:43 GMT 37.403000 -89.256844 34,000 252 446 0
2022-06-26 01:12:37 GMT 37.409180 -89.233467 34,000 252 446 0
2022-06-26 01:12:26 GMT 37.414078 -89.215004 34,000 252 446 0
2022-06-26 01:12:19 GMT 37.418427 -89.198524 34,000 252 446 0
2022-06-26 01:12:15 GMT 37.421574 -89.186592 34,000 252 446 0
2022-06-26 01:12:10 GMT 37.424183 -89.176743 34,000 252 446 0
2022-06-26 01:12:06 GMT 37.427532 -89.163963 34,000 252 446 0
2022-06-26 01:12:02 GMT 37.429962 -89.154755 34,000 252 446 0
2022-06-26 01:11:54 GMT 37.434906 -89.136055 34,000 252 446 0
2022-06-26 01:11:51 GMT 37.436829 -89.128693 34,000 252 446 0
2022-06-26 01:11:44 GMT 37.440903 -89.113205 34,000 252 446 0
2022-06-26 01:11:41 GMT 37.443146 -89.104553 34,000 252 446 0
2022-06-26 01:11:38 GMT 37.444839 -89.098183 34,000 252 446 0
2022-06-26 01:11:33 GMT 37.448296 -89.085030 34,000 252 445 0
2022-06-26 01:11:30 GMT 37.450333 -89.077263 34,000 252 445 0
2022-06-26 01:11:26 GMT 37.452625 -89.068550 34,000 252 445 0
2022-06-26 01:11:22 GMT 37.455048 -89.059380 34,000 252 445 64
2022-06-26 01:11:19 GMT 37.457291 -89.050797 34,000 252 445 64
2022-06-26 01:11:16 GMT 37.459469 -89.042519 34,000 252 445 64
2022-06-26 01:11:13 GMT 37.464066 -89.025200 34,000 252 445 0
2022-06-26 01:11:10 GMT 37.464066 -89.025200 34,000 252 445 0
2022-06-26 01:11:06 GMT 37.466030 -89.017738 34,000 252 445 0
2022-06-26 01:11:03 GMT 37.467682 -89.011467 34,000 252 446 0
2022-06-26 01:11:00 GMT 37.469337 -89.005203 34,000 252 446 0
2022-06-26 01:10:57 GMT 37.475052 -88.983414 34,000 252 446 0
2022-06-26 01:10:52 GMT 37.475052 -88.983414 34,000 252 446 0
2022-06-26 01:10:47 GMT 37.478275 -88.970985 34,000 252 446 0
2022-06-26 01:10:42 GMT 37.481232 -88.959808 34,000 252 446 -64
2022-06-26 01:10:39 GMT 37.483212 -88.952301 34,000 252 446 -64
2022-06-26 01:10:36 GMT 37.485771 -88.942444 34,000 252 446 0
2022-06-26 01:10:29 GMT 37.489773 -88.927223 34,000 252 446 64
2022-06-26 01:10:26 GMT 37.492195 -88.917847 34,000 252 446 0
2022-06-26 01:10:21 GMT 37.495377 -88.905693 34,000 252 446 0
2022-06-26 01:10:17 GMT 37.497360 -88.898201 34,000 252 446 0
2022-06-26 01:10:14 GMT 37.499039 -88.891754 34,000 252 446 0
2022-06-26 01:10:11 GMT 37.503323 -88.875275 34,000 252 446 -64
2022-06-26 01:10:08 GMT 37.503323 -88.875275 34,000 252 445 0
2022-06-26 01:10:04 GMT 37.505814 -88.865776 34,000 252 445 0
2022-06-26 01:10:00 GMT 37.508377 -88.855965 34,000 252 445 0
2022-06-26 01:09:57 GMT 37.510986 -88.845848 34,000 252 445 0
2022-06-26 01:09:51 GMT 37.514633 -88.831688 34,000 252 445 0
2022-06-26 01:09:48 GMT 37.516708 -88.823647 34,000 252 445 0
2022-06-26 01:09:44 GMT 37.518867 -88.815445 34,000 252 445 0
2022-06-26 01:09:38 GMT 37.522175 -88.802612 34,000 252 445 0
2022-06-26 01:09:35 GMT 37.524765 -88.792618 34,000 252 445 0
2022-06-26 01:09:30 GMT 37.527805 -88.780937 34,000 253 446 64
2022-06-26 01:09:26 GMT 37.529800 -88.773155 34,000 253 446 64
2022-06-26 01:09:23 GMT 37.532463 -88.762901 34,000 253 446 0
2022-06-26 01:09:19 GMT 37.534378 -88.755386 34,000 253 446 -64
2022-06-26 01:09:15 GMT 37.537491 -88.743378 34,000 253 446 -64
2022-06-26 01:09:09 GMT 37.540970 -88.729965 34,000 253 446 0
2022-06-26 01:09:05 GMT 37.543213 -88.721321 34,000 252 447 0
2022-06-26 01:09:02 GMT 37.545498 -88.712509 34,000 252 447 64
2022-06-26 01:08:59 GMT 37.547638 -88.704147 34,000 252 447 0
2022-06-26 01:08:55 GMT 37.549641 -88.696510 34,000 252 447 0
2022-06-26 01:08:52 GMT 37.552479 -88.685577 34,000 252 447 0
2022-06-26 01:08:47 GMT 37.555069 -88.675621 34,000 252 447 -64
2022-06-26 01:08:43 GMT 37.557835 -88.664864 34,000 252 447 -64
2022-06-26 01:08:39 GMT 37.559834 -88.657158 34,000 252 447 0
2022-06-26 01:08:36 GMT 37.561798 -88.649673 34,000 252 447 0
2022-06-26 01:08:33 GMT 37.564861 -88.637871 34,000 253 447 0
2022-06-26 01:08:27 GMT 37.568310 -88.624557 34,000 253 447 0
2022-06-26 01:08:23 GMT 37.570862 -88.614494 34,000 253 447 0
2022-06-26 01:08:19 GMT 37.573105 -88.605988 34,000 253 447 0
2022-06-26 01:08:15 GMT 37.575848 -88.595299 34,000 253 447 -64
2022-06-26 01:08:10 GMT 37.578873 -88.583527 34,000 253 448 64
2022-06-26 01:08:06 GMT 37.584694 -88.560852 34,000 253 448 64
2022-06-26 01:08:01 GMT 37.584694 -88.560852 34,000 252 449 0
2022-06-26 01:07:54 GMT 37.589024 -88.543953 34,000 252 449 0
2022-06-26 01:07:50 GMT 37.595772 -88.517921 34,000 252 449 0
2022-06-26 01:07:44 GMT 37.595772 -88.517921 34,000 252 449 0
2022-06-26 01:07:40 GMT 37.597404 -88.511711 34,000 253 448 -64
2022-06-26 01:07:36 GMT 37.601219 -88.496841 34,000 253 448 0
2022-06-26 01:07:33 GMT 37.602493 -88.492012 34,000 253 448 0
2022-06-26 01:07:29 GMT 37.604618 -88.483650 34,000 253 448 0
2022-06-26 01:07:23 GMT 37.608902 -88.466988 34,000 253 449 0
2022-06-26 01:07:20 GMT 37.611557 -88.456711 34,000 253 449 0
2022-06-26 01:07:17 GMT 37.613232 -88.450089 34,000 253 449 -64
2022-06-26 01:07:13 GMT 37.615540 -88.441055 34,000 253 449 -64
2022-06-26 01:07:10 GMT 37.617508 -88.433334 34,000 253 449 0
2022-06-26 01:07:04 GMT 37.621445 -88.417908 34,000 253 449 64
2022-06-26 01:06:59 GMT 37.623890 -88.408295 34,000 253 449 0
2022-06-26 01:06:53 GMT 37.627522 -88.394089 34,000 253 449 0
2022-06-26 01:06:49 GMT 37.630596 -88.381905 34,000 253 449 0
2022-06-26 01:06:42 GMT 37.635387 -88.362976 34,000 253 449 0
2022-06-26 01:06:38 GMT 37.637192 -88.355850 34,000 253 449 -64
2022-06-26 01:06:33 GMT 37.639999 -88.345001 34,000 253 449 -64
2022-06-26 01:06:30 GMT 37.641998 -88.337151 34,000 253 449 -64
2022-06-26 01:06:27 GMT 37.644001 -88.329300 34,000 253 449 0
2022-06-26 01:06:21 GMT 37.648407 -88.312019 34,000 253 449 0
2022-06-26 01:06:17 GMT 37.650742 -88.303024 34,000 253 449 64
2022-06-26 01:06:11 GMT 37.657288 -88.277428 34,000 253 449 64
2022-06-26 01:06:06 GMT 37.657288 -88.277428 34,000 253 449 64
2022-06-26 01:06:02 GMT 37.660263 -88.265678 34,000 253 449 64
2022-06-26 01:05:57 GMT 37.663834 -88.251862 34,000 253 449 0
2022-06-26 01:05:53 GMT 37.666485 -88.241409 34,000 253 450 -64
2022-06-26 01:05:50 GMT 37.668255 -88.234367 34,000 253 450 0
2022-06-26 01:05:45 GMT 37.670815 -88.224396 34,000 253 449 0
2022-06-26 01:05:39 GMT 37.674446 -88.210182 34,000 253 449 0
2022-06-26 01:05:36 GMT 37.677200 -88.199356 34,000 253 449 0
2022-06-26 01:05:32 GMT 37.679104 -88.192032 34,000 253 449 64
2022-06-26 01:05:29 GMT 37.681709 -88.181824 34,000 253 449 64
2022-06-26 01:05:25 GMT 37.683792 -88.173698 34,000 253 449 64
2022-06-26 01:05:22 GMT 37.685623 -88.166451 34,000 253 449 0
2022-06-26 01:05:18 GMT 37.688232 -88.156281 34,000 253 449 0
2022-06-26 01:05:14 GMT 37.690475 -88.147285 34,000 253 449 0
2022-06-26 01:05:11 GMT 37.692741 -88.138412 34,000 253 449 0
2022-06-26 01:05:05 GMT 37.697071 -88.121216 34,000 253 449 0
2022-06-26 01:04:57 GMT 37.701305 -88.104263 34,000 253 449 0
2022-06-26 01:04:52 GMT 37.704071 -88.093109 34,000 252 449 0
2022-06-26 01:04:49 GMT 37.706726 -88.083237 34,000 250 448 0
2022-06-26 01:04:44 GMT 37.710617 -88.069969 34,000 250 449 0
2022-06-26 01:04:37 GMT 37.715878 -88.052490 34,000 250 448 -64
2022-06-26 01:04:33 GMT 37.718124 -88.045021 34,000 250 448 0
2022-06-26 01:04:30 GMT 37.720963 -88.035782 34,000 250 448 0
2022-06-26 01:04:25 GMT 37.723846 -88.026260 34,000 250 448 0
2022-06-26 01:04:22 GMT 37.725815 -88.019653 34,000 250 448 -64
2022-06-26 01:04:19 GMT 37.728470 -88.010834 34,000 250 448 0
2022-06-26 01:04:15 GMT 37.731262 -88.001541 34,000 250 448 -64
2022-06-26 01:04:12 GMT 37.733643 -87.993706 34,000 250 448 -64
2022-06-26 01:04:08 GMT 37.736298 -87.984947 34,000 250 448 64
2022-06-26 01:04:03 GMT 37.741104 -87.969109 34,000 250 448 64
2022-06-26 01:03:59 GMT 37.743904 -87.959946 34,000 250 448 64
2022-06-26 01:03:52 GMT 37.749207 -87.942223 34,000 250 448 0
2022-06-26 01:03:47 GMT 37.752274 -87.932175 34,000 250 448 0
2022-06-26 01:03:45 GMT 37.754196 -87.925865 34,000 250 448 0
2022-06-26 01:03:41 GMT 37.756622 -87.917801 34,000 250 448 0
2022-06-26 01:03:37 GMT 37.759232 -87.909264 34,000 250 448 0
2022-06-26 01:03:34 GMT 37.762012 -87.900116 34,000 249 447 0
2022-06-26 01:03:30 GMT 37.765503 -87.888519 34,000 250 447 0
2022-06-26 01:03:26 GMT 37.767319 -87.882561 34,000 250 448 0
2022-06-26 01:03:23 GMT 37.769577 -87.875137 34,000 250 448 0
2022-06-26 01:03:20 GMT 37.772232 -87.866318 34,000 250 448 0
2022-06-26 01:03:16 GMT 37.775070 -87.857025 34,000 250 451 0
2022-06-26 01:03:10 GMT 37.779419 -87.842590 34,000 250 450 -64
2022-06-26 01:03:07 GMT 37.782120 -87.833763 34,000 250 450 -64
2022-06-26 01:03:03 GMT 37.784821 -87.824829 34,000 250 450 0
2022-06-26 01:03:00 GMT 37.790268 -87.806770 34,000 250 451 0
2022-06-26 01:02:57 GMT 37.790268 -87.806770 34,000 250 451 0
2022-06-26 01:02:53 GMT 37.792645 -87.799034 34,000 250 451 0
2022-06-26 01:02:49 GMT 37.795349 -87.790054 34,000 250 453 0
2022-06-26 01:02:45 GMT 37.797901 -87.781540 34,000 250 453 0
2022-06-26 01:02:42 GMT 37.800465 -87.773117 34,000 250 453 -64
2022-06-26 01:02:39 GMT 37.803177 -87.764107 34,000 250 454 0
2022-06-26 01:02:36 GMT 37.805351 -87.756760 34,000 250 454 0
2022-06-26 01:02:31 GMT 37.808350 -87.746750 34,000 250 456 0
2022-06-26 01:02:28 GMT 37.810959 -87.738045 34,000 250 455 0
2022-06-26 01:02:25 GMT 37.813267 -87.730484 34,000 250 455 0
2022-06-26 01:02:20 GMT 37.816525 -87.719559 34,000 250 456 0
2022-06-26 01:02:15 GMT 37.821365 -87.703377 34,000 250 456 0
2022-06-26 01:02:11 GMT 37.823692 -87.695618 34,000 250 456 0
2022-06-26 01:02:07 GMT 37.826534 -87.686188 34,000 250 456 0
2022-06-26 01:02:04 GMT 37.828907 -87.678185 34,000 250 456 0
2022-06-26 01:02:00 GMT 37.832726 -87.665466 34,000 250 456 0
2022-06-26 01:01:56 GMT 37.834213 -87.660378 34,000 250 456 0
2022-06-26 01:01:53 GMT 37.837143 -87.650681 34,000 250 456 0
2022-06-26 01:01:50 GMT 37.839249 -87.643669 34,000 250 456 -64
2022-06-26 01:01:47 GMT 37.841995 -87.634491 34,000 250 456 -64
2022-06-26 01:01:44 GMT 37.844238 -87.627014 34,000 250 456 -64
2022-06-26 01:01:39 GMT 37.850739 -87.605095 34,000 250 455 0
2022-06-26 01:01:35 GMT 37.850739 -87.605095 34,000 250 455 0
2022-06-26 01:01:32 GMT 37.852043 -87.600739 34,000 250 455 64
2022-06-26 01:01:29 GMT 37.855022 -87.590767 34,000 250 455 64
2022-06-26 01:01:26 GMT 37.857422 -87.582657 34,000 250 455 64
2022-06-26 01:01:23 GMT 37.859631 -87.575302 34,000 250 455 0
2022-06-26 01:01:18 GMT 37.862457 -87.565712 34,000 250 455 0
2022-06-26 01:01:13 GMT 37.866940 -87.550644 34,000 250 455 0
2022-06-26 01:01:09 GMT 37.870106 -87.539955 34,000 250 455 0
2022-06-26 01:01:04 GMT 37.873363 -87.529030 34,000 250 455 0
2022-06-26 01:01:01 GMT 37.875916 -87.520424 34,000 250 455 0
2022-06-26 01:00:57 GMT 37.877972 -87.513565 34,000 250 455 0
2022-06-26 01:00:53 GMT 37.881416 -87.501862 34,000 250 454 0
2022-06-26 01:00:51 GMT 37.882954 -87.496674 34,000 250 451 -64
2022-06-26 01:00:46 GMT 37.887131 -87.482613 34,000 250 454 0
2022-06-26 01:00:43 GMT 37.889145 -87.475891 34,000 250 454 0
2022-06-26 01:00:41 GMT 37.891068 -87.469460 34,000 250 454 0
2022-06-26 01:00:38 GMT 37.893242 -87.462097 34,000 250 454 0
2022-06-26 01:00:33 GMT 37.896149 -87.452339 34,000 250 454 64
2022-06-26 01:00:30 GMT 37.898411 -87.444786 34,000 250 454 64
2022-06-26 01:00:26 GMT 37.900909 -87.436447 34,000 250 454 0
2022-06-26 01:00:21 GMT 37.906185 -87.418694 34,000 250 453 0
2022-06-26 01:00:19 GMT 37.906185 -87.418694 34,000 250 453 -64
2022-06-26 01:00:15 GMT 37.910141 -87.405319 34,000 250 452 64
2022-06-26 01:00:12 GMT 37.911667 -87.400215 34,000 250 453 0
2022-06-26 01:00:10 GMT 37.913818 -87.393028 34,000 250 453 0
2022-06-26 01:00:06 GMT 37.916107 -87.385368 34,000 250 453 0
2022-06-26 01:00:02 GMT 37.919174 -87.374969 34,000 250 452 64
2022-06-26 01:00:00 GMT 37.920567 -87.370384 34,000 250 452 64
2022-06-26 00:59:57 GMT 37.923130 -87.361732 34,000 250 452 64
2022-06-26 00:59:51 GMT 37.926910 -87.348961 34,000 250 452 0
2022-06-26 00:59:49 GMT 37.929134 -87.341431 34,000 250 452 0
2022-06-26 00:59:46 GMT 37.931305 -87.334122 34,000 250 452 0
2022-06-26 00:59:41 GMT 37.934464 -87.323486 34,000 250 452 64
2022-06-26 00:59:38 GMT 37.936768 -87.315697 34,000 250 451 -64
2022-06-26 00:59:35 GMT 37.939003 -87.308289 34,000 250 452 0
2022-06-26 00:59:31 GMT 37.942448 -87.296646 34,000 250 451 0
2022-06-26 00:59:28 GMT 37.943573 -87.292809 34,000 250 451 0
2022-06-26 00:59:25 GMT 37.947151 -87.280823 34,000 250 451 0
2022-06-26 00:59:21 GMT 37.949661 -87.272293 34,000 250 451 0
2022-06-26 00:59:17 GMT 37.952038 -87.264282 34,000 250 451 -64
2022-06-26 00:59:14 GMT 37.954193 -87.256981 34,000 250 451 -64
2022-06-26 00:59:10 GMT 37.957718 -87.245117 34,000 250 450 0
2022-06-26 00:59:06 GMT 37.959961 -87.237465 34,000 250 450 0
2022-06-26 00:59:01 GMT 37.964233 -87.223022 34,000 250 450 -64
2022-06-26 00:58:57 GMT 37.966656 -87.214844 34,000 250 450 -64
2022-06-26 00:58:53 GMT 37.969666 -87.204620 34,000 250 450 0
2022-06-26 00:58:50 GMT 37.972321 -87.195801 34,000 250 450 0
2022-06-26 00:58:46 GMT 37.977264 -87.179024 34,025 250 449 1088
2022-06-26 00:58:42 GMT 37.977264 -87.179024 34,000 250 449 -64
2022-06-26 00:58:37 GMT 37.981365 -87.165108 34,025 250 449 0
2022-06-26 00:58:33 GMT 37.984818 -87.153435 34,000 250 448 256
2022-06-26 00:58:30 GMT 37.986256 -87.148628 34,000 250 448 576
2022-06-26 00:58:28 GMT 37.987381 -87.144836 33,975 250 448 768
2022-06-26 00:58:24 GMT 37.990257 -87.135139 33,900 250 449 1088
2022-06-26 00:58:20 GMT 37.993610 -87.123848 33,825 250 449 1216
2022-06-26 00:58:15 GMT 37.997910 -87.109192 33,700 250 450 1216
2022-06-26 00:58:10 GMT 38.000839 -87.099319 33,600 250 453 1280
2022-06-26 00:58:05 GMT 38.007294 -87.077400 33,400 250 453 1280
2022-06-26 00:58:01 GMT 38.007294 -87.077400 33,250 250 454 1280
2022-06-26 00:57:55 GMT 38.011414 -87.063377 33,200 250 454 1216
2022-06-26 00:57:52 GMT 38.014984 -87.051163 33,200 250 454 1216
2022-06-26 00:57:49 GMT 38.015945 -87.047951 33,175 250 454 1152
2022-06-26 00:57:46 GMT 38.019104 -87.036964 33,075 250 454 1152
2022-06-26 00:57:43 GMT 38.021027 -87.030350 33,025 250 455 1280
2022-06-26 00:57:39 GMT 38.023178 -87.022942 32,975 250 455 1472
2022-06-26 00:57:37 GMT 38.024940 -87.016792 32,900 250 457 1344
2022-06-26 00:57:33 GMT 38.028488 -87.004646 32,800 250 458 1216
2022-06-26 00:57:30 GMT 38.030014 -86.999535 32,700 250 458 1216
2022-06-26 00:57:24 GMT 38.034119 -86.985306 32,625 250 460 0
2022-06-26 00:57:20 GMT 38.037880 -86.972374 32,525 250 459 1472
2022-06-26 00:57:12 GMT 38.043652 -86.952667 32,325 250 461 1408
2022-06-26 00:57:09 GMT 38.045654 -86.945686 32,275 250 461 1344
2022-06-26 00:57:03 GMT 38.050262 -86.929855 32,125 250 462 1344
2022-06-26 00:56:59 GMT 38.053242 -86.919708 31,975 250 463 1344
2022-06-26 00:56:54 GMT 38.057293 -86.905678 31,925 250 464 1280
2022-06-26 00:56:51 GMT 38.058746 -86.900742 31,850 250 465 1408
2022-06-26 00:56:48 GMT 38.061249 -86.892181 31,800 250 465 1280
2022-06-26 00:56:43 GMT 38.064556 -86.880661 31,700 250 465 1408
2022-06-26 00:56:40 GMT 38.066895 -86.872635 31,475 250 466 1088
2022-06-26 00:56:37 GMT 38.068863 -86.865974 31,575 250 466 1216
2022-06-26 00:56:32 GMT 38.072468 -86.853493 31,425 250 467 1088
2022-06-26 00:56:28 GMT 38.076279 -86.840317 31,400 250 467 1088
2022-06-26 00:56:21 GMT 38.082001 -86.820511 31,225 250 467 960
2022-06-26 00:56:17 GMT 38.084061 -86.813324 31,225 250 467 896
2022-06-26 00:56:12 GMT 38.087551 -86.801369 31,150 250 467 832
2022-06-26 00:56:07 GMT 38.092018 -86.785965 31,050 250 467 832
2022-06-26 00:55:59 GMT 38.097244 -86.767860 30,975 250 465 832
2022-06-26 00:55:56 GMT 38.099716 -86.759384 30,925 250 466 832
2022-06-26 00:55:52 GMT 38.103378 -86.746674 30,850 250 466 832
2022-06-26 00:55:48 GMT 38.105755 -86.738495 30,800 250 465 832
2022-06-26 00:55:45 GMT 38.107269 -86.733261 30,775 250 465 832
2022-06-26 00:55:40 GMT 38.111015 -86.720284 30,700 250 464 832
2022-06-26 00:55:36 GMT 38.115143 -86.706085 30,625 250 464 832
2022-06-26 00:55:33 GMT 38.117020 -86.699722 30,575 250 464 896
2022-06-26 00:55:28 GMT 38.120697 -86.687088 30,500 250 464 960
2022-06-26 00:55:25 GMT 38.122746 -86.679916 30,450 250 464 896
2022-06-26 00:55:19 GMT 38.126678 -86.666527 30,375 250 464 832
2022-06-26 00:55:15 GMT 38.130798 -86.652206 30,300 250 464 832
2022-06-26 00:55:12 GMT 38.132721 -86.645607 30,250 250 463 896
2022-06-26 00:55:08 GMT 38.134941 -86.638062 30,150 250 463 896
2022-06-26 00:55:04 GMT 38.138123 -86.626961 30,100 250 463 896
2022-06-26 00:54:59 GMT 38.141602 -86.614983 30,050 250 463 960
2022-06-26 00:54:56 GMT 38.143787 -86.607491 30,050 250 463 960
2022-06-26 00:54:53 GMT 38.145927 -86.600090 29,950 250 460 0
2022-06-26 00:54:48 GMT 38.149704 -86.586937 29,900 250 463 960
2022-06-26 00:54:45 GMT 38.152164 -86.578415 29,800 250 463 960
2022-06-26 00:54:42 GMT 38.155289 -86.567589 29,800 250 463 960
2022-06-26 00:54:36 GMT 38.158951 -86.554848 29,725 250 462 960
2022-06-26 00:54:32 GMT 38.161987 -86.544319 29,625 250 460 960
2022-06-26 00:54:29 GMT 38.164364 -86.536140 29,600 250 462 960
2022-06-26 00:54:25 GMT 38.167099 -86.526627 29,525 250 462 1024
2022-06-26 00:54:23 GMT 38.168972 -86.520142 29,475 250 462 1024
2022-06-26 00:54:20 GMT 38.170486 -86.514938 29,450 250 462 1024
2022-06-26 00:54:16 GMT 38.173580 -86.504135 29,400 250 461 896
2022-06-26 00:54:11 GMT 38.177582 -86.490280 29,300 250 460 960
2022-06-26 00:54:07 GMT 38.180565 -86.480019 29,250 250 460 960
2022-06-26 00:54:04 GMT 38.182751 -86.472374 29,175 250 460 960
2022-06-26 00:54:00 GMT 38.185219 -86.463776 29,125 250 460 960
2022-06-26 00:53:56 GMT 38.188244 -86.453384 29,075 250 460 1024
2022-06-26 00:53:52 GMT 38.191502 -86.441925 28,975 250 460 1024
2022-06-26 00:53:49 GMT 38.193237 -86.435989 28,950 251 460 1024
2022-06-26 00:53:44 GMT 38.196808 -86.423416 28,825 251 460 1024
2022-06-26 00:53:41 GMT 38.199089 -86.415527 28,350 251 461 1216
2022-06-26 00:53:35 GMT 38.203445 -86.400223 28,675 251 460 1216
2022-06-26 00:53:31 GMT 38.206772 -86.388664 28,600 251 461 1216
2022-06-26 00:53:27 GMT 38.209763 -86.378075 28,500 251 461 1216
2022-06-26 00:53:23 GMT 38.211914 -86.370483 28,400 251 461 1408
2022-06-26 00:53:20 GMT 38.214035 -86.362930 28,350 251 461 640
2022-06-26 00:53:15 GMT 38.218365 -86.347641 28,250 251 462 1280
2022-06-26 00:53:11 GMT 38.223404 -86.329926 28,150 251 461 704
2022-06-26 00:53:08 GMT 38.223404 -86.329926 28,125 251 461 704
2022-06-26 00:53:03 GMT 38.226463 -86.319099 28,100 251 460 384
2022-06-26 00:53:00 GMT 38.229210 -86.309433 28,075 251 459 384
2022-06-26 00:52:56 GMT 38.232098 -86.299278 28,050 251 459 512
2022-06-26 00:52:52 GMT 38.234436 -86.291061 28,025 251 458 384
2022-06-26 00:52:48 GMT 38.236938 -86.282326 28,000 251 458 0
2022-06-26 00:52:44 GMT 38.240753 -86.269089 28,000 251 458 0
2022-06-26 00:52:40 GMT 38.243362 -86.259872 28,000 251 458 0
2022-06-26 00:52:34 GMT 38.247253 -86.246300 28,000 251 458 0
2022-06-26 00:52:30 GMT 38.251183 -86.232529 28,000 251 458 0
2022-06-26 00:52:27 GMT 38.252209 -86.229004 28,000 251 458 -64
2022-06-26 00:52:24 GMT 38.254536 -86.220940 28,000 251 457 0
2022-06-26 00:52:18 GMT 38.259094 -86.205002 28,000 251 458 0
2022-06-26 00:52:13 GMT 38.263100 -86.190849 28,000 251 458 0
2022-06-26 00:52:10 GMT 38.264282 -86.186691 28,000 251 458 0
2022-06-26 00:52:07 GMT 38.266617 -86.178627 28,000 251 457 0
2022-06-26 00:52:04 GMT 38.269432 -86.168640 28,000 251 457 0
2022-06-26 00:52:00 GMT 38.271481 -86.161293 28,000 251 457 0
2022-06-26 00:51:56 GMT 38.274719 -86.149757 28,000 251 457 0
2022-06-26 00:51:51 GMT 38.281952 -86.124222 28,000 251 458 0
2022-06-26 00:51:47 GMT 38.285477 -86.111832 28,000 251 457 0
2022-06-26 00:51:42 GMT 38.285477 -86.111832 28,000 251 457 0
2022-06-26 00:51:39 GMT 38.286530 -86.108032 28,000 251 457 0
2022-06-26 00:51:36 GMT 38.288681 -86.100441 28,000 251 459 -64
2022-06-26 00:51:31 GMT 38.293686 -86.082596 28,000 251 457 -64
2022-06-26 00:51:27 GMT 38.296143 -86.073853 28,000 251 457 0
2022-06-26 00:51:19 GMT 38.301273 -86.055733 28,000 251 458 0
2022-06-26 00:51:15 GMT 38.307697 -86.032921 28,000 251 458 0
2022-06-26 00:51:10 GMT 38.307697 -86.032921 28,000 251 458 0
2022-06-26 00:51:06 GMT 38.310837 -86.021667 28,000 251 458 0
2022-06-26 00:51:00 GMT 38.314865 -86.007309 28,000 251 458 0
2022-06-26 00:50:54 GMT 38.318527 -85.994202 28,000 251 458 0
2022-06-26 00:50:51 GMT 38.321274 -85.984558 28,000 251 459 0
2022-06-26 00:50:48 GMT 38.323383 -85.977097 28,000 251 459 0
2022-06-26 00:50:42 GMT 38.328224 -85.959778 28,000 251 459 0
2022-06-26 00:50:39 GMT 38.329514 -85.955101 28,000 251 459 -64
2022-06-26 00:50:37 GMT 38.330887 -85.950249 28,000 251 459 -64
2022-06-26 00:50:33 GMT 38.333767 -85.939957 28,000 251 459 -64
2022-06-26 00:50:29 GMT 38.336700 -85.929565 28,000 251 459 0
2022-06-26 00:50:27 GMT 38.338329 -85.923714 28,000 251 458 0
2022-06-26 00:50:23 GMT 38.340702 -85.915298 28,000 251 458 0
2022-06-26 00:50:18 GMT 38.346954 -85.893097 28,000 251 458 0
2022-06-26 00:50:15 GMT 38.349609 -85.883690 28,000 251 458 0
2022-06-26 00:50:09 GMT 38.351120 -85.878372 28,000 251 459 0
2022-06-26 00:50:06 GMT 38.353783 -85.869080 28,000 251 459 0
2022-06-26 00:50:02 GMT 38.356762 -85.858391 28,000 251 459 0
2022-06-26 00:49:59 GMT 38.361145 -85.843018 28,000 251 459 0
2022-06-26 00:49:56 GMT 38.361145 -85.843018 28,000 251 459 0
2022-06-26 00:49:52 GMT 38.363979 -85.833015 28,000 251 459 64
2022-06-26 00:49:48 GMT 38.365841 -85.826385 28,000 251 459 0
2022-06-26 00:49:45 GMT 38.369007 -85.815224 28,000 251 459 0
2022-06-26 00:49:41 GMT 38.370850 -85.808716 28,000 251 459 0
2022-06-26 00:49:37 GMT 38.374786 -85.794693 28,000 251 459 0
2022-06-26 00:49:33 GMT 38.378632 -85.780960 28,000 251 459 0
2022-06-26 00:49:30 GMT 38.378632 -85.780960 28,000 251 459 0
2022-06-26 00:49:27 GMT 38.381424 -85.771027 28,000 251 459 0
2022-06-26 00:49:23 GMT 38.384789 -85.758919 28,000 251 459 0
2022-06-26 00:49:19 GMT 38.387604 -85.748878 28,000 251 459 0
2022-06-26 00:49:16 GMT 38.389435 -85.742271 28,000 251 459 0
2022-06-26 00:49:13 GMT 38.392273 -85.732048 28,000 251 459 64
2022-06-26 00:49:09 GMT 38.394424 -85.724289 28,000 251 459 64
2022-06-26 00:49:07 GMT 38.395477 -85.720360 28,000 251 459 64
2022-06-26 00:49:02 GMT 38.399277 -85.706566 28,000 251 459 0
2022-06-26 00:48:59 GMT 38.401337 -85.699203 28,000 251 458 0
2022-06-26 00:48:57 GMT 38.402756 -85.693954 28,000 251 459 0
2022-06-26 00:48:55 GMT 38.403549 -85.691147 28,000 251 459 0
2022-06-26 00:48:52 GMT 38.406738 -85.679565 28,000 251 459 0
2022-06-26 00:48:49 GMT 38.408569 -85.672905 28,000 251 459 0
2022-06-26 00:48:46 GMT 38.410717 -85.665115 28,000 251 459 0
2022-06-26 00:48:41 GMT 38.414474 -85.651505 28,000 251 459 0
2022-06-26 00:48:38 GMT 38.415894 -85.646431 28,000 251 459 0
2022-06-26 00:48:35 GMT 38.418163 -85.638367 28,000 251 460 0
2022-06-26 00:48:32 GMT 38.419968 -85.631859 28,000 251 460 0
2022-06-26 00:48:29 GMT 38.421890 -85.624878 28,000 251 459 0
2022-06-26 00:48:26 GMT 38.424362 -85.616035 28,000 251 459 0
2022-06-26 00:48:24 GMT 38.425522 -85.611877 28,000 251 459 64
2022-06-26 00:48:20 GMT 38.433155 -85.584595 28,000 251 460 64
2022-06-26 00:48:15 GMT 38.433155 -85.584595 28,000 251 460 0
2022-06-26 00:48:11 GMT 38.434616 -85.579315 28,000 251 460 -64
2022-06-26 00:48:08 GMT 38.437531 -85.568726 28,000 251 460 -64
2022-06-26 00:48:05 GMT 38.439011 -85.563492 28,000 251 460 0
2022-06-26 00:48:01 GMT 38.442001 -85.552612 28,000 251 460 0
2022-06-26 00:47:58 GMT 38.444275 -85.544563 28,000 251 461 0
2022-06-26 00:47:55 GMT 38.448715 -85.528442 28,000 251 461 0
2022-06-26 00:47:48 GMT 38.451920 -85.516983 28,000 251 461 0
2022-06-26 00:47:45 GMT 38.453979 -85.509521 28,000 251 461 0
2022-06-26 00:47:40 GMT 38.456570 -85.500183 28,000 251 461 0
2022-06-26 00:47:37 GMT 38.460022 -85.487785 28,000 251 462 0
2022-06-26 00:47:34 GMT 38.461506 -85.482544 28,000 251 462 0
2022-06-26 00:47:31 GMT 38.463318 -85.475960 28,000 251 462 0
2022-06-26 00:47:28 GMT 38.466064 -85.465988 28,000 251 462 0
2022-06-26 00:47:25 GMT 38.467884 -85.459412 28,000 251 462 0
2022-06-26 00:47:20 GMT 38.471375 -85.446701 28,000 251 462 0
2022-06-26 00:47:17 GMT 38.473469 -85.439148 28,000 251 462 0
2022-06-26 00:47:14 GMT 38.476402 -85.428650 28,000 251 462 0
2022-06-26 00:47:09 GMT 38.478836 -85.419777 28,000 251 463 -64
2022-06-26 00:47:05 GMT 38.482498 -85.406403 28,000 251 463 -64
2022-06-26 00:47:02 GMT 38.483597 -85.402580 28,000 251 463 -64
2022-06-26 00:46:59 GMT 38.486084 -85.393433 28,000 251 463 0
2022-06-26 00:46:53 GMT 38.490601 -85.377083 28,000 251 463 0
2022-06-26 00:46:49 GMT 38.493393 -85.366814 28,000 251 463 64
2022-06-26 00:46:43 GMT 38.498051 -85.349915 28,000 251 463 0
2022-06-26 00:46:38 GMT 38.501038 -85.338989 28,000 251 463 0
2022-06-26 00:46:33 GMT 38.504837 -85.325081 28,000 251 463 64
2022-06-26 00:46:30 GMT 38.507309 -85.316002 28,000 251 463 0
2022-06-26 00:46:27 GMT 38.508453 -85.311882 28,000 251 463 0
2022-06-26 00:46:23 GMT 38.511597 -85.300415 28,000 251 463 -64
2022-06-26 00:46:20 GMT 38.513672 -85.292839 28,000 251 463 0
2022-06-26 00:46:17 GMT 38.515686 -85.285316 28,000 251 463 0
2022-06-26 00:46:13 GMT 38.518623 -85.274597 28,000 251 463 64
2022-06-26 00:46:11 GMT 38.519974 -85.269714 28,000 251 463 64
2022-06-26 00:46:07 GMT 38.522953 -85.258850 28,000 251 463 0
2022-06-26 00:46:02 GMT 38.526169 -85.247101 28,000 251 464 0
2022-06-26 00:45:59 GMT 38.529144 -85.236290 28,000 251 464 0
2022-06-26 00:45:56 GMT 38.530262 -85.232239 28,000 251 464 0
2022-06-26 00:45:52 GMT 38.533676 -85.219749 28,000 251 464 0
2022-06-26 00:45:49 GMT 38.535851 -85.211853 28,000 251 464 0
2022-06-26 00:45:46 GMT 38.537712 -85.205139 28,000 251 464 0
2022-06-26 00:45:42 GMT 38.540359 -85.195389 28,000 251 464 0
2022-06-26 00:45:39 GMT 38.543793 -85.182732 28,000 251 464 0
2022-06-26 00:45:35 GMT 38.545158 -85.177673 28,000 251 464 -64
2022-06-26 00:45:32 GMT 38.547722 -85.168335 28,000 251 464 -64
2022-06-26 00:45:30 GMT 38.549149 -85.163033 28,000 251 464 0
2022-06-26 00:45:25 GMT 38.552216 -85.151688 28,000 251 464 0
2022-06-26 00:45:22 GMT 38.555447 -85.139893 28,000 251 464 0
2022-06-26 00:45:18 GMT 38.558258 -85.129417 28,000 251 464 0
2022-06-26 00:45:14 GMT 38.560638 -85.120636 28,000 252 465 0
2022-06-26 00:45:11 GMT 38.562664 -85.113220 28,000 252 465 0
2022-06-26 00:45:07 GMT 38.565536 -85.102486 28,000 251 465 0
2022-06-26 00:45:04 GMT 38.566956 -85.097290 28,000 251 465 0
2022-06-26 00:45:01 GMT 38.569061 -85.089531 28,000 251 465 0
2022-06-26 00:44:59 GMT 38.570904 -85.082642 28,000 251 465 0
2022-06-26 00:44:56 GMT 38.573044 -85.074890 28,000 251 465 0
2022-06-26 00:44:52 GMT 38.575558 -85.065552 28,000 251 465 0
2022-06-26 00:44:49 GMT 38.578400 -85.055077 28,000 251 465 -64
2022-06-26 00:44:46 GMT 38.580734 -85.046478 28,000 251 465 0
2022-06-26 00:44:41 GMT 38.584217 -85.033630 28,000 251 465 0
2022-06-26 00:44:38 GMT 38.585724 -85.028091 28,000 251 465 -64
2022-06-26 00:44:35 GMT 38.590759 -85.009697 28,000 251 465 0
2022-06-26 00:44:31 GMT 38.590759 -85.009697 28,000 251 465 0
2022-06-26 00:44:29 GMT 38.592911 -85.001640 28,000 251 465 64
2022-06-26 00:44:26 GMT 38.594193 -84.996979 28,000 251 465 0
2022-06-26 00:44:23 GMT 38.596275 -84.989319 28,000 251 465 0
2022-06-26 00:44:20 GMT 38.598038 -84.982712 28,000 251 465 0
2022-06-26 00:44:17 GMT 38.600323 -84.974243 28,000 251 465 64
2022-06-26 00:44:14 GMT 38.603306 -84.963379 28,000 251 465 0
2022-06-26 00:44:10 GMT 38.605362 -84.955727 28,000 251 465 0
2022-06-26 00:44:05 GMT 38.609024 -84.942230 28,000 251 465 0
2022-06-26 00:44:02 GMT 38.611313 -84.933777 28,000 251 465 0
2022-06-26 00:43:59 GMT 38.612595 -84.928970 28,000 251 465 0
2022-06-26 00:43:55 GMT 38.615845 -84.917030 28,000 251 465 0
2022-06-26 00:43:52 GMT 38.618759 -84.906311 28,000 251 465 0
2022-06-26 00:43:49 GMT 38.620193 -84.900970 28,000 251 465 0
2022-06-26 00:43:44 GMT 38.623215 -84.889809 28,000 251 464 0
2022-06-26 00:43:39 GMT 38.627151 -84.875298 28,000 252 464 0
2022-06-26 00:43:35 GMT 38.630535 -84.862732 28,000 252 464 64
2022-06-26 00:43:30 GMT 38.633701 -84.851074 28,000 252 464 64
2022-06-26 00:43:24 GMT 38.638229 -84.834396 28,000 252 464 0
2022-06-26 00:43:20 GMT 38.640930 -84.824303 28,000 252 464 0
2022-06-26 00:43:16 GMT 38.643814 -84.813675 28,000 252 464 0
2022-06-26 00:43:13 GMT 38.645554 -84.807167 28,000 252 464 -64
2022-06-26 00:43:08 GMT 38.649017 -84.794373 28,000 251 463 -64
2022-06-26 00:43:05 GMT 38.651047 -84.786751 28,000 251 463 0
2022-06-26 00:43:02 GMT 38.653439 -84.777832 28,000 252 462 0
2022-06-26 00:42:58 GMT 38.655628 -84.769775 28,000 252 462 64
2022-06-26 00:42:55 GMT 38.658234 -84.760117 28,000 252 462 0
2022-06-26 00:42:52 GMT 38.660610 -84.751160 28,000 252 462 0
2022-06-26 00:42:48 GMT 38.662994 -84.742264 28,000 251 463 0
2022-06-26 00:42:44 GMT 38.668011 -84.723816 28,000 252 462 0
2022-06-26 00:42:41 GMT 38.668011 -84.723816 28,000 252 462 0
2022-06-26 00:42:38 GMT 38.669594 -84.717834 28,000 252 462 0
2022-06-26 00:42:34 GMT 38.675552 -84.695618 28,000 252 462 0
2022-06-26 00:42:30 GMT 38.675552 -84.695618 28,000 252 465 -64
2022-06-26 00:42:27 GMT 38.676949 -84.690491 28,000 252 462 0
2022-06-26 00:42:24 GMT 38.679790 -84.679871 28,000 252 462 0
2022-06-26 00:42:21 GMT 38.681213 -84.674561 28,000 252 462 0
2022-06-26 00:42:18 GMT 38.683319 -84.666794 28,000 252 462 0
2022-06-26 00:42:15 GMT 38.686306 -84.655518 28,000 252 462 0
2022-06-26 00:42:10 GMT 38.688904 -84.645836 28,000 252 462 -64
2022-06-26 00:42:07 GMT 38.690960 -84.638184 28,000 252 462 -64
2022-06-26 00:42:04 GMT 38.692841 -84.631088 28,000 252 462 0
2022-06-26 00:42:00 GMT 38.696407 -84.617737 28,000 252 463 0
2022-06-26 00:41:57 GMT 38.698105 -84.611382 28,000 252 463 0
2022-06-26 00:41:53 GMT 38.700413 -84.602722 28,000 252 463 0
2022-06-26 00:41:50 GMT 38.702728 -84.594070 28,000 252 463 0
2022-06-26 00:41:47 GMT 38.705208 -84.584839 28,000 252 463 0
2022-06-26 00:41:44 GMT 38.706940 -84.578247 28,000 252 463 0
2022-06-26 00:41:40 GMT 38.712421 -84.557678 28,000 252 465 -64
2022-06-26 00:41:36 GMT 38.712421 -84.557678 28,000 252 463 0
2022-06-26 00:41:32 GMT 38.715591 -84.545883 28,000 252 463 64
2022-06-26 00:41:29 GMT 38.717075 -84.540283 28,000 252 463 64
2022-06-26 00:41:25 GMT 38.719666 -84.530540 28,000 252 463 64
2022-06-26 00:41:23 GMT 38.721725 -84.522781 28,000 252 463 0
2022-06-26 00:41:19 GMT 38.725037 -84.510193 28,000 252 464 0
2022-06-26 00:41:16 GMT 38.726532 -84.504623 28,000 252 464 0
2022-06-26 00:41:11 GMT 38.730240 -84.490593 28,000 252 464 0
2022-06-26 00:41:08 GMT 38.731323 -84.486572 28,000 252 464 0
2022-06-26 00:41:05 GMT 38.734394 -84.474854 28,000 252 464 0
2022-06-26 00:41:02 GMT 38.735733 -84.469818 28,000 252 464 0
2022-06-26 00:40:59 GMT 38.738117 -84.460815 28,000 252 464 0
2022-06-26 00:40:55 GMT 38.740864 -84.450439 28,000 252 464 0
2022-06-26 00:40:52 GMT 38.742542 -84.444214 28,000 252 464 0
2022-06-26 00:40:49 GMT 38.745426 -84.433289 28,000 252 464 0
2022-06-26 00:40:45 GMT 38.749897 -84.416382 28,000 252 464 0
2022-06-26 00:40:42 GMT 38.749897 -84.416382 28,000 252 464 0
2022-06-26 00:40:37 GMT 38.753036 -84.404556 28,000 252 465 0
2022-06-26 00:40:34 GMT 38.755188 -84.396492 28,000 252 465 0
2022-06-26 00:40:31 GMT 38.756973 -84.389687 28,000 252 465 0
2022-06-26 00:40:28 GMT 38.758987 -84.382164 28,000 252 465 0
2022-06-26 00:40:25 GMT 38.761642 -84.372017 28,000 252 465 0
2022-06-26 00:40:21 GMT 38.764755 -84.360313 28,000 252 466 64
2022-06-26 00:40:17 GMT 38.766541 -84.353508 28,000 252 465 -64
2022-06-26 00:40:14 GMT 38.768692 -84.345444 28,000 252 465 0
2022-06-26 00:40:11 GMT 38.773499 -84.327171 28,000 252 466 0
2022-06-26 00:40:07 GMT 38.773499 -84.327171 28,000 252 465 64
2022-06-26 00:40:03 GMT 38.778713 -84.307434 28,000 252 466 0
2022-06-26 00:40:00 GMT 38.778713 -84.307434 28,000 252 466 0
2022-06-26 00:39:57 GMT 38.780640 -84.300003 28,000 252 466 0
2022-06-26 00:39:54 GMT 38.782700 -84.292183 28,000 252 466 0
2022-06-26 00:39:50 GMT 38.785557 -84.281311 28,000 252 466 0
2022-06-26 00:39:47 GMT 38.787277 -84.274925 28,000 252 466 0
2022-06-26 00:39:44 GMT 38.789520 -84.266273 28,000 252 466 0
2022-06-26 00:39:42 GMT 38.790848 -84.261314 28,000 252 467 -64
2022-06-26 00:39:38 GMT 38.794262 -84.248352 28,000 252 467 0
2022-06-26 00:39:34 GMT 38.796753 -84.238808 28,000 252 467 0
2022-06-26 00:39:30 GMT 38.799728 -84.227577 28,000 252 467 0
2022-06-26 00:39:27 GMT 38.801926 -84.219162 28,000 252 467 0
2022-06-26 00:39:24 GMT 38.803944 -84.211426 28,000 252 467 0
2022-06-26 00:39:19 GMT 38.806877 -84.200195 28,000 252 468 0
2022-06-26 00:39:16 GMT 38.809021 -84.191933 28,000 252 468 0
2022-06-26 00:39:12 GMT 38.811298 -84.183105 28,000 252 468 0
2022-06-26 00:39:08 GMT 38.814789 -84.169739 28,000 252 468 0
2022-06-26 00:39:05 GMT 38.816162 -84.164650 28,000 252 468 0
2022-06-26 00:39:02 GMT 38.818130 -84.157005 28,000 252 468 0
2022-06-26 00:38:57 GMT 38.821678 -84.143494 28,000 252 468 0
2022-06-26 00:38:53 GMT 38.825127 -84.130371 28,000 252 468 64
2022-06-26 00:38:46 GMT 38.830059 -84.111450 28,000 252 468 0
2022-06-26 00:38:42 GMT 38.832294 -84.103088 28,000 252 468 0
2022-06-26 00:38:38 GMT 38.835480 -84.090851 28,000 252 468 -64
2022-06-26 00:38:35 GMT 38.837601 -84.082825 28,000 252 468 0
2022-06-26 00:38:32 GMT 38.842770 -84.063171 28,000 252 468 64
2022-06-26 00:38:27 GMT 38.842770 -84.063171 28,000 252 468 64
2022-06-26 00:38:23 GMT 38.845551 -84.052513 28,000 252 468 0
2022-06-26 00:38:21 GMT 38.846832 -84.047562 28,000 252 468 0
2022-06-26 00:38:16 GMT 38.849892 -84.035828 28,000 252 468 -64
2022-06-26 00:38:13 GMT 38.852360 -84.026367 28,000 252 468 0
2022-06-26 00:38:10 GMT 38.854126 -84.019592 28,000 252 468 -64
2022-06-26 00:38:07 GMT 38.856548 -84.010376 28,000 252 468 0
2022-06-26 00:38:04 GMT 38.858688 -84.002258 28,000 252 468 0
2022-06-26 00:38:01 GMT 38.860600 -83.994873 28,000 252 468 0
2022-06-26 00:37:57 GMT 38.863342 -83.984375 28,000 252 468 0
2022-06-26 00:37:53 GMT 38.865829 -83.974777 28,000 252 468 0
2022-06-26 00:37:50 GMT 38.868210 -83.965584 28,000 252 468 0
2022-06-26 00:37:46 GMT 38.871185 -83.954292 28,000 252 468 0
2022-06-26 00:37:41 GMT 38.874664 -83.940918 28,000 252 468 0
2022-06-26 00:37:38 GMT 38.875671 -83.936981 28,000 252 468 0
2022-06-26 00:37:34 GMT 38.878941 -83.924500 28,000 252 468 0
2022-06-26 00:37:31 GMT 38.881687 -83.914001 28,000 252 468 0
2022-06-26 00:37:28 GMT 38.883038 -83.908752 28,000 252 467 0
2022-06-26 00:37:25 GMT 38.885193 -83.900497 28,000 252 467 0
2022-06-26 00:37:22 GMT 38.887363 -83.892212 28,000 252 467 0
2022-06-26 00:37:19 GMT 38.889599 -83.883545 28,000 252 467 0
2022-06-26 00:37:15 GMT 38.892288 -83.873215 28,000 252 467 0
2022-06-26 00:37:11 GMT 38.894119 -83.866104 28,000 252 467 0
2022-06-26 00:37:08 GMT 38.896637 -83.856377 28,000 252 467 64
2022-06-26 00:37:04 GMT 38.899292 -83.846107 28,000 252 467 64
2022-06-26 00:37:00 GMT 38.902039 -83.835594 28,000 252 467 0
2022-06-26 00:36:57 GMT 38.904778 -83.824951 28,000 252 467 0
2022-06-26 00:36:52 GMT 38.907848 -83.813110 28,000 252 468 -64
2022-06-26 00:36:49 GMT 38.909592 -83.806396 28,000 252 468 0
2022-06-26 00:36:46 GMT 38.911560 -83.798752 28,000 252 468 64
2022-06-26 00:36:43 GMT 38.913620 -83.790710 28,000 252 468 0
2022-06-26 00:36:39 GMT 38.916595 -83.779228 28,000 252 468 0
2022-06-26 00:36:36 GMT 38.919022 -83.769897 28,000 252 468 0
2022-06-26 00:36:30 GMT 38.922180 -83.757614 28,000 252 469 0
2022-06-26 00:36:26 GMT 38.925018 -83.746567 28,000 252 469 0
2022-06-26 00:36:23 GMT 38.927586 -83.736389 28,000 252 469 0
2022-06-26 00:36:18 GMT 38.930660 -83.724487 28,000 252 469 0
2022-06-26 00:36:15 GMT 38.933395 -83.713791 28,000 252 469 0
2022-06-26 00:36:12 GMT 38.934769 -83.708534 28,000 252 469 0
2022-06-26 00:36:09 GMT 38.936291 -83.702576 28,000 252 469 0
2022-06-26 00:36:07 GMT 38.937782 -83.696777 28,000 252 469 0
2022-06-26 00:36:04 GMT 38.939850 -83.688713 28,000 252 469 0
2022-06-26 00:36:01 GMT 38.941910 -83.680771 28,000 252 469 -64
2022-06-26 00:35:58 GMT 38.944717 -83.669800 28,000 252 469 -64
2022-06-26 00:35:55 GMT 38.947128 -83.660408 28,000 252 469 0
2022-06-26 00:35:47 GMT 38.951752 -83.642441 28,000 252 469 0
2022-06-26 00:35:43 GMT 38.954910 -83.630020 28,000 252 469 -64
2022-06-26 00:35:39 GMT 38.957520 -83.619873 28,000 252 469 -64
2022-06-26 00:35:34 GMT 38.960266 -83.609184 28,000 252 469 0
2022-06-26 00:35:31 GMT 38.962921 -83.598694 28,000 252 469 0
2022-06-26 00:35:28 GMT 38.964500 -83.592651 28,000 252 469 0
2022-06-26 00:35:25 GMT 38.966782 -83.583679 28,000 252 469 64
2022-06-26 00:35:19 GMT 38.970200 -83.570312 28,000 252 469 64
2022-06-26 00:35:16 GMT 38.972717 -83.560577 28,000 252 469 0
2022-06-26 00:35:12 GMT 38.975967 -83.547859 28,000 252 469 -64
2022-06-26 00:35:09 GMT 38.978073 -83.539680 28,000 252 468 0
2022-06-26 00:35:06 GMT 38.979027 -83.535889 28,000 252 468 0
2022-06-26 00:35:04 GMT 38.980843 -83.528748 28,000 252 468 0
2022-06-26 00:34:58 GMT 38.984657 -83.513977 28,000 252 468 0
2022-06-26 00:34:54 GMT 38.987686 -83.502182 28,000 252 468 0
2022-06-26 00:34:48 GMT 38.991505 -83.487305 28,000 252 468 -64
2022-06-26 00:34:43 GMT 38.994827 -83.474243 28,000 252 468 0
2022-06-26 00:34:37 GMT 38.998531 -83.459839 28,000 252 468 0
2022-06-26 00:34:33 GMT 39.001556 -83.447937 28,000 252 468 0
2022-06-26 00:34:29 GMT 39.005188 -83.433716 28,000 252 468 -64
2022-06-26 00:34:26 GMT 39.006634 -83.428162 28,000 252 468 -64
2022-06-26 00:34:23 GMT 39.008331 -83.421455 28,000 252 468 -64
2022-06-26 00:34:17 GMT 39.012451 -83.405334 28,000 252 468 64
2022-06-26 00:34:13 GMT 39.015472 -83.393456 28,000 252 468 64
2022-06-26 00:34:07 GMT 39.019249 -83.378540 28,000 252 468 0
2022-06-26 00:34:02 GMT 39.022705 -83.364975 28,000 252 468 64
2022-06-26 00:33:57 GMT 39.026184 -83.351242 28,000 252 468 0
2022-06-26 00:33:52 GMT 39.029163 -83.339539 28,000 252 468 -64
2022-06-26 00:33:46 GMT 39.034058 -83.320374 28,000 252 468 0
2022-06-26 00:33:42 GMT 39.035980 -83.312729 28,000 252 468 0
2022-06-26 00:33:36 GMT 39.042618 -83.286499 28,000 253 467 64
2022-06-26 00:33:32 GMT 39.042618 -83.286499 28,000 253 467 64
2022-06-26 00:33:25 GMT 39.047379 -83.267647 28,000 253 467 0
2022-06-26 00:33:21 GMT 39.049667 -83.258636 28,000 253 467 0
2022-06-26 00:33:15 GMT 39.053787 -83.242271 28,000 253 467 0
2022-06-26 00:33:12 GMT 39.056492 -83.231567 28,000 253 467 0
2022-06-26 00:33:05 GMT 39.063194 -83.204895 28,000 253 467 0
2022-06-26 00:33:01 GMT 39.063194 -83.204895 28,000 253 467 0
2022-06-26 00:32:54 GMT 39.068359 -83.184326 28,000 253 467 0
2022-06-26 00:32:51 GMT 39.070084 -83.177490 28,000 253 466 0
2022-06-26 00:32:44 GMT 39.074692 -83.159241 28,000 253 466 64
2022-06-26 00:32:41 GMT 39.076599 -83.151611 28,000 253 466 64
2022-06-26 00:32:33 GMT 39.081627 -83.131531 28,000 253 466 -64
2022-06-26 00:32:30 GMT 39.083633 -83.123512 28,000 253 466 -64
2022-06-26 00:32:24 GMT 39.088211 -83.105301 28,000 253 466 0
2022-06-26 00:32:20 GMT 39.090363 -83.096588 28,000 253 466 64
2022-06-26 00:32:10 GMT 39.097046 -83.070015 28,000 253 466 0
2022-06-26 00:32:03 GMT 39.103882 -83.042725 28,000 253 466 0
2022-06-26 00:32:00 GMT 39.103882 -83.042725 28,000 253 465 0
2022-06-26 00:31:53 GMT 39.109001 -83.022217 28,000 253 465 0
2022-06-26 00:31:46 GMT 39.115723 -82.995201 28,000 253 466 0
2022-06-26 00:31:40 GMT 39.117416 -82.988335 28,000 253 466 0
2022-06-26 00:31:37 GMT 39.118744 -82.983078 28,000 253 466 -64
2022-06-26 00:31:32 GMT 39.122543 -82.967796 28,000 253 466 -64
2022-06-26 00:31:29 GMT 39.123943 -82.962158 28,000 253 466 -64
2022-06-26 00:31:24 GMT 39.127441 -82.948029 28,000 253 466 0
2022-06-26 00:31:19 GMT 39.130325 -82.936447 28,000 253 465 64
2022-06-26 00:31:16 GMT 39.132751 -82.926712 28,000 253 465 0
2022-06-26 00:31:11 GMT 39.135223 -82.916687 28,000 253 465 0
2022-06-26 00:31:08 GMT 39.137444 -82.907837 28,000 253 465 0
2022-06-26 00:31:05 GMT 39.139755 -82.898476 28,000 253 465 -64
2022-06-26 00:30:59 GMT 39.143784 -82.882057 28,000 253 465 0
2022-06-26 00:30:51 GMT 39.148956 -82.861214 28,000 253 465 0
2022-06-26 00:30:48 GMT 39.150620 -82.854492 28,000 253 465 0
2022-06-26 00:30:45 GMT 39.153412 -82.843140 28,000 253 466 0
2022-06-26 00:30:41 GMT 39.155972 -82.832825 28,000 253 466 0
2022-06-26 00:30:38 GMT 39.157333 -82.827423 28,000 253 466 0
2022-06-26 00:30:28 GMT 39.164520 -82.798340 28,000 253 466 0
2022-06-26 00:30:24 GMT 39.166492 -82.790283 28,000 253 467 0
2022-06-26 00:30:21 GMT 39.169098 -82.779831 28,000 253 467 0
2022-06-26 00:30:18 GMT 39.170124 -82.775757 28,000 253 467 0
2022-06-26 00:30:15 GMT 39.172314 -82.766724 28,000 253 467 -64
2022-06-26 00:30:10 GMT 39.176270 -82.750916 28,000 253 467 0
2022-06-26 00:30:07 GMT 39.177612 -82.745499 28,000 253 467 0
2022-06-26 00:29:59 GMT 39.182831 -82.724487 28,000 253 467 0
2022-06-26 00:29:56 GMT 39.184570 -82.717499 28,000 253 467 0
2022-06-26 00:29:48 GMT 39.190521 -82.693672 28,000 253 466 64
2022-06-26 00:29:45 GMT 39.192699 -82.684814 28,000 253 466 64
2022-06-26 00:29:37 GMT 39.197525 -82.665436 28,000 253 466 0
2022-06-26 00:29:27 GMT 39.204391 -82.637962 28,000 253 465 0
2022-06-26 00:29:15 GMT 39.212532 -82.605225 28,000 253 463 0
2022-06-26 00:29:10 GMT 39.215511 -82.593140 28,000 253 462 0
2022-06-26 00:29:05 GMT 39.218121 -82.582642 28,000 253 462 0
2022-06-26 00:29:00 GMT 39.221466 -82.569122 28,000 253 462 0
2022-06-26 00:28:56 GMT 39.224403 -82.557190 28,000 253 462 0
2022-06-26 00:28:45 GMT 39.231899 -82.526733 28,000 253 462 0
2022-06-26 00:28:38 GMT 39.235519 -82.511925 28,000 253 462 0
2022-06-26 00:28:34 GMT 39.238277 -82.500732 28,000 253 463 0
2022-06-26 00:28:23 GMT 39.244980 -82.473389 28,000 253 463 0
2022-06-26 00:28:17 GMT 39.249527 -82.454842 28,000 253 463 0
2022-06-26 00:28:14 GMT 39.251175 -82.448273 28,000 253 463 -64
2022-06-26 00:28:07 GMT 39.255295 -82.431435 28,000 253 463 0
2022-06-26 00:28:03 GMT 39.258106 -82.419983 28,000 253 464 0
2022-06-26 00:27:53 GMT 39.264862 -82.392448 28,000 253 464 0
2022-06-26 00:27:42 GMT 39.271591 -82.364799 28,000 253 464 0
2022-06-26 00:27:33 GMT 39.278275 -82.337334 28,000 253 465 0
2022-06-26 00:27:24 GMT 39.283897 -82.314209 28,000 253 465 0
2022-06-26 00:27:21 GMT 39.284821 -82.310349 28,000 253 465 0
2022-06-26 00:27:12 GMT 39.291595 -82.282585 28,000 253 466 0
2022-06-26 00:27:01 GMT 39.298325 -82.254997 28,000 253 467 0
2022-06-26 00:26:53 GMT 39.303913 -82.231750 28,000 253 467 0
2022-06-26 00:26:50 GMT 39.304871 -82.227951 28,000 253 467 0
2022-06-26 00:26:41 GMT 39.311455 -82.200684 28,000 253 467 0
2022-06-26 00:26:30 GMT 39.318237 -82.172661 28,000 253 468 -64
2022-06-26 00:26:24 GMT 39.322540 -82.155045 28,000 253 469 0
2022-06-26 00:26:20 GMT 39.325096 -82.144531 28,000 253 469 0
2022-06-26 00:26:11 GMT 39.330311 -82.123108 28,000 253 470 0
2022-06-26 00:26:08 GMT 39.331924 -82.116295 28,000 253 470 0
2022-06-26 00:26:00 GMT 39.337757 -82.092041 28,000 253 470 64
2022-06-26 00:25:51 GMT 39.343250 -82.069214 28,000 253 471 -64
2022-06-26 00:25:48 GMT 39.345886 -82.058083 28,000 253 471 0
2022-06-26 00:25:42 GMT 39.349731 -82.041962 28,000 253 471 0
2022-06-26 00:25:37 GMT 39.351974 -82.032585 28,000 253 471 0
2022-06-26 00:25:31 GMT 39.356049 -82.015327 28,000 254 472 0
2022-06-26 00:25:28 GMT 39.358845 -82.003357 28,000 254 472 0
2022-06-26 00:25:19 GMT 39.364014 -81.981506 28,000 253 472 0
2022-06-26 00:25:13 GMT 39.367401 -81.967384 28,000 253 472 0
2022-06-26 00:25:10 GMT 39.370239 -81.955498 28,000 253 472 0
2022-06-26 00:25:06 GMT 39.371750 -81.949051 28,000 253 473 0
2022-06-26 00:25:01 GMT 39.375778 -81.932335 28,000 253 473 0
2022-06-26 00:24:58 GMT 39.377281 -81.925964 28,000 253 474 0
2022-06-26 00:24:54 GMT 39.380127 -81.913940 28,000 253 474 0
2022-06-26 00:24:50 GMT 39.383102 -81.901527 28,000 253 473 -64
2022-06-26 00:24:45 GMT 39.385803 -81.890182 28,000 253 474 0
2022-06-26 00:24:39 GMT 39.389694 -81.874001 28,000 253 474 0
2022-06-26 00:24:36 GMT 39.391800 -81.865341 28,000 253 474 64
2022-06-26 00:24:31 GMT 39.394867 -81.852684 28,000 253 475 0
2022-06-26 00:24:28 GMT 39.396606 -81.845337 28,000 253 474 0
2022-06-26 00:24:25 GMT 39.398556 -81.837097 28,000 253 474 0
2022-06-26 00:24:20 GMT 39.402328 -81.821274 28,000 253 474 64
2022-06-26 00:24:17 GMT 39.403908 -81.814636 28,000 254 475 -64
2022-06-26 00:24:11 GMT 39.407726 -81.798645 28,000 254 475 -128
2022-06-26 00:24:08 GMT 39.413498 -81.774109 28,000 254 476 0
2022-06-26 00:24:03 GMT 39.413498 -81.774109 28,000 254 476 -64
2022-06-26 00:23:58 GMT 39.416710 -81.760376 28,000 254 476 0
2022-06-26 00:23:54 GMT 39.418617 -81.752197 28,000 254 476 64
2022-06-26 00:23:50 GMT 39.421413 -81.740234 28,000 254 476 64
2022-06-26 00:23:46 GMT 39.423553 -81.730957 28,000 254 476 64
2022-06-26 00:23:42 GMT 39.425903 -81.721024 28,000 254 476 -64
2022-06-26 00:23:37 GMT 39.429886 -81.704041 28,000 254 476 0
2022-06-26 00:23:33 GMT 39.431656 -81.696472 28,000 254 476 64
2022-06-26 00:23:24 GMT 39.438126 -81.669006 28,000 254 476 -128
2022-06-26 00:23:16 GMT 39.443291 -81.647217 28,000 254 478 128
2022-06-26 00:23:10 GMT 39.446777 -81.632301 28,000 254 479 -64
2022-06-26 00:23:04 GMT 39.450531 -81.616417 28,000 254 480 -64
2022-06-26 00:22:54 GMT 39.456654 -81.590454 28,000 254 480 -64
2022-06-26 00:22:45 GMT 39.463356 -81.561951 28,000 254 480 64
2022-06-26 00:22:40 GMT 39.466232 -81.549721 28,000 254 479 -64
2022-06-26 00:22:33 GMT 39.470291 -81.532593 28,025 254 479 0
2022-06-26 00:22:27 GMT 39.474609 -81.514374 28,000 254 478 0
2022-06-26 00:22:23 GMT 39.477367 -81.502808 28,000 254 478 0
2022-06-26 00:22:17 GMT 39.481339 -81.485954 28,000 253 477 0
2022-06-26 00:22:12 GMT 39.483810 -81.475624 28,000 253 477 0
2022-06-26 00:22:03 GMT 39.490635 -81.446838 28,000 253 477 64
2022-06-26 00:21:56 GMT 39.495117 -81.427917 28,000 253 476 0
2022-06-26 00:21:52 GMT 39.497108 -81.419617 28,000 253 475 0
2022-06-26 00:21:42 GMT 39.504181 -81.389946 28,000 253 474 64
2022-06-26 00:21:34 GMT 39.509399 -81.368027 28,000 254 473 -64
2022-06-26 00:21:31 GMT 39.510818 -81.362061 28,000 254 473 0
2022-06-26 00:21:21 GMT 39.517456 -81.333694 28,000 254 472 0
2022-06-26 00:21:14 GMT 39.521851 -81.315071 28,000 254 472 0
2022-06-26 00:21:10 GMT 39.523968 -81.306030 28,000 254 472 0
2022-06-26 00:20:59 GMT 39.530437 -81.278198 28,000 254 472 64
2022-06-26 00:20:53 GMT 39.535126 -81.258110 28,000 254 471 -64
2022-06-26 00:20:48 GMT 39.537560 -81.247437 28,000 254 471 -64
2022-06-26 00:20:42 GMT 39.543457 -81.221985 28,000 254 470 64
2022-06-26 00:20:39 GMT 39.543457 -81.221985 28,000 254 470 64
2022-06-26 00:20:32 GMT 39.548447 -81.200371 28,000 254 470 -64
2022-06-26 00:20:29 GMT 39.550186 -81.192848 28,000 254 470 -64
2022-06-26 00:20:22 GMT 39.553894 -81.176666 28,000 254 470 0
2022-06-26 00:20:18 GMT 39.556507 -81.165466 28,000 254 470 0
2022-06-26 00:20:11 GMT 39.561127 -81.145378 28,000 254 470 64
2022-06-26 00:20:08 GMT 39.563324 -81.135941 28,000 254 470 64
2022-06-26 00:20:03 GMT 39.565723 -81.125610 28,000 254 470 64
2022-06-26 00:19:59 GMT 39.567856 -81.116302 28,000 254 470 -64
2022-06-26 00:19:55 GMT 39.571262 -81.101624 28,000 254 470 -64
2022-06-26 00:19:50 GMT 39.574402 -81.087997 28,000 254 470 128
2022-06-26 00:19:47 GMT 39.576199 -81.080017 28,000 254 470 64
2022-06-26 00:19:42 GMT 39.578758 -81.068970 28,000 254 470 64
2022-06-26 00:19:38 GMT 39.581177 -81.058327 28,000 254 470 64
2022-06-26 00:19:35 GMT 39.582962 -81.050499 28,000 254 470 -64
2022-06-26 00:19:30 GMT 39.586624 -81.034424 28,000 254 471 0
2022-06-26 00:19:25 GMT 39.588913 -81.024590 28,000 254 471 0
2022-06-26 00:19:19 GMT 39.593033 -81.006493 28,000 254 471 0
2022-06-26 00:19:16 GMT 39.595413 -80.995926 28,000 254 471 -64
2022-06-26 00:19:09 GMT 39.601913 -80.967567 28,000 254 471 0
2022-06-26 00:19:05 GMT 39.601913 -80.967567 28,000 254 471 0
2022-06-26 00:18:59 GMT 39.605667 -80.951233 28,000 254 471 0
2022-06-26 00:18:55 GMT 39.608139 -80.940277 28,000 254 471 -64
2022-06-26 00:18:47 GMT 39.613174 -80.918365 28,000 254 472 64
2022-06-26 00:18:43 GMT 39.615025 -80.910400 28,000 254 472 0
2022-06-26 00:18:38 GMT 39.618469 -80.895203 28,000 254 473 64
2022-06-26 00:18:32 GMT 39.622005 -80.879456 28,000 254 473 0
2022-06-26 00:18:27 GMT 39.625214 -80.865463 28,000 254 473 0
2022-06-26 00:18:23 GMT 39.627594 -80.854897 28,000 254 473 0
2022-06-26 00:18:18 GMT 39.631176 -80.839233 28,000 254 473 0
2022-06-26 00:18:12 GMT 39.634621 -80.824036 28,000 254 473 0
2022-06-26 00:18:05 GMT 39.638580 -80.806770 28,000 254 473 -64
2022-06-26 00:18:01 GMT 39.640823 -80.796982 28,000 254 473 0
2022-06-26 00:17:56 GMT 39.644394 -80.781219 28,000 254 473 0
2022-06-26 00:17:52 GMT 39.647552 -80.767365 28,000 254 473 0
2022-06-26 00:17:47 GMT 39.650574 -80.754051 28,000 254 473 64
2022-06-26 00:17:41 GMT 39.653709 -80.740295 28,000 254 474 0
2022-06-26 00:17:38 GMT 39.655197 -80.733627 28,000 254 473 -64
2022-06-26 00:17:35 GMT 39.657387 -80.723999 28,000 254 473 -64
2022-06-26 00:17:32 GMT 39.659294 -80.715576 28,000 254 473 0
2022-06-26 00:17:26 GMT 39.662888 -80.699654 28,000 254 473 0
2022-06-26 00:17:22 GMT 39.665909 -80.686340 28,000 254 473 64
2022-06-26 00:17:19 GMT 39.666916 -80.681984 28,000 254 473 64
2022-06-26 00:17:16 GMT 39.669800 -80.669205 28,000 254 473 0
2022-06-26 00:17:10 GMT 39.673401 -80.653259 28,000 254 473 0
2022-06-26 00:17:06 GMT 39.674702 -80.647583 28,000 254 473 0
2022-06-26 00:17:02 GMT 39.678146 -80.632324 28,000 254 473 0
2022-06-26 00:16:58 GMT 39.680523 -80.621765 28,000 254 473 -64
2022-06-26 00:16:55 GMT 39.681976 -80.615349 28,000 254 473 -64
2022-06-26 00:16:50 GMT 39.684586 -80.603943 28,000 254 473 64
2022-06-26 00:16:44 GMT 39.688568 -80.586266 28,000 254 473 0
2022-06-26 00:16:40 GMT 39.691788 -80.572021 28,000 254 472 0
2022-06-26 00:16:35 GMT 39.694675 -80.559265 28,000 254 472 0
2022-06-26 00:16:30 GMT 39.697327 -80.547546 28,000 254 472 0
2022-06-26 00:16:26 GMT 39.699703 -80.536926 28,000 254 472 0
2022-06-26 00:16:20 GMT 39.703903 -80.518021 28,000 254 472 0
2022-06-26 00:16:13 GMT 39.707703 -80.500885 28,000 254 472 0
2022-06-26 00:16:06 GMT 39.712189 -80.480766 28,000 254 472 64
2022-06-26 00:16:03 GMT 39.714157 -80.472046 28,000 254 472 0
2022-06-26 00:15:55 GMT 39.718964 -80.450615 28,000 254 468 0
2022-06-26 00:15:51 GMT 39.720512 -80.443665 28,000 254 471 0
2022-06-26 00:15:48 GMT 39.722698 -80.433899 28,000 254 470 0
2022-06-26 00:15:44 GMT 39.724934 -80.423889 28,000 254 471 0
2022-06-26 00:15:41 GMT 39.726746 -80.415863 28,000 254 470 0
2022-06-26 00:15:33 GMT 39.738571 -80.363220 28,000 254 469 -64
2022-06-26 00:15:22 GMT 39.738571 -80.363220 28,000 254 469 64
2022-06-26 00:15:15 GMT 39.743366 -80.341919 28,000 254 468 0
2022-06-26 00:15:12 GMT 39.744919 -80.335014 28,000 254 468 -64
2022-06-26 00:15:08 GMT 39.747757 -80.322357 28,000 254 468 0
2022-06-26 00:15:04 GMT 39.749771 -80.313461 28,000 254 468 0
2022-06-26 00:15:01 GMT 39.751049 -80.307678 28,000 254 468 0
2022-06-26 00:14:56 GMT 39.755005 -80.289917 28,000 254 468 64
2022-06-26 00:14:50 GMT 39.758286 -80.275192 28,000 254 468 0
2022-06-26 00:14:43 GMT 39.762501 -80.256165 28,000 254 468 -64
2022-06-26 00:14:39 GMT 39.764282 -80.248199 28,000 254 468 -64
2022-06-26 00:14:35 GMT 39.767395 -80.234169 28,000 254 468 -64
2022-06-26 00:14:30 GMT 39.769592 -80.224434 28,000 255 468 0
2022-06-26 00:14:25 GMT 39.772697 -80.210266 28,000 255 468 0
2022-06-26 00:14:21 GMT 39.775860 -80.195984 28,000 255 468 0
2022-06-26 00:14:18 GMT 39.777538 -80.188416 28,000 254 467 0
2022-06-26 00:14:13 GMT 39.780121 -80.176727 28,000 255 466 0
2022-06-26 00:14:10 GMT 39.781773 -80.169312 28,000 254 467 0
2022-06-26 00:14:07 GMT 39.783169 -80.162842 28,000 254 467 0
2022-06-26 00:14:04 GMT 39.785797 -80.151115 28,000 254 467 -64
2022-06-26 00:14:01 GMT 39.787125 -80.144966 28,000 254 467 -64
2022-06-26 00:13:58 GMT 39.789001 -80.136604 28,000 254 467 -64
2022-06-26 00:13:55 GMT 39.790806 -80.128418 28,000 254 467 0
2022-06-26 00:13:50 GMT 39.796158 -80.104126 28,000 255 466 0
2022-06-26 00:13:39 GMT 39.800171 -80.085976 28,000 255 466 0
2022-06-26 00:13:36 GMT 39.802002 -80.077614 28,000 255 467 64
2022-06-26 00:13:30 GMT 39.805141 -80.063171 27,975 255 467 64
2022-06-26 00:13:27 GMT 39.807907 -80.050629 27,975 255 467 64
2022-06-26 00:13:21 GMT 39.810791 -80.037430 27,975 255 467 128
2022-06-26 00:13:18 GMT 39.815231 -80.017128 27,975 255 467 -768
2022-06-26 00:13:14 GMT 39.815231 -80.017128 27,975 255 468 -64
2022-06-26 00:13:09 GMT 39.818481 -80.002258 27,975 255 468 -576
2022-06-26 00:13:04 GMT 39.821388 -79.988892 28,050 255 467 -704
2022-06-26 00:12:59 GMT 39.823517 -79.979034 28,100 255 467 -768
2022-06-26 00:12:56 GMT 39.826092 -79.967285 28,150 255 465 -704
2022-06-26 00:12:48 GMT 39.830933 -79.944885 28,250 255 462 -768
2022-06-26 00:12:43 GMT 39.833305 -79.934082 28,325 255 460 -832
2022-06-26 00:12:39 GMT 39.835464 -79.924164 28,375 255 458 -768
2022-06-26 00:12:36 GMT 39.837215 -79.916077 28,400 255 457 -768
2022-06-26 00:12:33 GMT 39.839264 -79.906616 28,450 255 456 -832
2022-06-26 00:12:27 GMT 39.842468 -79.891983 28,550 255 454 -896
2022-06-26 00:12:24 GMT 39.843933 -79.885178 28,575 255 454 -960
2022-06-26 00:12:17 GMT 39.848694 -79.863441 28,700 255 455 -960
2022-06-26 00:12:14 GMT 39.849976 -79.857651 28,750 255 456 -960
2022-06-26 00:12:06 GMT 39.854462 -79.837112 28,875 255 457 -1024
2022-06-26 00:12:02 GMT 39.857162 -79.824692 28,950 255 458 -960
2022-06-26 00:11:57 GMT 39.859703 -79.813110 29,025 255 461 -960
2022-06-26 00:11:54 GMT 39.861557 -79.804504 29,075 255 461 -960
2022-06-26 00:11:51 GMT 39.863335 -79.796387 29,125 255 462 -960
2022-06-26 00:11:46 GMT 39.866318 -79.782593 29,200 255 463 -960
2022-06-26 00:11:41 GMT 39.869064 -79.770058 29,275 255 464 -1024
2022-06-26 00:11:37 GMT 39.871853 -79.757263 29,400 255 465 -1024
2022-06-26 00:11:33 GMT 39.874271 -79.746277 29,425 255 466 -1024
2022-06-26 00:11:29 GMT 39.876137 -79.737610 29,475 255 467 -1024
2022-06-26 00:11:24 GMT 39.879044 -79.724258 29,550 255 469 -1088
2022-06-26 00:11:22 GMT 39.880142 -79.719063 29,600 255 469 -1088
2022-06-26 00:11:19 GMT 39.882019 -79.710411 29,675 255 471 -1088
2022-06-26 00:11:16 GMT 39.885445 -79.694458 29,750 255 471 -1152
2022-06-26 00:11:12 GMT 39.885445 -79.694458 29,750 255 472 -1152
2022-06-26 00:11:09 GMT 39.887878 -79.683121 29,825 255 472 -1152
2022-06-26 00:11:04 GMT 39.890488 -79.670822 29,925 255 473 -512
2022-06-26 00:11:00 GMT 39.893360 -79.657532 29,975 255 473 -512
2022-06-26 00:10:54 GMT 39.896572 -79.642456 30,000 255 473 -64
2022-06-26 00:10:50 GMT 39.898727 -79.632492 30,000 255 473 0
2022-06-26 00:10:47 GMT 39.900696 -79.623474 30,000 255 473 0
2022-06-26 00:10:43 GMT 39.903461 -79.610474 30,000 255 473 64
2022-06-26 00:10:38 GMT 39.906097 -79.598274 30,000 255 472 0
2022-06-26 00:10:32 GMT 39.909027 -79.584602 30,000 255 472 -64
2022-06-26 00:10:29 GMT 39.911636 -79.572601 30,000 255 472 0
2022-06-26 00:10:22 GMT 39.915619 -79.553970 30,000 255 473 0
2022-06-26 00:10:18 GMT 39.917633 -79.544418 30,000 255 473 -64
2022-06-26 00:10:13 GMT 39.920334 -79.531822 30,000 255 473 -64
2022-06-26 00:10:10 GMT 39.922314 -79.522644 30,000 255 473 -64
2022-06-26 00:10:07 GMT 39.924038 -79.514427 30,000 255 473 0
2022-06-26 00:10:04 GMT 39.928116 -79.495361 30,000 255 473 -64
2022-06-26 00:10:01 GMT 39.928116 -79.495361 30,000 255 473 64
2022-06-26 00:09:56 GMT 39.930183 -79.485962 30,000 255 473 0
2022-06-26 00:09:50 GMT 39.934093 -79.467857 30,000 255 473 -64
2022-06-26 00:09:46 GMT 39.937134 -79.453735 30,000 255 473 -64
2022-06-26 00:09:43 GMT 39.938049 -79.449509 30,000 255 473 0
2022-06-26 00:09:40 GMT 39.939587 -79.442390 30,000 255 473 0
2022-06-26 00:09:36 GMT 39.942287 -79.429779 30,000 255 473 -64
2022-06-26 00:09:32 GMT 39.944473 -79.419670 30,000 255 473 -64
2022-06-26 00:09:29 GMT 39.946381 -79.410866 30,000 255 473 64
2022-06-26 00:09:26 GMT 39.948479 -79.401314 30,000 255 473 0
2022-06-26 00:09:19 GMT 39.952332 -79.383911 30,000 254 473 64
2022-06-26 00:09:16 GMT 39.954716 -79.373100 30,000 254 474 0
2022-06-26 00:09:09 GMT 39.958969 -79.353821 30,000 255 474 0
2022-06-26 00:09:05 GMT 39.961044 -79.344322 30,000 255 473 0
2022-06-26 00:08:59 GMT 39.966679 -79.317978 30,000 255 474 0
2022-06-26 00:08:56 GMT 39.966679 -79.317978 30,000 255 474 0
2022-06-26 00:08:52 GMT 39.969269 -79.306030 30,000 255 474 0
2022-06-26 00:08:48 GMT 39.971558 -79.295288 30,000 255 474 0
2022-06-26 00:08:44 GMT 39.973103 -79.288017 30,000 255 475 0
2022-06-26 00:08:40 GMT 39.977646 -79.266968 30,000 255 475 0
2022-06-26 00:08:37 GMT 39.977646 -79.266968 30,000 255 475 0
2022-06-26 00:08:32 GMT 39.980553 -79.253372 30,000 255 475 -64
2022-06-26 00:08:28 GMT 39.982368 -79.244820 30,000 255 475 0
2022-06-26 00:08:24 GMT 39.985291 -79.231201 30,000 255 475 0
2022-06-26 00:08:20 GMT 39.988449 -79.216309 30,000 255 474 64
2022-06-26 00:08:16 GMT 39.989639 -79.210571 30,000 255 475 0
2022-06-26 00:08:13 GMT 39.991165 -79.203560 30,000 255 475 0
2022-06-26 00:08:09 GMT 39.994099 -79.189514 30,000 255 474 64
2022-06-26 00:08:07 GMT 39.994995 -79.185242 30,000 255 474 128
2022-06-26 00:08:03 GMT 39.997833 -79.171753 30,000 255 474 128
2022-06-26 00:07:56 GMT 40.001953 -79.151917 30,000 255 473 -64
2022-06-26 00:07:51 GMT 40.004379 -79.140381 30,000 255 474 128
2022-06-26 00:07:48 GMT 40.006390 -79.130898 30,000 255 474 0
2022-06-26 00:07:45 GMT 40.009136 -79.117981 30,000 255 474 -64
2022-06-26 00:07:42 GMT 40.009136 -79.117981 30,000 255 474 -64
2022-06-26 00:07:39 GMT 40.011017 -79.109009 30,000 255 474 -64
2022-06-26 00:07:37 GMT 40.012440 -79.102249 30,000 255 474 -128
2022-06-26 00:07:33 GMT 40.015320 -79.088623 30,000 255 473 -64
2022-06-26 00:07:29 GMT 40.016510 -79.082886 30,025 255 473 128
2022-06-26 00:07:26 GMT 40.018353 -79.074219 30,000 255 473 128
2022-06-26 00:07:22 GMT 40.021099 -79.060989 30,000 255 473 64
2022-06-26 00:07:19 GMT 40.022587 -79.053871 30,000 255 472 0
2022-06-26 00:07:16 GMT 40.024685 -79.044006 30,000 255 471 0
2022-06-26 00:07:11 GMT 40.027084 -79.032593 30,000 255 471 0
2022-06-26 00:07:06 GMT 40.030315 -79.017418 30,000 255 470 -64
2022-06-26 00:07:02 GMT 40.032925 -79.005119 30,000 255 470 0
2022-06-26 00:06:58 GMT 40.034599 -78.997192 30,000 255 469 64
2022-06-26 00:06:55 GMT 40.036652 -78.987549 30,000 255 469 64
2022-06-26 00:06:52 GMT 40.038437 -78.979126 30,000 255 468 -64
2022-06-26 00:06:49 GMT 40.040085 -78.971191 30,000 255 468 -64
2022-06-26 00:06:45 GMT 40.042648 -78.958984 30,000 255 467 -64
2022-06-26 00:06:41 GMT 40.044296 -78.951111 30,025 255 466 -64
2022-06-26 00:06:38 GMT 40.046219 -78.941589 30,025 255 465 64
2022-06-26 00:06:34 GMT 40.048874 -78.928894 30,000 255 466 128
2022-06-26 00:06:31 GMT 40.050751 -78.919922 30,000 255 466 128
2022-06-26 00:06:28 GMT 40.051964 -78.914108 30,000 255 465 0
2022-06-26 00:06:25 GMT 40.053955 -78.904541 29,975 255 465 64
2022-06-26 00:06:20 GMT 40.056244 -78.893433 30,000 256 476 -960
2022-06-26 00:06:14 GMT 40.059586 -78.877441 29,975 255 466 64
2022-06-26 00:06:09 GMT 40.062389 -78.864044 29,975 255 466 64
2022-06-26 00:06:04 GMT 40.068008 -78.837402 29,975 255 466 0
2022-06-26 00:05:59 GMT 40.068008 -78.837402 29,975 255 466 0
2022-06-26 00:05:56 GMT 40.070210 -78.826904 29,975 255 466 64
2022-06-26 00:05:52 GMT 40.072815 -78.814880 29,975 255 468 64
2022-06-26 00:05:48 GMT 40.074646 -78.806152 29,975 255 469 64
2022-06-26 00:05:45 GMT 40.076385 -78.798035 29,975 255 469 64
2022-06-26 00:05:43 GMT 40.077705 -78.791573 30,025 255 473 -768
2022-06-26 00:05:40 GMT 40.079865 -78.781067 30,000 255 473 -704
2022-06-26 00:05:36 GMT 40.083893 -78.761475 30,250 255 474 -1024
2022-06-26 00:05:32 GMT 40.083893 -78.761475 30,100 255 474 -960
2022-06-26 00:05:28 GMT 40.086922 -78.747002 30,225 255 474 -1024
2022-06-26 00:05:24 GMT 40.088104 -78.741394 30,225 255 474 -1024
2022-06-26 00:05:21 GMT 40.090164 -78.731445 30,300 255 474 -1024
2022-06-26 00:05:18 GMT 40.093487 -78.715294 30,375 255 475 -1024
2022-06-26 00:05:15 GMT 40.095840 -78.703796 30,725 256 476 -960
2022-06-26 00:05:12 GMT 40.095840 -78.703796 30,525 256 476 -960
2022-06-26 00:05:08 GMT 40.097584 -78.695381 30,525 256 477 -960
2022-06-26 00:05:05 GMT 40.099457 -78.686340 30,825 255 480 -960
2022-06-26 00:05:01 GMT 40.101170 -78.677841 30,625 255 478 -960
2022-06-26 00:04:58 GMT 40.103943 -78.664368 30,675 256 479 -960
2022-06-26 00:04:55 GMT 40.107697 -78.646240 30,725 256 479 -960
2022-06-26 00:04:51 GMT 40.107697 -78.646240 30,800 255 480 -1024
2022-06-26 00:04:48 GMT 40.109390 -78.637878 30,875 255 480 -960
2022-06-26 00:04:44 GMT 40.110901 -78.630615 30,900 255 480 -960
2022-06-26 00:04:41 GMT 40.113224 -78.619598 30,975 255 480 -960
2022-06-26 00:04:37 GMT 40.115833 -78.606987 31,025 257 480 -1024
2022-06-26 00:04:34 GMT 40.116898 -78.601501 31,050 258 480 -1024
2022-06-26 00:04:30 GMT 40.119415 -78.587402 31,150 259 480 -1024
2022-06-26 00:04:26 GMT 40.121933 -78.571289 31,200 261 480 -1024
2022-06-26 00:04:23 GMT 40.121933 -78.571289 31,275 261 479 -960
2022-06-26 00:04:20 GMT 40.123562 -78.558861 31,325 262 479 -960
2022-06-26 00:04:16 GMT 40.124908 -78.547127 31,375 264 478 -960
2022-06-26 00:04:13 GMT 40.125641 -78.539856 31,425 265 478 -960
2022-06-26 00:04:10 GMT 40.126308 -78.532211 31,475 265 477 -960
2022-06-26 00:04:06 GMT 40.127007 -78.521347 31,550 267 476 -1024
2022-06-26 00:04:03 GMT 40.127563 -78.511299 31,575 267 476 -1024
2022-06-26 00:03:58 GMT 40.128029 -78.498436 31,650 268 476 -1088
2022-06-26 00:03:54 GMT 40.128494 -78.486641 31,725 268 476 -1152
2022-06-26 00:03:48 GMT 40.129349 -78.463562 31,875 268 476 -1088
2022-06-26 00:03:44 GMT 40.129658 -78.455116 31,925 268 477 -960
2022-06-26 00:03:40 GMT 40.129986 -78.445877 31,975 268 477 -832
2022-06-26 00:03:38 GMT 40.130264 -78.437263 32,000 268 477 -64
2022-06-26 00:03:34 GMT 40.130676 -78.426208 32,000 268 477 0
2022-06-26 00:03:31 GMT 40.130871 -78.420914 32,000 268 477 -64
2022-06-26 00:03:29 GMT 40.131180 -78.413025 32,000 268 477 -64
2022-06-26 00:03:26 GMT 40.131474 -78.404556 32,000 268 477 -64
2022-06-26 00:03:23 GMT 40.131802 -78.395065 32,000 268 477 -64
2022-06-26 00:03:19 GMT 40.132404 -78.378090 32,000 268 476 64
2022-06-26 00:03:17 GMT 40.132404 -78.378090 32,000 268 476 0
2022-06-26 00:03:13 GMT 40.132874 -78.366211 32,000 268 476 64
2022-06-26 00:03:10 GMT 40.133057 -78.360298 32,000 268 476 64
2022-06-26 00:03:07 GMT 40.133423 -78.351013 32,000 268 476 0
2022-06-26 00:03:03 GMT 40.133743 -78.342102 32,000 268 476 0
2022-06-26 00:03:00 GMT 40.134064 -78.333496 32,000 268 476 0
2022-06-26 00:02:57 GMT 40.134453 -78.322716 32,000 268 476 -64
2022-06-26 00:02:54 GMT 40.134842 -78.312256 32,000 268 476 0
2022-06-26 00:02:50 GMT 40.135162 -78.303955 32,000 268 476 0
2022-06-26 00:02:46 GMT 40.135666 -78.290886 32,000 268 476 0
2022-06-26 00:02:43 GMT 40.135986 -78.282166 32,000 268 476 0
2022-06-26 00:02:40 GMT 40.136307 -78.273865 32,000 268 475 0
2022-06-26 00:02:36 GMT 40.136734 -78.262230 32,000 268 475 0
2022-06-26 00:02:32 GMT 40.137405 -78.243774 32,000 268 475 0
2022-06-26 00:02:29 GMT 40.137405 -78.243774 32,000 268 475 0
2022-06-26 00:02:26 GMT 40.137806 -78.232460 32,000 268 475 0
2022-06-26 00:02:22 GMT 40.138176 -78.222717 32,000 268 475 0
2022-06-26 00:02:19 GMT 40.138504 -78.213684 32,000 268 475 0
2022-06-26 00:02:16 GMT 40.139248 -78.193253 32,000 268 475 0
2022-06-26 00:02:11 GMT 40.139248 -78.193253 32,000 268 475 0
2022-06-26 00:02:08 GMT 40.139526 -78.184639 32,000 268 475 0
2022-06-26 00:02:03 GMT 40.140106 -78.167358 32,000 268 475 0
2022-06-26 00:02:00 GMT 40.140427 -78.158752 32,000 268 475 64
2022-06-26 00:01:56 GMT 40.140831 -78.146561 32,000 268 475 64
2022-06-26 00:01:53 GMT 40.141064 -78.139137 32,000 268 475 0
2022-06-26 00:01:50 GMT 40.141251 -78.132996 32,000 268 474 -64
2022-06-26 00:01:47 GMT 40.141617 -78.121826 32,000 268 474 -64
2022-06-26 00:01:45 GMT 40.141808 -78.117165 32,000 268 474 -64
2022-06-26 00:01:41 GMT 40.142136 -78.106865 32,000 268 473 0
2022-06-26 00:01:38 GMT 40.142506 -78.095688 32,000 268 474 64
2022-06-26 00:01:36 GMT 40.142647 -78.090324 32,000 268 474 128
2022-06-26 00:01:33 GMT 40.143036 -78.078186 32,000 268 473 0
2022-06-26 00:01:30 GMT 40.143204 -78.073715 32,000 268 473 64
2022-06-26 00:01:27 GMT 40.143860 -78.053345 32,000 268 473 0
2022-06-26 00:01:23 GMT 40.143860 -78.053345 32,000 268 473 -64
2022-06-26 00:01:20 GMT 40.144135 -78.045502 32,000 268 473 0
2022-06-26 00:01:17 GMT 40.144409 -78.037109 32,000 268 473 0
2022-06-26 00:01:13 GMT 40.145142 -78.013733 32,000 268 473 0
2022-06-26 00:01:10 GMT 40.145142 -78.013733 32,000 268 473 0
2022-06-26 00:01:06 GMT 40.145485 -78.003616 32,000 268 473 0
2022-06-26 00:01:02 GMT 40.145874 -77.991760 32,000 268 472 0
2022-06-26 00:00:59 GMT 40.146057 -77.985535 32,000 268 472 0
2022-06-26 00:00:56 GMT 40.146378 -77.976379 32,000 268 472 -64
2022-06-26 00:00:53 GMT 40.146694 -77.966599 32,000 268 472 64
2022-06-26 00:00:50 GMT 40.146881 -77.960297 32,000 268 472 0
2022-06-26 00:00:46 GMT 40.147339 -77.946777 32,000 268 472 64
2022-06-26 00:00:42 GMT 40.147629 -77.938385 32,000 268 472 64
2022-06-26 00:00:39 GMT 40.147999 -77.925903 32,000 268 472 0
2022-06-26 00:00:35 GMT 40.148300 -77.917175 32,000 268 472 0
2022-06-26 00:00:32 GMT 40.148514 -77.910545 32,000 268 472 0
2022-06-26 00:00:27 GMT 40.149071 -77.894318 32,000 268 472 0
2022-06-26 00:00:24 GMT 40.149261 -77.887329 32,000 268 472 0
2022-06-26 00:00:22 GMT 40.149582 -77.878708 32,000 268 471 0
2022-06-26 00:00:18 GMT 40.149948 -77.866333 32,000 268 471 0
2022-06-26 00:00:14 GMT 40.150234 -77.857925 32,000 268 471 0
2022-06-26 00:00:11 GMT 40.150589 -77.847595 32,000 268 471 64
2022-06-26 00:00:07 GMT 40.150955 -77.834778 32,000 268 471 0
2022-06-26 00:00:03 GMT 40.151230 -77.827393 32,000 268 471 0
2022-06-26 00:00:01 GMT 40.151398 -77.821907 32,000 268 471 0
2022-06-25 23:59:57 GMT 40.151817 -77.808548 32,000 268 471 0
2022-06-25 23:59:54 GMT 40.152096 -77.799995 32,000 268 471 0
2022-06-25 23:59:52 GMT 40.152374 -77.791931 32,000 268 471 0
2022-06-25 23:59:49 GMT 40.152657 -77.783829 32,000 268 471 0
2022-06-25 23:59:46 GMT 40.152832 -77.777710 32,000 268 471 0
2022-06-25 23:59:43 GMT 40.153072 -77.770470 32,000 268 471 0
2022-06-25 23:59:41 GMT 40.153290 -77.763550 32,000 268 471 0
2022-06-25 23:59:38 GMT 40.153587 -77.754860 32,000 268 470 64
2022-06-25 23:59:35 GMT 40.153839 -77.747375 32,000 268 470 64
2022-06-25 23:59:32 GMT 40.154114 -77.738586 32,000 268 470 0
2022-06-25 23:59:29 GMT 40.154423 -77.727646 32,000 268 470 -64
2022-06-25 23:59:25 GMT 40.154797 -77.716347 32,000 268 470 0
2022-06-25 23:59:21 GMT 40.155121 -77.705994 32,000 268 470 0
2022-06-25 23:59:18 GMT 40.155403 -77.696747 32,000 268 470 0
2022-06-25 23:59:15 GMT 40.155823 -77.682327 32,000 268 470 0
2022-06-25 23:59:12 GMT 40.155823 -77.682327 32,000 268 470 0
2022-06-25 23:59:09 GMT 40.156239 -77.669594 32,000 268 469 0
2022-06-25 23:59:06 GMT 40.156448 -77.662964 32,000 268 469 0
2022-06-25 23:59:03 GMT 40.156677 -77.655029 32,000 268 469 0
2022-06-25 23:58:58 GMT 40.157135 -77.639160 32,000 268 469 64
2022-06-25 23:58:55 GMT 40.157410 -77.630127 32,000 268 469 0
2022-06-25 23:58:52 GMT 40.157776 -77.618408 32,000 268 469 -64
2022-06-25 23:58:49 GMT 40.157917 -77.613602 32,000 268 469 -64
2022-06-25 23:58:45 GMT 40.158417 -77.596191 32,000 268 469 0
2022-06-25 23:58:42 GMT 40.158417 -77.596191 32,000 268 468 0
2022-06-25 23:58:39 GMT 40.158646 -77.588318 32,000 268 468 64
2022-06-25 23:58:36 GMT 40.158894 -77.580269 32,000 268 467 64
2022-06-25 23:58:32 GMT 40.159267 -77.567848 32,000 268 467 64
2022-06-25 23:58:29 GMT 40.159470 -77.560364 32,000 268 466 -64
2022-06-25 23:58:26 GMT 40.159733 -77.551804 32,000 268 467 0
2022-06-25 23:58:21 GMT 40.160103 -77.538010 32,000 268 466 0
2022-06-25 23:58:19 GMT 40.160339 -77.529419 32,000 268 466 0
2022-06-25 23:58:15 GMT 40.160896 -77.509918 32,000 268 466 -64
2022-06-25 23:58:11 GMT 40.160896 -77.509918 32,000 268 466 -64
2022-06-25 23:58:07 GMT 40.161255 -77.497681 32,000 268 465 0
2022-06-25 23:58:04 GMT 40.161407 -77.491943 32,000 268 465 0
2022-06-25 23:58:00 GMT 40.161777 -77.478767 32,000 268 465 0
2022-06-25 23:57:57 GMT 40.162125 -77.467163 32,000 268 464 0
2022-06-25 23:57:53 GMT 40.162445 -77.456238 32,000 268 464 64
2022-06-25 23:57:50 GMT 40.162537 -77.452026 32,000 268 464 64
2022-06-25 23:57:48 GMT 40.162720 -77.446167 32,000 268 463 64
2022-06-25 23:57:45 GMT 40.163036 -77.436256 32,000 268 463 0
2022-06-25 23:57:40 GMT 40.163410 -77.423149 32,000 268 462 0
2022-06-25 23:57:38 GMT 40.163548 -77.417595 32,000 268 462 0
2022-06-25 23:57:35 GMT 40.163818 -77.408813 32,000 268 462 0
2022-06-25 23:57:30 GMT 40.164276 -77.393494 32,000 268 462 0
2022-06-25 23:57:27 GMT 40.164551 -77.383179 32,000 268 462 0
2022-06-25 23:57:22 GMT 40.164871 -77.370911 32,000 268 462 0
2022-06-25 23:57:19 GMT 40.165085 -77.364410 32,000 268 462 0
2022-06-25 23:57:16 GMT 40.165375 -77.353943 32,000 268 461 0
2022-06-25 23:57:13 GMT 40.165604 -77.344238 32,000 268 461 0
2022-06-25 23:57:09 GMT 40.165833 -77.336426 32,000 268 461 -64
2022-06-25 23:57:07 GMT 40.165970 -77.332275 32,000 268 461 0
2022-06-25 23:57:04 GMT 40.166336 -77.319214 32,000 268 461 0
2022-06-25 23:57:00 GMT 40.166565 -77.311157 32,000 268 461 0
2022-06-25 23:56:58 GMT 40.166702 -77.304749 32,000 268 461 0
2022-06-25 23:56:53 GMT 40.167068 -77.292542 32,000 268 460 0
2022-06-25 23:56:49 GMT 40.167412 -77.279892 32,000 268 461 0
2022-06-25 23:56:47 GMT 40.167526 -77.275269 32,000 268 461 0
2022-06-25 23:56:44 GMT 40.167786 -77.266846 32,000 268 460 0
2022-06-25 23:56:40 GMT 40.168121 -77.254761 32,000 268 460 0
2022-06-25 23:56:37 GMT 40.168343 -77.246307 32,000 268 460 0
2022-06-25 23:56:34 GMT 40.168575 -77.237694 32,000 268 460 0
2022-06-25 23:56:31 GMT 40.168995 -77.223274 32,000 269 460 0
2022-06-25 23:56:28 GMT 40.168995 -77.223274 32,000 269 460 0
2022-06-25 23:56:26 GMT 40.169220 -77.215088 32,000 269 460 0
2022-06-25 23:56:23 GMT 40.169357 -77.209778 32,000 269 460 0
2022-06-25 23:56:19 GMT 40.169815 -77.192871 32,000 269 460 0
2022-06-25 23:56:17 GMT 40.169815 -77.192871 32,000 269 460 0
2022-06-25 23:56:14 GMT 40.170090 -77.181763 32,000 269 460 0
2022-06-25 23:56:10 GMT 40.170391 -77.170525 32,000 269 460 0
2022-06-25 23:56:07 GMT 40.170502 -77.165100 32,000 269 460 0
2022-06-25 23:56:05 GMT 40.170731 -77.156799 32,000 269 460 0
2022-06-25 23:56:02 GMT 40.170998 -77.147247 32,000 269 460 64
2022-06-25 23:55:59 GMT 40.171089 -77.143059 32,000 269 460 0
2022-06-25 23:55:56 GMT 40.171326 -77.134888 32,000 269 460 64
2022-06-25 23:55:53 GMT 40.171600 -77.123535 32,000 269 460 0
2022-06-25 23:55:49 GMT 40.171829 -77.115234 32,000 269 459 -64
2022-06-25 23:55:46 GMT 40.172104 -77.104126 32,000 269 459 -64
2022-06-25 23:55:42 GMT 40.172379 -77.094177 32,000 269 459 0
2022-06-25 23:55:39 GMT 40.172607 -77.085571 32,000 268 458 0
2022-06-25 23:55:36 GMT 40.172745 -77.079773 32,000 268 458 0
2022-06-25 23:55:34 GMT 40.172928 -77.072021 32,000 269 453 -64
2022-06-25 23:55:31 GMT 40.173138 -77.065536 32,000 268 458 0
2022-06-25 23:55:28 GMT 40.173325 -77.056984 32,000 269 457 0
2022-06-25 23:55:25 GMT 40.173615 -77.047180 32,000 269 457 0
2022-06-25 23:55:22 GMT 40.173798 -77.038940 32,000 269 457 0
2022-06-25 23:55:19 GMT 40.173981 -77.031494 32,000 269 457 0
2022-06-25 23:55:16 GMT 40.174255 -77.021606 32,000 269 456 0
2022-06-25 23:55:13 GMT 40.174397 -77.015099 32,000 269 456 0
2022-06-25 23:55:10 GMT 40.174675 -77.004425 32,000 269 456 0
2022-06-25 23:55:07 GMT 40.174850 -76.996826 32,000 269 456 0
2022-06-25 23:55:04 GMT 40.174953 -76.992561 32,000 269 456 0
2022-06-25 23:55:02 GMT 40.175125 -76.986145 32,000 269 455 0
2022-06-25 23:54:59 GMT 40.175373 -76.976891 32,000 269 455 0
2022-06-25 23:54:56 GMT 40.175583 -76.968567 32,000 269 455 0
2022-06-25 23:54:53 GMT 40.175720 -76.961426 32,000 269 454 0
2022-06-25 23:54:50 GMT 40.176025 -76.949806 32,000 269 454 0
2022-06-25 23:54:47 GMT 40.176132 -76.944702 32,000 269 454 0
2022-06-25 23:54:45 GMT 40.176258 -76.937691 32,000 269 454 0
2022-06-25 23:54:39 GMT 40.176682 -76.919556 32,000 269 454 0
2022-06-25 23:54:36 GMT 40.176865 -76.911072 32,000 269 453 64
2022-06-25 23:54:33 GMT 40.177002 -76.906296 32,000 269 453 64
2022-06-25 23:54:30 GMT 40.177277 -76.894897 32,000 269 453 0
2022-06-25 23:54:27 GMT 40.177467 -76.886566 32,000 269 453 0
2022-06-25 23:54:24 GMT 40.177643 -76.877686 32,000 269 455 0
2022-06-25 23:54:19 GMT 40.177963 -76.865417 32,000 269 453 0
2022-06-25 23:54:16 GMT 40.178101 -76.858582 32,000 269 453 0
2022-06-25 23:54:13 GMT 40.178329 -76.848999 32,000 269 453 0
2022-06-25 23:54:09 GMT 40.178539 -76.839561 32,000 269 454 0
2022-06-25 23:54:07 GMT 40.178677 -76.832695 32,000 269 454 0
2022-06-25 23:54:04 GMT 40.178864 -76.824524 32,000 269 453 0
2022-06-25 23:54:02 GMT 40.178959 -76.820152 32,000 269 453 0
2022-06-25 23:53:59 GMT 40.179199 -76.810974 32,000 269 454 0
2022-06-25 23:53:57 GMT 40.179283 -76.806480 32,000 269 454 0
2022-06-25 23:53:54 GMT 40.179474 -76.798706 32,000 269 454 0
2022-06-25 23:53:51 GMT 40.179653 -76.789253 32,000 269 454 0
2022-06-25 23:53:48 GMT 40.179886 -76.779541 32,000 269 454 0
2022-06-25 23:53:45 GMT 40.180023 -76.773804 32,000 269 454 0
2022-06-25 23:53:42 GMT 40.180260 -76.764099 32,000 269 454 0
2022-06-25 23:53:39 GMT 40.180401 -76.756981 32,000 269 454 0
2022-06-25 23:53:36 GMT 40.180588 -76.750366 32,000 269 454 0
2022-06-25 23:53:34 GMT 40.180775 -76.742188 32,000 269 454 0
2022-06-25 23:53:31 GMT 40.180912 -76.736443 32,000 269 454 0
2022-06-25 23:53:28 GMT 40.181377 -76.715034 32,000 269 455 64
2022-06-25 23:53:24 GMT 40.181377 -76.715034 32,000 269 455 64
2022-06-25 23:53:20 GMT 40.181671 -76.702271 32,000 269 455 0
2022-06-25 23:53:16 GMT 40.181854 -76.694031 32,000 269 455 0
2022-06-25 23:53:12 GMT 40.182171 -76.681320 32,000 269 455 -64
2022-06-25 23:53:09 GMT 40.182358 -76.672913 32,000 269 455 -64
2022-06-25 23:53:06 GMT 40.182495 -76.666321 32,000 269 455 -64
2022-06-25 23:53:02 GMT 40.182774 -76.654106 32,000 269 455 -64
2022-06-25 23:52:59 GMT 40.182961 -76.645309 32,000 269 455 0
2022-06-25 23:52:56 GMT 40.183102 -76.638443 32,000 269 455 0
2022-06-25 23:52:51 GMT 40.183289 -76.628014 32,000 269 455 -64
2022-06-25 23:52:49 GMT 40.183426 -76.621460 32,000 269 455 -64
2022-06-25 23:52:46 GMT 40.183659 -76.611290 32,000 269 455 -64
2022-06-25 23:52:41 GMT 40.183937 -76.596741 32,025 269 455 256
2022-06-25 23:52:38 GMT 40.184097 -76.588928 32,025 269 455 64
2022-06-25 23:52:35 GMT 40.184219 -76.583260 32,000 269 455 384
2022-06-25 23:52:32 GMT 40.184464 -76.572205 31,925 269 454 896
2022-06-25 23:52:28 GMT 40.184875 -76.554626 31,875 269 454 960
2022-06-25 23:52:25 GMT 40.184875 -76.554626 31,875 269 454 960
2022-06-25 23:52:20 GMT 40.185242 -76.537964 31,725 269 454 960
2022-06-25 23:52:17 GMT 40.185383 -76.533447 31,725 269 454 960
2022-06-25 23:52:14 GMT 40.185520 -76.526016 31,700 269 455 1024
2022-06-25 23:52:11 GMT 40.185745 -76.516541 31,625 269 455 1024
2022-06-25 23:52:08 GMT 40.186031 -76.505730 31,550 269 455 1088
2022-06-25 23:52:05 GMT 40.186203 -76.498718 31,525 269 455 1088
2022-06-25 23:52:02 GMT 40.186432 -76.488892 31,450 269 455 1216
2022-06-25 23:51:59 GMT 40.186546 -76.482445 31,400 269 455 1280
2022-06-25 23:51:57 GMT 40.186638 -76.479698 31,375 269 455 1280
2022-06-25 23:51:54 GMT 40.186871 -76.469772 31,300 269 456 1216
2022-06-25 23:51:49 GMT 40.187164 -76.455933 31,125 269 457 1280
2022-06-25 23:51:46 GMT 40.187531 -76.439941 31,125 269 457 1280
2022-06-25 23:51:43 GMT 40.187531 -76.439941 31,075 269 457 1344
2022-06-25 23:51:40 GMT 40.187801 -76.428764 30,975 269 458 1472
2022-06-25 23:51:37 GMT 40.187943 -76.421585 30,900 269 459 1472
2022-06-25 23:51:34 GMT 40.188171 -76.411804 30,850 269 459 1472
2022-06-25 23:51:29 GMT 40.188492 -76.397949 30,725 269 460 1408
2022-06-25 23:51:26 GMT 40.188629 -76.389648 30,650 269 461 1344
2022-06-25 23:51:23 GMT 40.188766 -76.383789 30,600 269 461 1216
2022-06-25 23:51:20 GMT 40.188904 -76.375183 30,550 269 461 1152
2022-06-25 23:51:17 GMT 40.189087 -76.364563 30,475 270 462 1024
2022-06-25 23:51:14 GMT 40.189198 -76.353294 30,400 270 462 960
2022-06-25 23:51:10 GMT 40.189293 -76.346367 30,375 270 462 896
2022-06-25 23:51:06 GMT 40.189499 -76.327820 30,300 270 461 832
2022-06-25 23:51:03 GMT 40.189590 -76.319214 30,250 270 461 896
2022-06-25 23:50:57 GMT 40.189682 -76.311401 30,150 270 461 896
2022-06-25 23:50:54 GMT 40.189774 -76.301697 30,125 269 461 1152
2022-06-25 23:50:51 GMT 40.189850 -76.291245 30,050 270 461 1024
2022-06-25 23:50:48 GMT 40.189896 -76.286003 30,025 270 461 1088
2022-06-25 23:50:45 GMT 40.190002 -76.278076 29,950 269 461 1152
2022-06-25 23:50:42 GMT 40.190128 -76.268463 29,925 269 461 1152
2022-06-25 23:50:37 GMT 40.190323 -76.255554 29,850 269 461 1152
2022-06-25 23:50:34 GMT 40.190460 -76.244995 29,750 269 461 1088
2022-06-25 23:50:31 GMT 40.190552 -76.239685 29,575 269 462 1088
2022-06-25 23:50:28 GMT 40.190689 -76.231506 29,625 269 462 1088
2022-06-25 23:50:25 GMT 40.191013 -76.211411 29,575 269 462 1088
2022-06-25 23:50:22 GMT 40.191013 -76.211411 29,550 269 462 1088
2022-06-25 23:50:19 GMT 40.191147 -76.204346 29,500 269 462 960
2022-06-25 23:50:16 GMT 40.191422 -76.187927 29,425 269 462 896
2022-06-25 23:50:13 GMT 40.191422 -76.187927 29,400 269 461 896
2022-06-25 23:50:10 GMT 40.191525 -76.179451 29,375 269 461 896
2022-06-25 23:50:06 GMT 40.191696 -76.170410 29,325 269 461 896
2022-06-25 23:50:04 GMT 40.191833 -76.163147 29,250 269 461 896
2022-06-25 23:50:01 GMT 40.191944 -76.156601 29,200 269 460 896
2022-06-25 23:49:58 GMT 40.192108 -76.148438 29,200 269 460 896
2022-06-25 23:49:56 GMT 40.192245 -76.141235 29,150 269 460 960
2022-06-25 23:49:54 GMT 40.192291 -76.138428 29,150 269 460 960
2022-06-25 23:49:51 GMT 40.192505 -76.128883 29,075 269 460 960
2022-06-25 23:49:48 GMT 40.192657 -76.120422 29,050 269 460 960
2022-06-25 23:49:46 GMT 40.192795 -76.113464 29,000 269 459 1024
2022-06-25 23:49:43 GMT 40.192886 -76.107971 28,925 269 459 1088
2022-06-25 23:49:40 GMT 40.193157 -76.096741 28,875 269 459 1088
2022-06-25 23:49:37 GMT 40.193295 -76.090057 28,850 269 459 1088
2022-06-25 23:49:34 GMT 40.193436 -76.081909 28,750 269 459 1152
2022-06-25 23:49:31 GMT 40.193668 -76.070709 28,700 269 459 1280
2022-06-25 23:49:28 GMT 40.193756 -76.065002 28,625 269 459 1280
2022-06-25 23:49:25 GMT 40.193893 -76.057556 28,575 269 459 1344
2022-06-25 23:49:23 GMT 40.194225 -76.041374 28,525 269 459 1408
2022-06-25 23:49:20 GMT 40.194225 -76.041374 28,475 269 459 1472
2022-06-25 23:49:16 GMT 40.194458 -76.030006 28,350 269 460 1536
2022-06-25 23:49:13 GMT 40.194599 -76.024452 28,225 270 458 832
2022-06-25 23:49:10 GMT 40.194878 -76.013344 28,225 269 461 1472
2022-06-25 23:49:07 GMT 40.195019 -76.005539 28,150 269 461 1472
2022-06-25 23:49:04 GMT 40.195156 -75.998299 28,100 269 461 1408
2022-06-25 23:49:01 GMT 40.195358 -75.989807 27,975 269 461 1280
2022-06-25 23:48:58 GMT 40.195530 -75.979950 27,875 269 461 1216
2022-06-25 23:48:54 GMT 40.195667 -75.971336 27,875 269 461 1216
2022-06-25 23:48:52 GMT 40.195995 -75.956039 27,775 269 461 1216
2022-06-25 23:48:49 GMT 40.195995 -75.956039 27,725 269 461 1216
2022-06-25 23:48:46 GMT 40.196136 -75.946716 27,700 269 461 1216
2022-06-25 23:48:43 GMT 40.196274 -75.940918 27,675 269 461 1216
2022-06-25 23:48:41 GMT 40.196415 -75.932129 27,600 269 461 1216
2022-06-25 23:48:38 GMT 40.196503 -75.925354 27,525 270 460 1216
2022-06-25 23:48:35 GMT 40.196640 -75.914795 27,475 270 460 1152
2022-06-25 23:48:32 GMT 40.196739 -75.907722 27,425 270 460 1024
2022-06-25 23:48:28 GMT 40.196823 -75.897827 27,350 270 460 960
2022-06-25 23:48:24 GMT 40.196926 -75.885811 27,275 270 458 832
2022-06-25 23:48:20 GMT 40.197006 -75.875122 27,250 270 458 832
2022-06-25 23:48:17 GMT 40.197052 -75.866821 27,200 270 458 832
2022-06-25 23:48:14 GMT 40.197098 -75.858032 27,150 270 457 896
2022-06-25 23:48:12 GMT 40.197250 -75.844925 27,125 270 457 896
2022-06-25 23:48:09 GMT 40.197250 -75.844925 27,075 269 456 960
2022-06-25 23:48:06 GMT 40.197392 -75.834686 27,000 269 454 1280
2022-06-25 23:48:03 GMT 40.197487 -75.830574 26,975 269 456 1024
2022-06-25 23:48:01 GMT 40.197624 -75.822083 26,950 269 455 1088
2022-06-25 23:47:59 GMT 40.197739 -75.816162 26,875 269 455 1152
2022-06-25 23:47:56 GMT 40.197876 -75.809021 26,850 269 455 1216
2022-06-25 23:47:53 GMT 40.198013 -75.802185 26,750 269 454 1280
2022-06-25 23:47:51 GMT 40.198105 -75.796936 26,725 269 454 1344
2022-06-25 23:47:48 GMT 40.198231 -75.788559 26,650 269 454 1344
2022-06-25 23:47:45 GMT 40.198368 -75.779007 26,500 269 454 1024
2022-06-25 23:47:41 GMT 40.198555 -75.768272 26,525 269 454 960
2022-06-25 23:47:37 GMT 40.198746 -75.756958 26,475 269 453 960
2022-06-25 23:47:34 GMT 40.198883 -75.746178 26,425 270 451 1088
2022-06-25 23:47:31 GMT 40.199020 -75.738251 26,125 270 452 1024
2022-06-25 23:47:28 GMT 40.199116 -75.730072 26,325 270 452 1024
2022-06-25 23:47:25 GMT 40.199162 -75.724892 26,250 270 451 1024
2022-06-25 23:47:21 GMT 40.199394 -75.703415 26,200 270 451 1088
2022-06-25 23:47:18 GMT 40.199394 -75.703415 26,150 270 450 1152
2022-06-25 23:47:15 GMT 40.199478 -75.697571 26,075 270 450 1088
2022-06-25 23:47:11 GMT 40.199627 -75.684624 26,025 270 450 1024
2022-06-25 23:47:08 GMT 40.199707 -75.677734 25,950 270 449 960
2022-06-25 23:47:05 GMT 40.199936 -75.660156 25,900 270 449 832
2022-06-25 23:47:02 GMT 40.200001 -75.651360 25,850 270 448 896
2022-06-25 23:46:58 GMT 40.200001 -75.651360 25,800 270 447 1024
2022-06-25 23:46:55 GMT 40.200233 -75.631943 25,675 270 446 1216
2022-06-25 23:46:51 GMT 40.200233 -75.631943 25,375 270 446 1344
2022-06-25 23:46:49 GMT 40.200256 -75.626404 25,600 270 446 1344
2022-06-25 23:46:46 GMT 40.200302 -75.619446 25,550 270 446 1344
2022-06-25 23:46:43 GMT 40.200417 -75.608284 25,500 270 445 1344
2022-06-25 23:46:40 GMT 40.200485 -75.603577 25,475 270 445 1344
2022-06-25 23:46:36 GMT 40.200623 -75.591492 25,375 269 445 1344
2022-06-25 23:46:33 GMT 40.200745 -75.584068 25,025 269 444 1280
2022-06-25 23:46:30 GMT 40.200806 -75.577515 25,250 269 445 1408
2022-06-25 23:46:26 GMT 40.201035 -75.563293 25,125 269 445 1344
2022-06-25 23:46:23 GMT 40.201126 -75.556580 25,025 269 444 1280
2022-06-25 23:46:20 GMT 40.201218 -75.549622 24,975 269 444 1280
2022-06-25 23:46:16 GMT 40.201447 -75.536743 24,900 269 443 1280
2022-06-25 23:46:13 GMT 40.201538 -75.531677 24,775 269 443 1344
2022-06-25 23:46:10 GMT 40.201675 -75.520935 24,775 269 443 1344
2022-06-25 23:46:08 GMT 40.201721 -75.518394 24,675 269 443 1408
2022-06-25 23:46:05 GMT 40.201862 -75.509842 24,650 269 443 1408
2022-06-25 23:46:02 GMT 40.202000 -75.501602 24,575 269 443 1472
2022-06-25 23:45:59 GMT 40.202133 -75.492920 24,475 269 442 1408
2022-06-25 23:45:56 GMT 40.202408 -75.475037 24,425 269 442 1408
2022-06-25 23:45:53 GMT 40.202408 -75.475037 24,375 269 442 1344
2022-06-25 23:45:49 GMT 40.202545 -75.466248 24,225 270 442 1280
2022-06-25 23:45:46 GMT 40.202652 -75.455727 24,225 270 441 1152
2022-06-25 23:45:42 GMT 40.202728 -75.448120 24,150 270 439 1024
2022-06-25 23:45:38 GMT 40.202839 -75.438431 24,100 270 438 960
2022-06-25 23:45:34 GMT 40.202930 -75.427071 24,050 270 437 1024
2022-06-25 23:45:31 GMT 40.203003 -75.418762 24,000 270 437 1024
2022-06-25 23:45:28 GMT 40.203140 -75.409546 23,900 270 436 1024
2022-06-25 23:45:25 GMT 40.203213 -75.400169 23,750 270 434 1024
2022-06-25 23:45:22 GMT 40.203304 -75.392555 23,825 270 434 1024
2022-06-25 23:45:18 GMT 40.203445 -75.385002 23,750 270 433 1088
2022-06-25 23:45:14 GMT 40.203583 -75.372955 23,625 270 420 1152
2022-06-25 23:45:09 GMT 40.203724 -75.362030 23,600 270 428 832
2022-06-25 23:45:06 GMT 40.203815 -75.351669 23,550 270 429 832
2022-06-25 23:45:03 GMT 40.203861 -75.345421 23,500 270 428 896
2022-06-25 23:45:00 GMT 40.203911 -75.337685 23,450 270 426 960
2022-06-25 23:44:57 GMT 40.204002 -75.329697 23,400 270 425 1088
2022-06-25 23:44:54 GMT 40.204048 -75.320702 23,350 270 425 1152
2022-06-25 23:44:51 GMT 40.204094 -75.314590 23,325 270 424 1152
2022-06-25 23:44:47 GMT 40.204189 -75.296425 23,225 270 423 1280
2022-06-25 23:44:44 GMT 40.204189 -75.296425 23,150 270 422 1280
2022-06-25 23:44:42 GMT 40.204235 -75.289803 23,100 270 421 1280
2022-06-25 23:44:39 GMT 40.204327 -75.280884 23,050 270 420 1152
2022-06-25 23:44:36 GMT 40.204330 -75.278198 23,000 270 420 1152
2022-06-25 23:44:33 GMT 40.204559 -75.259460 22,900 270 419 1088
2022-06-25 23:44:30 GMT 40.204559 -75.259460 22,875 270 418 1152
2022-06-25 23:44:26 GMT 40.204788 -75.242798 22,650 269 417 1408
2022-06-25 23:44:23 GMT 40.204788 -75.242798 22,750 269 417 1664
2022-06-25 23:44:20 GMT 40.204926 -75.233276 22,625 269 417 1920
2022-06-25 23:44:17 GMT 40.205025 -75.228134 22,475 269 417 1920
2022-06-25 23:44:14 GMT 40.205120 -75.220329 22,425 269 417 1856
2022-06-25 23:44:11 GMT 40.205246 -75.214172 22,325 269 417 1856
2022-06-25 23:44:08 GMT 40.205353 -75.206718 22,225 269 418 1856
2022-06-25 23:44:05 GMT 40.205490 -75.198418 22,150 267 420 1664
2022-06-25 23:44:01 GMT 40.205933 -75.186890 22,075 265 422 1152
2022-06-25 23:43:58 GMT 40.206573 -75.177734 22,000 264 425 640
2022-06-25 23:43:55 GMT 40.207027 -75.172516 22,000 262 427 704
2022-06-25 23:43:52 GMT 40.207855 -75.164246 22,000 262 425 64
2022-06-25 23:43:48 GMT 40.209122 -75.152412 22,000 262 426 0
2022-06-25 23:43:45 GMT 40.209682 -75.147362 22,025 262 427 704
2022-06-25 23:43:41 GMT 40.210892 -75.136124 22,000 262 426 64
2022-06-25 23:43:38 GMT 40.211700 -75.128906 22,000 262 426 0
2022-06-25 23:43:35 GMT 40.212708 -75.119827 22,000 262 426 0
2022-06-25 23:43:32 GMT 40.213406 -75.113464 22,000 262 426 64
2022-06-25 23:43:30 GMT 40.213806 -75.109497 22,000 262 426 64
2022-06-25 23:43:27 GMT 40.214905 -75.099609 22,000 262 426 0
2022-06-25 23:43:24 GMT 40.215595 -75.093361 22,000 262 426 -64
2022-06-25 23:43:21 GMT 40.216644 -75.084045 22,000 262 426 0
2022-06-25 23:43:18 GMT 40.217468 -75.076660 22,000 262 427 -64
2022-06-25 23:43:14 GMT 40.218430 -75.067688 22,000 262 427 -64
2022-06-25 23:43:11 GMT 40.219410 -75.058907 22,000 262 427 -128
2022-06-25 23:43:08 GMT 40.219986 -75.053955 22,000 262 427 -128
2022-06-25 23:43:04 GMT 40.221405 -75.040649 22,025 262 427 -128
2022-06-25 23:43:00 GMT 40.222412 -75.031738 22,025 262 427 -64
2022-06-25 23:42:57 GMT 40.223507 -75.021637 22,025 262 427 0
2022-06-25 23:42:54 GMT 40.224152 -75.016174 22,025 262 427 0
2022-06-25 23:42:51 GMT 40.225204 -75.006958 22,025 262 427 64
2022-06-25 23:42:48 GMT 40.225601 -75.003227 22,000 262 427 320
2022-06-25 23:42:45 GMT 40.227325 -74.988182 21,975 262 427 832
2022-06-25 23:42:42 GMT 40.227325 -74.988182 21,975 262 427 832
2022-06-25 23:42:39 GMT 40.228443 -74.978004 21,825 262 426 1536
2022-06-25 23:42:36 GMT 40.229465 -74.969078 21,800 262 425 1536
2022-06-25 23:42:33 GMT 40.230164 -74.962463 21,725 263 425 1920
2022-06-25 23:42:29 GMT 40.231281 -74.952042 21,575 263 425 1792
2022-06-25 23:42:26 GMT 40.231842 -74.946838 21,500 263 425 1920
2022-06-25 23:42:23 GMT 40.233719 -74.929565 21,375 263 425 1920
2022-06-25 23:42:20 GMT 40.233719 -74.929565 21,300 263 425 1856
2022-06-25 23:42:17 GMT 40.234451 -74.922668 21,250 263 424 1856
2022-06-25 23:42:14 GMT 40.235229 -74.915039 21,075 263 423 1728
2022-06-25 23:42:11 GMT 40.235889 -74.909096 20,975 263 422 1536
2022-06-25 23:42:08 GMT 40.236916 -74.899170 20,925 263 423 1664
2022-06-25 23:42:05 GMT 40.237747 -74.890930 20,850 263 423 1600
2022-06-25 23:42:02 GMT 40.238525 -74.883606 20,750 263 422 1472
2022-06-25 23:41:59 GMT 40.240082 -74.867920 20,650 263 422 1472
2022-06-25 23:41:56 GMT 40.240082 -74.867920 20,650 263 421 1408
2022-06-25 23:41:53 GMT 40.240452 -74.863960 20,625 263 421 1408
2022-06-25 23:41:50 GMT 40.241409 -74.853760 20,525 263 420 1344
2022-06-25 23:41:47 GMT 40.242081 -74.847107 20,400 263 417 1280
2022-06-25 23:41:44 GMT 40.242966 -74.837807 20,350 263 417 1280
2022-06-25 23:41:41 GMT 40.243744 -74.829895 20,250 263 416 1280
2022-06-25 23:41:37 GMT 40.244751 -74.819702 20,225 263 415 1280
2022-06-25 23:41:34 GMT 40.245342 -74.814339 20,175 262 414 1280
2022-06-25 23:41:31 GMT 40.246307 -74.805298 20,100 262 413 1280
2022-06-25 23:41:27 GMT 40.247269 -74.796875 19,825 262 412 1216
2022-06-25 23:41:24 GMT 40.248184 -74.788269 19,950 262 411 1216
2022-06-25 23:41:21 GMT 40.249718 -74.774887 19,875 262 410 1280
2022-06-25 23:41:18 GMT 40.249718 -74.774887 19,850 262 409 1280
2022-06-25 23:41:16 GMT 40.250229 -74.769951 19,775 262 409 1280
2022-06-25 23:41:13 GMT 40.251251 -74.761154 19,725 262 408 1344
2022-06-25 23:41:09 GMT 40.252213 -74.752747 19,650 262 407 1344
2022-06-25 23:41:06 GMT 40.253860 -74.738243 19,550 262 406 1408
2022-06-25 23:41:03 GMT 40.253860 -74.738243 19,500 262 405 1408
2022-06-25 23:41:00 GMT 40.254650 -74.731255 19,375 262 404 1408
2022-06-25 23:40:57 GMT 40.256378 -74.716370 19,350 262 403 1408
2022-06-25 23:40:54 GMT 40.256378 -74.716370 19,300 262 403 1472
2022-06-25 23:40:51 GMT 40.257294 -74.708191 19,075 263 401 1600
2022-06-25 23:40:48 GMT 40.257935 -74.701965 19,100 263 401 1600
2022-06-25 23:40:45 GMT 40.258850 -74.693298 19,100 263 401 1600
2022-06-25 23:40:42 GMT 40.259399 -74.688232 18,975 263 400 1664
2022-06-25 23:40:39 GMT 40.260406 -74.678406 18,875 263 399 1664
2022-06-25 23:40:36 GMT 40.260956 -74.672913 18,725 263 398 1664
2022-06-25 23:40:33 GMT 40.261681 -74.666084 18,700 263 398 1664
2022-06-25 23:40:30 GMT 40.262566 -74.657532 18,650 262 397 1664
2022-06-25 23:40:26 GMT 40.263519 -74.649048 18,550 262 397 1664
2022-06-25 23:40:24 GMT 40.264893 -74.636719 18,450 262 397 1664
2022-06-25 23:40:21 GMT 40.264893 -74.636719 18,400 262 396 1728
2022-06-25 23:40:18 GMT 40.265854 -74.628174 18,300 262 396 1792
2022-06-25 23:40:15 GMT 40.266476 -74.622635 18,250 262 395 1856
2022-06-25 23:40:12 GMT 40.267220 -74.615768 18,125 262 395 1792
2022-06-25 23:40:08 GMT 40.268337 -74.605843 17,950 262 394 1600
2022-06-25 23:40:05 GMT 40.268894 -74.601166 17,925 262 394 1600
2022-06-25 23:40:03 GMT 40.269608 -74.594421 17,875 262 393 1472
2022-06-25 23:40:00 GMT 40.270111 -74.589966 17,850 262 393 1472
2022-06-25 23:39:57 GMT 40.270897 -74.582809 17,800 262 392 1472
2022-06-25 23:39:54 GMT 40.272583 -74.567749 17,625 262 390 1408
2022-06-25 23:39:51 GMT 40.272583 -74.567749 17,550 262 388 1408
2022-06-25 23:39:48 GMT 40.273407 -74.560059 17,500 262 386 1408
2022-06-25 23:39:45 GMT 40.274342 -74.551788 17,425 262 385 1472
2022-06-25 23:39:42 GMT 40.274963 -74.545898 17,400 262 385 1472
2022-06-25 23:39:38 GMT 40.276154 -74.535095 17,250 262 383 1536
2022-06-25 23:39:35 GMT 40.276810 -74.528999 17,175 262 383 1536
2022-06-25 23:39:33 GMT 40.277618 -74.521790 17,100 262 382 1600
2022-06-25 23:39:30 GMT 40.278030 -74.518066 17,000 263 381 1664
2022-06-25 23:39:27 GMT 40.278671 -74.512276 16,950 263 381 1920
2022-06-25 23:39:24 GMT 40.279358 -74.505981 16,800 263 381 2048
2022-06-25 23:39:22 GMT 40.280209 -74.498100 16,775 262 380 2368
2022-06-25 23:39:19 GMT 40.280582 -74.494675 16,725 262 380 2432
2022-06-25 23:39:16 GMT 40.281281 -74.488052 16,425 262 381 2560
2022-06-25 23:39:13 GMT 40.282425 -74.477661 16,375 262 381 0
2022-06-25 23:39:09 GMT 40.283432 -74.468506 16,225 262 383 2624
2022-06-25 23:39:06 GMT 40.283978 -74.463837 15,825 262 384 2560
2022-06-25 23:39:03 GMT 40.284897 -74.455688 16,000 262 384 2432
2022-06-25 23:38:59 GMT 40.286728 -74.439819 15,675 262 384 2304
2022-06-25 23:38:56 GMT 40.286728 -74.439819 15,725 262 385 2304
2022-06-25 23:38:52 GMT 40.287552 -74.432922 15,525 262 385 2304
2022-06-25 23:38:49 GMT 40.288403 -74.426132 15,450 262 385 2304
2022-06-25 23:38:47 GMT 40.289101 -74.420135 15,350 262 385 2368
2022-06-25 23:38:44 GMT 40.290070 -74.411743 15,250 262 385 2304
2022-06-25 23:38:41 GMT 40.290543 -74.407715 14,900 262 383 1792
2022-06-25 23:38:38 GMT 40.291382 -74.400597 15,075 262 385 2112
2022-06-25 23:38:35 GMT 40.292358 -74.392296 14,975 262 384 1856
2022-06-25 23:38:32 GMT 40.293056 -74.386559 14,850 262 383 1664
2022-06-25 23:38:29 GMT 40.293941 -74.379189 14,775 262 382 1600
2022-06-25 23:38:26 GMT 40.294739 -74.372681 14,675 262 381 1664
2022-06-25 23:38:23 GMT 40.295666 -74.365082 14,625 262 381 1728
2022-06-25 23:38:20 GMT 40.296478 -74.357910 14,000 262 379 2112
2022-06-25 23:38:17 GMT 40.297432 -74.349602 14,325 262 379 2240
2022-06-25 23:38:14 GMT 40.297897 -74.345398 13,325 263 379 2496
2022-06-25 23:38:11 GMT 40.298504 -74.339363 14,125 263 380 2752
2022-06-25 23:38:08 GMT 40.299480 -74.330254 14,025 263 380 2752
2022-06-25 23:38:04 GMT 40.300415 -74.320374 13,825 264 380 2752
2022-06-25 23:38:01 GMT 40.301102 -74.313049 13,700 264 380 2560
2022-06-25 23:37:58 GMT 40.301559 -74.308228 13,600 264 380 2368
2022-06-25 23:37:55 GMT 40.302227 -74.300789 13,450 263 380 2112
2022-06-25 23:37:52 GMT 40.303986 -74.284546 13,325 260 379 1920
2022-06-25 23:37:48 GMT 40.303986 -74.284546 13,250 259 379 1856
2022-06-25 23:37:45 GMT 40.305267 -74.276917 13,125 255 379 1600
2022-06-25 23:37:42 GMT 40.306278 -74.271637 13,075 253 379 1472
2022-06-25 23:37:40 GMT 40.307190 -74.267578 12,975 250 377 1472
2022-06-25 23:37:37 GMT 40.308929 -74.261024 12,950 248 376 1664
2022-06-25 23:37:33 GMT 40.313957 -74.246040 12,100 244 375 1984
2022-06-25 23:37:30 GMT 40.313957 -74.246040 12,100 242 375 2112
2022-06-25 23:37:27 GMT 40.316116 -74.240662 12,575 241 374 2240
2022-06-25 23:37:24 GMT 40.319275 -74.233398 12,450 241 373 2240
2022-06-25 23:37:21 GMT 40.321838 -74.227478 12,400 241 373 2240
2022-06-25 23:37:17 GMT 40.325039 -74.220139 12,250 241 373 2304
2022-06-25 23:37:14 GMT 40.326462 -74.216858 12,175 241 373 2304
2022-06-25 23:37:11 GMT 40.329803 -74.209229 12,025 241 373 2304
2022-06-25 23:37:05 GMT 40.334534 -74.198349 11,825 241 372 2176
2022-06-25 23:37:01 GMT 40.338631 -74.188988 11,675 241 370 2112
2022-06-25 23:36:59 GMT 40.340881 -74.183777 11,575 241 370 2048
2022-06-25 23:36:56 GMT 40.345230 -74.173889 11,475 241 369 1856
2022-06-25 23:36:53 GMT 40.345230 -74.173889 11,375 241 366 1600
2022-06-25 23:36:50 GMT 40.348206 -74.167114 11,325 241 366 1536
2022-06-25 23:36:46 GMT 40.351433 -74.159775 11,225 240 363 1344
2022-06-25 23:36:43 GMT 40.354340 -74.153198 11,150 241 361 1280
2022-06-25 23:36:40 GMT 40.356041 -74.149284 11,125 241 359 1216
2022-06-25 23:36:35 GMT 40.360371 -74.139488 11,025 241 353 960
2022-06-25 23:36:33 GMT 40.362534 -74.134583 10,950 241 352 960
2022-06-25 23:36:29 GMT 40.365257 -74.128372 10,925 240 349 896
2022-06-25 23:36:24 GMT 40.368942 -74.120056 10,875 240 345 960
2022-06-25 23:36:22 GMT 40.370544 -74.116455 10,800 240 341 1024
2022-06-25 23:36:19 GMT 40.373291 -74.110352 10,775 240 340 1088
2022-06-25 23:36:15 GMT 40.377274 -74.101501 10,675 240 336 1088
2022-06-25 23:36:12 GMT 40.381760 -74.091797 10,625 239 332 1280
2022-06-25 23:36:09 GMT 40.381760 -74.091797 10,575 239 332 1280
2022-06-25 23:36:04 GMT 40.385010 -74.084778 10,450 239 328 1280
2022-06-25 23:36:01 GMT 40.388214 -74.077820 10,400 240 322 960
2022-06-25 23:35:58 GMT 40.390072 -74.073822 10,375 240 322 960
2022-06-25 23:35:55 GMT 40.391888 -74.069824 10,325 240 319 832
2022-06-25 23:35:52 GMT 40.395081 -74.062744 10,250 240 313 832
2022-06-25 23:35:49 GMT 40.396957 -74.058655 10,225 240 312 832
2022-06-25 23:35:46 GMT 40.399704 -74.052429 10,175 241 308 768
2022-06-25 23:35:42 GMT 40.401398 -74.048523 10,125 240 302 832
2022-06-25 23:35:39 GMT 40.404053 -74.042603 10,075 241 300 832
2022-06-25 23:35:37 GMT 40.405106 -74.040283 10,050 241 298 960
2022-06-25 23:35:34 GMT 40.407715 -74.034302 10,000 241 295 1344
2022-06-25 23:35:31 GMT 40.411438 -74.025818 9,900 241 293 2240
2022-06-25 23:35:28 GMT 40.411438 -74.025818 9,775 241 293 2304
2022-06-25 23:35:25 GMT 40.413769 -74.020447 9,550 241 292 2944
2022-06-25 23:35:20 GMT 40.417328 -74.012329 9,050 241 293 3136
2022-06-25 23:35:17 GMT 40.418747 -74.009026 9,325 240 294 3200
2022-06-25 23:35:11 GMT 40.423031 -73.999413 8,850 240 296 2688
2022-06-25 23:35:08 GMT 40.425705 -73.993469 8,800 240 296 2688
2022-06-25 23:35:05 GMT 40.427452 -73.989677 8,725 240 296 2496
2022-06-25 23:35:01 GMT 40.433041 -73.977379 8,525 240 296 2432
2022-06-25 23:34:57 GMT 40.433041 -73.977379 8,400 240 295 2368
2022-06-25 23:34:54 GMT 40.435089 -73.972885 6,300 240 294 2112
2022-06-25 23:34:49 GMT 40.440262 -73.961243 8,100 240 292 1856
2022-06-25 23:34:46 GMT 40.440262 -73.961243 8,050 241 292 1664
2022-06-25 23:34:42 GMT 40.443001 -73.955032 7,950 241 285 896
2022-06-25 23:34:39 GMT 40.445469 -73.949348 7,800 241 275 2176
2022-06-25 23:34:35 GMT 40.447128 -73.945496 7,875 241 279 896
2022-06-25 23:34:31 GMT 40.450638 -73.937363 7,725 241 275 2176
2022-06-25 23:34:25 GMT 40.453720 -73.930176 7,525 242 274 2752
2022-06-25 23:34:22 GMT 40.456268 -73.924133 7,325 241 275 2944
2022-06-25 23:34:18 GMT 40.457840 -73.920410 6,975 241 274 2304
2022-06-25 23:34:15 GMT 40.460087 -73.915268 7,025 241 275 2752
2022-06-25 23:34:11 GMT 40.462551 -73.909462 6,775 241 274 2304
2022-06-25 23:34:08 GMT 40.465210 -73.903259 6,650 241 272 2176
2022-06-25 23:34:03 GMT 40.462040 -73.888931 5,100 225 264 2496
2022-06-25 23:34:02 GMT 40.462841 -73.887733 5,100 225 264 2496
2022-06-25 23:34:01 GMT 40.464458 -73.885330 5,100 225 264 2496
2022-06-25 23:33:59 GMT 40.465260 -73.884132 5,100 225 264 2496
2022-06-25 23:33:58 GMT 40.466068 -73.882927 5,100 225 264 2496
2022-06-25 23:33:56 GMT 40.467682 -73.880531 5,100 225 264 2496
2022-06-25 23:33:55 GMT 40.468491 -73.879333 5,100 225 264 2496
2022-06-25 23:33:53 GMT 40.470100 -73.876930 5,100 225 264 2432
2022-06-25 23:33:52 GMT 40.470909 -73.875732 5,100 225 264 2432
2022-06-25 23:33:50 GMT 40.472519 -73.873329 5,100 225 264 2432
2022-06-25 23:33:49 GMT 40.473320 -73.872124 5,100 225 264 2432
2022-06-25 23:33:48 GMT 40.474129 -73.870918 5,100 225 264 2432
2022-06-25 23:33:47 GMT 40.474941 -73.869720 5,100 225 264 2432
2022-06-25 23:33:45 GMT 40.476551 -73.867317 5,100 225 264 2432
2022-06-25 23:33:44 GMT 40.478161 -73.864922 5,100 225 264 2432
2022-06-25 23:33:42 GMT 40.478970 -73.863724 5,100 225 264 2432
2022-06-25 23:33:41 GMT 40.479771 -73.862518 5,100 225 264 2432
2022-06-25 23:33:39 GMT 40.481380 -73.860107 5,100 225 264 2432
2022-06-25 23:33:38 GMT 40.482189 -73.858910 5,100 225 264 2432
2022-06-25 23:33:36 GMT 40.483799 -73.856506 5,100 225 264 2432
2022-06-25 23:33:35 GMT 40.485409 -73.854111 5,100 225 264 2432
2022-06-25 23:33:33 GMT 40.486221 -73.852913 5,100 225 264 2432
2022-06-25 23:33:32 GMT 40.486130 -73.850380 4,900 216 266 2432
2022-06-25 23:33:30 GMT 40.488010 -73.848312 4,900 216 266 2432
2022-06-25 23:33:29 GMT 40.488960 -73.847282 4,900 216 266 2432
2022-06-25 23:33:28 GMT 40.489899 -73.846237 4,900 216 266 2432
2022-06-25 23:33:26 GMT 40.490959 -73.842178 4,500 208 266 2432
2022-06-25 23:33:24 GMT 40.493118 -73.840622 4,500 208 266 2432
2022-06-25 23:33:22 GMT 40.494949 -73.838531 4,500 207 269 2432
2022-06-25 23:33:20 GMT 40.497162 -73.837029 4,500 207 269 2432
2022-06-25 23:33:19 GMT 40.498260 -73.836281 4,500 207 269 2432
2022-06-25 23:33:18 GMT 40.499352 -73.835213 4,300 206 267 2432
2022-06-25 23:33:17 GMT 40.500462 -73.834480 4,375 208 271 2368
2022-06-25 23:33:14 GMT 40.503708 -73.832993 4,125 206 272 2432
2022-06-25 23:33:11 GMT 40.506939 -73.829948 3,900 206 272 2432
2022-06-25 23:33:10 GMT 40.509449 -73.828537 3,900 206 263 2432
2022-06-25 23:33:09 GMT 40.510540 -73.827820 3,900 206 263 2432
2022-06-25 23:33:07 GMT 40.511620 -73.827103 3,900 206 263 2432
2022-06-25 23:33:06 GMT 40.512711 -73.826378 3,900 206 263 2432
2022-06-25 23:33:04 GMT 40.515091 -73.824852 3,700 206 259 2432
2022-06-25 23:33:03 GMT 40.516159 -73.824142 3,700 206 259 2432
2022-06-25 23:33:02 GMT 40.517220 -73.823433 3,700 206 259 2432
2022-06-25 23:33:00 GMT 40.519360 -73.822006 3,700 206 259 2432
2022-06-25 23:32:59 GMT 40.520649 -73.820992 3,500 206 250 2432
2022-06-25 23:32:58 GMT 40.522720 -73.819649 3,500 206 250 2432
2022-06-25 23:32:56 GMT 40.523762 -73.818977 3,500 206 250 2432
2022-06-25 23:32:55 GMT 40.525761 -73.817871 3,300 207 259 2432
2022-06-25 23:32:53 GMT 40.526829 -73.817146 3,300 207 259 128
2022-06-25 23:32:52 GMT 40.527889 -73.816422 3,300 207 259 128
2022-06-25 23:32:51 GMT 40.529831 -73.815117 2,900 207 266 128
2022-06-25 23:32:49 GMT 40.530918 -73.814377 2,900 207 266 128
2022-06-25 23:32:47 GMT 40.533112 -73.812889 2,900 207 266 128
2022-06-25 23:32:46 GMT 40.534149 -73.812180 2,900 207 269 128
2022-06-25 23:32:45 GMT 40.535259 -73.811432 2,900 207 269 128
2022-06-25 23:32:44 GMT 40.536388 -73.810677 2,900 207 267 128
2022-06-25 23:32:42 GMT 40.538609 -73.809158 2,900 208 265 128
2022-06-25 23:32:41 GMT 40.539669 -73.808418 2,700 208 266 128
2022-06-25 23:32:40 GMT 40.540771 -73.807648 2,700 208 266 128
2022-06-25 23:32:38 GMT 40.542931 -73.806122 2,700 207 266 128
2022-06-25 23:32:37 GMT 40.544048 -73.805359 2,700 207 264 128
2022-06-25 23:32:36 GMT 40.545120 -73.804619 2,300 207 265 128
2022-06-25 23:32:34 GMT 40.547272 -73.803123 2,300 207 267 128
2022-06-25 23:32:33 GMT 40.548420 -73.802330 2,300 208 263 128
2022-06-25 23:32:31 GMT 40.550571 -73.800842 2,300 208 263 128
2022-06-25 23:32:30 GMT 40.551659 -73.800079 2,300 208 262 128
2022-06-25 23:32:29 GMT 40.552731 -73.799316 2,300 208 262 128
2022-06-25 23:32:27 GMT 40.554859 -73.797836 2,000 208 263 128
2022-06-25 23:32:26 GMT 40.555920 -73.797073 2,000 207 264 128
2022-06-25 23:32:24 GMT 40.558109 -73.795532 2,000 207 260 128
2022-06-25 23:32:23 GMT 40.560230 -73.794067 1,800 208 262 128
2022-06-25 23:32:21 GMT 40.561291 -73.793343 1,800 208 263 128
2022-06-25 23:32:20 GMT 40.562351 -73.792580 1,800 207 264 128
2022-06-25 23:32:18 GMT 40.564510 -73.791054 1,650 207 263 128
2022-06-25 23:32:17 GMT 40.565620 -73.790298 1,650 207 261 128
2022-06-25 23:32:16 GMT 40.567791 -73.788879 1,650 208 260 128
2022-06-25 23:32:14 GMT 40.568871 -73.788071 1,650 207 257 128
2022-06-25 23:32:13 GMT 40.569881 -73.787369 1,400 207 261 128
2022-06-25 23:32:12 GMT 40.572010 -73.785889 1,400 207 262 128
2022-06-25 23:32:10 GMT 40.573132 -73.785141 1,400 207 257 128
2022-06-25 23:32:09 GMT 40.574162 -73.784439 1,400 207 260 128
2022-06-25 23:32:07 GMT 40.576241 -73.782990 1,400 208 263 128
2022-06-25 23:32:06 GMT 40.577320 -73.782249 1,400 208 260 128
2022-06-25 23:32:04 GMT 40.579460 -73.780792 1,300 208 255 128
2022-06-25 23:32:03 GMT 40.580509 -73.780022 1,300 208 252 128
2022-06-25 23:32:02 GMT 40.581551 -73.779320 1,300 208 250 128
2022-06-25 23:32:01 GMT 40.583611 -73.777870 1,300 209 245 128
2022-06-25 23:31:59 GMT 40.584579 -73.777184 1,275 208 246 128
2022-06-25 23:31:58 GMT 40.585602 -73.776489 1,275 209 243 128
2022-06-25 23:31:56 GMT 40.587589 -73.775108 1,200 209 241 128
2022-06-25 23:31:55 GMT 40.588558 -73.774399 1,200 208 239 128
2022-06-25 23:31:54 GMT 40.590511 -73.773071 1,200 208 237 -64
2022-06-25 23:31:52 GMT 40.591469 -73.772430 1,200 207 236 -64
2022-06-25 23:31:51 GMT 40.592461 -73.771759 1,200 206 233 -64
2022-06-25 23:31:49 GMT 40.594349 -73.770554 1,175 203 232 -64
2022-06-25 23:31:48 GMT 40.595291 -73.769974 1,175 202 232 -64
2022-06-25 23:31:47 GMT 40.597240 -73.768837 1,200 198 226 -64
2022-06-25 23:31:45 GMT 40.598202 -73.768402 1,100 197 226 -64
2022-06-25 23:31:44 GMT 40.599209 -73.767937 1,100 195 221 -64
2022-06-25 23:31:42 GMT 40.601158 -73.767212 1,100 191 217 -64
2022-06-25 23:31:41 GMT 40.602112 -73.766930 1,125 190 218 -64
2022-06-25 23:31:40 GMT 40.604099 -73.766418 1,075 185 210 -64
2022-06-25 23:31:38 GMT 40.605030 -73.766243 1,075 183 211 -64
2022-06-25 23:31:37 GMT 40.605968 -73.766060 1,100 181 212 -64
2022-06-25 23:31:36 GMT 40.607891 -73.765953 1,025 177 211 -64
2022-06-25 23:31:34 GMT 40.608860 -73.765984 950 175 209 -64
2022-06-25 23:31:33 GMT 40.609852 -73.766068 950 174 205 -64
2022-06-25 23:31:31 GMT 40.611759 -73.766296 950 172 198 -64
2022-06-25 23:31:30 GMT 40.612701 -73.766457 950 171 195 -64
2022-06-25 23:31:28 GMT 40.615349 -73.766998 900 168 198 -64
2022-06-25 23:31:26 GMT 40.616219 -73.767220 900 167 199 -64
2022-06-25 23:31:25 GMT 40.617111 -73.767509 900 166 198 -64
2022-06-25 23:31:24 GMT 40.618011 -73.767776 700 164 196 -64
2022-06-25 23:31:23 GMT 40.618858 -73.768112 700 163 196 -64
2022-06-25 23:31:22 GMT 40.620602 -73.768791 700 158 192 -64
2022-06-25 23:31:20 GMT 40.621422 -73.769203 700 156 192 -64
2022-06-25 23:31:19 GMT 40.622219 -73.769600 700 154 194 -64
2022-06-25 23:31:18 GMT 40.623829 -73.770653 700 150 189 -64
2022-06-25 23:31:16 GMT 40.624592 -73.771179 700 147 188 -64
2022-06-25 23:31:14 GMT 40.626068 -73.772369 600 141 187 -64
2022-06-25 23:31:13 GMT 40.626759 -73.773048 600 139 187 -64
2022-06-25 23:31:12 GMT 40.627449 -73.773758 600 136 186 -64
2022-06-25 23:31:10 GMT 40.628700 -73.775291 500 132 186 -64
2022-06-25 23:31:09 GMT 40.629318 -73.776154 450 129 182 -64
2022-06-25 23:31:07 GMT 40.630428 -73.777809 275 125 184 -64
2022-06-25 23:31:06 GMT 40.630939 -73.778709 275 124 184 -64
2022-06-25 23:31:05 GMT 40.631939 -73.780518 225 121 186 -64
2022-06-25 23:31:03 GMT 40.632420 -73.781509 200 121 183 -64
2022-06-25 23:31:02 GMT 40.632870 -73.782387 -50 120 188 -64
2022-06-25 23:31:01 GMT 40.633301 -73.783333 -50 120 190 -64
2022-06-25 23:30:59 GMT 40.634190 -73.785294 -50 120 192 -64
2022-06-25 23:30:58 GMT 40.634628 -73.786263 -50 119 194 -64
2022-06-25 23:30:56 GMT 40.635502 -73.788269 -75 120 191 -64
2022-06-25 23:30:55 GMT 40.635929 -73.789330 -125 121 186 -64
2022-06-25 23:30:54 GMT 40.636398 -73.790298 -125 120 183 -64
2022-06-25 23:30:53 GMT 40.637249 -73.792137 -125 120 185 -64
2022-06-25 23:30:51 GMT 40.637699 -73.793098 -125 119 182 -64
2022-06-25 23:30:49 GMT 40.638531 -73.795029 0 120 174 -64
2022-06-25 23:30:48 GMT 40.638931 -73.795929 0 120 173 -64
2022-06-25 23:30:47 GMT 40.639751 -73.797783 0 121 159 -64
2022-06-25 23:30:45 GMT 40.640160 -73.798630 0 120 155 -64
2022-06-25 23:30:44 GMT 40.640518 -73.799438 0 120 153 -64
2022-06-25 23:30:43 GMT 40.641239 -73.801010 0 120 150 -64
2022-06-25 23:30:41 GMT 40.641609 -73.801819 0 120 145 -64
2022-06-25 23:30:40 GMT 40.642311 -73.803368 0 120 136 -64
2022-06-25 23:30:38 GMT 40.642632 -73.804047 0 120 134 -64
2022-06-25 23:30:37 GMT 40.642929 -73.804718 0 120 134 -64
2022-06-25 23:30:36 GMT 40.643269 -73.805450 0 120 128 -64
2022-06-25 23:30:35 GMT 40.643860 -73.806793 0 119 120 0
2022-06-25 23:30:33 GMT 40.644161 -73.807533 0 121 110 0
2022-06-25 23:30:32 GMT 40.644699 -73.808670 0 120 104 0
2022-06-25 23:30:30 GMT 40.644951 -73.809250 0 121 99 0
2022-06-25 23:30:29 GMT 40.645180 -73.809738 0 121 99 0
2022-06-25 23:30:28 GMT 40.645649 -73.810760 0 121 93 0
2022-06-25 23:30:26 GMT 40.645889 -73.811249 0 120 88 0
2022-06-25 23:30:25 GMT 40.646099 -73.811722 0 120 83 0
2022-06-25 23:30:24 GMT 40.646290 -73.812157 0 120 80 0
2022-06-25 23:30:22 GMT 40.646671 -73.812973 0 119 72 0
2022-06-25 23:30:21 GMT 40.646839 -73.813339 0 119 68 0
2022-06-25 23:30:19 GMT 40.647141 -73.814079 0 121 57 0
2022-06-25 23:30:18 GMT 40.647301 -73.814400 0 120 51 0
2022-06-25 23:30:16 GMT 40.647572 -73.814972 0 117 36 0
2022-06-25 23:30:15 GMT 40.647659 -73.815208 0 118 30 0
2022-06-25 23:30:13 GMT 40.647911 -73.815826 0 117 11 0
2022-06-25 23:30:12 GMT 40.647949 -73.815918 0 117 9 0
2022-06-25 23:30:11 GMT 40.648022 -73.816132 0 118 4 0
2022-06-25 23:30:09 GMT 40.648071 -73.816254 0 120 2 0
2022-06-25 23:30:07 GMT 40.648090 -73.816322 0 120 0 0
2022-06-25 23:30:06 GMT 40.648102 -73.816330 0 120 0 0
2022-06-25 23:30:04 GMT 40.648102 -73.816368 0 120 0 0
2022-06-25 23:30:03 GMT 40.648102 -73.816360 0 120 0 0
2022-06-25 23:30:02 GMT 40.648109 -73.816338 0 120 0 0
2022-06-25 23:30:00 GMT 40.648102 -73.816330 0 120 0 0
2022-06-25 23:29:58 GMT 40.648102 -73.816353 0 120 0 0
2022-06-25 23:29:56 GMT 40.648090 -73.816353 0 120 0 0
2022-06-25 23:29:55 GMT 40.648102 -73.816368 0 120 0 0
2022-06-25 23:29:53 GMT 40.648102 -73.816368 0 120 0 0
2022-06-25 23:29:50 GMT 40.648102 -73.816353 0 120 0 0
2022-06-25 23:29:48 GMT 40.648102 -73.816368 0 120 0 0
2022-06-25 23:29:45 GMT 40.648109 -73.816353 0 120 0 0
2022-06-25 23:29:42 GMT 40.648090 -73.816368 0 120 0 0
2022-06-25 23:29:40 GMT 40.648102 -73.816353 0 120 0 0
2022-06-25 23:29:39 GMT 40.648102 -73.816368 0 120 0 0
2022-06-25 23:29:37 GMT 40.648102 -73.816360 0 120 0 0
2022-06-25 23:29:35 GMT 40.648102 -73.816338 0 120 0 0
2022-06-25 23:29:33 GMT 40.648102 -73.816353 0 120 0 0
2022-06-25 23:29:32 GMT 40.648109 -73.816330 0 120 0 0
2022-06-25 23:29:29 GMT 40.648109 -73.816307 0 120 0 0
2022-06-25 23:29:28 GMT 40.648129 -73.816307 0 120 1 0
2022-06-25 23:29:27 GMT 40.648140 -73.816292 0 120 1
2022-06-25 23:29:26 GMT 40.648151 -73.816254 0 120 2
2022-06-25 23:29:24 GMT 40.648140 -73.816254 0 120 2
2022-06-25 23:29:23 GMT 40.648140 -73.816238 0 120 2
2022-06-25 23:29:22 GMT 40.648109 -73.816231 0 120 0
2022-06-25 23:29:20 GMT 40.648102 -73.816238 0 120 1
2022-06-25 23:29:19 GMT 40.648079 -73.816208 0 120 1
2022-06-25 23:29:18 GMT 40.648102 -73.816231 0 120 0
2022-06-25 23:29:16 GMT 40.648140 -73.816231 0 120 2
2022-06-25 23:29:15 GMT 40.648129 -73.816223 0 120 2
2022-06-25 23:29:13 GMT 40.648129 -73.816208 0 120 2
2022-06-25 23:29:12 GMT 40.648109 -73.816231 0 120 1
2022-06-25 23:29:10 GMT 40.648079 -73.816238 0 120 0
2022-06-25 23:29:09 GMT 40.648090 -73.816231 0 120 0
2022-06-25 23:29:08 GMT 40.648071 -73.816223 0 120 1
2022-06-25 23:29:06 GMT 40.648090 -73.816231 0 120 0
2022-06-25 23:29:04 GMT 40.648071 -73.816261 0 120 1
2022-06-25 23:29:03 GMT 40.648079 -73.816292 0 119 1
2022-06-25 23:29:02 GMT 40.648079 -73.816238 0 119 1
2022-06-25 23:29:00 GMT 40.648079 -73.816231 0 119 1
2022-06-25 23:28:59 GMT 40.648090 -73.816231 0 118 1
2022-06-25 23:28:57 GMT 40.648102 -73.816208 0 117 0
2022-06-25 23:28:55 GMT 40.648090 -73.816177 0 112 4
2022-06-25 23:28:53 GMT 40.648140 -73.816223 0 115 3
2022-06-25 23:28:52 GMT 40.648109 -73.816223 0 113 4
2022-06-25 23:28:51 GMT 40.648090 -73.816254 0 121 5
2022-06-25 23:28:49 GMT 40.648129 -73.816322 0 124 3
2022-06-25 23:28:47 GMT 40.648129 -73.816360 0 126 3
2022-06-25 23:28:46 GMT 40.648140 -73.816360 0 129 4
2022-06-25 23:28:45 GMT 40.648129 -73.816399 0 132 2
2022-06-25 23:28:43 GMT 40.648121 -73.816429 0 143 5
2022-06-25 23:28:42 GMT 40.648151 -73.816429 0 142 4
2022-06-25 23:28:40 GMT 40.648178 -73.816460 0 159 6
2022-06-25 23:28:39 GMT 40.648178 -73.816521 0 181 6
2022-06-25 23:28:38 GMT 40.648232 -73.816559 0 198 6
2022-06-25 23:28:36 GMT 40.648251 -73.816566 0 204 6
2022-06-25 23:28:35 GMT 40.648270 -73.816566 0 208 7
2022-06-25 23:28:33 GMT 40.648331 -73.816559 0 211 7
2022-06-25 23:28:31 GMT 40.648380 -73.816521 0 211 8
2022-06-25 23:28:30 GMT 40.648411 -73.816498 0 212 8
2022-06-25 23:28:28 GMT 40.648472 -73.816460 0 212 8
2022-06-25 23:28:27 GMT 40.648529 -73.816399 0 211 8
2022-06-25 23:28:25 GMT 40.648560 -73.816383 0 211 8
2022-06-25 23:28:24 GMT 40.648602 -73.816353 0 211 8
2022-06-25 23:28:22 GMT 40.648670 -73.816277 0 211 7
2022-06-25 23:28:21 GMT 40.648708 -73.816261 0 212 7
2022-06-25 23:28:19 GMT 40.648781 -73.816200 0 213 6
2022-06-25 23:28:18 GMT 40.648811 -73.816177 0 213 5
2022-06-25 23:28:17 GMT 40.648869 -73.816132 0 211 4
2022-06-25 23:28:15 GMT 40.648891 -73.816109 0 210 4
2022-06-25 23:28:14 GMT 40.648930 -73.816071 0 210 3
2022-06-25 23:28:12 GMT 40.648960 -73.816032 0 210 2
2022-06-25 23:28:10 GMT 40.648979 -73.815987 0 210 2
2022-06-25 23:28:08 GMT 40.648972 -73.815979 0 210 2
2022-06-25 23:28:07 GMT 40.649021 -73.815941 0 210 0
2022-06-25 23:28:06 GMT 40.649040 -73.815941 0 210 0
2022-06-25 23:28:03 GMT 40.649021 -73.815948 0 210 1
2022-06-25 23:28:02 GMT 40.649029 -73.815964 0 210 2
2022-06-25 23:28:01 GMT 40.649059 -73.815941 0 210 2
2022-06-25 23:27:58 GMT 40.649059 -73.815948 0 210 2
2022-06-25 23:27:56 GMT 40.649071 -73.815941 0 210 2
2022-06-25 23:27:55 GMT 40.649090 -73.815918 0 210 2
2022-06-25 23:27:54 GMT 40.649090 -73.815910 0 210 2
2022-06-25 23:27:52 GMT 40.649090 -73.815910 0 210 2
2022-06-25 23:27:51 GMT 40.649101 -73.815910 0 210 2
2022-06-25 23:27:50 GMT 40.649101 -73.815880 0 210 0
2022-06-25 23:27:48 GMT 40.649090 -73.815887 0 210 0
2022-06-25 23:27:47 GMT 40.649090 -73.815903 0 210 0
2022-06-25 23:27:46 GMT 40.649101 -73.815887 0 210 0
2022-06-25 23:27:43 GMT 40.649109 -73.815880 0 210 0
2022-06-25 23:27:41 GMT 40.649090 -73.815903 0 210 0
2022-06-25 23:27:40 GMT 40.649101 -73.815903 0 210 0
2022-06-25 23:27:38 GMT 40.649078 -73.815887 0 210 0
2022-06-25 23:27:35 GMT 40.649090 -73.815903 0 210 0
2022-06-25 23:27:34 GMT 40.649101 -73.815903 0 210 0
2022-06-25 23:27:32 GMT 40.649101 -73.815910 0 210 0
2022-06-25 23:27:30 GMT 40.649101 -73.815918 0 210 0
2022-06-25 23:27:28 GMT 40.649078 -73.815933 0 210 0
2022-06-25 23:27:27 GMT 40.649090 -73.815933 0 210 0
2022-06-25 23:27:24 GMT 40.649090 -73.815941 0 210 0
2022-06-25 23:27:22 GMT 40.649059 -73.815941 0 210 1
2022-06-25 23:27:21 GMT 40.649078 -73.815933 0 210 0
2022-06-25 23:27:17 GMT 40.649101 -73.815933 0 210 0
2022-06-25 23:27:16 GMT 40.649101 -73.815918 0 210 0
2022-06-25 23:27:10 GMT 40.649109 -73.815948 0 211 0
2022-06-25 23:27:08 GMT 40.649109 -73.815948 0 211 0
2022-06-25 23:27:06 GMT 40.649109 -73.815933 0 211 0
2022-06-25 23:27:03 GMT 40.649101 -73.815941 0 211 0
2022-06-25 23:27:02 GMT 40.649101 -73.815948 0 211 0
2022-06-25 23:27:01 GMT 40.649090 -73.815948 0 211 2
2022-06-25 23:26:58 GMT 40.649101 -73.815941 0 211 3
2022-06-25 23:26:57 GMT 40.649109 -73.815941 0 211 3
2022-06-25 23:26:56 GMT 40.649132 -73.815918 0 211 4
2022-06-25 23:26:54 GMT 40.649139 -73.815903 0 211 3
2022-06-25 23:26:53 GMT 40.649170 -73.815880 0 211 3
2022-06-25 23:26:51 GMT 40.649189 -73.815857 0 211 3
2022-06-25 23:26:50 GMT 40.649200 -73.815857 0 211 4
2022-06-25 23:26:49 GMT 40.649231 -73.815842 0 212 3
2022-06-25 23:26:47 GMT 40.649239 -73.815826 0 212 3
2022-06-25 23:26:46 GMT 40.649269 -73.815811 0 213 3
2022-06-25 23:26:44 GMT 40.649281 -73.815804 0 214 3
2022-06-25 23:26:43 GMT 40.649288 -73.815804 0 215 3
2022-06-25 23:26:41 GMT 40.649319 -73.815781 0 218 4
2022-06-25 23:26:40 GMT 40.649330 -73.815773 0 220 4
2022-06-25 23:26:39 GMT 40.649361 -73.815773 0 228 4
2022-06-25 23:26:37 GMT 40.649380 -73.815758 0 234 4
2022-06-25 23:26:36 GMT 40.649399 -73.815758 0 241 5
2022-06-25 23:26:34 GMT 40.649448 -73.815727 0 254 5
2022-06-25 23:26:33 GMT 40.649471 -73.815720 0 262 5
2022-06-25 23:26:32 GMT 40.649490 -73.815689 0 268 5
2022-06-25 23:26:31 GMT 40.649502 -73.815659 0 275 5
2022-06-25 23:26:29 GMT 40.649529 -73.815598 0 290 5
2022-06-25 23:26:28 GMT 40.649540 -73.815567 0 299 5
2022-06-25 23:26:27 GMT 40.649551 -73.815498 0 309 5
2022-06-25 23:26:25 GMT 40.649540 -73.815468 0 310 6
2022-06-25 23:26:24 GMT 40.649529 -73.815453 0 309 6
2022-06-25 23:26:23 GMT 40.649509 -73.815437 0 303 6
2022-06-25 23:26:21 GMT 40.649471 -73.815407 0 297 8
2022-06-25 23:26:20 GMT 40.649448 -73.815399 0 295 9
2022-06-25 23:26:19 GMT 40.649410 -73.815323 0 296 11
2022-06-25 23:26:17 GMT 40.649391 -73.815201 0 298 8
2022-06-25 23:26:16 GMT 40.649368 -73.815163 0 299 9
2022-06-25 23:26:14 GMT 40.649349 -73.815071 0 299 9
2022-06-25 23:26:13 GMT 40.649319 -73.815033 0 299 9
2022-06-25 23:26:11 GMT 40.649281 -73.814934 0 300 10
2022-06-25 23:26:10 GMT 40.649261 -73.814880 0 300 10
2022-06-25 23:26:09 GMT 40.649239 -73.814827 0 299 10
2022-06-25 23:26:08 GMT 40.649220 -73.814789 0 299 10
2022-06-25 23:26:07 GMT 40.649170 -73.814690 0 300 10
2022-06-25 23:26:05 GMT 40.649151 -73.814629 0 300 10
2022-06-25 23:26:03 GMT 40.649101 -73.814522 0 300 11
2022-06-25 23:26:02 GMT 40.649071 -73.814468 0 300 11
2022-06-25 23:26:01 GMT 40.649029 -73.814346 0 300 11
2022-06-25 23:25:59 GMT 40.648998 -73.814301 0 299 11
2022-06-25 23:25:58 GMT 40.648979 -73.814247 0 299 11
2022-06-25 23:25:56 GMT 40.648918 -73.814133 0 299 11
2022-06-25 23:25:55 GMT 40.648899 -73.814079 0 300 11
2022-06-25 23:25:54 GMT 40.648849 -73.813972 0 300 11
2022-06-25 23:25:52 GMT 40.648830 -73.813911 0 300 11
2022-06-25 23:25:51 GMT 40.648811 -73.813850 0 300 11
2022-06-25 23:25:49 GMT 40.648750 -73.813744 0 300 12
2022-06-25 23:25:48 GMT 40.648708 -73.813629 0 301 12
2022-06-25 23:25:46 GMT 40.648682 -73.813568 0 300 12
2022-06-25 23:25:45 GMT 40.648651 -73.813522 0 300 13
2022-06-25 23:25:43 GMT 40.648590 -73.813393 0 300 13
2022-06-25 23:25:42 GMT 40.648560 -73.813316 0 299 13
2022-06-25 23:25:41 GMT 40.648529 -73.813248 0 299 13
2022-06-25 23:25:40 GMT 40.648472 -73.813110 0 299 13
2022-06-25 23:25:38 GMT 40.648430 -73.813042 0 299 13
2022-06-25 23:25:37 GMT 40.648399 -73.812958 0 300 13
2022-06-25 23:25:35 GMT 40.648338 -73.812820 0 300 13
2022-06-25 23:25:34 GMT 40.648319 -73.812752 0 301 13
2022-06-25 23:25:33 GMT 40.648251 -73.812607 0 301 13
2022-06-25 23:25:31 GMT 40.648220 -73.812538 0 302 13
2022-06-25 23:25:30 GMT 40.648190 -73.812477 0 303 13
2022-06-25 23:25:29 GMT 40.648170 -73.812408 0 303 14
2022-06-25 23:25:27 GMT 40.648079 -73.812248 0 300 13
2022-06-25 23:25:26 GMT 40.648041 -73.812187 0 300 14
2022-06-25 23:25:25 GMT 40.648022 -73.812134 0 299 14
2022-06-25 23:25:23 GMT 40.647949 -73.811996 0 298 16
2022-06-25 23:25:22 GMT 40.647911 -73.811867 0 299 14
2022-06-25 23:25:21 GMT 40.647839 -73.811729 0 299 15
2022-06-25 23:25:19 GMT 40.647820 -73.811653 0 301 15
2022-06-25 23:25:17 GMT 40.647758 -73.811501 0 302 16
2022-06-25 23:25:16 GMT 40.647701 -73.811409 0 301 15
2022-06-25 23:25:15 GMT 40.647671 -73.811333 0 301 15
2022-06-25 23:25:13 GMT 40.647591 -73.811180 0 300 15
2022-06-25 23:25:12 GMT 40.647560 -73.811096 0 300 15
2022-06-25 23:25:11 GMT 40.647518 -73.811020 0 299 15
2022-06-25 23:25:09 GMT 40.647449 -73.810860 0 299 15
2022-06-25 23:25:08 GMT 40.647381 -73.810699 0 299 15
2022-06-25 23:25:07 GMT 40.647339 -73.810623 0 298 14
2022-06-25 23:25:05 GMT 40.647301 -73.810539 0 298 14
2022-06-25 23:25:03 GMT 40.647240 -73.810387 0 300 14
2022-06-25 23:25:02 GMT 40.647228 -73.810318 0 305 15
2022-06-25 23:25:01 GMT 40.647190 -73.810242 0 306 15
2022-06-25 23:25:00 GMT 40.647091 -73.810081 0 297 14
2022-06-25 23:24:58 GMT 40.647060 -73.809998 0 299 13
2022-06-25 23:24:57 GMT 40.647011 -73.809860 0 302 15
2022-06-25 23:24:55 GMT 40.646961 -73.809792 0 299 15
2022-06-25 23:24:52 GMT 40.646851 -73.809540 0 299 15
2022-06-25 23:24:51 GMT 40.646809 -73.809448 0 299 14
2022-06-25 23:24:50 GMT 40.646740 -73.809311 0 297 15
2022-06-25 23:24:48 GMT 40.646709 -73.809219 0 298 14
2022-06-25 23:24:47 GMT 40.646690 -73.809143 0 301 15
2022-06-25 23:24:45 GMT 40.646629 -73.808998 0 301 16
2022-06-25 23:24:44 GMT 40.646591 -73.808922 0 301 16
2022-06-25 23:24:43 GMT 40.646469 -73.808731 0 296 13
2022-06-25 23:24:41 GMT 40.646439 -73.808640 0 297 13
2022-06-25 23:24:39 GMT 40.646400 -73.808502 0 299 13
2022-06-25 23:24:38 GMT 40.646370 -73.808449 0 299 15
2022-06-25 23:24:37 GMT 40.646358 -73.808357 0 305 15
2022-06-25 23:24:35 GMT 40.646278 -73.808212 0 304 15
2022-06-25 23:24:34 GMT 40.646191 -73.808067 0 299 16
2022-06-25 23:24:32 GMT 40.646172 -73.807968 0 306 15
2022-06-25 23:24:31 GMT 40.646080 -73.807854 0 298 17
2022-06-25 23:24:29 GMT 40.646030 -73.807762 0 294 16
2022-06-25 23:24:28 GMT 40.646011 -73.807632 0 302 13
2022-06-25 23:24:26 GMT 40.645939 -73.807518 0 299 15
2022-06-25 23:24:25 GMT 40.645901 -73.807449 0 297 16
2022-06-25 23:24:24 GMT 40.645840 -73.807281 0 297 15
2022-06-25 23:24:22 GMT 40.645802 -73.807167 0 304 13
2022-06-25 23:24:21 GMT 40.645790 -73.807098 0 308 14
2022-06-25 23:24:20 GMT 40.645679 -73.806976 0 297 14
2022-06-25 23:24:18 GMT 40.645660 -73.806870 0 303 12
2022-06-25 23:24:17 GMT 40.645641 -73.806824 0 304 14
2022-06-25 23:24:15 GMT 40.645561 -73.806679 0 303 12
2022-06-25 23:24:14 GMT 40.645531 -73.806618 0 302 13
2022-06-25 23:24:13 GMT 40.645500 -73.806580 0 300 14
2022-06-25 23:24:11 GMT 40.645432 -73.806450 0 295 15
2022-06-25 23:24:10 GMT 40.645409 -73.806351 0 300 15
2022-06-25 23:24:09 GMT 40.645329 -73.806168 0 300 10
2022-06-25 23:24:07 GMT 40.645302 -73.806137 0 295 11
2022-06-25 23:24:06 GMT 40.645271 -73.806091 0 292 11
2022-06-25 23:24:04 GMT 40.645248 -73.805969 0 300 14
2022-06-25 23:24:03 GMT 40.645222 -73.805893 0 304 13
2022-06-25 23:24:02 GMT 40.645161 -73.805740 0 308 11
2022-06-25 23:24:00 GMT 40.645130 -73.805710 0 300 12
2022-06-25 23:23:58 GMT 40.645061 -73.805611 0 293 14
2022-06-25 23:23:57 GMT 40.645031 -73.805511 0 297 12
2022-06-25 23:23:56 GMT 40.645000 -73.805428 0 297 10
2022-06-25 23:23:55 GMT 40.644981 -73.805328 0 309 12
2022-06-25 23:23:53 GMT 40.644981 -73.805267 0 313 14
2022-06-25 23:23:52 GMT 40.644909 -73.805229 0 301 14
2022-06-25 23:23:50 GMT 40.644829 -73.805061 0 301 11
2022-06-25 23:23:49 GMT 40.644779 -73.804962 0 301 12
2022-06-25 23:23:47 GMT 40.644741 -73.804901 0 302 10
2022-06-25 23:23:46 GMT 40.644730 -73.804810 0 308 9
2022-06-25 23:23:44 GMT 40.644680 -73.804733 0 304 10
2022-06-25 23:23:43 GMT 40.644650 -73.804703 0 301 11
2022-06-25 23:23:42 GMT 40.644611 -73.804626 0 297 11
2022-06-25 23:23:40 GMT 40.644569 -73.804543 0 295 13
2022-06-25 23:23:39 GMT 40.644539 -73.804482 0 295 13
2022-06-25 23:23:37 GMT 40.644482 -73.804329 0 299 10
2022-06-25 23:23:36 GMT 40.644482 -73.804237 0 307 9
2022-06-25 23:23:35 GMT 40.644409 -73.804207 0 296 12
2022-06-25 23:23:33 GMT 40.644390 -73.804153 0 295 12
2022-06-25 23:23:32 GMT 40.644360 -73.804100 0 296 13
2022-06-25 23:23:30 GMT 40.644310 -73.803963 0 293 11
2022-06-25 23:23:29 GMT 40.644279 -73.803909 0 293 12
2022-06-25 23:23:28 GMT 40.644260 -73.803818 0 295 11
2022-06-25 23:23:27 GMT 40.644230 -73.803680 0 304 9
2022-06-25 23:23:25 GMT 40.644199 -73.803627 0 304 9
2022-06-25 23:23:23 GMT 40.644161 -73.803558 0 303 12
2022-06-25 23:23:21 GMT 40.644100 -73.803429 0 301 10
2022-06-25 23:23:20 GMT 40.644070 -73.803398 0 300 11
2022-06-25 23:23:19 GMT 40.644058 -73.803329 0 304 10
2022-06-25 23:23:17 GMT 40.644009 -73.803253 0 300 12
2022-06-25 23:23:16 GMT 40.643970 -73.803177 0 300 11
2022-06-25 23:23:14 GMT 40.643921 -73.803062 0 299 11
2022-06-25 23:23:13 GMT 40.643902 -73.803001 0 306 12
2022-06-25 23:23:12 GMT 40.643879 -73.802948 0 304 12
2022-06-25 23:23:08 GMT 40.643749 -73.802689 0 299 12
2022-06-25 23:23:06 GMT 40.643688 -73.802582 0 295 13
2022-06-25 23:23:04 GMT 40.643631 -73.802422 0 298 11
2022-06-25 23:23:03 GMT 40.643608 -73.802361 0 299 12
2022-06-25 23:23:02 GMT 40.643589 -73.802277 0 303 10
2022-06-25 23:23:01 GMT 40.643559 -73.802254 0 301 11
2022-06-25 23:23:00 GMT 40.643520 -73.802132 0 306 11
2022-06-25 23:22:58 GMT 40.643490 -73.802094 0 304 12
2022-06-25 23:22:57 GMT 40.643452 -73.802040 0 299 12
2022-06-25 23:22:55 GMT 40.643379 -73.801910 0 299 11
2022-06-25 23:22:54 GMT 40.643360 -73.801842 0 299 10
2022-06-25 23:22:53 GMT 40.643330 -73.801750 0 300 14
2022-06-25 23:22:51 GMT 40.643269 -73.801651 0 297 11
2022-06-25 23:22:50 GMT 40.643250 -73.801582 0 300 10
2022-06-25 23:22:49 GMT 40.643219 -73.801514 0 303 9
2022-06-25 23:22:47 GMT 40.643200 -73.801422 0 308 12
2022-06-25 23:22:46 GMT 40.643162 -73.801392 0 302 14
2022-06-25 23:22:45 GMT 40.643108 -73.801323 0 296 12
2022-06-25 23:22:43 GMT 40.643070 -73.801178 0 304 13
2022-06-25 23:22:42 GMT 40.643040 -73.801102 0 304 12
2022-06-25 23:22:40 GMT 40.642960 -73.800987 0 297 10
2022-06-25 23:22:39 GMT 40.642948 -73.800926 0 300 11
2022-06-25 23:22:38 GMT 40.642921 -73.800888 0 299 12
2022-06-25 23:22:36 GMT 40.642879 -73.800751 0 303 11
2022-06-25 23:22:35 GMT 40.642841 -73.800690 0 302 11
2022-06-25 23:22:34 GMT 40.642780 -73.800591 0 297 11
2022-06-25 23:22:32 GMT 40.642761 -73.800537 0 298 13
2022-06-25 23:22:31 GMT 40.642738 -73.800461 0 300 12
2022-06-25 23:22:29 GMT 40.642681 -73.800346 0 301 12
2022-06-25 23:22:28 GMT 40.642658 -73.800270 0 304 11
2022-06-25 23:22:27 GMT 40.642639 -73.800209 0 306 12
2022-06-25 23:22:25 GMT 40.642570 -73.800117 0 303 13
2022-06-25 23:22:24 GMT 40.642521 -73.799973 0 310 13
2022-06-25 23:22:22 GMT 40.642471 -73.799919 0 311 13
2022-06-25 23:22:21 GMT 40.642441 -73.799828 0 315 12
2022-06-25 23:22:20 GMT 40.642368 -73.799759 0 311 16
2022-06-25 23:22:18 GMT 40.642319 -73.799690 0 311 16
2022-06-25 23:22:17 GMT 40.642200 -73.799522 0 315 11
2022-06-25 23:22:15 GMT 40.642181 -73.799469 0 318 12
2022-06-25 23:22:13 GMT 40.642101 -73.799393 0 316 13
2022-06-25 23:22:12 GMT 40.642059 -73.799316 0 320 13
2022-06-25 23:22:11 GMT 40.642029 -73.799278 0 319 15
2022-06-25 23:22:10 GMT 40.641918 -73.799187 0 308 16
2022-06-25 23:22:08 GMT 40.641869 -73.799088 0 312 14
2022-06-25 23:22:07 GMT 40.641739 -73.799004 0 290 14
2022-06-25 23:22:05 GMT 40.641731 -73.798920 0 293 15
2022-06-25 23:22:04 GMT 40.641708 -73.798851 0 294 16
2022-06-25 23:22:03 GMT 40.641621 -73.798683 0 281 15
2022-06-25 23:22:01 GMT 40.641621 -73.798599 0 288 16
2022-06-25 23:22:00 GMT 40.641602 -73.798470 0 293 13
2022-06-25 23:21:58 GMT 40.641541 -73.798309 0 282 13
2022-06-25 23:21:57 GMT 40.641521 -73.798233 0 274 13
2022-06-25 23:21:55 GMT 40.641479 -73.798119 0 264 17
2022-06-25 23:21:54 GMT 40.641479 -73.797981 0 261 14
2022-06-25 23:21:53 GMT 40.641510 -73.797836 0 267 18
2022-06-25 23:21:51 GMT 40.641491 -73.797668 0 260 15
2022-06-25 23:21:50 GMT 40.641499 -73.797447 0 256 13
2022-06-25 23:21:48 GMT 40.641510 -73.797371 0 259 13
2022-06-25 23:21:47 GMT 40.641541 -73.797310 0 258 14
2022-06-25 23:21:46 GMT 40.641560 -73.797127 0 256 13
2022-06-25 23:21:44 GMT 40.641571 -73.797073 0 258 14
2022-06-25 23:21:43 GMT 40.641602 -73.796967 0 263 12
2022-06-25 23:21:41 GMT 40.641621 -73.796799 0 263 12
2022-06-25 23:21:40 GMT 40.641621 -73.796722 0 261 11
2022-06-25 23:21:39 GMT 40.641609 -73.796593 0 254 12
2022-06-25 23:21:37 GMT 40.641640 -73.796478 0 255 14
2022-06-25 23:21:35 GMT 40.641659 -73.796402 0 255 14
2022-06-25 23:21:34 GMT 40.641689 -73.796204 0 255 11
2022-06-25 23:21:32 GMT 40.641701 -73.796143 0 255 12
2022-06-25 23:21:31 GMT 40.641720 -73.796066 0 255 12
2022-06-25 23:21:29 GMT 40.641739 -73.795937 0 256 13
2022-06-25 23:21:28 GMT 40.641750 -73.795853 0 253 11
2022-06-25 23:21:27 GMT 40.641781 -73.795753 0 249 8
2022-06-25 23:21:26 GMT 40.641781 -73.795639 0 235 8
2022-06-25 23:21:24 GMT 40.641781 -73.795578 0 229 8
2022-06-25 23:21:23 GMT 40.641819 -73.795509 0 227 8
2022-06-25 23:21:21 GMT 40.641842 -73.795486 0 226 9
2022-06-25 23:21:19 GMT 40.641891 -73.795410 0 214 8
2022-06-25 23:21:18 GMT 40.641911 -73.795303 0 209 7
2022-06-25 23:21:17 GMT 40.641930 -73.795288 0 209 7
2022-06-25 23:21:16 GMT 40.641972 -73.795250 0 202 8
2022-06-25 23:21:14 GMT 40.641998 -73.795197 0 197 8
2022-06-25 23:21:13 GMT 40.642101 -73.795113 0 192 6
2022-06-25 23:21:11 GMT 40.642109 -73.795113 0 194 6
2022-06-25 23:21:10 GMT 40.642132 -73.795113 0 195 8
2022-06-25 23:21:09 GMT 40.642181 -73.795120 0 191 10
2022-06-25 23:21:07 GMT 40.642200 -73.795036 0 188 10
2022-06-25 23:21:06 GMT 40.642361 -73.795029 0 190 6
2022-06-25 23:21:04 GMT 40.642391 -73.795029 0 189 6
2022-06-25 23:21:03 GMT 40.642422 -73.795021 0 188 6
2022-06-25 23:21:01 GMT 40.642460 -73.794998 0 183 8
2022-06-25 23:21:00 GMT 40.642490 -73.794983 0 183 8
2022-06-25 23:20:59 GMT 40.642639 -73.795013 0 191 5
2022-06-25 23:20:57 GMT 40.642670 -73.794991 0 187 4
2022-06-25 23:20:56 GMT 40.642719 -73.794937 0 178 3
2022-06-25 23:20:54 GMT 40.642738 -73.794907 0 178 3
2022-06-25 23:20:53 GMT 40.642841 -73.794960 0 188 2
2022-06-25 23:20:51 GMT 40.642879 -73.794968 0 188 1
2022-06-25 23:20:50 GMT 40.642899 -73.794960 0 188 2
2022-06-25 23:20:48 GMT 40.642910 -73.794930 0 188 1
2022-06-25 23:20:47 GMT 40.642921 -73.794930 0 188 1
2022-06-25 23:20:46 GMT 40.642971 -73.794952 0 188 0
2022-06-25 23:20:42 GMT 40.642960 -73.794952 0 188 0
2022-06-25 23:20:41 GMT 40.642979 -73.794952 0 188 0
2022-06-25 23:20:39 GMT 40.642941 -73.794968 0 188 0
2022-06-25 23:20:35 GMT 40.642929 -73.794983 0 188 0
2022-06-25 23:20:24 GMT 40.642929 -73.794968 0 188 0
2022-06-25 23:20:23 GMT 40.642941 -73.794968 0 188 0
2022-06-25 23:20:22 GMT 40.642929 -73.794968 0 188 0
2022-06-25 23:20:17 GMT 40.642941 -73.794968 0 188 1
2022-06-25 23:20:15 GMT 40.642921 -73.794968 0 188 1
2022-06-25 23:20:12 GMT 40.642910 -73.794983 0 188 0
2022-06-25 23:20:11 GMT 40.642891 -73.794991 0 188 1
2022-06-25 23:20:09 GMT 40.642891 -73.794983 0 182 4
2022-06-25 23:20:07 GMT 40.642899 -73.794983 0 182 5
2022-06-25 23:20:06 GMT 40.642948 -73.794983 0 184 5
2022-06-25 23:20:04 GMT 40.642971 -73.794983 0 184 5
2022-06-25 23:20:03 GMT 40.642979 -73.794983 0 185 5
2022-06-25 23:20:02 GMT 40.643021 -73.794983 0 186 6
2022-06-25 23:20:00 GMT 40.643040 -73.794968 0 186 7
2022-06-25 23:19:57 GMT 40.643120 -73.794960 0 187 8
2022-06-25 23:19:56 GMT 40.643150 -73.794960 0 188 8
2022-06-25 23:19:55 GMT 40.643230 -73.794960 0 192 8
2022-06-25 23:19:53 GMT 40.643250 -73.794983 0 194 10
2022-06-25 23:19:51 GMT 40.643299 -73.794937 0 189 13
2022-06-25 23:19:50 GMT 40.643330 -73.794907 0 187 14
2022-06-25 23:19:48 GMT 40.643478 -73.794830 0 171 13
2022-06-25 23:19:47 GMT 40.643532 -73.794823 0 170 14
2022-06-25 23:19:45 GMT 40.643700 -73.794861 0 164 12
2022-06-25 23:19:44 GMT 40.643749 -73.794853 0 160 13
2022-06-25 23:19:43 GMT 40.643860 -73.794952 0 175 13
2022-06-25 23:19:41 GMT 40.643902 -73.794968 0 177 14
2022-06-25 23:19:40 GMT 40.643951 -73.794991 0 181 15
2022-06-25 23:19:38 GMT 40.644138 -73.794937 0 174 14
2022-06-25 23:19:37 GMT 40.644192 -73.794952 0 175 14
2022-06-25 23:19:36 GMT 40.644241 -73.794960 0 176 15
2022-06-25 23:19:34 GMT 40.644371 -73.794991 0 178 16
2022-06-25 23:19:33 GMT 40.644451 -73.794991 0 179 16
2022-06-25 23:19:32 GMT 40.644630 -73.794991 0 173 14
2022-06-25 23:19:30 GMT 40.644680 -73.794983 0 170 16
2022-06-25 23:19:29 GMT 40.644718 -73.794998 0 174 20
2022-06-25 23:19:27 GMT 40.644951 -73.795013 0 171 19
2022-06-25 23:19:26 GMT 40.645039 -73.795021 0 170 18
2022-06-25 23:19:25 GMT 40.645111 -73.795021 0 168 19
2022-06-25 23:19:24 GMT 40.645290 -73.795029 0 163 20
2022-06-25 23:19:22 GMT 40.645370 -73.795052 0 162 20
2022-06-25 23:19:20 GMT 40.645538 -73.795113 0 161 21
2022-06-25 23:19:19 GMT 40.645649 -73.795120 0 156 21
2022-06-25 23:19:18 GMT 40.645741 -73.795151 0 154 21
2022-06-25 23:19:16 GMT 40.645920 -73.795242 0 151 21
2022-06-25 23:19:15 GMT 40.646011 -73.795288 0 151 21
2022-06-25 23:19:14 GMT 40.646091 -73.795326 0 148 22
2022-06-25 23:19:12 GMT 40.646259 -73.795448 0 145 23
2022-06-25 23:19:11 GMT 40.646431 -73.795624 0 145 21
2022-06-25 23:19:09 GMT 40.646511 -73.795670 0 145 22
2022-06-25 23:19:08 GMT 40.646679 -73.795799 0 139 23
2022-06-25 23:19:06 GMT 40.646770 -73.795853 0 135 25
2022-06-25 23:19:05 GMT 40.646832 -73.796051 0 149 23
2022-06-25 23:19:04 GMT 40.646912 -73.796127 0 150 23
2022-06-25 23:19:03 GMT 40.647091 -73.796310 0 152 22
2022-06-25 23:19:01 GMT 40.647179 -73.796410 0 151 22
2022-06-25 23:19:00 GMT 40.647282 -73.796440 0 146 23
2022-06-25 23:18:59 GMT 40.647449 -73.796570 0 150 23
2022-06-25 23:18:57 GMT 40.647541 -73.796638 0 153 23
2022-06-25 23:18:56 GMT 40.647629 -73.796700 0 156 23
2022-06-25 23:18:54 GMT 40.647800 -73.796860 0 168 23
2022-06-25 23:18:53 GMT 40.647942 -73.796928 0 173 21
2022-06-25 23:18:52 GMT 40.648029 -73.796944 0 174 21
2022-06-25 23:18:50 GMT 40.648232 -73.797020 0 181 22
2022-06-25 23:18:48 GMT 40.648540 -73.796989 0 177 21
2022-06-25 23:18:46 GMT 40.648640 -73.796982 0 175 22
2022-06-25 23:18:45 GMT 40.648750 -73.797058 0 184 21
2022-06-25 23:18:43 GMT 40.648949 -73.797028 0 184 19
2022-06-25 23:18:42 GMT 40.649029 -73.797020 0 183 20
2022-06-25 23:18:41 GMT 40.649200 -73.796951 0 171 21
2022-06-25 23:18:39 GMT 40.649300 -73.796967 0 171 22
2022-06-25 23:18:38 GMT 40.649502 -73.796982 0 179 21
2022-06-25 23:18:37 GMT 40.649601 -73.796982 0 183 21
2022-06-25 23:18:35 GMT 40.649719 -73.797089 0 206 20
2022-06-25 23:18:34 GMT 40.649860 -73.797012 0 207 23
2022-06-25 23:18:32 GMT 40.649971 -73.796959 0 213 21
2022-06-25 23:18:31 GMT 40.650089 -73.796921 0 220 20
2022-06-25 23:18:30 GMT 40.650249 -73.796761 0 222 19
2022-06-25 23:18:28 GMT 40.650330 -73.796677 0 223 19
2022-06-25 23:18:27 GMT 40.650391 -73.796654 0 229 21
2022-06-25 23:18:26 GMT 40.650532 -73.796463 0 233 20
2022-06-25 23:18:24 GMT 40.650620 -73.796349 0 239 17
2022-06-25 23:18:23 GMT 40.650688 -73.796188 0 239 19
2022-06-25 23:18:21 GMT 40.650742 -73.796066 0 239 17
2022-06-25 23:18:20 GMT 40.650768 -73.795959 0 231 17
2022-06-25 23:18:19 GMT 40.650860 -73.795822 0 238 18
2022-06-25 23:18:17 GMT 40.650909 -73.795738 0 240 19
2022-06-25 23:18:16 GMT 40.651009 -73.795532 0 240 18
2022-06-25 23:18:14 GMT 40.651051 -73.795441 0 240 18
2022-06-25 23:18:13 GMT 40.651100 -73.795349 0 242 18
2022-06-25 23:18:12 GMT 40.651169 -73.795174 0 242 19
2022-06-25 23:18:10 GMT 40.651211 -73.795067 0 242 20
2022-06-25 23:18:09 GMT 40.651230 -73.794937 0 235 19
2022-06-25 23:18:08 GMT 40.651321 -73.794769 0 236 21
2022-06-25 23:18:06 GMT 40.651360 -73.794662 0 234 22
2022-06-25 23:18:05 GMT 40.651501 -73.794441 0 237 20
2022-06-25 23:18:03 GMT 40.651562 -73.794319 0 237 19
2022-06-25 23:18:02 GMT 40.651611 -73.794220 0 238 19
2022-06-25 23:18:00 GMT 40.651711 -73.794060 0 244 21
2022-06-25 23:17:59 GMT 40.651772 -73.793953 0 246 20
2022-06-25 23:17:58 GMT 40.651810 -73.793831 0 240 20
2022-06-25 23:17:56 GMT 40.651859 -73.793640 0 241 23
2022-06-25 23:17:55 GMT 40.651920 -73.793510 0 246 21
2022-06-25 23:17:54 GMT 40.652039 -73.793282 0 266 20
2022-06-25 23:17:52 GMT 40.652100 -73.793213 0 272 23
2022-06-25 23:17:51 GMT 40.652100 -73.792877 0 274 20
2022-06-25 23:17:49 GMT 40.652100 -73.792763 0 275 20
2022-06-25 23:17:48 GMT 40.652081 -73.792641 0 273 20
2022-06-25 23:17:46 GMT 40.652081 -73.792381 0 281 19
2022-06-25 23:17:45 GMT 40.652081 -73.792290 0 285 21
2022-06-25 23:17:44 GMT 40.652050 -73.792160 0 285 21
2022-06-25 23:17:43 GMT 40.652012 -73.792053 0 280 21
2022-06-25 23:17:41 GMT 40.651970 -73.791809 0 280 23
2022-06-25 23:17:40 GMT 40.651981 -73.791679 0 289 23
2022-06-25 23:17:39 GMT 40.651890 -73.791397 0 283 19
2022-06-25 23:17:37 GMT 40.651859 -73.791313 0 279 20
2022-06-25 23:17:36 GMT 40.651871 -73.791199 0 286 21
2022-06-25 23:17:35 GMT 40.651798 -73.790932 0 286 20
2022-06-25 23:17:33 GMT 40.651791 -73.790848 0 289 23
2022-06-25 23:17:32 GMT 40.651718 -73.790581 0 290 21
2022-06-25 23:17:30 GMT 40.651691 -73.790482 0 289 23
2022-06-25 23:17:29 GMT 40.651642 -73.790298 0 289 19
2022-06-25 23:17:28 GMT 40.651619 -73.790176 0 292 19
2022-06-25 23:17:26 GMT 40.651539 -73.789932 0 289 16
2022-06-25 23:17:25 GMT 40.651482 -73.789833 0 280 22
2022-06-25 23:17:23 GMT 40.651451 -73.789658 0 279 19
2022-06-25 23:17:22 GMT 40.651421 -73.789452 0 276 21
2022-06-25 23:17:20 GMT 40.651402 -73.789330 0 275 22
2022-06-25 23:17:19 GMT 40.651402 -73.789146 0 277 19
2022-06-25 23:17:17 GMT 40.651360 -73.788902 0 270 16
2022-06-25 23:17:16 GMT 40.651348 -73.788811 0 265 16
2022-06-25 23:17:15 GMT 40.651348 -73.788727 0 262 18
2022-06-25 23:17:13 GMT 40.651360 -73.788521 0 262 19
2022-06-25 23:17:12 GMT 40.651371 -73.788437 0 262 21
2022-06-25 23:17:10 GMT 40.651379 -73.788139 0 254 18
2022-06-25 23:17:09 GMT 40.651379 -73.787987 0 250 18
2022-06-25 23:17:08 GMT 40.651379 -73.787888 0 248 18
2022-06-25 23:17:07 GMT 40.651409 -73.787781 0 248 17
2022-06-25 23:17:06 GMT 40.651470 -73.787582 0 246 17
2022-06-25 23:17:04 GMT 40.651501 -73.787483 0 246 18
2022-06-25 23:17:03 GMT 40.651531 -73.787361 0 242 16
2022-06-25 23:17:02 GMT 40.651600 -73.787209 0 245 17
2022-06-25 23:17:00 GMT 40.651630 -73.787048 0 246 12
2022-06-25 23:16:59 GMT 40.651691 -73.786980 0 251 11
2022-06-25 23:16:57 GMT 40.651718 -73.786858 0 252 14
2022-06-25 23:16:56 GMT 40.651741 -73.786781 0 245 13
2022-06-25 23:16:54 GMT 40.651760 -73.786621 0 235 14
2022-06-25 23:16:53 GMT 40.651791 -73.786537 0 236 15
2022-06-25 23:16:51 GMT 40.651871 -73.786377 0 235 14
2022-06-25 23:16:50 GMT 40.651920 -73.786278 0 233 11
2022-06-25 23:16:49 GMT 40.651951 -73.786232 0 234 11
2022-06-25 23:16:48 GMT 40.652000 -73.786140 0 236 14
2022-06-25 23:16:46 GMT 40.652061 -73.786041 0 238 11
2022-06-25 23:16:45 GMT 40.652130 -73.785942 0 246 10
2022-06-25 23:16:43 GMT 40.652161 -73.785858 0 244 8
2022-06-25 23:16:42 GMT 40.652161 -73.785820 0 242 9
2022-06-25 23:16:40 GMT 40.652180 -73.785744 0 241 12
2022-06-25 23:16:39 GMT 40.652222 -73.785667 0 241 11
2022-06-25 23:16:37 GMT 40.652279 -73.785561 0 245 9
2022-06-25 23:16:35 GMT 40.652260 -73.785461 0 230 12
2022-06-25 23:16:34 GMT 40.652340 -73.785370 0 238 13
2022-06-25 23:16:32 GMT 40.652390 -73.785294 0 240 12
2022-06-25 23:16:31 GMT 40.652409 -73.785233 0 242 12
2022-06-25 23:16:30 GMT 40.652458 -73.785141 0 244 15
2022-06-25 23:16:28 GMT 40.652489 -73.785042 0 246 14
2022-06-25 23:16:26 GMT 40.652561 -73.784889 0 255 9
2022-06-25 23:16:25 GMT 40.652580 -73.784866 0 257 12
2022-06-25 23:16:24 GMT 40.652599 -73.784752 0 258 9
2022-06-25 23:16:22 GMT 40.652618 -73.784630 0 258 8
2022-06-25 23:16:21 GMT 40.652618 -73.784592 0 260 9
2022-06-25 23:16:20 GMT 40.652672 -73.784492 0 272 10
2022-06-25 23:16:18 GMT 40.652691 -73.784431 0 277 10
2022-06-25 23:16:17 GMT 40.652679 -73.784370 0 276 11
2022-06-25 23:16:15 GMT 40.652672 -73.784248 0 279 12
2022-06-25 23:16:14 GMT 40.652660 -73.784172 0 282 11
2022-06-25 23:16:13 GMT 40.652672 -73.784027 0 291 11
2022-06-25 23:16:11 GMT 40.652672 -73.783974 0 295 11
2022-06-25 23:16:09 GMT 40.652649 -73.783852 0 300 11
2022-06-25 23:16:08 GMT 40.652630 -73.783783 0 305 11
2022-06-25 23:16:07 GMT 40.652611 -73.783691 0 308 9
2022-06-25 23:16:06 GMT 40.652531 -73.783623 0 298 10
2022-06-25 23:16:04 GMT 40.652500 -73.783562 0 298 10
2022-06-25 23:16:03 GMT 40.652451 -73.783463 0 294 10
2022-06-25 23:16:01 GMT 40.652439 -73.783379 0 296 8
2022-06-25 23:16:00 GMT 40.652431 -73.783340 0 292 8
2022-06-25 23:15:58 GMT 40.652382 -73.783279 0 285 11
2022-06-25 23:15:57 GMT 40.652370 -73.783188 0 295 9
2022-06-25 23:15:55 GMT 40.652340 -73.783089 0 297 9
2022-06-25 23:15:54 GMT 40.652328 -73.783020 0 303 9
2022-06-25 23:15:52 GMT 40.652302 -73.782921 0 304 9
2022-06-25 23:15:51 GMT 40.652241 -73.782898 0 300 9
2022-06-25 23:15:49 GMT 40.652199 -73.782799 0 303 8
2022-06-25 23:15:48 GMT 40.652180 -73.782738 0 305 8
2022-06-25 23:15:47 GMT 40.652168 -73.782692 0 308 7
2022-06-25 23:15:45 GMT 40.652142 -73.782600 0 310 7
2022-06-25 23:15:44 GMT 40.652119 -73.782570 0 307 7
2022-06-25 23:15:42 GMT 40.652061 -73.782532 0 294 8
2022-06-25 23:15:41 GMT 40.652039 -73.782501 0 294 9
2022-06-25 23:15:40 GMT 40.652031 -73.782433 0 298 8
2022-06-25 23:15:38 GMT 40.651989 -73.782349 0 296 7
2022-06-25 23:15:37 GMT 40.651981 -73.782341 0 299 9
2022-06-25 23:15:35 GMT 40.651939 -73.782227 0 296 6
2022-06-25 23:15:34 GMT 40.651939 -73.782188 0 299 6
2022-06-25 23:15:33 GMT 40.651909 -73.782120 0 300 6
2022-06-25 23:15:31 GMT 40.651901 -73.782089 0 301 5
2022-06-25 23:15:30 GMT 40.651890 -73.782059 0 300 6
2022-06-25 23:15:28 GMT 40.651859 -73.782013 0 303 6
2022-06-25 23:15:27 GMT 40.651840 -73.781982 0 304 6
2022-06-25 23:15:26 GMT 40.651840 -73.781952 0 304 6
2022-06-25 23:15:24 GMT 40.651791 -73.781914 0 301 8
2022-06-25 23:15:23 GMT 40.651779 -73.781868 0 307 7
2022-06-25 23:15:21 GMT 40.651779 -73.781769 0 328 8
2022-06-25 23:15:20 GMT 40.651680 -73.781723 0 289 5
2022-06-25 23:15:18 GMT 40.651669 -73.781700 0 281 5
2022-06-25 23:15:17 GMT 40.651600 -73.781754 0 285 7
2022-06-25 23:15:16 GMT 40.651619 -73.781593 0 304 1
2022-06-25 23:15:14 GMT 40.651630 -73.781616 0 306 4
2022-06-25 23:15:13 GMT 40.651642 -73.781593 0 312 5
2022-06-25 23:15:11 GMT 40.651581 -73.781570 0 293 5
2022-06-25 23:15:10 GMT 40.651562 -73.781563 0 294 5
2022-06-25 23:15:09 GMT 40.651550 -73.781479 0 299 3
2022-06-25 23:15:07 GMT 40.651539 -73.781464 0 302 3
2022-06-25 23:15:06 GMT 40.651562 -73.781441 0 308 4
2022-06-25 23:15:05 GMT 40.651550 -73.781418 0 306 4
2022-06-25 23:15:03 GMT 40.651520 -73.781380 0 297 4
2022-06-25 23:15:02 GMT 40.651501 -73.781357 0 291 3
2022-06-25 23:15:01 GMT 40.651520 -73.781326 0 289 4
2022-06-25 23:15:00 GMT 40.651459 -73.781349 0 287 5
2022-06-25 23:14:58 GMT 40.651440 -73.781303 0 315 3
2022-06-25 23:14:57 GMT 40.651451 -73.781227 0 317 0
2022-06-25 23:14:55 GMT 40.651451 -73.781219 0 317 1
2022-06-25 23:14:54 GMT 40.651459 -73.781219 0 317 2
2022-06-25 23:14:52 GMT 40.651459 -73.781212 0 317 3
2022-06-25 23:14:49 GMT 40.651440 -73.781181 0 319 3
2022-06-25 23:14:48 GMT 40.651451 -73.781143 0 319 2
2022-06-25 23:14:47 GMT 40.651440 -73.781128 0 319 2
2022-06-25 23:14:45 GMT 40.651390 -73.781113 0 334 4
2022-06-25 23:14:44 GMT 40.651379 -73.781090 0 23 5
2022-06-25 23:14:43 GMT 40.651329 -73.780983 0 70 0
2022-06-25 23:14:41 GMT 40.651348 -73.780991 0 70 0
2022-06-25 23:14:39 GMT 40.651348 -73.780998 0 70 0
2022-06-25 23:14:38 GMT 40.651348 -73.780991 0 70 0
2022-06-25 23:14:37 GMT 40.651329 -73.780952 0 70 0
2022-06-25 23:14:35 GMT 40.651348 -73.780960 0 70 0
2022-06-25 23:14:33 GMT 40.651321 -73.780952 0 70 0
2022-06-25 23:14:31 GMT 40.651321 -73.780952 0 70 0
2022-06-25 23:14:30 GMT 40.651348 -73.780983 0 70 0
2022-06-25 23:14:28 GMT 40.651348 -73.780983 0 70 0
2022-06-25 23:14:26 GMT 40.651321 -73.780960 0 70 0
2022-06-25 23:14:25 GMT 40.651329 -73.780983 0 70 0
2022-06-25 23:14:24 GMT 40.651329 -73.780991 0 70 0
2022-06-25 23:14:23 GMT 40.651310 -73.780960 0 70 0
2022-06-25 23:14:21 GMT 40.651321 -73.780960 0 70 0
2022-06-25 23:14:20 GMT 40.651329 -73.780991 0 70 0
2022-06-25 23:14:18 GMT 40.651329 -73.780983 0 70 2
2022-06-25 23:14:17 GMT 40.651310 -73.780952 0 70 2
2022-06-25 23:14:15 GMT 40.651329 -73.780968 0 70 2
2022-06-25 23:14:14 GMT 40.651329 -73.780983 0 70 2
2022-06-25 23:14:12 GMT 40.651310 -73.780937 0 70 2
2022-06-25 23:14:10 GMT 40.651329 -73.780968 0 70 2
2022-06-25 23:14:09 GMT 40.651310 -73.780922 0 70 2
2022-06-25 23:14:08 GMT 40.651310 -73.780922 0 70 2
2022-06-25 23:14:06 GMT 40.651310 -73.780937 0 70 2
2022-06-25 23:14:05 GMT 40.651329 -73.780968 0 70 2
2022-06-25 23:14:03 GMT 40.651329 -73.780983 0 70 2
2022-06-25 23:14:02 GMT 40.651310 -73.780952 0 70 2
2022-06-25 23:14:01 GMT 40.651329 -73.780983 0 70 2
2022-06-25 23:13:59 GMT 40.651310 -73.780922 0 70 2
2022-06-25 23:13:58 GMT 40.651310 -73.780922 0 70 2
2022-06-25 23:13:56 GMT 40.651310 -73.780937 0 70 2
2022-06-25 23:13:55 GMT 40.651310 -73.780922 0 70 2
2022-06-25 23:13:53 GMT 40.651340 -73.780960 0 70 2
2022-06-25 23:13:52 GMT 40.651321 -73.780930 0 70 2
2022-06-25 23:13:51 GMT 40.651329 -73.780930 0 70 2
2022-06-25 23:13:50 GMT 40.651329 -73.780960 0 70 2
2022-06-25 23:13:48 GMT 40.651340 -73.780960 0 70 2
2022-06-25 23:13:47 GMT 40.651321 -73.780930 0 70 2
2022-06-25 23:13:45 GMT 40.651340 -73.780968 0 70 2
2022-06-25 23:13:44 GMT 40.651348 -73.780960 0 70 2
2022-06-25 23:13:43 GMT 40.651310 -73.780930 0 70 2
2022-06-25 23:13:41 GMT 40.651310 -73.780937 0 70 2
2022-06-25 23:13:40 GMT 40.651321 -73.780960 0 70 2
2022-06-25 23:13:38 GMT 40.651329 -73.780968 0 70 2
2022-06-25 23:13:37 GMT 40.651310 -73.780937 0 70 2
2022-06-25 23:13:35 GMT 40.651321 -73.780960 0 70 2
2022-06-25 23:13:33 GMT 40.651329 -73.780968 0 70 2
2022-06-25 23:13:32 GMT 40.651310 -73.780937 0 70 2
2022-06-25 23:13:31 GMT 40.651321 -73.780960 0 70 2
2022-06-25 23:13:29 GMT 40.651310 -73.780922 0 70 2
2022-06-25 23:13:28 GMT 40.651329 -73.780960 0 70 2
2022-06-25 23:13:27 GMT 40.651321 -73.780952 0 70 2
2022-06-25 23:13:25 GMT 40.651340 -73.780960 0 70 2
2022-06-25 23:13:24 GMT 40.651329 -73.780960 0 70 0
2022-06-25 23:13:22 GMT 40.651310 -73.780922 0 70 0
2022-06-25 23:13:21 GMT 40.651310 -73.780937 0 70 2
2022-06-25 23:13:20 GMT 40.651329 -73.780960 0 70 2
2022-06-25 23:13:18 GMT 40.651321 -73.780952 0 70 2
2022-06-25 23:13:17 GMT 40.651299 -73.780907 0 70 2
2022-06-25 23:13:16 GMT 40.651329 -73.780952 0 70 2
2022-06-25 23:13:14 GMT 40.651340 -73.781013 0 70 1
2022-06-25 23:13:13 GMT 40.651310 -73.780937 0 70 2
2022-06-25 23:13:11 GMT 40.651340 -73.780960 0 70 1
2022-06-25 23:13:10 GMT 40.651348 -73.781021 0 70 0
2022-06-25 23:13:08 GMT 40.651340 -73.780952 0 70 1
2022-06-25 23:13:07 GMT 40.651310 -73.780937 0 70 1
2022-06-25 23:13:04 GMT 40.651340 -73.780983 0 70 0
2022-06-25 23:13:02 GMT 40.651329 -73.780960 0 70 1
2022-06-25 23:13:01 GMT 40.651340 -73.780991 0 70 1
2022-06-25 23:13:00 GMT 40.651360 -73.781021 0 70 1
2022-06-25 23:12:58 GMT 40.651371 -73.781029 0 70 1
2022-06-25 23:12:57 GMT 40.651348 -73.781013 0 70 1
2022-06-25 23:12:56 GMT 40.651390 -73.781067 0 70 1
2022-06-25 23:12:53 GMT 40.651402 -73.781090 0 70 1
2022-06-25 23:12:51 GMT 40.651402 -73.781082 0 70 1
2022-06-25 23:12:49 GMT 40.651402 -73.781059 0 70 1
2022-06-25 23:12:48 GMT 40.651409 -73.781059 0 70 1
2022-06-25 23:12:47 GMT 40.651409 -73.781052 0 70 2
2022-06-25 23:12:46 GMT 40.651421 -73.781067 0 70 1
2022-06-25 23:12:44 GMT 40.651428 -73.781067 0 70 2
2022-06-25 23:12:42 GMT 40.651421 -73.781067 0 70 2
2022-06-25 23:12:41 GMT 40.651409 -73.781067 0 70 2
2022-06-25 23:12:40 GMT 40.651409 -73.781097 0 70 2
2022-06-25 23:12:38 GMT 40.651379 -73.781143 0 70 2
2022-06-25 23:12:37 GMT 40.651371 -73.781151 0 70 2
2022-06-25 23:12:35 GMT 40.651348 -73.781143 0 70 3
2022-06-25 23:12:34 GMT 40.651390 -73.781090 0 70 2
2022-06-25 23:12:32 GMT 40.651371 -73.781082 0 70 2
2022-06-25 23:12:26 GMT 40.651379 -73.781029 0 70 0
2022-06-25 23:12:24 GMT 40.651371 -73.781029 0 70 0
2022-06-25 23:12:23 GMT 40.651360 -73.781021 0 70 0
2022-06-25 23:12:22 GMT 40.651360 -73.781021 0 70 0
2022-06-25 23:12:20 GMT 40.651360 -73.781021 0 70 0
2022-06-25 23:12:18 GMT 40.651360 -73.781013 0 70 0
2022-06-25 23:12:16 GMT 40.651360 -73.780998 0 70 1
2022-06-25 23:12:14 GMT 40.651340 -73.780998 0 70 1
2022-06-25 23:12:13 GMT 40.651329 -73.780998 0 70 1
2022-06-25 23:12:12 GMT 40.651329 -73.780983 0 66 3
2022-06-25 23:12:10 GMT 40.651390 -73.780899 0 77 5
2022-06-25 23:12:09 GMT 40.651379 -73.780899 0 106 6
2022-06-25 23:12:07 GMT 40.651299 -73.780960 0 179 0
2022-06-25 23:12:05 GMT 40.651279 -73.780960 0 179 1
2022-06-25 23:12:03 GMT 40.651279 -73.780952 0 179 3
2022-06-25 23:12:02 GMT 40.651279 -73.780960 0 179 2
2022-06-25 23:12:01 GMT 40.651291 -73.780960 0 179 3
2022-06-25 23:12:00 GMT 40.651310 -73.780968 0 159 3
2022-06-25 23:11:59 GMT 40.651348 -73.780899 0 159 2
2022-06-25 23:11:57 GMT 40.651340 -73.780899 0 159 2
2022-06-25 23:11:55 GMT 40.651299 -73.780907 0 159 1
2022-06-25 23:11:54 GMT 40.651291 -73.780922 0 159 2
2022-06-25 23:11:53 GMT 40.651272 -73.780922 0 157 4
2022-06-25 23:11:50 GMT 40.651348 -73.780930 0 157 1
2022-06-25 23:11:49 GMT 40.651348 -73.780922 0 157 1
2022-06-25 23:11:47 GMT 40.651340 -73.780899 0 159 3
2022-06-25 23:11:46 GMT 40.651340 -73.780930 0 161 3
2022-06-25 23:11:44 GMT 40.651321 -73.780983 0 161 1
2022-06-25 23:11:42 GMT 40.651321 -73.780983 0 163 2
2022-06-25 23:11:41 GMT 40.651321 -73.780991 0 163 2
2022-06-25 23:11:40 GMT 40.651360 -73.780968 0 163 2
2022-06-25 23:11:38 GMT 40.651360 -73.780983 0 163 2
2022-06-25 23:11:37 GMT 40.651360 -73.780998 0 163 2
2022-06-25 23:11:35 GMT 40.651371 -73.781021 0 163 2
2022-06-25 23:11:34 GMT 40.651371 -73.781029 0 163 2
2022-06-25 23:11:32 GMT 40.651360 -73.781097 0 163 3
2022-06-25 23:11:31 GMT 40.651371 -73.781052 0 161 1
2022-06-25 23:11:30 GMT 40.651348 -73.781059 0 161 3
2022-06-25 23:11:28 GMT 40.651390 -73.780998 0 140 5
2022-06-25 23:11:27 GMT 40.651340 -73.780937 0 116 7
2022-06-25 23:11:25 GMT 40.651340 -73.780899 0 72 8
2022-06-25 23:11:24 GMT 40.651329 -73.780907 0 33 4
2022-06-25 23:11:22 GMT 40.651402 -73.781029 0 33 2
2022-06-25 23:11:21 GMT 40.651550 -73.781174 0 33 1
2022-06-25 23:11:20 GMT 40.651539 -73.781113 0 33 2
2022-06-25 23:11:18 GMT 40.651531 -73.781082 0 33 1
2022-06-25 23:11:17 GMT 40.651531 -73.781059 0 33 1
2022-06-25 23:11:15 GMT 40.651531 -73.780998 0 33 3
2022-06-25 23:11:14 GMT 40.651520 -73.781021 0 31 3
2022-06-25 23:11:13 GMT 40.651508 -73.781029 0 29 3
2022-06-25 23:11:11 GMT 40.651451 -73.781090 0 29 3
2022-06-25 23:11:10 GMT 40.651470 -73.781067 0 29 3
2022-06-25 23:11:08 GMT 40.651482 -73.781082 0 29 2
2022-06-25 23:11:07 GMT 40.651489 -73.781090 0 29 2
2022-06-25 23:11:06 GMT 40.651539 -73.781090 0 29 2
2022-06-25 23:11:04 GMT 40.651539 -73.781113 0 29 3
2022-06-25 23:11:02 GMT 40.651520 -73.781151 0 29 3
2022-06-25 23:10:59 GMT 40.651489 -73.781181 0 29 0
2022-06-25 23:10:56 GMT 40.651489 -73.781189 0 29 0
2022-06-25 23:10:55 GMT 40.651482 -73.781181 0 29 1
2022-06-25 23:10:53 GMT 40.651482 -73.781181 0 29 2
2022-06-25 23:10:52 GMT 40.651482 -73.781189 0 29 2
2022-06-25 23:10:51 GMT 40.651489 -73.781197 0 29 1
2022-06-25 23:10:50 GMT 40.651501 -73.781219 0 29 2
2022-06-25 23:10:47 GMT 40.651482 -73.781227 0 29 4
2022-06-25 23:10:45 GMT 40.651508 -73.781227 0 29 4
2022-06-25 23:10:44 GMT 40.651508 -73.781273 0 29 2
2022-06-25 23:10:42 GMT 40.651531 -73.781303 0 29 1
2022-06-25 23:10:41 GMT 40.651520 -73.781319 0 29 1
2022-06-25 23:10:39 GMT 40.651520 -73.781281 0 29 0
2022-06-25 23:10:38 GMT 40.651508 -73.781273 0 29 1
2022-06-25 23:10:37 GMT 40.651520 -73.781273 0 29 1
2022-06-25 23:10:35 GMT 40.651520 -73.781281 0 27 2
2022-06-25 23:10:34 GMT 40.651508 -73.781311 0 23 2
2022-06-25 23:10:32 GMT 40.651489 -73.781319 0 23 1
2022-06-25 23:10:31 GMT 40.651489 -73.781326 0 23 1
2022-06-25 23:10:29 GMT 40.651482 -73.781357 0 23 2
2022-06-25 23:10:28 GMT 40.651470 -73.781372 0 23 2
2022-06-25 23:10:27 GMT 40.651470 -73.781357 0 23 2
2022-06-25 23:10:25 GMT 40.651459 -73.781387 0 23 1
2022-06-25 23:10:24 GMT 40.651451 -73.781403 0 23 1
2022-06-25 23:10:23 GMT 40.651390 -73.781433 0 23 1
2022-06-25 23:10:20 GMT 40.651390 -73.781441 0 23 1
2022-06-25 23:10:18 GMT 40.651379 -73.781403 0 23 1
2022-06-25 23:10:17 GMT 40.651379 -73.781410 0 23 1
2022-06-25 23:10:16 GMT 40.651390 -73.781532 0 23 2
2022-06-25 23:10:14 GMT 40.651421 -73.781471 0 23 1
2022-06-25 23:10:13 GMT 40.651440 -73.781448 0 23 1
2022-06-25 23:10:11 GMT 40.651482 -73.781403 0 23 2
2022-06-25 23:10:10 GMT 40.651501 -73.781372 0 23 2
2022-06-25 23:10:09 GMT 40.651489 -73.781418 0 23 3
2022-06-25 23:10:07 GMT 40.651482 -73.781433 0 23 3
2022-06-25 23:10:06 GMT 40.651470 -73.781433 0 23 4
2022-06-25 23:10:04 GMT 40.651459 -73.781464 0 13 5
2022-06-25 23:10:03 GMT 40.651440 -73.781464 0 13 5
2022-06-25 23:10:01 GMT 40.651390 -73.781502 0 4 3
2022-06-25 23:10:00 GMT 40.651371 -73.781502 0 356 2
2022-06-25 23:09:58 GMT 40.651299 -73.781570 0 356 3
2022-06-25 23:09:57 GMT 40.651299 -73.781563 0 356 2
2022-06-25 23:09:55 GMT 40.651310 -73.781502 0 356 2
2022-06-25 23:09:54 GMT 40.651321 -73.781517 0 356 2
2022-06-25 23:09:53 GMT 40.651390 -73.781509 0 356 3
2022-06-25 23:09:52 GMT 40.651371 -73.781502 0 356 3
2022-06-25 23:09:50 GMT 40.651329 -73.781517 0 356 0
2022-06-25 23:09:49 GMT 40.651340 -73.781502 0 356 2
2022-06-25 23:09:47 GMT 40.651321 -73.781479 0 335 4
2022-06-25 23:09:46 GMT 40.651321 -73.781517 0 307 3
2022-06-25 23:09:45 GMT 40.651310 -73.781570 0 305 2
2022-06-25 23:09:43 GMT 40.651299 -73.781570 0 297 3
2022-06-25 23:09:41 GMT 40.651279 -73.781593 0 295 4
2022-06-25 23:09:39 GMT 40.651241 -73.781631 0 270 1
2022-06-25 23:09:38 GMT 40.651230 -73.781647 0 270 1
2022-06-25 23:09:37 GMT 40.651218 -73.781639 0 270 2
2022-06-25 23:09:35 GMT 40.651199 -73.781609 0 270 2
2022-06-25 23:09:34 GMT 40.651211 -73.781593 0 270 2
2022-06-25 23:09:33 GMT 40.651291 -73.781609 0 272 2
2022-06-25 23:09:31 GMT 40.651279 -73.781609 0 272 2
2022-06-25 23:09:29 GMT 40.651279 -73.781593 0 270 4
2022-06-25 23:09:28 GMT 40.651299 -73.781609 0 264 3
2022-06-25 23:09:27 GMT 40.651211 -73.781670 0 260 2
2022-06-25 23:09:25 GMT 40.651161 -73.781723 0 260 0
2022-06-25 23:09:24 GMT 40.651131 -73.781708 0 260 0
2022-06-25 23:09:23 GMT 40.651131 -73.781731 0 260 0
2022-06-25 23:09:21 GMT 40.651051 -73.781792 0 260 0
2022-06-25 23:09:20 GMT 40.651031 -73.781792 0 260 1
2022-06-25 23:09:17 GMT 40.651070 -73.781807 0 260 0
2022-06-25 23:09:15 GMT 40.651070 -73.781792 0 260 0
2022-06-25 23:09:14 GMT 40.651081 -73.781776 0 260 0
2022-06-25 23:09:13 GMT 40.651100 -73.781754 0 260 0
2022-06-25 23:09:10 GMT 40.651100 -73.781754 0 260 0
2022-06-25 23:09:09 GMT 40.651070 -73.781769 0 260 0
2022-06-25 23:09:05 GMT 40.651070 -73.781769 0 260 0
2022-06-25 23:09:04 GMT 40.651058 -73.781769 0 260 0
2022-06-25 23:09:03 GMT 40.651070 -73.781769 0 260 0
2022-06-25 23:09:01 GMT 40.651051 -73.781776 0 260 0
2022-06-25 23:08:58 GMT 40.651020 -73.781799 0 260 0
2022-06-25 23:08:57 GMT 40.651020 -73.781807 0 260 0
2022-06-25 23:08:55 GMT 40.651009 -73.781807 0 260 0
2022-06-25 23:08:51 GMT 40.651001 -73.781822 0 260 0
2022-06-25 23:08:49 GMT 40.650990 -73.781830 0 260 0
2022-06-25 23:08:47 GMT 40.650982 -73.781837 0 260 0
2022-06-25 23:08:44 GMT 40.650997 -73.781807 0 260 0
2022-06-25 23:08:41 GMT 40.650959 -73.781853 0 260 0
2022-06-25 23:08:39 GMT 40.650951 -73.781860 0 260 0
2022-06-25 23:08:38 GMT 40.650940 -73.781868 0 260 0
2022-06-25 23:08:34 GMT 40.650928 -73.781868 0 260 0
2022-06-25 23:08:33 GMT 40.650921 -73.781883 0 260 0
2022-06-25 23:08:32 GMT 40.650921 -73.781868 0 260 0
2022-06-25 23:08:29 GMT 40.650909 -73.781883 0 260 0
2022-06-25 23:08:28 GMT 40.650902 -73.781891 0 260 0
2022-06-25 23:08:27 GMT 40.650928 -73.781883 0 260 0
2022-06-25 23:08:22 GMT 40.650879 -73.781914 0 210 1
2022-06-25 23:08:13 GMT 40.650845 -73.781944 0 213 1
2022-06-25 23:08:02 GMT 40.650799 -73.781998 0 216 1
2022-06-25 23:05:35 GMT 40.650661 -73.782120 0 210 1
2022-06-25 23:05:26 GMT 40.650612 -73.782150 0 208 1
2022-06-25 23:05:17 GMT 40.650570 -73.782181 0 208 0

Making use of Plane Finder data

You are free to use the raw flight data, aircraft information and images provided in this report for your own purposes provided the data is correctly attributed to Plane Finder. We ask that you please credit Plane Finder and link to planefinder.net in close proximity to the content.

Optionally one of the following logos (no smaller then 150x24px) can be used and must link to planefinder.net

Embedding the Plane Finder map

You are welcome to embed the Plane Finder playback map on your website to offer visitors a more interactive experience. We suggest using the following HTML code:

<iframe src="//planefinder.net/data/report/AS393-N402AS-7700-squawk-2022-06-26/map" width="800" height="600" seamless="seamless"></iframe>

Where our data comes from

Plane Finder has a global network of data feeds and antenna radars that receive data broadcast directly from aircraft. The primary technologies used are ADS-B and MLAT. We also show feeds from the FAA and a FLARM glider feed.

Click here to find out more about the Plane Finder network.

How we collect our data